<?xml version='1.0' encoding='UTF-8'?><gpx version="1.1" creator="JPX - https://github.com/jenetics/jpx" xmlns="http://www.topografix.com/GPX/1/1"><trk><trkseg><trkpt lat="43.3760733" lon="11.7878"><ele>271.99999999999994</ele><time>2026-04-30T14:04:25.524Z</time></trkpt><trkpt lat="43.37601" lon="11.787765"><ele>272.0</ele><time>2026-04-30T14:04:29.524Z</time></trkpt><trkpt lat="43.375945" lon="11.7877383"><ele>272.0</ele><time>2026-04-30T14:04:35.522Z</time></trkpt><trkpt lat="43.3758667" lon="11.7877483"><ele>272.0</ele><time>2026-04-30T14:04:41.521Z</time></trkpt><trkpt lat="43.3758017" lon="11.7877517"><ele>272.0</ele><time>2026-04-30T14:04:45.522Z</time></trkpt><trkpt lat="43.375735" lon="11.7877333"><ele>271.99999999999994</ele><time>2026-04-30T14:04:49.518Z</time></trkpt><trkpt lat="43.3756667" lon="11.7877067"><ele>272.0</ele><time>2026-04-30T14:04:54.519Z</time></trkpt><trkpt lat="43.37561" lon="11.787665"><ele>272.1428571428571</ele><time>2026-04-30T14:04:58.519Z</time></trkpt><trkpt lat="43.37556" lon="11.78761"><ele>272.2857142857143</ele><time>2026-04-30T14:05:03.521Z</time></trkpt><trkpt lat="43.37549" lon="11.787595"><ele>272.42857142857144</ele><time>2026-04-30T14:05:17.523Z</time></trkpt><trkpt lat="43.3754667" lon="11.787495"><ele>272.57142857142856</ele><time>2026-04-30T14:05:26.523Z</time></trkpt><trkpt lat="43.3754533" lon="11.787395"><ele>272.7142857142857</ele><time>2026-04-30T14:05:30.523Z</time></trkpt><trkpt lat="43.3754617" lon="11.787305"><ele>272.85714285714283</ele><time>2026-04-30T14:05:34.518Z</time></trkpt><trkpt lat="43.3754617" lon="11.7872017"><ele>273.0</ele><time>2026-04-30T14:05:38.52Z</time></trkpt><trkpt lat="43.37546" lon="11.7871"><ele>273.3333333333333</ele><time>2026-04-30T14:05:42.523Z</time></trkpt><trkpt lat="43.3754583" lon="11.7869817"><ele>273.6666666666667</ele><time>2026-04-30T14:05:48.522Z</time></trkpt><trkpt lat="43.3754683" lon="11.7868783"><ele>274.0</ele><time>2026-04-30T14:05:53.521Z</time></trkpt><trkpt lat="43.3754683" lon="11.7867783"><ele>274.33333333333337</ele><time>2026-04-30T14:05:57.522Z</time></trkpt><trkpt lat="43.3754483" lon="11.786685"><ele>274.6666666666667</ele><time>2026-04-30T14:06:02.523Z</time></trkpt><trkpt lat="43.375375" lon="11.78667"><ele>275.0</ele><time>2026-04-30T14:06:09.521Z</time></trkpt><trkpt lat="43.3753017" lon="11.786715"><ele>275.0</ele><time>2026-04-30T14:06:13.521Z</time></trkpt><trkpt lat="43.3752483" lon="11.7867683"><ele>275.0</ele><time>2026-04-30T14:06:16.521Z</time></trkpt><trkpt lat="43.375195" lon="11.78683"><ele>275.0</ele><time>2026-04-30T14:06:19.52Z</time></trkpt><trkpt lat="43.3751367" lon="11.7868833"><ele>275.0</ele><time>2026-04-30T14:06:22.52Z</time></trkpt><trkpt lat="43.3750817" lon="11.7869433"><ele>275.0</ele><time>2026-04-30T14:06:25.523Z</time></trkpt><trkpt lat="43.3750217" lon="11.7870117"><ele>275.0</ele><time>2026-04-30T14:06:28.523Z</time></trkpt><trkpt lat="43.3749567" lon="11.7870833"><ele>275.0</ele><time>2026-04-30T14:06:31.52Z</time></trkpt><trkpt lat="43.3748883" lon="11.7871483"><ele>275.0</ele><time>2026-04-30T14:06:34.521Z</time></trkpt><trkpt lat="43.3748133" lon="11.7872017"><ele>275.0</ele><time>2026-04-30T14:06:37.526Z</time></trkpt><trkpt lat="43.3747317" lon="11.7872367"><ele>275.0</ele><time>2026-04-30T14:06:40.521Z</time></trkpt><trkpt lat="43.3746483" lon="11.787265"><ele>275.0</ele><time>2026-04-30T14:06:43.519Z</time></trkpt><trkpt lat="43.3745617" lon="11.787275"><ele>275.0</ele><time>2026-04-30T14:06:46.522Z</time></trkpt><trkpt lat="43.37448" lon="11.7872683"><ele>275.0</ele><time>2026-04-30T14:06:49.52Z</time></trkpt><trkpt lat="43.3744083" lon="11.787265"><ele>275.1666666666667</ele><time>2026-04-30T14:06:51.521Z</time></trkpt><trkpt lat="43.3743283" lon="11.7872567"><ele>275.33333333333337</ele><time>2026-04-30T14:06:53.519Z</time></trkpt><trkpt lat="43.3742467" lon="11.7872433"><ele>275.5</ele><time>2026-04-30T14:06:55.521Z</time></trkpt><trkpt lat="43.37417" lon="11.7872317"><ele>275.6666666666667</ele><time>2026-04-30T14:06:57.518Z</time></trkpt><trkpt lat="43.3740933" lon="11.7872267"><ele>275.8333333333333</ele><time>2026-04-30T14:06:59.518Z</time></trkpt><trkpt lat="43.3740133" lon="11.787215"><ele>276.0</ele><time>2026-04-30T14:07:01.523Z</time></trkpt><trkpt lat="43.3739317" lon="11.7871983"><ele>275.8333333333333</ele><time>2026-04-30T14:07:03.522Z</time></trkpt><trkpt lat="43.3738483" lon="11.787185"><ele>275.6666666666667</ele><time>2026-04-30T14:07:05.52Z</time></trkpt><trkpt lat="43.373765" lon="11.787175"><ele>275.5</ele><time>2026-04-30T14:07:07.521Z</time></trkpt><trkpt lat="43.37368" lon="11.7871633"><ele>275.33333333333337</ele><time>2026-04-30T14:07:09.521Z</time></trkpt><trkpt lat="43.3736" lon="11.7871533"><ele>275.1666666666667</ele><time>2026-04-30T14:07:11.52Z</time></trkpt><trkpt lat="43.3735217" lon="11.7871417"><ele>275.0</ele><time>2026-04-30T14:07:13.523Z</time></trkpt><trkpt lat="43.3734417" lon="11.787135"><ele>275.0</ele><time>2026-04-30T14:07:15.519Z</time></trkpt><trkpt lat="43.3733617" lon="11.787125"><ele>275.0</ele><time>2026-04-30T14:07:17.52Z</time></trkpt><trkpt lat="43.3732833" lon="11.7871333"><ele>275.0</ele><time>2026-04-30T14:07:19.521Z</time></trkpt><trkpt lat="43.3732033" lon="11.7871183"><ele>275.0</ele><time>2026-04-30T14:07:21.522Z</time></trkpt><trkpt lat="43.373125" lon="11.7871033"><ele>275.0</ele><time>2026-04-30T14:07:23.524Z</time></trkpt><trkpt lat="43.3730433" lon="11.7870917"><ele>275.0</ele><time>2026-04-30T14:07:25.52Z</time></trkpt><trkpt lat="43.3729667" lon="11.7870767"><ele>275.1666666666667</ele><time>2026-04-30T14:07:27.52Z</time></trkpt><trkpt lat="43.3728517" lon="11.787065"><ele>275.33333333333337</ele><time>2026-04-30T14:07:30.52Z</time></trkpt><trkpt lat="43.3727767" lon="11.7870533"><ele>275.5</ele><time>2026-04-30T14:07:32.521Z</time></trkpt><trkpt lat="43.3727017" lon="11.787045"><ele>275.6666666666667</ele><time>2026-04-30T14:07:34.52Z</time></trkpt><trkpt lat="43.3726167" lon="11.7870333"><ele>275.8333333333333</ele><time>2026-04-30T14:07:36.522Z</time></trkpt><trkpt lat="43.3725317" lon="11.7870217"><ele>276.0</ele><time>2026-04-30T14:07:38.523Z</time></trkpt><trkpt lat="43.3724483" lon="11.7870117"><ele>276.0</ele><time>2026-04-30T14:07:40.519Z</time></trkpt><trkpt lat="43.3723667" lon="11.7869983"><ele>276.0</ele><time>2026-04-30T14:07:42.52Z</time></trkpt><trkpt lat="43.372285" lon="11.7869867"><ele>276.0</ele><time>2026-04-30T14:07:44.524Z</time></trkpt><trkpt lat="43.3722067" lon="11.7869717"><ele>276.0</ele><time>2026-04-30T14:07:46.52Z</time></trkpt><trkpt lat="43.3721267" lon="11.7869633"><ele>276.0</ele><time>2026-04-30T14:07:48.522Z</time></trkpt><trkpt lat="43.3720533" lon="11.78696"><ele>276.0</ele><time>2026-04-30T14:07:50.522Z</time></trkpt><trkpt lat="43.3719717" lon="11.7869483"><ele>276.3333333333333</ele><time>2026-04-30T14:07:52.519Z</time></trkpt><trkpt lat="43.37189" lon="11.7869367"><ele>276.6666666666667</ele><time>2026-04-30T14:07:54.522Z</time></trkpt><trkpt lat="43.3718133" lon="11.7869283"><ele>277.0</ele><time>2026-04-30T14:07:56.522Z</time></trkpt><trkpt lat="43.3717367" lon="11.7869183"><ele>277.33333333333337</ele><time>2026-04-30T14:07:58.52Z</time></trkpt><trkpt lat="43.3716617" lon="11.786905"><ele>277.6666666666667</ele><time>2026-04-30T14:08:00.525Z</time></trkpt><trkpt lat="43.3715883" lon="11.786905"><ele>278.0</ele><time>2026-04-30T14:08:02.521Z</time></trkpt><trkpt lat="43.37151" lon="11.7869017"><ele>278.0</ele><time>2026-04-30T14:08:04.521Z</time></trkpt><trkpt lat="43.3714333" lon="11.786885"><ele>278.0</ele><time>2026-04-30T14:08:06.52Z</time></trkpt><trkpt lat="43.3713583" lon="11.7868683"><ele>278.0</ele><time>2026-04-30T14:08:08.521Z</time></trkpt><trkpt lat="43.3712833" lon="11.78685"><ele>278.0</ele><time>2026-04-30T14:08:10.52Z</time></trkpt><trkpt lat="43.371205" lon="11.7868333"><ele>278.0</ele><time>2026-04-30T14:08:12.522Z</time></trkpt><trkpt lat="43.3711283" lon="11.7868233"><ele>278.0</ele><time>2026-04-30T14:08:14.519Z</time></trkpt><trkpt lat="43.3710467" lon="11.7868167"><ele>277.83333333333337</ele><time>2026-04-30T14:08:16.52Z</time></trkpt><trkpt lat="43.370965" lon="11.78681"><ele>277.6666666666667</ele><time>2026-04-30T14:08:18.523Z</time></trkpt><trkpt lat="43.3708883" lon="11.7868117"><ele>277.5</ele><time>2026-04-30T14:08:20.522Z</time></trkpt><trkpt lat="43.3708083" lon="11.7868133"><ele>277.3333333333333</ele><time>2026-04-30T14:08:22.525Z</time></trkpt><trkpt lat="43.3707317" lon="11.78678"><ele>277.16666666666663</ele><time>2026-04-30T14:08:24.521Z</time></trkpt><trkpt lat="43.370655" lon="11.7867433"><ele>277.0</ele><time>2026-04-30T14:08:26.522Z</time></trkpt><trkpt lat="43.370565" lon="11.7866983"><ele>277.16666666666663</ele><time>2026-04-30T14:08:28.517Z</time></trkpt><trkpt lat="43.3704783" lon="11.786665"><ele>277.3333333333333</ele><time>2026-04-30T14:08:30.52Z</time></trkpt><trkpt lat="43.3704083" lon="11.7866383"><ele>277.5</ele><time>2026-04-30T14:08:32.525Z</time></trkpt><trkpt lat="43.37033" lon="11.7865983"><ele>277.6666666666667</ele><time>2026-04-30T14:08:34.521Z</time></trkpt><trkpt lat="43.3702583" lon="11.7865567"><ele>277.83333333333337</ele><time>2026-04-30T14:08:36.52Z</time></trkpt><trkpt lat="43.37018" lon="11.7865217"><ele>278.0</ele><time>2026-04-30T14:08:38.521Z</time></trkpt><trkpt lat="43.3700683" lon="11.7864667"><ele>278.0</ele><time>2026-04-30T14:08:41.521Z</time></trkpt><trkpt lat="43.3699933" lon="11.786425"><ele>278.0</ele><time>2026-04-30T14:08:43.523Z</time></trkpt><trkpt lat="43.3699133" lon="11.786395"><ele>278.0</ele><time>2026-04-30T14:08:45.524Z</time></trkpt><trkpt lat="43.3698317" lon="11.7863683"><ele>278.0</ele><time>2026-04-30T14:08:47.521Z</time></trkpt><trkpt lat="43.3697383" lon="11.7863417"><ele>278.0</ele><time>2026-04-30T14:08:49.524Z</time></trkpt><trkpt lat="43.3696583" lon="11.7863133"><ele>278.0</ele><time>2026-04-30T14:08:51.522Z</time></trkpt><trkpt lat="43.36958" lon="11.786295"><ele>277.83333333333337</ele><time>2026-04-30T14:08:53.522Z</time></trkpt><trkpt lat="43.3695" lon="11.7862767"><ele>277.6666666666667</ele><time>2026-04-30T14:08:55.524Z</time></trkpt><trkpt lat="43.3694167" lon="11.7862567"><ele>277.5</ele><time>2026-04-30T14:08:57.519Z</time></trkpt><trkpt lat="43.3693317" lon="11.786235"><ele>277.3333333333333</ele><time>2026-04-30T14:08:59.52Z</time></trkpt><trkpt lat="43.369245" lon="11.7862167"><ele>277.16666666666663</ele><time>2026-04-30T14:09:01.521Z</time></trkpt><trkpt lat="43.3691667" lon="11.786205"><ele>277.0</ele><time>2026-04-30T14:09:03.519Z</time></trkpt><trkpt lat="43.369085" lon="11.7861883"><ele>277.0</ele><time>2026-04-30T14:09:05.52Z</time></trkpt><trkpt lat="43.369005" lon="11.7861817"><ele>277.0</ele><time>2026-04-30T14:09:07.523Z</time></trkpt><trkpt lat="43.3689217" lon="11.7861633"><ele>277.0</ele><time>2026-04-30T14:09:09.521Z</time></trkpt><trkpt lat="43.36884" lon="11.7861467"><ele>277.0</ele><time>2026-04-30T14:09:11.523Z</time></trkpt><trkpt lat="43.3687617" lon="11.7861267"><ele>277.0</ele><time>2026-04-30T14:09:13.521Z</time></trkpt><trkpt lat="43.3686783" lon="11.78611"><ele>277.0</ele><time>2026-04-30T14:09:15.522Z</time></trkpt><trkpt lat="43.3686017" lon="11.7860967"><ele>277.0</ele><time>2026-04-30T14:09:17.524Z</time></trkpt><trkpt lat="43.36852" lon="11.7860767"><ele>277.0</ele><time>2026-04-30T14:09:19.522Z</time></trkpt><trkpt lat="43.36844" lon="11.7860517"><ele>277.0</ele><time>2026-04-30T14:09:21.522Z</time></trkpt><trkpt lat="43.3683633" lon="11.786035"><ele>277.0</ele><time>2026-04-30T14:09:23.521Z</time></trkpt><trkpt lat="43.3682817" lon="11.7860217"><ele>277.0</ele><time>2026-04-30T14:09:25.523Z</time></trkpt><trkpt lat="43.3682" lon="11.7860033"><ele>277.0</ele><time>2026-04-30T14:09:27.521Z</time></trkpt><trkpt lat="43.3681183" lon="11.785985"><ele>277.0</ele><time>2026-04-30T14:09:29.523Z</time></trkpt><trkpt lat="43.3680383" lon="11.7859767"><ele>277.0</ele><time>2026-04-30T14:09:31.525Z</time></trkpt><trkpt lat="43.3679533" lon="11.78596"><ele>277.0</ele><time>2026-04-30T14:09:33.52Z</time></trkpt><trkpt lat="43.3678683" lon="11.7859533"><ele>277.0</ele><time>2026-04-30T14:09:35.524Z</time></trkpt><trkpt lat="43.3677833" lon="11.7859333"><ele>277.0</ele><time>2026-04-30T14:09:37.521Z</time></trkpt><trkpt lat="43.3677" lon="11.7859117"><ele>277.0</ele><time>2026-04-30T14:09:39.522Z</time></trkpt><trkpt lat="43.3676217" lon="11.7858767"><ele>277.16666666666663</ele><time>2026-04-30T14:09:41.525Z</time></trkpt><trkpt lat="43.3675467" lon="11.7858333"><ele>277.3333333333333</ele><time>2026-04-30T14:09:43.521Z</time></trkpt><trkpt lat="43.367475" lon="11.7858017"><ele>277.5</ele><time>2026-04-30T14:09:45.524Z</time></trkpt><trkpt lat="43.3673983" lon="11.7857717"><ele>277.6666666666667</ele><time>2026-04-30T14:09:47.526Z</time></trkpt><trkpt lat="43.367325" lon="11.7857633"><ele>277.83333333333337</ele><time>2026-04-30T14:09:49.516Z</time></trkpt><trkpt lat="43.3672217" lon="11.7857117"><ele>278.0</ele><time>2026-04-30T14:09:51.517Z</time></trkpt><trkpt lat="43.36714" lon="11.7856717"><ele>278.33333333333337</ele><time>2026-04-30T14:09:53.521Z</time></trkpt><trkpt lat="43.36706" lon="11.7856333"><ele>278.6666666666667</ele><time>2026-04-30T14:09:55.52Z</time></trkpt><trkpt lat="43.3669783" lon="11.7855967"><ele>279.0</ele><time>2026-04-30T14:09:57.521Z</time></trkpt><trkpt lat="43.3668933" lon="11.7855617"><ele>279.3333333333333</ele><time>2026-04-30T14:09:59.522Z</time></trkpt><trkpt lat="43.3668133" lon="11.7855267"><ele>279.66666666666663</ele><time>2026-04-30T14:10:01.521Z</time></trkpt><trkpt lat="43.3667333" lon="11.7854867"><ele>280.0</ele><time>2026-04-30T14:10:03.52Z</time></trkpt><trkpt lat="43.3666533" lon="11.7854483"><ele>280.0</ele><time>2026-04-30T14:10:05.521Z</time></trkpt><trkpt lat="43.3665733" lon="11.7854133"><ele>280.0</ele><time>2026-04-30T14:10:07.52Z</time></trkpt><trkpt lat="43.3665033" lon="11.7853767"><ele>280.0</ele><time>2026-04-30T14:10:09.525Z</time></trkpt><trkpt lat="43.3664167" lon="11.78536"><ele>280.0</ele><time>2026-04-30T14:10:11.52Z</time></trkpt><trkpt lat="43.366315" lon="11.7853417"><ele>280.0</ele><time>2026-04-30T14:10:13.522Z</time></trkpt><trkpt lat="43.3662283" lon="11.7853283"><ele>280.0</ele><time>2026-04-30T14:10:15.522Z</time></trkpt><trkpt lat="43.3661433" lon="11.7853217"><ele>279.8</ele><time>2026-04-30T14:10:17.52Z</time></trkpt><trkpt lat="43.3660617" lon="11.7853117"><ele>279.6</ele><time>2026-04-30T14:10:19.521Z</time></trkpt><trkpt lat="43.3659717" lon="11.7853033"><ele>279.4</ele><time>2026-04-30T14:10:21.521Z</time></trkpt><trkpt lat="43.36587" lon="11.7852983"><ele>279.2</ele><time>2026-04-30T14:10:23.52Z</time></trkpt><trkpt lat="43.3657567" lon="11.7853017"><ele>279.0</ele><time>2026-04-30T14:10:25.521Z</time></trkpt><trkpt lat="43.3656667" lon="11.7853133"><ele>279.0</ele><time>2026-04-30T14:10:27.522Z</time></trkpt><trkpt lat="43.36557" lon="11.78532"><ele>279.0</ele><time>2026-04-30T14:10:29.523Z</time></trkpt><trkpt lat="43.3654717" lon="11.78533"><ele>279.0</ele><time>2026-04-30T14:10:31.525Z</time></trkpt><trkpt lat="43.365375" lon="11.7853433"><ele>279.0</ele><time>2026-04-30T14:10:33.519Z</time></trkpt><trkpt lat="43.3652667" lon="11.7853583"><ele>279.0</ele><time>2026-04-30T14:10:35.525Z</time></trkpt><trkpt lat="43.3651533" lon="11.785365"><ele>279.0</ele><time>2026-04-30T14:10:37.523Z</time></trkpt><trkpt lat="43.3650383" lon="11.7853733"><ele>279.0</ele><time>2026-04-30T14:10:39.525Z</time></trkpt><trkpt lat="43.3649233" lon="11.78538"><ele>279.0</ele><time>2026-04-30T14:10:41.521Z</time></trkpt><trkpt lat="43.3648067" lon="11.7853817"><ele>279.0</ele><time>2026-04-30T14:10:43.521Z</time></trkpt><trkpt lat="43.3646933" lon="11.78538"><ele>279.0</ele><time>2026-04-30T14:10:45.521Z</time></trkpt><trkpt lat="43.3645867" lon="11.7853717"><ele>279.0</ele><time>2026-04-30T14:10:47.523Z</time></trkpt><trkpt lat="43.3644867" lon="11.7853233"><ele>279.0</ele><time>2026-04-30T14:10:49.521Z</time></trkpt><trkpt lat="43.3643933" lon="11.7852633"><ele>279.0</ele><time>2026-04-30T14:10:51.522Z</time></trkpt><trkpt lat="43.3643033" lon="11.7852017"><ele>279.0</ele><time>2026-04-30T14:10:53.521Z</time></trkpt><trkpt lat="43.36422" lon="11.7851433"><ele>279.1428571428571</ele><time>2026-04-30T14:10:55.52Z</time></trkpt><trkpt lat="43.3641483" lon="11.7850917"><ele>279.2857142857143</ele><time>2026-04-30T14:10:57.524Z</time></trkpt><trkpt lat="43.36408" lon="11.7850467"><ele>279.42857142857144</ele><time>2026-04-30T14:10:59.521Z</time></trkpt><trkpt lat="43.3640183" lon="11.785005"><ele>279.57142857142856</ele><time>2026-04-30T14:11:01.525Z</time></trkpt><trkpt lat="43.3639567" lon="11.7849667"><ele>279.7142857142857</ele><time>2026-04-30T14:11:03.521Z</time></trkpt><trkpt lat="43.3638933" lon="11.78493"><ele>279.85714285714283</ele><time>2026-04-30T14:11:05.52Z</time></trkpt><trkpt lat="43.3638317" lon="11.7848917"><ele>280.0</ele><time>2026-04-30T14:11:07.522Z</time></trkpt><trkpt lat="43.3637733" lon="11.7848567"><ele>280.16666666666663</ele><time>2026-04-30T14:11:09.521Z</time></trkpt><trkpt lat="43.36371" lon="11.784825"><ele>280.3333333333333</ele><time>2026-04-30T14:11:11.521Z</time></trkpt><trkpt lat="43.3636433" lon="11.7848"><ele>280.5</ele><time>2026-04-30T14:11:13.523Z</time></trkpt><trkpt lat="43.3635667" lon="11.7847683"><ele>280.6666666666667</ele><time>2026-04-30T14:11:15.522Z</time></trkpt><trkpt lat="43.3634917" lon="11.7847383"><ele>280.83333333333337</ele><time>2026-04-30T14:11:17.523Z</time></trkpt><trkpt lat="43.36341" lon="11.7847117"><ele>281.0</ele><time>2026-04-30T14:11:19.524Z</time></trkpt><trkpt lat="43.3633383" lon="11.78468"><ele>281.00000000000006</ele><time>2026-04-30T14:11:21.523Z</time></trkpt><trkpt lat="43.3632717" lon="11.7846517"><ele>281.0</ele><time>2026-04-30T14:11:23.52Z</time></trkpt><trkpt lat="43.3632" lon="11.7846233"><ele>281.0</ele><time>2026-04-30T14:11:25.523Z</time></trkpt><trkpt lat="43.3631333" lon="11.7846017"><ele>281.0</ele><time>2026-04-30T14:11:27.52Z</time></trkpt><trkpt lat="43.3630717" lon="11.7845717"><ele>281.0</ele><time>2026-04-30T14:11:29.52Z</time></trkpt><trkpt lat="43.3630017" lon="11.7845433"><ele>281.00000000000006</ele><time>2026-04-30T14:11:31.522Z</time></trkpt><trkpt lat="43.362925" lon="11.784515"><ele>281.0</ele><time>2026-04-30T14:11:33.524Z</time></trkpt><trkpt lat="43.3628533" lon="11.7844917"><ele>281.33333333333337</ele><time>2026-04-30T14:11:35.523Z</time></trkpt><trkpt lat="43.362785" lon="11.7844617"><ele>281.6666666666667</ele><time>2026-04-30T14:11:37.521Z</time></trkpt><trkpt lat="43.3627133" lon="11.784435"><ele>282.0</ele><time>2026-04-30T14:11:39.521Z</time></trkpt><trkpt lat="43.3626467" lon="11.78441"><ele>282.3333333333333</ele><time>2026-04-30T14:11:41.522Z</time></trkpt><trkpt lat="43.36255" lon="11.7843867"><ele>282.66666666666663</ele><time>2026-04-30T14:11:44.525Z</time></trkpt><trkpt lat="43.3624817" lon="11.7843617"><ele>283.0</ele><time>2026-04-30T14:11:46.52Z</time></trkpt><trkpt lat="43.3624117" lon="11.7843367"><ele>283.0</ele><time>2026-04-30T14:11:48.524Z</time></trkpt><trkpt lat="43.3623233" lon="11.7843017"><ele>283.0</ele><time>2026-04-30T14:11:50.522Z</time></trkpt><trkpt lat="43.3622533" lon="11.78427"><ele>283.0</ele><time>2026-04-30T14:11:52.521Z</time></trkpt><trkpt lat="43.3621833" lon="11.7842433"><ele>283.0</ele><time>2026-04-30T14:11:54.522Z</time></trkpt><trkpt lat="43.3621167" lon="11.7842183"><ele>283.0</ele><time>2026-04-30T14:11:56.519Z</time></trkpt><trkpt lat="43.3620467" lon="11.7841917"><ele>283.0</ele><time>2026-04-30T14:11:58.521Z</time></trkpt><trkpt lat="43.361975" lon="11.784165"><ele>283.0</ele><time>2026-04-30T14:12:00.523Z</time></trkpt><trkpt lat="43.3618983" lon="11.7841417"><ele>283.0</ele><time>2026-04-30T14:12:02.524Z</time></trkpt><trkpt lat="43.36182" lon="11.7841283"><ele>283.0</ele><time>2026-04-30T14:12:04.521Z</time></trkpt><trkpt lat="43.36174" lon="11.78412"><ele>283.0</ele><time>2026-04-30T14:12:06.525Z</time></trkpt><trkpt lat="43.3616633" lon="11.78412"><ele>283.0</ele><time>2026-04-30T14:12:08.52Z</time></trkpt><trkpt lat="43.3615767" lon="11.7841317"><ele>283.0</ele><time>2026-04-30T14:12:10.521Z</time></trkpt><trkpt lat="43.3615017" lon="11.7841517"><ele>283.0</ele><time>2026-04-30T14:12:12.521Z</time></trkpt><trkpt lat="43.3614167" lon="11.7841633"><ele>283.0</ele><time>2026-04-30T14:12:14.52Z</time></trkpt><trkpt lat="43.361345" lon="11.7841783"><ele>283.0</ele><time>2026-04-30T14:12:16.521Z</time></trkpt><trkpt lat="43.3612717" lon="11.7841933"><ele>283.0</ele><time>2026-04-30T14:12:18.522Z</time></trkpt><trkpt lat="43.361195" lon="11.7842117"><ele>283.0</ele><time>2026-04-30T14:12:20.525Z</time></trkpt><trkpt lat="43.3611217" lon="11.7842267"><ele>283.0</ele><time>2026-04-30T14:12:22.52Z</time></trkpt><trkpt lat="43.3610483" lon="11.78423"><ele>283.3333333333333</ele><time>2026-04-30T14:12:24.522Z</time></trkpt><trkpt lat="43.3609767" lon="11.7841883"><ele>283.66666666666663</ele><time>2026-04-30T14:12:26.523Z</time></trkpt><trkpt lat="43.3609167" lon="11.7841017"><ele>284.0</ele><time>2026-04-30T14:12:28.522Z</time></trkpt><trkpt lat="43.3608683" lon="11.7840267"><ele>284.3333333333333</ele><time>2026-04-30T14:12:30.521Z</time></trkpt><trkpt lat="43.3608267" lon="11.7839333"><ele>284.6666666666667</ele><time>2026-04-30T14:12:32.522Z</time></trkpt><trkpt lat="43.3607667" lon="11.7838333"><ele>285.0</ele><time>2026-04-30T14:12:34.518Z</time></trkpt><trkpt lat="43.360715" lon="11.7837317"><ele>285.0</ele><time>2026-04-30T14:12:36.519Z</time></trkpt><trkpt lat="43.3606583" lon="11.7836367"><ele>285.0</ele><time>2026-04-30T14:12:38.524Z</time></trkpt><trkpt lat="43.3606" lon="11.7835383"><ele>285.0</ele><time>2026-04-30T14:12:40.519Z</time></trkpt><trkpt lat="43.3605417" lon="11.7834433"><ele>285.0</ele><time>2026-04-30T14:12:42.52Z</time></trkpt><trkpt lat="43.360485" lon="11.783345"><ele>285.0</ele><time>2026-04-30T14:12:44.524Z</time></trkpt><trkpt lat="43.3604283" lon="11.7832467"><ele>285.0</ele><time>2026-04-30T14:12:46.521Z</time></trkpt><trkpt lat="43.3603683" lon="11.7831517"><ele>285.0</ele><time>2026-04-30T14:12:48.521Z</time></trkpt><trkpt lat="43.3603067" lon="11.7830567"><ele>285.0</ele><time>2026-04-30T14:12:50.523Z</time></trkpt><trkpt lat="43.3602383" lon="11.7829733"><ele>285.0</ele><time>2026-04-30T14:12:52.524Z</time></trkpt><trkpt lat="43.3601667" lon="11.7828917"><ele>285.0</ele><time>2026-04-30T14:12:54.519Z</time></trkpt><trkpt lat="43.3600917" lon="11.782815"><ele>285.0</ele><time>2026-04-30T14:12:56.521Z</time></trkpt><trkpt lat="43.3599983" lon="11.7827467"><ele>285.0</ele><time>2026-04-30T14:12:58.519Z</time></trkpt><trkpt lat="43.3599167" lon="11.7826833"><ele>285.0</ele><time>2026-04-30T14:13:00.521Z</time></trkpt><trkpt lat="43.3598383" lon="11.7826217"><ele>285.0</ele><time>2026-04-30T14:13:02.526Z</time></trkpt><trkpt lat="43.3597533" lon="11.7825633"><ele>285.0</ele><time>2026-04-30T14:13:04.522Z</time></trkpt><trkpt lat="43.3596633" lon="11.782515"><ele>285.0</ele><time>2026-04-30T14:13:06.519Z</time></trkpt><trkpt lat="43.35957" lon="11.78247"><ele>285.0</ele><time>2026-04-30T14:13:08.52Z</time></trkpt><trkpt lat="43.359475" lon="11.7824217"><ele>285.0</ele><time>2026-04-30T14:13:10.521Z</time></trkpt><trkpt lat="43.3593833" lon="11.7823733"><ele>285.0</ele><time>2026-04-30T14:13:12.521Z</time></trkpt><trkpt lat="43.3592883" lon="11.78232"><ele>285.0</ele><time>2026-04-30T14:13:14.522Z</time></trkpt><trkpt lat="43.3591933" lon="11.7822633"><ele>285.0</ele><time>2026-04-30T14:13:16.518Z</time></trkpt><trkpt lat="43.35911" lon="11.7822117"><ele>285.0</ele><time>2026-04-30T14:13:18.525Z</time></trkpt><trkpt lat="43.35901" lon="11.782165"><ele>285.0</ele><time>2026-04-30T14:13:20.521Z</time></trkpt><trkpt lat="43.35892" lon="11.7821167"><ele>285.0</ele><time>2026-04-30T14:13:22.524Z</time></trkpt><trkpt lat="43.358835" lon="11.7820733"><ele>285.0</ele><time>2026-04-30T14:13:24.524Z</time></trkpt><trkpt lat="43.3587533" lon="11.782025"><ele>285.4</ele><time>2026-04-30T14:13:26.52Z</time></trkpt><trkpt lat="43.3586667" lon="11.7819783"><ele>285.8</ele><time>2026-04-30T14:13:28.521Z</time></trkpt><trkpt lat="43.3585733" lon="11.7819367"><ele>286.2</ele><time>2026-04-30T14:13:30.522Z</time></trkpt><trkpt lat="43.3584917" lon="11.7818883"><ele>286.6</ele><time>2026-04-30T14:13:32.521Z</time></trkpt><trkpt lat="43.3584033" lon="11.7818467"><ele>287.0</ele><time>2026-04-30T14:13:34.522Z</time></trkpt><trkpt lat="43.3583133" lon="11.7818067"><ele>287.0</ele><time>2026-04-30T14:13:36.523Z</time></trkpt><trkpt lat="43.3582283" lon="11.781765"><ele>287.0</ele><time>2026-04-30T14:13:38.523Z</time></trkpt><trkpt lat="43.35813" lon="11.7817267"><ele>287.0</ele><time>2026-04-30T14:13:40.518Z</time></trkpt><trkpt lat="43.3580383" lon="11.78169"><ele>287.0</ele><time>2026-04-30T14:13:42.523Z</time></trkpt><trkpt lat="43.3579467" lon="11.78165"><ele>287.0</ele><time>2026-04-30T14:13:44.525Z</time></trkpt><trkpt lat="43.357855" lon="11.781605"><ele>287.2</ele><time>2026-04-30T14:13:46.521Z</time></trkpt><trkpt lat="43.3577717" lon="11.78156"><ele>287.4</ele><time>2026-04-30T14:13:48.521Z</time></trkpt><trkpt lat="43.3576667" lon="11.7815133"><ele>287.6</ele><time>2026-04-30T14:13:50.519Z</time></trkpt><trkpt lat="43.35756" lon="11.7814767"><ele>287.8</ele><time>2026-04-30T14:13:52.519Z</time></trkpt><trkpt lat="43.3574683" lon="11.7814483"><ele>288.0</ele><time>2026-04-30T14:13:54.524Z</time></trkpt><trkpt lat="43.3573683" lon="11.7814033"><ele>288.0</ele><time>2026-04-30T14:13:56.519Z</time></trkpt><trkpt lat="43.3572833" lon="11.7813617"><ele>288.0</ele><time>2026-04-30T14:13:58.52Z</time></trkpt><trkpt lat="43.3571967" lon="11.7813267"><ele>288.0</ele><time>2026-04-30T14:14:00.524Z</time></trkpt><trkpt lat="43.3571083" lon="11.7812933"><ele>288.0</ele><time>2026-04-30T14:14:02.519Z</time></trkpt><trkpt lat="43.3570217" lon="11.7812483"><ele>288.0</ele><time>2026-04-30T14:14:04.522Z</time></trkpt><trkpt lat="43.3569233" lon="11.7812267"><ele>288.0</ele><time>2026-04-30T14:14:06.527Z</time></trkpt><trkpt lat="43.3568217" lon="11.7811983"><ele>288.0</ele><time>2026-04-30T14:14:08.522Z</time></trkpt><trkpt lat="43.356725" lon="11.7811717"><ele>288.0</ele><time>2026-04-30T14:14:10.522Z</time></trkpt><trkpt lat="43.3566367" lon="11.7811433"><ele>288.0</ele><time>2026-04-30T14:14:12.523Z</time></trkpt><trkpt lat="43.3565433" lon="11.7811283"><ele>288.0</ele><time>2026-04-30T14:14:14.524Z</time></trkpt><trkpt lat="43.35644" lon="11.781115"><ele>287.8</ele><time>2026-04-30T14:14:16.523Z</time></trkpt><trkpt lat="43.3563367" lon="11.7810967"><ele>287.6</ele><time>2026-04-30T14:14:18.524Z</time></trkpt><trkpt lat="43.3562317" lon="11.7810883"><ele>287.4</ele><time>2026-04-30T14:14:20.52Z</time></trkpt><trkpt lat="43.356135" lon="11.7810783"><ele>287.2</ele><time>2026-04-30T14:14:22.52Z</time></trkpt><trkpt lat="43.3560367" lon="11.78106"><ele>287.0</ele><time>2026-04-30T14:14:24.521Z</time></trkpt><trkpt lat="43.3559483" lon="11.78103"><ele>287.1666666666667</ele><time>2026-04-30T14:14:26.521Z</time></trkpt><trkpt lat="43.355865" lon="11.7809967"><ele>287.33333333333337</ele><time>2026-04-30T14:14:28.523Z</time></trkpt><trkpt lat="43.3557767" lon="11.780965"><ele>287.5</ele><time>2026-04-30T14:14:30.527Z</time></trkpt><trkpt lat="43.3556883" lon="11.7809367"><ele>287.6666666666667</ele><time>2026-04-30T14:14:32.52Z</time></trkpt><trkpt lat="43.3556033" lon="11.7809317"><ele>287.8333333333333</ele><time>2026-04-30T14:14:34.522Z</time></trkpt><trkpt lat="43.3555333" lon="11.7810033"><ele>288.0</ele><time>2026-04-30T14:14:36.523Z</time></trkpt><trkpt lat="43.355505" lon="11.7811317"><ele>288.0</ele><time>2026-04-30T14:14:38.521Z</time></trkpt><trkpt lat="43.3555283" lon="11.7812917"><ele>288.0</ele><time>2026-04-30T14:14:40.519Z</time></trkpt><trkpt lat="43.35555" lon="11.78139"><ele>288.0</ele><time>2026-04-30T14:14:41.521Z</time></trkpt><trkpt lat="43.3555783" lon="11.7814967"><ele>288.0</ele><time>2026-04-30T14:14:42.527Z</time></trkpt><trkpt lat="43.3556017" lon="11.7815917"><ele>288.0</ele><time>2026-04-30T14:14:43.522Z</time></trkpt><trkpt lat="43.3556233" lon="11.781685"><ele>288.0</ele><time>2026-04-30T14:14:44.523Z</time></trkpt><trkpt lat="43.3556417" lon="11.7817783"><ele>287.5714285714286</ele><time>2026-04-30T14:14:45.521Z</time></trkpt><trkpt lat="43.35566" lon="11.78187"><ele>287.14285714285717</ele><time>2026-04-30T14:14:46.521Z</time></trkpt><trkpt lat="43.35568" lon="11.7819633"><ele>286.7142857142857</ele><time>2026-04-30T14:14:47.523Z</time></trkpt><trkpt lat="43.3556967" lon="11.7820567"><ele>286.28571428571433</ele><time>2026-04-30T14:14:48.524Z</time></trkpt><trkpt lat="43.3557133" lon="11.78215"><ele>285.8571428571429</ele><time>2026-04-30T14:14:49.521Z</time></trkpt><trkpt lat="43.3557317" lon="11.7822483"><ele>285.42857142857144</ele><time>2026-04-30T14:14:50.524Z</time></trkpt><trkpt lat="43.3557483" lon="11.782345"><ele>285.0</ele><time>2026-04-30T14:14:51.521Z</time></trkpt><trkpt lat="43.3557633" lon="11.7824383"><ele>285.0</ele><time>2026-04-30T14:14:52.521Z</time></trkpt><trkpt lat="43.3557783" lon="11.7825317"><ele>285.0</ele><time>2026-04-30T14:14:53.523Z</time></trkpt><trkpt lat="43.3557933" lon="11.7826217"><ele>285.0</ele><time>2026-04-30T14:14:54.521Z</time></trkpt><trkpt lat="43.35581" lon="11.7827117"><ele>285.0</ele><time>2026-04-30T14:14:55.52Z</time></trkpt><trkpt lat="43.355825" lon="11.7828017"><ele>285.0</ele><time>2026-04-30T14:14:56.524Z</time></trkpt><trkpt lat="43.35584" lon="11.7828867"><ele>285.0</ele><time>2026-04-30T14:14:57.523Z</time></trkpt><trkpt lat="43.3558583" lon="11.7829783"><ele>285.0</ele><time>2026-04-30T14:14:58.521Z</time></trkpt><trkpt lat="43.355875" lon="11.78307"><ele>284.7142857142857</ele><time>2026-04-30T14:14:59.521Z</time></trkpt><trkpt lat="43.3558883" lon="11.7831633"><ele>284.42857142857144</ele><time>2026-04-30T14:15:00.52Z</time></trkpt><trkpt lat="43.3558983" lon="11.7832533"><ele>284.14285714285717</ele><time>2026-04-30T14:15:01.52Z</time></trkpt><trkpt lat="43.3559133" lon="11.7833433"><ele>283.8571428571429</ele><time>2026-04-30T14:15:02.523Z</time></trkpt><trkpt lat="43.3559283" lon="11.783435"><ele>283.5714285714286</ele><time>2026-04-30T14:15:03.523Z</time></trkpt><trkpt lat="43.35594" lon="11.7835233"><ele>283.2857142857143</ele><time>2026-04-30T14:15:04.523Z</time></trkpt><trkpt lat="43.3559533" lon="11.7836083"><ele>283.0</ele><time>2026-04-30T14:15:05.524Z</time></trkpt><trkpt lat="43.3559667" lon="11.7836983"><ele>283.0</ele><time>2026-04-30T14:15:06.52Z</time></trkpt><trkpt lat="43.355975" lon="11.783785"><ele>283.0</ele><time>2026-04-30T14:15:07.519Z</time></trkpt><trkpt lat="43.3559833" lon="11.7839483"><ele>283.0</ele><time>2026-04-30T14:15:09.52Z</time></trkpt><trkpt lat="43.355985" lon="11.7841083"><ele>283.0</ele><time>2026-04-30T14:15:11.524Z</time></trkpt><trkpt lat="43.3559783" lon="11.7842683"><ele>283.0</ele><time>2026-04-30T14:15:13.523Z</time></trkpt><trkpt lat="43.3559733" lon="11.78442"><ele>283.0</ele><time>2026-04-30T14:15:15.519Z</time></trkpt><trkpt lat="43.3559683" lon="11.784575"><ele>283.0</ele><time>2026-04-30T14:15:17.52Z</time></trkpt><trkpt lat="43.3559617" lon="11.784725"><ele>283.0</ele><time>2026-04-30T14:15:19.519Z</time></trkpt><trkpt lat="43.3559567" lon="11.784875"><ele>283.0</ele><time>2026-04-30T14:15:21.53Z</time></trkpt><trkpt lat="43.355945" lon="11.7850033"><ele>283.0</ele><time>2026-04-30T14:15:23.521Z</time></trkpt><trkpt lat="43.35594" lon="11.7851317"><ele>283.2</ele><time>2026-04-30T14:15:25.525Z</time></trkpt><trkpt lat="43.35594" lon="11.7852583"><ele>283.4</ele><time>2026-04-30T14:15:27.523Z</time></trkpt><trkpt lat="43.35594" lon="11.7853883"><ele>283.59999999999997</ele><time>2026-04-30T14:15:29.523Z</time></trkpt><trkpt lat="43.3559367" lon="11.7855117"><ele>283.8</ele><time>2026-04-30T14:15:31.521Z</time></trkpt><trkpt lat="43.35594" lon="11.7856467"><ele>284.0</ele><time>2026-04-30T14:15:33.524Z</time></trkpt><trkpt lat="43.355935" lon="11.7857717"><ele>284.0</ele><time>2026-04-30T14:15:35.521Z</time></trkpt><trkpt lat="43.3559467" lon="11.7859183"><ele>284.0</ele><time>2026-04-30T14:15:37.522Z</time></trkpt><trkpt lat="43.3559517" lon="11.7860533"><ele>284.0</ele><time>2026-04-30T14:15:39.523Z</time></trkpt><trkpt lat="43.355955" lon="11.7861833"><ele>284.0</ele><time>2026-04-30T14:15:41.521Z</time></trkpt><trkpt lat="43.355965" lon="11.7863217"><ele>284.0</ele><time>2026-04-30T14:15:43.524Z</time></trkpt><trkpt lat="43.3559683" lon="11.786455"><ele>284.0</ele><time>2026-04-30T14:15:45.521Z</time></trkpt><trkpt lat="43.3559567" lon="11.78659"><ele>284.0</ele><time>2026-04-30T14:15:47.523Z</time></trkpt><trkpt lat="43.3559467" lon="11.7867333"><ele>284.0</ele><time>2026-04-30T14:15:49.518Z</time></trkpt><trkpt lat="43.355945" lon="11.78688"><ele>284.0</ele><time>2026-04-30T14:15:51.52Z</time></trkpt><trkpt lat="43.35594" lon="11.7870333"><ele>284.0</ele><time>2026-04-30T14:15:53.521Z</time></trkpt><trkpt lat="43.35595" lon="11.787195"><ele>284.0</ele><time>2026-04-30T14:15:55.522Z</time></trkpt><trkpt lat="43.35596" lon="11.7873567"><ele>284.0</ele><time>2026-04-30T14:15:57.524Z</time></trkpt><trkpt lat="43.355975" lon="11.7875183"><ele>284.0</ele><time>2026-04-30T14:15:59.519Z</time></trkpt><trkpt lat="43.3559883" lon="11.7876833"><ele>284.0</ele><time>2026-04-30T14:16:01.52Z</time></trkpt><trkpt lat="43.3559967" lon="11.78777"><ele>284.0</ele><time>2026-04-30T14:16:02.52Z</time></trkpt><trkpt lat="43.3560017" lon="11.7879217"><ele>284.0</ele><time>2026-04-30T14:16:04.521Z</time></trkpt><trkpt lat="43.3560133" lon="11.7880583"><ele>284.0</ele><time>2026-04-30T14:16:06.519Z</time></trkpt><trkpt lat="43.3560217" lon="11.7881967"><ele>284.0</ele><time>2026-04-30T14:16:08.52Z</time></trkpt><trkpt lat="43.3560317" lon="11.788315"><ele>284.0</ele><time>2026-04-30T14:16:10.519Z</time></trkpt><trkpt lat="43.35604" lon="11.788405"><ele>284.0</ele><time>2026-04-30T14:16:12.524Z</time></trkpt><trkpt lat="43.3560733" lon="11.78856"><ele>284.0</ele><time>2026-04-30T14:16:23.519Z</time></trkpt><trkpt lat="43.356085" lon="11.7886767"><ele>284.0</ele><time>2026-04-30T14:16:27.526Z</time></trkpt><trkpt lat="43.3560967" lon="11.788795"><ele>284.0</ele><time>2026-04-30T14:16:30.521Z</time></trkpt><trkpt lat="43.356115" lon="11.7889267"><ele>284.0</ele><time>2026-04-30T14:16:33.52Z</time></trkpt><trkpt lat="43.35613" lon="11.7890133"><ele>284.0</ele><time>2026-04-30T14:16:35.52Z</time></trkpt><trkpt lat="43.3561483" lon="11.7891133"><ele>284.0</ele><time>2026-04-30T14:16:37.523Z</time></trkpt><trkpt lat="43.356165" lon="11.7892267"><ele>284.0</ele><time>2026-04-30T14:16:39.52Z</time></trkpt><trkpt lat="43.35618" lon="11.7893383"><ele>284.0</ele><time>2026-04-30T14:16:41.52Z</time></trkpt><trkpt lat="43.3561983" lon="11.7894467"><ele>284.0</ele><time>2026-04-30T14:16:43.52Z</time></trkpt><trkpt lat="43.3562167" lon="11.7895617"><ele>284.0</ele><time>2026-04-30T14:16:45.521Z</time></trkpt><trkpt lat="43.3562333" lon="11.7896717"><ele>284.0</ele><time>2026-04-30T14:16:47.52Z</time></trkpt><trkpt lat="43.3562483" lon="11.7897867"><ele>284.0</ele><time>2026-04-30T14:16:49.52Z</time></trkpt><trkpt lat="43.3562683" lon="11.7899033"><ele>284.0</ele><time>2026-04-30T14:16:51.522Z</time></trkpt><trkpt lat="43.3562883" lon="11.7900233"><ele>284.0</ele><time>2026-04-30T14:16:53.523Z</time></trkpt><trkpt lat="43.356305" lon="11.7901317"><ele>284.0</ele><time>2026-04-30T14:16:55.526Z</time></trkpt><trkpt lat="43.3563233" lon="11.7902433"><ele>284.0</ele><time>2026-04-30T14:16:57.522Z</time></trkpt><trkpt lat="43.35634" lon="11.790365"><ele>284.0</ele><time>2026-04-30T14:16:59.524Z</time></trkpt><trkpt lat="43.35636" lon="11.7904867"><ele>284.0</ele><time>2026-04-30T14:17:01.521Z</time></trkpt><trkpt lat="43.3563767" lon="11.7906"><ele>284.0</ele><time>2026-04-30T14:17:03.522Z</time></trkpt><trkpt lat="43.35639" lon="11.7907117"><ele>284.0</ele><time>2026-04-30T14:17:05.523Z</time></trkpt><trkpt lat="43.3564033" lon="11.79082"><ele>284.0</ele><time>2026-04-30T14:17:07.523Z</time></trkpt><trkpt lat="43.3564217" lon="11.7909333"><ele>284.0</ele><time>2026-04-30T14:17:09.521Z</time></trkpt><trkpt lat="43.3564117" lon="11.7910333"><ele>284.0</ele><time>2026-04-30T14:17:11.521Z</time></trkpt><trkpt lat="43.3563583" lon="11.7911083"><ele>284.0</ele><time>2026-04-30T14:17:13.521Z</time></trkpt><trkpt lat="43.35628" lon="11.7911067"><ele>284.33333333333337</ele><time>2026-04-30T14:17:15.521Z</time></trkpt><trkpt lat="43.3562067" lon="11.791125"><ele>284.6666666666667</ele><time>2026-04-30T14:17:17.522Z</time></trkpt><trkpt lat="43.3561217" lon="11.791125"><ele>285.0</ele><time>2026-04-30T14:17:19.521Z</time></trkpt><trkpt lat="43.3560367" lon="11.7911167"><ele>285.3333333333333</ele><time>2026-04-30T14:17:21.521Z</time></trkpt><trkpt lat="43.3559533" lon="11.7911167"><ele>285.66666666666663</ele><time>2026-04-30T14:17:23.522Z</time></trkpt><trkpt lat="43.3558683" lon="11.79112"><ele>286.0</ele><time>2026-04-30T14:17:25.52Z</time></trkpt><trkpt lat="43.3557817" lon="11.7911217"><ele>286.0</ele><time>2026-04-30T14:17:27.519Z</time></trkpt><trkpt lat="43.3557017" lon="11.7911233"><ele>286.0</ele><time>2026-04-30T14:17:29.52Z</time></trkpt><trkpt lat="43.3556183" lon="11.7911267"><ele>286.0</ele><time>2026-04-30T14:17:31.519Z</time></trkpt><trkpt lat="43.3555317" lon="11.7911283"><ele>286.0</ele><time>2026-04-30T14:17:33.522Z</time></trkpt><trkpt lat="43.3554467" lon="11.7911267"><ele>286.0</ele><time>2026-04-30T14:17:35.521Z</time></trkpt><trkpt lat="43.3553633" lon="11.7911317"><ele>286.0</ele><time>2026-04-30T14:17:37.521Z</time></trkpt><trkpt lat="43.3552767" lon="11.7911467"><ele>285.8333333333333</ele><time>2026-04-30T14:17:39.523Z</time></trkpt><trkpt lat="43.35519" lon="11.7911483"><ele>285.66666666666663</ele><time>2026-04-30T14:17:41.523Z</time></trkpt><trkpt lat="43.355105" lon="11.7911567"><ele>285.5</ele><time>2026-04-30T14:17:43.521Z</time></trkpt><trkpt lat="43.3550183" lon="11.7911583"><ele>285.3333333333333</ele><time>2026-04-30T14:17:45.524Z</time></trkpt><trkpt lat="43.3549383" lon="11.79115"><ele>285.1666666666667</ele><time>2026-04-30T14:17:47.52Z</time></trkpt><trkpt lat="43.3548533" lon="11.79115"><ele>285.0</ele><time>2026-04-30T14:17:49.52Z</time></trkpt><trkpt lat="43.3547617" lon="11.7911533"><ele>285.0</ele><time>2026-04-30T14:17:51.521Z</time></trkpt><trkpt lat="43.3546717" lon="11.7911467"><ele>285.0</ele><time>2026-04-30T14:17:53.52Z</time></trkpt><trkpt lat="43.354575" lon="11.791135"><ele>285.0</ele><time>2026-04-30T14:17:55.523Z</time></trkpt><trkpt lat="43.35448" lon="11.791135"><ele>285.0</ele><time>2026-04-30T14:17:57.52Z</time></trkpt><trkpt lat="43.3543933" lon="11.7911383"><ele>285.0</ele><time>2026-04-30T14:17:59.52Z</time></trkpt><trkpt lat="43.3543083" lon="11.79114"><ele>285.0</ele><time>2026-04-30T14:18:01.523Z</time></trkpt><trkpt lat="43.3542217" lon="11.791145"><ele>285.0</ele><time>2026-04-30T14:18:03.52Z</time></trkpt><trkpt lat="43.3541283" lon="11.7911467"><ele>285.0</ele><time>2026-04-30T14:18:05.521Z</time></trkpt><trkpt lat="43.35404" lon="11.79114"><ele>285.0</ele><time>2026-04-30T14:18:07.52Z</time></trkpt><trkpt lat="43.3539633" lon="11.7911417"><ele>285.0</ele><time>2026-04-30T14:18:09.519Z</time></trkpt><trkpt lat="43.3538733" lon="11.7911483"><ele>285.0</ele><time>2026-04-30T14:18:11.52Z</time></trkpt><trkpt lat="43.3537783" lon="11.79114"><ele>285.2</ele><time>2026-04-30T14:18:13.526Z</time></trkpt><trkpt lat="43.3536783" lon="11.7911317"><ele>285.4</ele><time>2026-04-30T14:18:15.521Z</time></trkpt><trkpt lat="43.3535767" lon="11.7911217"><ele>285.6</ele><time>2026-04-30T14:18:17.522Z</time></trkpt><trkpt lat="43.3534767" lon="11.7911233"><ele>285.8</ele><time>2026-04-30T14:18:19.523Z</time></trkpt><trkpt lat="43.3533783" lon="11.7911317"><ele>286.0</ele><time>2026-04-30T14:18:21.524Z</time></trkpt><trkpt lat="43.35328" lon="11.7911317"><ele>286.0</ele><time>2026-04-30T14:18:23.521Z</time></trkpt><trkpt lat="43.3531883" lon="11.791125"><ele>286.0</ele><time>2026-04-30T14:18:25.522Z</time></trkpt><trkpt lat="43.3530933" lon="11.7911167"><ele>286.0</ele><time>2026-04-30T14:18:27.523Z</time></trkpt><trkpt lat="43.3529867" lon="11.791095"><ele>286.0</ele><time>2026-04-30T14:18:29.524Z</time></trkpt><trkpt lat="43.3528883" lon="11.7910683"><ele>286.0</ele><time>2026-04-30T14:18:31.522Z</time></trkpt><trkpt lat="43.3527917" lon="11.7910283"><ele>286.6</ele><time>2026-04-30T14:18:33.523Z</time></trkpt><trkpt lat="43.352695" lon="11.7909717"><ele>287.20000000000005</ele><time>2026-04-30T14:18:35.522Z</time></trkpt><trkpt lat="43.3525933" lon="11.7909167"><ele>287.79999999999995</ele><time>2026-04-30T14:18:37.524Z</time></trkpt><trkpt lat="43.3524967" lon="11.7908633"><ele>288.4</ele><time>2026-04-30T14:18:39.524Z</time></trkpt><trkpt lat="43.352405" lon="11.790815"><ele>289.0</ele><time>2026-04-30T14:18:41.522Z</time></trkpt><trkpt lat="43.3523133" lon="11.7907567"><ele>289.0</ele><time>2026-04-30T14:18:43.524Z</time></trkpt><trkpt lat="43.352225" lon="11.7906967"><ele>289.0</ele><time>2026-04-30T14:18:45.521Z</time></trkpt><trkpt lat="43.3521383" lon="11.79064"><ele>289.0</ele><time>2026-04-30T14:18:47.519Z</time></trkpt><trkpt lat="43.3520467" lon="11.7905867"><ele>289.0</ele><time>2026-04-30T14:18:49.523Z</time></trkpt><trkpt lat="43.3519533" lon="11.790535"><ele>289.0</ele><time>2026-04-30T14:18:51.522Z</time></trkpt><trkpt lat="43.35186" lon="11.7904883"><ele>289.0</ele><time>2026-04-30T14:18:53.519Z</time></trkpt><trkpt lat="43.3517617" lon="11.7904667"><ele>289.0</ele><time>2026-04-30T14:18:55.523Z</time></trkpt><trkpt lat="43.3516583" lon="11.790475"><ele>289.0</ele><time>2026-04-30T14:18:57.525Z</time></trkpt><trkpt lat="43.3515583" lon="11.7905317"><ele>289.0</ele><time>2026-04-30T14:18:59.52Z</time></trkpt><trkpt lat="43.3514667" lon="11.7906133"><ele>289.0</ele><time>2026-04-30T14:19:01.522Z</time></trkpt><trkpt lat="43.3513683" lon="11.7907033"><ele>289.2</ele><time>2026-04-30T14:19:03.523Z</time></trkpt><trkpt lat="43.3512683" lon="11.79077"><ele>289.4</ele><time>2026-04-30T14:19:05.518Z</time></trkpt><trkpt lat="43.35116" lon="11.79081"><ele>289.6</ele><time>2026-04-30T14:19:07.522Z</time></trkpt><trkpt lat="43.3510517" lon="11.7908317"><ele>289.8</ele><time>2026-04-30T14:19:09.52Z</time></trkpt><trkpt lat="43.3509483" lon="11.7908533"><ele>290.0</ele><time>2026-04-30T14:19:11.521Z</time></trkpt><trkpt lat="43.35085" lon="11.7908717"><ele>290.0</ele><time>2026-04-30T14:19:13.52Z</time></trkpt><trkpt lat="43.350755" lon="11.7908867"><ele>290.0</ele><time>2026-04-30T14:19:15.522Z</time></trkpt><trkpt lat="43.350665" lon="11.7909033"><ele>290.0</ele><time>2026-04-30T14:19:17.519Z</time></trkpt><trkpt lat="43.3505767" lon="11.79092"><ele>290.0</ele><time>2026-04-30T14:19:19.522Z</time></trkpt><trkpt lat="43.3504883" lon="11.79094"><ele>290.0</ele><time>2026-04-30T14:19:21.52Z</time></trkpt><trkpt lat="43.3504067" lon="11.7909567"><ele>290.0</ele><time>2026-04-30T14:19:23.523Z</time></trkpt><trkpt lat="43.3503233" lon="11.7909733"><ele>290.0</ele><time>2026-04-30T14:19:25.523Z</time></trkpt><trkpt lat="43.35024" lon="11.7909817"><ele>290.0</ele><time>2026-04-30T14:19:27.523Z</time></trkpt><trkpt lat="43.3501567" lon="11.7909933"><ele>290.0</ele><time>2026-04-30T14:19:29.519Z</time></trkpt><trkpt lat="43.35008" lon="11.7910133"><ele>290.0</ele><time>2026-04-30T14:19:31.522Z</time></trkpt><trkpt lat="43.3500017" lon="11.7910383"><ele>290.0</ele><time>2026-04-30T14:19:33.52Z</time></trkpt><trkpt lat="43.34992" lon="11.7910467"><ele>290.0</ele><time>2026-04-30T14:19:35.52Z</time></trkpt><trkpt lat="43.3498383" lon="11.7910533"><ele>290.0</ele><time>2026-04-30T14:19:37.519Z</time></trkpt><trkpt lat="43.349755" lon="11.7910617"><ele>290.0</ele><time>2026-04-30T14:19:39.524Z</time></trkpt><trkpt lat="43.3496733" lon="11.791075"><ele>290.0</ele><time>2026-04-30T14:19:41.521Z</time></trkpt><trkpt lat="43.3495917" lon="11.7910867"><ele>290.0</ele><time>2026-04-30T14:19:43.521Z</time></trkpt><trkpt lat="43.3495067" lon="11.791105"><ele>290.0</ele><time>2026-04-30T14:19:45.522Z</time></trkpt><trkpt lat="43.34942" lon="11.791115"><ele>290.0</ele><time>2026-04-30T14:19:47.521Z</time></trkpt><trkpt lat="43.3493417" lon="11.791125"><ele>290.2857142857143</ele><time>2026-04-30T14:19:49.52Z</time></trkpt><trkpt lat="43.3492683" lon="11.7911367"><ele>290.5714285714286</ele><time>2026-04-30T14:19:51.519Z</time></trkpt><trkpt lat="43.3492017" lon="11.7911317"><ele>290.8571428571429</ele><time>2026-04-30T14:19:53.521Z</time></trkpt><trkpt lat="43.349155" lon="11.79107"><ele>291.14285714285717</ele><time>2026-04-30T14:19:55.52Z</time></trkpt><trkpt lat="43.3491533" lon="11.7909683"><ele>291.42857142857144</ele><time>2026-04-30T14:19:57.518Z</time></trkpt><trkpt lat="43.3491683" lon="11.79087"><ele>291.7142857142857</ele><time>2026-04-30T14:19:59.521Z</time></trkpt><trkpt lat="43.349195" lon="11.790765"><ele>292.0</ele><time>2026-04-30T14:20:01.52Z</time></trkpt><trkpt lat="43.3492217" lon="11.7906517"><ele>292.0</ele><time>2026-04-30T14:20:03.525Z</time></trkpt><trkpt lat="43.3492533" lon="11.790535"><ele>292.0</ele><time>2026-04-30T14:20:05.518Z</time></trkpt><trkpt lat="43.3492817" lon="11.7904133"><ele>292.0</ele><time>2026-04-30T14:20:07.523Z</time></trkpt><trkpt lat="43.3493067" lon="11.79028"><ele>292.0</ele><time>2026-04-30T14:20:09.524Z</time></trkpt><trkpt lat="43.349335" lon="11.79016"><ele>292.0</ele><time>2026-04-30T14:20:11.523Z</time></trkpt><trkpt lat="43.3493633" lon="11.7900333"><ele>292.0</ele><time>2026-04-30T14:20:13.524Z</time></trkpt><trkpt lat="43.349395" lon="11.7898983"><ele>292.0</ele><time>2026-04-30T14:20:15.523Z</time></trkpt><trkpt lat="43.3494283" lon="11.7897517"><ele>292.0</ele><time>2026-04-30T14:20:17.521Z</time></trkpt><trkpt lat="43.34947" lon="11.789605"><ele>292.0</ele><time>2026-04-30T14:20:19.521Z</time></trkpt><trkpt lat="43.3495033" lon="11.78945"><ele>292.0</ele><time>2026-04-30T14:20:21.52Z</time></trkpt><trkpt lat="43.3495233" lon="11.7892833"><ele>291.5</ele><time>2026-04-30T14:20:23.52Z</time></trkpt><trkpt lat="43.3495233" lon="11.789115"><ele>291.0</ele><time>2026-04-30T14:20:25.522Z</time></trkpt><trkpt lat="43.3494933" lon="11.7889617"><ele>290.5</ele><time>2026-04-30T14:20:27.523Z</time></trkpt><trkpt lat="43.3494417" lon="11.7888183"><ele>290.0</ele><time>2026-04-30T14:20:29.523Z</time></trkpt><trkpt lat="43.349385" lon="11.78869"><ele>290.0</ele><time>2026-04-30T14:20:31.52Z</time></trkpt><trkpt lat="43.3493133" lon="11.7886033"><ele>290.0</ele><time>2026-04-30T14:20:33.525Z</time></trkpt><trkpt lat="43.34921" lon="11.7885567"><ele>290.0</ele><time>2026-04-30T14:20:35.524Z</time></trkpt><trkpt lat="43.349095" lon="11.7885217"><ele>290.0</ele><time>2026-04-30T14:20:37.525Z</time></trkpt><trkpt lat="43.3490317" lon="11.788505"><ele>290.0</ele><time>2026-04-30T14:20:38.523Z</time></trkpt><trkpt lat="43.3489083" lon="11.78848"><ele>290.33333333333337</ele><time>2026-04-30T14:20:40.521Z</time></trkpt><trkpt lat="43.3487833" lon="11.788455"><ele>290.6666666666667</ele><time>2026-04-30T14:20:42.525Z</time></trkpt><trkpt lat="43.348665" lon="11.7884217"><ele>291.0</ele><time>2026-04-30T14:20:44.522Z</time></trkpt><trkpt lat="43.3486017" lon="11.7884067"><ele>291.3333333333333</ele><time>2026-04-30T14:20:45.522Z</time></trkpt><trkpt lat="43.3485383" lon="11.7883967"><ele>291.66666666666663</ele><time>2026-04-30T14:20:46.52Z</time></trkpt><trkpt lat="43.348475" lon="11.7883883"><ele>292.0</ele><time>2026-04-30T14:20:47.523Z</time></trkpt><trkpt lat="43.3483583" lon="11.78837"><ele>292.0</ele><time>2026-04-30T14:20:49.522Z</time></trkpt><trkpt lat="43.348245" lon="11.7883433"><ele>292.0</ele><time>2026-04-30T14:20:51.525Z</time></trkpt><trkpt lat="43.3481383" lon="11.7883083"><ele>292.0</ele><time>2026-04-30T14:20:53.522Z</time></trkpt><trkpt lat="43.3480333" lon="11.7882767"><ele>292.0</ele><time>2026-04-30T14:20:55.519Z</time></trkpt><trkpt lat="43.3479267" lon="11.7882417"><ele>292.0</ele><time>2026-04-30T14:20:57.523Z</time></trkpt><trkpt lat="43.3478083" lon="11.7881917"><ele>291.1428571428571</ele><time>2026-04-30T14:20:59.525Z</time></trkpt><trkpt lat="43.3477433" lon="11.788165"><ele>290.2857142857143</ele><time>2026-04-30T14:21:00.522Z</time></trkpt><trkpt lat="43.3476767" lon="11.788135"><ele>289.42857142857144</ele><time>2026-04-30T14:21:01.522Z</time></trkpt><trkpt lat="43.34761" lon="11.7881033"><ele>288.57142857142856</ele><time>2026-04-30T14:21:02.524Z</time></trkpt><trkpt lat="43.3475383" lon="11.7880667"><ele>287.7142857142857</ele><time>2026-04-30T14:21:03.526Z</time></trkpt><trkpt lat="43.3474667" lon="11.7880267"><ele>286.85714285714283</ele><time>2026-04-30T14:21:04.523Z</time></trkpt><trkpt lat="43.347395" lon="11.7879867"><ele>286.0</ele><time>2026-04-30T14:21:05.523Z</time></trkpt><trkpt lat="43.3473233" lon="11.78795"><ele>285.99999999999994</ele><time>2026-04-30T14:21:06.521Z</time></trkpt><trkpt lat="43.3472483" lon="11.7879183"><ele>286.0</ele><time>2026-04-30T14:21:07.522Z</time></trkpt><trkpt lat="43.3471767" lon="11.7878867"><ele>286.0</ele><time>2026-04-30T14:21:08.522Z</time></trkpt><trkpt lat="43.3471033" lon="11.7878567"><ele>286.0</ele><time>2026-04-30T14:21:09.521Z</time></trkpt><trkpt lat="43.34703" lon="11.7878283"><ele>286.0</ele><time>2026-04-30T14:21:10.521Z</time></trkpt><trkpt lat="43.34696" lon="11.7878"><ele>285.99999999999994</ele><time>2026-04-30T14:21:11.524Z</time></trkpt><trkpt lat="43.3468933" lon="11.78778"><ele>286.0</ele><time>2026-04-30T14:21:12.522Z</time></trkpt><trkpt lat="43.3468283" lon="11.7877617"><ele>285.6</ele><time>2026-04-30T14:21:13.523Z</time></trkpt><trkpt lat="43.3467167" lon="11.787725"><ele>285.20000000000005</ele><time>2026-04-30T14:21:15.521Z</time></trkpt><trkpt lat="43.346605" lon="11.787705"><ele>284.79999999999995</ele><time>2026-04-30T14:21:17.522Z</time></trkpt><trkpt lat="43.3465133" lon="11.7876833"><ele>284.4</ele><time>2026-04-30T14:21:19.526Z</time></trkpt><trkpt lat="43.3464467" lon="11.7876617"><ele>284.0</ele><time>2026-04-30T14:21:21.524Z</time></trkpt><trkpt lat="43.3463733" lon="11.787645"><ele>285.1666666666667</ele><time>2026-04-30T14:21:23.521Z</time></trkpt><trkpt lat="43.3463117" lon="11.78762"><ele>286.33333333333337</ele><time>2026-04-30T14:21:25.522Z</time></trkpt><trkpt lat="43.346225" lon="11.7875733"><ele>287.5</ele><time>2026-04-30T14:21:28.521Z</time></trkpt><trkpt lat="43.3461533" lon="11.7875517"><ele>288.6666666666667</ele><time>2026-04-30T14:21:30.527Z</time></trkpt><trkpt lat="43.3460733" lon="11.7875417"><ele>289.8333333333333</ele><time>2026-04-30T14:21:32.522Z</time></trkpt><trkpt lat="43.3460017" lon="11.78753"><ele>291.0</ele><time>2026-04-30T14:21:34.52Z</time></trkpt><trkpt lat="43.3459283" lon="11.7875133"><ele>291.0</ele><time>2026-04-30T14:21:36.523Z</time></trkpt><trkpt lat="43.3458517" lon="11.787495"><ele>291.0</ele><time>2026-04-30T14:21:39.521Z</time></trkpt><trkpt lat="43.3457717" lon="11.78747"><ele>291.0</ele><time>2026-04-30T14:21:43.521Z</time></trkpt><trkpt lat="43.345695" lon="11.787475"><ele>291.0</ele><time>2026-04-30T14:21:45.521Z</time></trkpt><trkpt lat="43.345625" lon="11.78747"><ele>291.0</ele><time>2026-04-30T14:21:47.524Z</time></trkpt><trkpt lat="43.345535" lon="11.787465"><ele>291.0</ele><time>2026-04-30T14:21:50.521Z</time></trkpt><trkpt lat="43.3454533" lon="11.7874483"><ele>291.5</ele><time>2026-04-30T14:21:53.52Z</time></trkpt><trkpt lat="43.3453783" lon="11.7874283"><ele>292.0</ele><time>2026-04-30T14:21:56.522Z</time></trkpt><trkpt lat="43.3453017" lon="11.7874217"><ele>292.5</ele><time>2026-04-30T14:21:59.523Z</time></trkpt><trkpt lat="43.345215" lon="11.7874083"><ele>293.0</ele><time>2026-04-30T14:22:02.519Z</time></trkpt><trkpt lat="43.34513" lon="11.7873883"><ele>293.5</ele><time>2026-04-30T14:22:06.525Z</time></trkpt><trkpt lat="43.34505" lon="11.7873683"><ele>294.0</ele><time>2026-04-30T14:22:09.522Z</time></trkpt><trkpt lat="43.3449767" lon="11.7873633"><ele>294.0</ele><time>2026-04-30T14:22:12.525Z</time></trkpt><trkpt lat="43.3449017" lon="11.7873833"><ele>294.0</ele><time>2026-04-30T14:22:16.521Z</time></trkpt><trkpt lat="43.3448217" lon="11.787415"><ele>294.0</ele><time>2026-04-30T14:22:19.521Z</time></trkpt><trkpt lat="43.3447333" lon="11.7874417"><ele>294.0</ele><time>2026-04-30T14:22:22.519Z</time></trkpt><trkpt lat="43.3446533" lon="11.7874883"><ele>294.0</ele><time>2026-04-30T14:22:25.522Z</time></trkpt><trkpt lat="43.344575" lon="11.7875133"><ele>294.0</ele><time>2026-04-30T14:22:28.521Z</time></trkpt><trkpt lat="43.344495" lon="11.787535"><ele>294.3333333333333</ele><time>2026-04-30T14:22:31.523Z</time></trkpt><trkpt lat="43.3444067" lon="11.7875617"><ele>294.6666666666667</ele><time>2026-04-30T14:22:34.52Z</time></trkpt><trkpt lat="43.3443417" lon="11.7875733"><ele>295.0</ele><time>2026-04-30T14:22:36.522Z</time></trkpt><trkpt lat="43.3442767" lon="11.7875933"><ele>295.33333333333337</ele><time>2026-04-30T14:22:38.526Z</time></trkpt><trkpt lat="43.3442033" lon="11.787615"><ele>295.6666666666667</ele><time>2026-04-30T14:22:40.52Z</time></trkpt><trkpt lat="43.3441233" lon="11.7876383"><ele>296.0</ele><time>2026-04-30T14:22:43.52Z</time></trkpt><trkpt lat="43.3440467" lon="11.7876683"><ele>295.8</ele><time>2026-04-30T14:22:46.521Z</time></trkpt><trkpt lat="43.34398" lon="11.7876817"><ele>295.6</ele><time>2026-04-30T14:22:47.517Z</time></trkpt><trkpt lat="43.3438717" lon="11.78772"><ele>295.4</ele><time>2026-04-30T14:22:49.525Z</time></trkpt><trkpt lat="43.3437833" lon="11.787745"><ele>295.2</ele><time>2026-04-30T14:22:50.521Z</time></trkpt><trkpt lat="43.3437083" lon="11.7877517"><ele>295.0</ele><time>2026-04-30T14:22:51.523Z</time></trkpt><trkpt lat="43.3435917" lon="11.7877767"><ele>295.0</ele><time>2026-04-30T14:22:53.522Z</time></trkpt><trkpt lat="43.34349" lon="11.7877933"><ele>295.0</ele><time>2026-04-30T14:22:55.523Z</time></trkpt><trkpt lat="43.3433983" lon="11.7878133"><ele>295.0</ele><time>2026-04-30T14:22:57.52Z</time></trkpt><trkpt lat="43.34331" lon="11.787825"><ele>295.0</ele><time>2026-04-30T14:22:59.521Z</time></trkpt><trkpt lat="43.3432333" lon="11.7878333"><ele>295.0</ele><time>2026-04-30T14:23:01.523Z</time></trkpt><trkpt lat="43.343145" lon="11.7878183"><ele>295.0</ele><time>2026-04-30T14:23:03.523Z</time></trkpt><trkpt lat="43.3430567" lon="11.7877933"><ele>295.0</ele><time>2026-04-30T14:23:05.521Z</time></trkpt><trkpt lat="43.342975" lon="11.7877467"><ele>295.0</ele><time>2026-04-30T14:23:07.519Z</time></trkpt><trkpt lat="43.3429" lon="11.7876967"><ele>295.0</ele><time>2026-04-30T14:23:09.519Z</time></trkpt><trkpt lat="43.3428233" lon="11.7876467"><ele>295.0</ele><time>2026-04-30T14:23:11.521Z</time></trkpt><trkpt lat="43.3427117" lon="11.787605"><ele>295.0</ele><time>2026-04-30T14:23:13.52Z</time></trkpt><trkpt lat="43.3426167" lon="11.7875533"><ele>295.0</ele><time>2026-04-30T14:23:15.523Z</time></trkpt><trkpt lat="43.3425133" lon="11.7875067"><ele>295.0</ele><time>2026-04-30T14:23:17.52Z</time></trkpt><trkpt lat="43.3424067" lon="11.7874667"><ele>295.0</ele><time>2026-04-30T14:23:19.524Z</time></trkpt><trkpt lat="43.3422983" lon="11.7874367"><ele>295.0</ele><time>2026-04-30T14:23:21.52Z</time></trkpt><trkpt lat="43.3422" lon="11.7873917"><ele>295.0</ele><time>2026-04-30T14:23:23.52Z</time></trkpt><trkpt lat="43.3420933" lon="11.7873583"><ele>295.0</ele><time>2026-04-30T14:23:25.524Z</time></trkpt><trkpt lat="43.3419867" lon="11.7873183"><ele>295.0</ele><time>2026-04-30T14:23:27.526Z</time></trkpt><trkpt lat="43.3418917" lon="11.7872767"><ele>295.0</ele><time>2026-04-30T14:23:29.52Z</time></trkpt><trkpt lat="43.3418083" lon="11.7872433"><ele>295.0</ele><time>2026-04-30T14:23:31.522Z</time></trkpt><trkpt lat="43.3417283" lon="11.7872117"><ele>295.0</ele><time>2026-04-30T14:23:33.521Z</time></trkpt><trkpt lat="43.3416517" lon="11.7871783"><ele>295.0</ele><time>2026-04-30T14:23:35.522Z</time></trkpt><trkpt lat="43.34158" lon="11.787145"><ele>295.0</ele><time>2026-04-30T14:23:37.521Z</time></trkpt><trkpt lat="43.3415083" lon="11.7871133"><ele>295.0</ele><time>2026-04-30T14:23:39.523Z</time></trkpt><trkpt lat="43.341435" lon="11.787085"><ele>295.0</ele><time>2026-04-30T14:23:41.522Z</time></trkpt><trkpt lat="43.3413633" lon="11.787065"><ele>295.0</ele><time>2026-04-30T14:23:43.521Z</time></trkpt><trkpt lat="43.3412933" lon="11.7870467"><ele>295.3333333333333</ele><time>2026-04-30T14:23:45.523Z</time></trkpt><trkpt lat="43.34122" lon="11.787025"><ele>295.66666666666663</ele><time>2026-04-30T14:23:47.521Z</time></trkpt><trkpt lat="43.3411433" lon="11.7870117"><ele>296.0</ele><time>2026-04-30T14:23:49.521Z</time></trkpt><trkpt lat="43.3410733" lon="11.7870017"><ele>296.3333333333333</ele><time>2026-04-30T14:23:51.522Z</time></trkpt><trkpt lat="43.3409983" lon="11.78699"><ele>296.6666666666667</ele><time>2026-04-30T14:23:53.52Z</time></trkpt><trkpt lat="43.3409133" lon="11.7869867"><ele>297.0</ele><time>2026-04-30T14:23:55.524Z</time></trkpt><trkpt lat="43.3408333" lon="11.786995"><ele>297.0</ele><time>2026-04-30T14:23:57.521Z</time></trkpt><trkpt lat="43.3407583" lon="11.7870017"><ele>297.0</ele><time>2026-04-30T14:23:59.521Z</time></trkpt><trkpt lat="43.3406733" lon="11.7870017"><ele>297.0</ele><time>2026-04-30T14:24:01.519Z</time></trkpt><trkpt lat="43.3406" lon="11.7869933"><ele>297.0</ele><time>2026-04-30T14:24:03.521Z</time></trkpt><trkpt lat="43.34052" lon="11.786985"><ele>297.0</ele><time>2026-04-30T14:24:05.521Z</time></trkpt><trkpt lat="43.3404383" lon="11.7869917"><ele>297.0</ele><time>2026-04-30T14:24:07.519Z</time></trkpt><trkpt lat="43.3403617" lon="11.7869867"><ele>297.42857142857144</ele><time>2026-04-30T14:24:09.523Z</time></trkpt><trkpt lat="43.3402883" lon="11.78698"><ele>297.8571428571429</ele><time>2026-04-30T14:24:11.521Z</time></trkpt><trkpt lat="43.3402117" lon="11.786975"><ele>298.2857142857143</ele><time>2026-04-30T14:24:13.521Z</time></trkpt><trkpt lat="43.34014" lon="11.786965"><ele>298.7142857142857</ele><time>2026-04-30T14:24:15.524Z</time></trkpt><trkpt lat="43.3400667" lon="11.7869567"><ele>299.1428571428571</ele><time>2026-04-30T14:24:17.522Z</time></trkpt><trkpt lat="43.33999" lon="11.7869533"><ele>299.57142857142856</ele><time>2026-04-30T14:24:19.524Z</time></trkpt><trkpt lat="43.3399183" lon="11.7869533"><ele>300.0</ele><time>2026-04-30T14:24:21.521Z</time></trkpt><trkpt lat="43.339835" lon="11.7869717"><ele>300.0</ele><time>2026-04-30T14:24:23.516Z</time></trkpt><trkpt lat="43.3397583" lon="11.78697"><ele>300.0</ele><time>2026-04-30T14:24:25.523Z</time></trkpt><trkpt lat="43.33967" lon="11.7869183"><ele>300.0</ele><time>2026-04-30T14:24:27.519Z</time></trkpt><trkpt lat="43.3395783" lon="11.7868767"><ele>300.0</ele><time>2026-04-30T14:24:29.524Z</time></trkpt><trkpt lat="43.33948" lon="11.786845"><ele>300.0</ele><time>2026-04-30T14:24:31.518Z</time></trkpt><trkpt lat="43.3393933" lon="11.7868133"><ele>299.6</ele><time>2026-04-30T14:24:33.52Z</time></trkpt><trkpt lat="43.3393067" lon="11.7867683"><ele>299.2</ele><time>2026-04-30T14:24:35.52Z</time></trkpt><trkpt lat="43.3392317" lon="11.7867117"><ele>298.8</ele><time>2026-04-30T14:24:37.524Z</time></trkpt><trkpt lat="43.33915" lon="11.7866433"><ele>298.4</ele><time>2026-04-30T14:24:39.521Z</time></trkpt><trkpt lat="43.3390767" lon="11.78658"><ele>298.0</ele><time>2026-04-30T14:24:41.52Z</time></trkpt><trkpt lat="43.3389967" lon="11.7865117"><ele>298.0</ele><time>2026-04-30T14:24:43.521Z</time></trkpt><trkpt lat="43.33891" lon="11.7864383"><ele>298.0</ele><time>2026-04-30T14:24:45.522Z</time></trkpt><trkpt lat="43.3388033" lon="11.7863767"><ele>298.0</ele><time>2026-04-30T14:24:47.522Z</time></trkpt><trkpt lat="43.3387433" lon="11.7863433"><ele>298.0</ele><time>2026-04-30T14:24:48.522Z</time></trkpt><trkpt lat="43.3386767" lon="11.7863033"><ele>298.0</ele><time>2026-04-30T14:24:49.521Z</time></trkpt><trkpt lat="43.3386117" lon="11.7862617"><ele>298.0</ele><time>2026-04-30T14:24:50.519Z</time></trkpt><trkpt lat="43.33854" lon="11.7862183"><ele>297.5</ele><time>2026-04-30T14:24:51.521Z</time></trkpt><trkpt lat="43.3384667" lon="11.7861767"><ele>297.0</ele><time>2026-04-30T14:24:52.523Z</time></trkpt><trkpt lat="43.3383917" lon="11.78614"><ele>296.5</ele><time>2026-04-30T14:24:53.521Z</time></trkpt><trkpt lat="43.3383117" lon="11.7861017"><ele>296.0</ele><time>2026-04-30T14:24:54.52Z</time></trkpt><trkpt lat="43.3382317" lon="11.786055"><ele>295.5</ele><time>2026-04-30T14:24:55.523Z</time></trkpt><trkpt lat="43.3381533" lon="11.78601"><ele>295.0</ele><time>2026-04-30T14:24:56.52Z</time></trkpt><trkpt lat="43.33807" lon="11.7859617"><ele>293.8</ele><time>2026-04-30T14:24:57.522Z</time></trkpt><trkpt lat="43.3379867" lon="11.78591"><ele>292.6</ele><time>2026-04-30T14:24:58.521Z</time></trkpt><trkpt lat="43.3379" lon="11.7858583"><ele>291.4</ele><time>2026-04-30T14:24:59.521Z</time></trkpt><trkpt lat="43.3378117" lon="11.7858067"><ele>290.2</ele><time>2026-04-30T14:25:00.519Z</time></trkpt><trkpt lat="43.3377233" lon="11.7857533"><ele>289.0</ele><time>2026-04-30T14:25:01.52Z</time></trkpt><trkpt lat="43.3376333" lon="11.7857033"><ele>289.0</ele><time>2026-04-30T14:25:02.524Z</time></trkpt><trkpt lat="43.3375433" lon="11.7856533"><ele>289.0</ele><time>2026-04-30T14:25:03.524Z</time></trkpt><trkpt lat="43.3374533" lon="11.7855983"><ele>289.0</ele><time>2026-04-30T14:25:04.522Z</time></trkpt><trkpt lat="43.3373633" lon="11.78555"><ele>289.0</ele><time>2026-04-30T14:25:05.522Z</time></trkpt><trkpt lat="43.33727" lon="11.7855"><ele>289.0</ele><time>2026-04-30T14:25:06.523Z</time></trkpt><trkpt lat="43.3371767" lon="11.78545"><ele>289.0</ele><time>2026-04-30T14:25:07.52Z</time></trkpt><trkpt lat="43.3370817" lon="11.7853983"><ele>289.0</ele><time>2026-04-30T14:25:08.524Z</time></trkpt><trkpt lat="43.3369883" lon="11.785345"><ele>289.0</ele><time>2026-04-30T14:25:09.523Z</time></trkpt><trkpt lat="43.3368967" lon="11.785285"><ele>289.0</ele><time>2026-04-30T14:25:10.52Z</time></trkpt><trkpt lat="43.3368133" lon="11.785215"><ele>289.0</ele><time>2026-04-30T14:25:11.524Z</time></trkpt><trkpt lat="43.3367367" lon="11.78513"><ele>289.0</ele><time>2026-04-30T14:25:12.525Z</time></trkpt><trkpt lat="43.336665" lon="11.7850383"><ele>289.0</ele><time>2026-04-30T14:25:13.52Z</time></trkpt><trkpt lat="43.3365883" lon="11.78496"><ele>289.0</ele><time>2026-04-30T14:25:14.52Z</time></trkpt><trkpt lat="43.3365033" lon="11.7848983"><ele>289.0</ele><time>2026-04-30T14:25:15.523Z</time></trkpt><trkpt lat="43.3364133" lon="11.7848517"><ele>289.0</ele><time>2026-04-30T14:25:16.523Z</time></trkpt><trkpt lat="43.33632" lon="11.784825"><ele>288.66666666666663</ele><time>2026-04-30T14:25:17.52Z</time></trkpt><trkpt lat="43.3362283" lon="11.7848083"><ele>288.3333333333333</ele><time>2026-04-30T14:25:18.519Z</time></trkpt><trkpt lat="43.3361367" lon="11.784795"><ele>288.0</ele><time>2026-04-30T14:25:19.52Z</time></trkpt><trkpt lat="43.336045" lon="11.7847817"><ele>287.6666666666667</ele><time>2026-04-30T14:25:20.524Z</time></trkpt><trkpt lat="43.3359583" lon="11.7847683"><ele>287.33333333333337</ele><time>2026-04-30T14:25:21.522Z</time></trkpt><trkpt lat="43.3358767" lon="11.7847533"><ele>287.0</ele><time>2026-04-30T14:25:22.522Z</time></trkpt><trkpt lat="43.3357967" lon="11.78474"><ele>287.0</ele><time>2026-04-30T14:25:23.518Z</time></trkpt><trkpt lat="43.3357167" lon="11.784725"><ele>287.0</ele><time>2026-04-30T14:25:24.523Z</time></trkpt><trkpt lat="43.33564" lon="11.7847183"><ele>287.0</ele><time>2026-04-30T14:25:25.523Z</time></trkpt><trkpt lat="43.335565" lon="11.7847083"><ele>287.0</ele><time>2026-04-30T14:25:26.52Z</time></trkpt><trkpt lat="43.33549" lon="11.7847"><ele>287.0</ele><time>2026-04-30T14:25:27.521Z</time></trkpt><trkpt lat="43.3354183" lon="11.7846933"><ele>287.0</ele><time>2026-04-30T14:25:28.521Z</time></trkpt><trkpt lat="43.3353467" lon="11.784685"><ele>287.0</ele><time>2026-04-30T14:25:29.526Z</time></trkpt><trkpt lat="43.3352767" lon="11.7846783"><ele>287.0</ele><time>2026-04-30T14:25:30.521Z</time></trkpt><trkpt lat="43.3352067" lon="11.7846717"><ele>287.0</ele><time>2026-04-30T14:25:31.521Z</time></trkpt><trkpt lat="43.3351367" lon="11.784665"><ele>287.0</ele><time>2026-04-30T14:25:32.523Z</time></trkpt><trkpt lat="43.3350683" lon="11.784655"><ele>287.0</ele><time>2026-04-30T14:25:33.524Z</time></trkpt><trkpt lat="43.3350033" lon="11.7846433"><ele>287.0</ele><time>2026-04-30T14:25:34.522Z</time></trkpt><trkpt lat="43.3349383" lon="11.78463"><ele>287.0</ele><time>2026-04-30T14:25:35.522Z</time></trkpt><trkpt lat="43.3348733" lon="11.78462"><ele>287.0</ele><time>2026-04-30T14:25:36.52Z</time></trkpt><trkpt lat="43.33481" lon="11.7846117"><ele>287.0</ele><time>2026-04-30T14:25:37.522Z</time></trkpt><trkpt lat="43.3346917" lon="11.7845967"><ele>287.0</ele><time>2026-04-30T14:25:39.521Z</time></trkpt><trkpt lat="43.3345783" lon="11.7845783"><ele>287.0</ele><time>2026-04-30T14:25:41.52Z</time></trkpt><trkpt lat="43.33447" lon="11.78456"><ele>287.0</ele><time>2026-04-30T14:25:43.522Z</time></trkpt><trkpt lat="43.334365" lon="11.784545"><ele>287.4</ele><time>2026-04-30T14:25:45.52Z</time></trkpt><trkpt lat="43.3342567" lon="11.7845317"><ele>287.79999999999995</ele><time>2026-04-30T14:25:47.521Z</time></trkpt><trkpt lat="43.334155" lon="11.7845233"><ele>288.2</ele><time>2026-04-30T14:25:49.522Z</time></trkpt><trkpt lat="43.3340467" lon="11.784545"><ele>288.59999999999997</ele><time>2026-04-30T14:25:51.52Z</time></trkpt><trkpt lat="43.33393" lon="11.7845717"><ele>289.0</ele><time>2026-04-30T14:25:53.52Z</time></trkpt><trkpt lat="43.3338083" lon="11.7845967"><ele>289.4</ele><time>2026-04-30T14:25:55.521Z</time></trkpt><trkpt lat="43.333745" lon="11.7846067"><ele>289.79999999999995</ele><time>2026-04-30T14:25:56.525Z</time></trkpt><trkpt lat="43.3336267" lon="11.784635"><ele>290.20000000000005</ele><time>2026-04-30T14:25:58.527Z</time></trkpt><trkpt lat="43.3335567" lon="11.7846517"><ele>290.6</ele><time>2026-04-30T14:25:59.522Z</time></trkpt><trkpt lat="43.3334433" lon="11.7846783"><ele>291.0</ele><time>2026-04-30T14:26:01.524Z</time></trkpt><trkpt lat="43.33334" lon="11.7847067"><ele>291.0</ele><time>2026-04-30T14:26:03.523Z</time></trkpt><trkpt lat="43.3332433" lon="11.78474"><ele>291.0</ele><time>2026-04-30T14:26:05.521Z</time></trkpt><trkpt lat="43.3331567" lon="11.7847617"><ele>291.0</ele><time>2026-04-30T14:26:07.521Z</time></trkpt><trkpt lat="43.3330867" lon="11.7847783"><ele>291.0</ele><time>2026-04-30T14:26:09.521Z</time></trkpt><trkpt lat="43.3330183" lon="11.7848033"><ele>291.0</ele><time>2026-04-30T14:26:11.524Z</time></trkpt><trkpt lat="43.3329433" lon="11.784845"><ele>291.0</ele><time>2026-04-30T14:26:14.52Z</time></trkpt><trkpt lat="43.332875" lon="11.78487"><ele>292.8333333333333</ele><time>2026-04-30T14:26:17.518Z</time></trkpt><trkpt lat="43.3328067" lon="11.7849"><ele>294.6666666666667</ele><time>2026-04-30T14:26:20.521Z</time></trkpt><trkpt lat="43.332735" lon="11.7849333"><ele>296.5</ele><time>2026-04-30T14:26:23.521Z</time></trkpt><trkpt lat="43.33267" lon="11.784965"><ele>298.33333333333337</ele><time>2026-04-30T14:26:26.524Z</time></trkpt><trkpt lat="43.3326017" lon="11.78501"><ele>300.1666666666667</ele><time>2026-04-30T14:26:29.523Z</time></trkpt><trkpt lat="43.3325233" lon="11.78505"><ele>302.0</ele><time>2026-04-30T14:26:33.52Z</time></trkpt><trkpt lat="43.3324517" lon="11.7850833"><ele>302.0</ele><time>2026-04-30T14:26:37.523Z</time></trkpt><trkpt lat="43.3323783" lon="11.78511"><ele>302.0</ele><time>2026-04-30T14:26:40.518Z</time></trkpt><trkpt lat="43.33231" lon="11.7851517"><ele>302.0</ele><time>2026-04-30T14:26:44.522Z</time></trkpt><trkpt lat="43.3322483" lon="11.785205"><ele>302.0</ele><time>2026-04-30T14:26:48.524Z</time></trkpt><trkpt lat="43.3321767" lon="11.7852517"><ele>302.0</ele><time>2026-04-30T14:26:52.522Z</time></trkpt><trkpt lat="43.332095" lon="11.7852917"><ele>302.0</ele><time>2026-04-30T14:26:56.52Z</time></trkpt><trkpt lat="43.3320117" lon="11.7853"><ele>302.33333333333337</ele><time>2026-04-30T14:27:00.522Z</time></trkpt><trkpt lat="43.3319417" lon="11.7852983"><ele>302.6666666666667</ele><time>2026-04-30T14:27:03.521Z</time></trkpt><trkpt lat="43.331875" lon="11.7853"><ele>303.0</ele><time>2026-04-30T14:27:06.522Z</time></trkpt><trkpt lat="43.3318067" lon="11.7852883"><ele>303.3333333333333</ele><time>2026-04-30T14:27:10.522Z</time></trkpt><trkpt lat="43.331735" lon="11.7852783"><ele>303.66666666666663</ele><time>2026-04-30T14:27:13.519Z</time></trkpt><trkpt lat="43.3316333" lon="11.7852567"><ele>304.0</ele><time>2026-04-30T14:27:16.519Z</time></trkpt><trkpt lat="43.3315233" lon="11.785235"><ele>304.0</ele><time>2026-04-30T14:27:18.523Z</time></trkpt><trkpt lat="43.3314567" lon="11.78522"><ele>304.0</ele><time>2026-04-30T14:27:19.522Z</time></trkpt><trkpt lat="43.3313867" lon="11.7852117"><ele>304.0</ele><time>2026-04-30T14:27:20.522Z</time></trkpt><trkpt lat="43.3313183" lon="11.7852017"><ele>304.0</ele><time>2026-04-30T14:27:21.52Z</time></trkpt><trkpt lat="43.3312433" lon="11.7851833"><ele>304.0</ele><time>2026-04-30T14:27:22.526Z</time></trkpt><trkpt lat="43.3311667" lon="11.7851633"><ele>304.0</ele><time>2026-04-30T14:27:23.522Z</time></trkpt><trkpt lat="43.3310833" lon="11.7851533"><ele>304.0</ele><time>2026-04-30T14:27:24.518Z</time></trkpt><trkpt lat="43.331005" lon="11.7851467"><ele>303.5</ele><time>2026-04-30T14:27:25.521Z</time></trkpt><trkpt lat="43.3309233" lon="11.7851433"><ele>303.0</ele><time>2026-04-30T14:27:26.526Z</time></trkpt><trkpt lat="43.3308433" lon="11.7851467"><ele>302.5</ele><time>2026-04-30T14:27:27.52Z</time></trkpt><trkpt lat="43.3307617" lon="11.7851467"><ele>302.0</ele><time>2026-04-30T14:27:28.52Z</time></trkpt><trkpt lat="43.3306817" lon="11.78515"><ele>301.5</ele><time>2026-04-30T14:27:29.521Z</time></trkpt><trkpt lat="43.330595" lon="11.7851533"><ele>301.0</ele><time>2026-04-30T14:27:30.522Z</time></trkpt><trkpt lat="43.3305133" lon="11.7851467"><ele>300.0</ele><time>2026-04-30T14:27:31.521Z</time></trkpt><trkpt lat="43.3304333" lon="11.7851333"><ele>299.0</ele><time>2026-04-30T14:27:32.524Z</time></trkpt><trkpt lat="43.3303483" lon="11.785115"><ele>298.0</ele><time>2026-04-30T14:27:33.525Z</time></trkpt><trkpt lat="43.3302633" lon="11.7850767"><ele>297.0</ele><time>2026-04-30T14:27:34.524Z</time></trkpt><trkpt lat="43.3301867" lon="11.7850317"><ele>296.0</ele><time>2026-04-30T14:27:35.521Z</time></trkpt><trkpt lat="43.3300983" lon="11.7849767"><ele>295.0</ele><time>2026-04-30T14:27:36.523Z</time></trkpt><trkpt lat="43.330015" lon="11.784925"><ele>295.0</ele><time>2026-04-30T14:27:37.521Z</time></trkpt><trkpt lat="43.3299283" lon="11.7848833"><ele>295.0</ele><time>2026-04-30T14:27:38.523Z</time></trkpt><trkpt lat="43.3298433" lon="11.7848567"><ele>295.0</ele><time>2026-04-30T14:27:39.522Z</time></trkpt><trkpt lat="43.3297567" lon="11.7848367"><ele>295.0</ele><time>2026-04-30T14:27:40.523Z</time></trkpt><trkpt lat="43.32967" lon="11.7848267"><ele>295.0</ele><time>2026-04-30T14:27:41.52Z</time></trkpt><trkpt lat="43.329585" lon="11.78482"><ele>295.0</ele><time>2026-04-30T14:27:42.521Z</time></trkpt><trkpt lat="43.3295017" lon="11.7848183"><ele>294.8333333333333</ele><time>2026-04-30T14:27:43.52Z</time></trkpt><trkpt lat="43.3294183" lon="11.7848183"><ele>294.66666666666663</ele><time>2026-04-30T14:27:44.521Z</time></trkpt><trkpt lat="43.329335" lon="11.78482"><ele>294.5</ele><time>2026-04-30T14:27:45.524Z</time></trkpt><trkpt lat="43.3292517" lon="11.784825"><ele>294.3333333333333</ele><time>2026-04-30T14:27:46.523Z</time></trkpt><trkpt lat="43.32917" lon="11.7848333"><ele>294.1666666666667</ele><time>2026-04-30T14:27:47.522Z</time></trkpt><trkpt lat="43.3290883" lon="11.7848417"><ele>294.0</ele><time>2026-04-30T14:27:48.526Z</time></trkpt><trkpt lat="43.3290067" lon="11.7848533"><ele>294.0</ele><time>2026-04-30T14:27:49.523Z</time></trkpt><trkpt lat="43.32893" lon="11.7848617"><ele>294.0</ele><time>2026-04-30T14:27:50.519Z</time></trkpt><trkpt lat="43.32885" lon="11.7848667"><ele>294.0</ele><time>2026-04-30T14:27:51.52Z</time></trkpt><trkpt lat="43.3287717" lon="11.7848633"><ele>294.0</ele><time>2026-04-30T14:27:52.523Z</time></trkpt><trkpt lat="43.328695" lon="11.7848667"><ele>294.0</ele><time>2026-04-30T14:27:53.52Z</time></trkpt><trkpt lat="43.328625" lon="11.7848617"><ele>294.0</ele><time>2026-04-30T14:27:54.521Z</time></trkpt><trkpt lat="43.3285483" lon="11.7848667"><ele>294.0</ele><time>2026-04-30T14:27:55.519Z</time></trkpt><trkpt lat="43.3284717" lon="11.7848667"><ele>294.0</ele><time>2026-04-30T14:27:56.524Z</time></trkpt><trkpt lat="43.3283967" lon="11.7848667"><ele>294.0</ele><time>2026-04-30T14:27:57.523Z</time></trkpt><trkpt lat="43.328325" lon="11.7848667"><ele>294.0</ele><time>2026-04-30T14:27:58.521Z</time></trkpt><trkpt lat="43.3282533" lon="11.7848667"><ele>294.0</ele><time>2026-04-30T14:27:59.519Z</time></trkpt><trkpt lat="43.3281833" lon="11.784865"><ele>294.0</ele><time>2026-04-30T14:28:00.519Z</time></trkpt><trkpt lat="43.32811" lon="11.7848683"><ele>294.0</ele><time>2026-04-30T14:28:01.523Z</time></trkpt><trkpt lat="43.3280367" lon="11.78487"><ele>294.3333333333333</ele><time>2026-04-30T14:28:02.52Z</time></trkpt><trkpt lat="43.3279683" lon="11.7848633"><ele>294.6666666666667</ele><time>2026-04-30T14:28:03.52Z</time></trkpt><trkpt lat="43.3279017" lon="11.7848533"><ele>295.0</ele><time>2026-04-30T14:28:04.522Z</time></trkpt><trkpt lat="43.3278367" lon="11.7848367"><ele>295.33333333333337</ele><time>2026-04-30T14:28:05.524Z</time></trkpt><trkpt lat="43.32777" lon="11.78482"><ele>295.6666666666667</ele><time>2026-04-30T14:28:06.521Z</time></trkpt><trkpt lat="43.3276467" lon="11.784795"><ele>296.0</ele><time>2026-04-30T14:28:08.525Z</time></trkpt><trkpt lat="43.3275283" lon="11.7847733"><ele>296.0</ele><time>2026-04-30T14:28:10.523Z</time></trkpt><trkpt lat="43.3274267" lon="11.7847533"><ele>296.0</ele><time>2026-04-30T14:28:12.523Z</time></trkpt><trkpt lat="43.32732" lon="11.7847217"><ele>296.0</ele><time>2026-04-30T14:28:14.518Z</time></trkpt><trkpt lat="43.3272133" lon="11.7846867"><ele>296.0</ele><time>2026-04-30T14:28:16.526Z</time></trkpt><trkpt lat="43.3271117" lon="11.78466"><ele>296.0</ele><time>2026-04-30T14:28:18.525Z</time></trkpt><trkpt lat="43.3270167" lon="11.7846467"><ele>296.0</ele><time>2026-04-30T14:28:20.521Z</time></trkpt><trkpt lat="43.3269167" lon="11.7846367"><ele>296.0</ele><time>2026-04-30T14:28:22.52Z</time></trkpt><trkpt lat="43.326825" lon="11.784625"><ele>296.0</ele><time>2026-04-30T14:28:24.52Z</time></trkpt><trkpt lat="43.32674" lon="11.7846333"><ele>296.0</ele><time>2026-04-30T14:28:26.525Z</time></trkpt><trkpt lat="43.3266583" lon="11.7846467"><ele>296.0</ele><time>2026-04-30T14:28:28.52Z</time></trkpt><trkpt lat="43.3265783" lon="11.7846567"><ele>296.0</ele><time>2026-04-30T14:28:30.52Z</time></trkpt><trkpt lat="43.3264933" lon="11.7846683"><ele>296.0</ele><time>2026-04-30T14:28:32.52Z</time></trkpt><trkpt lat="43.3264083" lon="11.7846817"><ele>296.0</ele><time>2026-04-30T14:28:34.523Z</time></trkpt><trkpt lat="43.32632" lon="11.7846933"><ele>296.0</ele><time>2026-04-30T14:28:36.523Z</time></trkpt><trkpt lat="43.3262233" lon="11.7847017"><ele>296.0</ele><time>2026-04-30T14:28:38.519Z</time></trkpt><trkpt lat="43.3261167" lon="11.7847167"><ele>296.0</ele><time>2026-04-30T14:28:40.523Z</time></trkpt><trkpt lat="43.325995" lon="11.78472"><ele>295.42857142857144</ele><time>2026-04-30T14:28:42.521Z</time></trkpt><trkpt lat="43.32593" lon="11.78472"><ele>294.85714285714283</ele><time>2026-04-30T14:28:43.521Z</time></trkpt><trkpt lat="43.3258667" lon="11.7847167"><ele>294.2857142857143</ele><time>2026-04-30T14:28:44.52Z</time></trkpt><trkpt lat="43.3258033" lon="11.784715"><ele>293.7142857142857</ele><time>2026-04-30T14:28:45.519Z</time></trkpt><trkpt lat="43.32574" lon="11.78471"><ele>293.14285714285717</ele><time>2026-04-30T14:28:46.521Z</time></trkpt><trkpt lat="43.325675" lon="11.7846983"><ele>292.57142857142856</ele><time>2026-04-30T14:28:47.522Z</time></trkpt><trkpt lat="43.3255567" lon="11.7846617"><ele>292.0</ele><time>2026-04-30T14:28:49.522Z</time></trkpt><trkpt lat="43.3254417" lon="11.7846133"><ele>290.8333333333333</ele><time>2026-04-30T14:28:51.52Z</time></trkpt><trkpt lat="43.32532" lon="11.7845783"><ele>289.66666666666663</ele><time>2026-04-30T14:28:53.521Z</time></trkpt><trkpt lat="43.3252583" lon="11.784555"><ele>288.5</ele><time>2026-04-30T14:28:54.52Z</time></trkpt><trkpt lat="43.3251967" lon="11.78453"><ele>287.3333333333333</ele><time>2026-04-30T14:28:55.522Z</time></trkpt><trkpt lat="43.3251317" lon="11.784505"><ele>286.1666666666667</ele><time>2026-04-30T14:28:56.525Z</time></trkpt><trkpt lat="43.32507" lon="11.7844783"><ele>285.0</ele><time>2026-04-30T14:28:57.518Z</time></trkpt><trkpt lat="43.3250067" lon="11.7844567"><ele>285.0</ele><time>2026-04-30T14:28:58.52Z</time></trkpt><trkpt lat="43.3249433" lon="11.78443"><ele>285.0</ele><time>2026-04-30T14:28:59.521Z</time></trkpt><trkpt lat="43.32488" lon="11.7843983"><ele>285.0</ele><time>2026-04-30T14:29:00.52Z</time></trkpt><trkpt lat="43.32482" lon="11.784365"><ele>285.0</ele><time>2026-04-30T14:29:01.523Z</time></trkpt><trkpt lat="43.3247633" lon="11.7843267"><ele>285.0</ele><time>2026-04-30T14:29:02.522Z</time></trkpt><trkpt lat="43.3247083" lon="11.7842817"><ele>285.0</ele><time>2026-04-30T14:29:03.522Z</time></trkpt><trkpt lat="43.324655" lon="11.784225"><ele>285.0</ele><time>2026-04-30T14:29:04.522Z</time></trkpt><trkpt lat="43.3246083" lon="11.7841667"><ele>286.25</ele><time>2026-04-30T14:29:05.524Z</time></trkpt><trkpt lat="43.3245183" lon="11.7840467"><ele>287.5</ele><time>2026-04-30T14:29:07.518Z</time></trkpt><trkpt lat="43.3244317" lon="11.7839267"><ele>288.75</ele><time>2026-04-30T14:29:09.521Z</time></trkpt><trkpt lat="43.32434" lon="11.7838367"><ele>290.0</ele><time>2026-04-30T14:29:11.519Z</time></trkpt><trkpt lat="43.3242383" lon="11.78379"><ele>290.0</ele><time>2026-04-30T14:29:13.523Z</time></trkpt><trkpt lat="43.32414" lon="11.7837583"><ele>290.0</ele><time>2026-04-30T14:29:15.52Z</time></trkpt><trkpt lat="43.32406" lon="11.7837117"><ele>290.0</ele><time>2026-04-30T14:29:17.526Z</time></trkpt><trkpt lat="43.3239917" lon="11.783675"><ele>290.0</ele><time>2026-04-30T14:29:19.523Z</time></trkpt><trkpt lat="43.3239317" lon="11.78364"><ele>290.0</ele><time>2026-04-30T14:29:21.519Z</time></trkpt><trkpt lat="43.323865" lon="11.7835617"><ele>290.0</ele><time>2026-04-30T14:29:24.519Z</time></trkpt><trkpt lat="43.3237917" lon="11.7835133"><ele>290.33333333333337</ele><time>2026-04-30T14:29:27.52Z</time></trkpt><trkpt lat="43.3237133" lon="11.78342"><ele>290.6666666666667</ele><time>2026-04-30T14:29:36.518Z</time></trkpt><trkpt lat="43.3236417" lon="11.78339"><ele>291.0</ele><time>2026-04-30T14:29:39.521Z</time></trkpt><trkpt lat="43.3235617" lon="11.783375"><ele>291.3333333333333</ele><time>2026-04-30T14:29:42.523Z</time></trkpt><trkpt lat="43.32349" lon="11.783365"><ele>291.66666666666663</ele><time>2026-04-30T14:29:45.525Z</time></trkpt><trkpt lat="43.3234267" lon="11.783345"><ele>292.0</ele><time>2026-04-30T14:29:48.521Z</time></trkpt><trkpt lat="43.3233517" lon="11.783325"><ele>292.0</ele><time>2026-04-30T14:29:51.521Z</time></trkpt><trkpt lat="43.3232883" lon="11.7832883"><ele>292.0</ele><time>2026-04-30T14:29:53.524Z</time></trkpt><trkpt lat="43.3232233" lon="11.7832567"><ele>292.0</ele><time>2026-04-30T14:29:55.522Z</time></trkpt><trkpt lat="43.3231567" lon="11.783225"><ele>292.0</ele><time>2026-04-30T14:29:57.519Z</time></trkpt><trkpt lat="43.3230833" lon="11.7831933"><ele>292.0</ele><time>2026-04-30T14:29:59.519Z</time></trkpt><trkpt lat="43.3230217" lon="11.78316"><ele>292.0</ele><time>2026-04-30T14:30:01.519Z</time></trkpt><trkpt lat="43.32295" lon="11.7831333"><ele>292.0</ele><time>2026-04-30T14:30:03.524Z</time></trkpt><trkpt lat="43.32289" lon="11.7831033"><ele>292.7142857142857</ele><time>2026-04-30T14:30:05.523Z</time></trkpt><trkpt lat="43.322825" lon="11.7830717"><ele>293.42857142857144</ele><time>2026-04-30T14:30:07.521Z</time></trkpt><trkpt lat="43.3227567" lon="11.7830433"><ele>294.14285714285717</ele><time>2026-04-30T14:30:09.522Z</time></trkpt><trkpt lat="43.322685" lon="11.783015"><ele>294.8571428571429</ele><time>2026-04-30T14:30:11.52Z</time></trkpt><trkpt lat="43.32261" lon="11.7829833"><ele>295.5714285714286</ele><time>2026-04-30T14:30:13.52Z</time></trkpt><trkpt lat="43.3225383" lon="11.7829533"><ele>296.2857142857143</ele><time>2026-04-30T14:30:15.521Z</time></trkpt><trkpt lat="43.3224617" lon="11.7829267"><ele>297.0</ele><time>2026-04-30T14:30:17.521Z</time></trkpt><trkpt lat="43.322385" lon="11.7828917"><ele>297.0</ele><time>2026-04-30T14:30:19.518Z</time></trkpt><trkpt lat="43.3223167" lon="11.7828583"><ele>297.0</ele><time>2026-04-30T14:30:21.522Z</time></trkpt><trkpt lat="43.3222467" lon="11.7828233"><ele>297.0</ele><time>2026-04-30T14:30:23.519Z</time></trkpt><trkpt lat="43.3221767" lon="11.7827917"><ele>297.0</ele><time>2026-04-30T14:30:25.52Z</time></trkpt><trkpt lat="43.32211" lon="11.782765"><ele>297.0</ele><time>2026-04-30T14:30:27.521Z</time></trkpt><trkpt lat="43.322045" lon="11.7827367"><ele>297.0</ele><time>2026-04-30T14:30:29.525Z</time></trkpt><trkpt lat="43.3219783" lon="11.7827083"><ele>297.0</ele><time>2026-04-30T14:30:31.519Z</time></trkpt><trkpt lat="43.3219117" lon="11.7826817"><ele>297.42857142857144</ele><time>2026-04-30T14:30:33.519Z</time></trkpt><trkpt lat="43.3218483" lon="11.7826533"><ele>297.8571428571429</ele><time>2026-04-30T14:30:35.524Z</time></trkpt><trkpt lat="43.3217767" lon="11.7826233"><ele>298.2857142857143</ele><time>2026-04-30T14:30:37.521Z</time></trkpt><trkpt lat="43.321705" lon="11.7825933"><ele>298.7142857142857</ele><time>2026-04-30T14:30:39.523Z</time></trkpt><trkpt lat="43.3216333" lon="11.7825633"><ele>299.1428571428571</ele><time>2026-04-30T14:30:41.52Z</time></trkpt><trkpt lat="43.321565" lon="11.7825333"><ele>299.57142857142856</ele><time>2026-04-30T14:30:43.518Z</time></trkpt><trkpt lat="43.3215" lon="11.7825"><ele>300.0</ele><time>2026-04-30T14:30:45.522Z</time></trkpt><trkpt lat="43.32143" lon="11.782475"><ele>300.2857142857143</ele><time>2026-04-30T14:30:47.523Z</time></trkpt><trkpt lat="43.3213683" lon="11.7824517"><ele>300.57142857142856</ele><time>2026-04-30T14:30:49.519Z</time></trkpt><trkpt lat="43.321295" lon="11.7824317"><ele>300.8571428571429</ele><time>2026-04-30T14:30:51.519Z</time></trkpt><trkpt lat="43.3212267" lon="11.782415"><ele>301.1428571428571</ele><time>2026-04-30T14:30:53.522Z</time></trkpt><trkpt lat="43.3211517" lon="11.7824"><ele>301.42857142857144</ele><time>2026-04-30T14:30:55.521Z</time></trkpt><trkpt lat="43.3210767" lon="11.7823867"><ele>301.7142857142857</ele><time>2026-04-30T14:30:57.52Z</time></trkpt><trkpt lat="43.3209967" lon="11.782385"><ele>302.0</ele><time>2026-04-30T14:30:59.524Z</time></trkpt><trkpt lat="43.320915" lon="11.782385"><ele>302.0</ele><time>2026-04-30T14:31:01.522Z</time></trkpt><trkpt lat="43.3208317" lon="11.782395"><ele>302.0</ele><time>2026-04-30T14:31:03.524Z</time></trkpt><trkpt lat="43.320735" lon="11.7824067"><ele>302.0</ele><time>2026-04-30T14:31:05.52Z</time></trkpt><trkpt lat="43.320635" lon="11.7824233"><ele>302.0</ele><time>2026-04-30T14:31:07.524Z</time></trkpt><trkpt lat="43.320525" lon="11.7824433"><ele>302.0</ele><time>2026-04-30T14:31:09.52Z</time></trkpt><trkpt lat="43.32041" lon="11.7824717"><ele>301.4</ele><time>2026-04-30T14:31:11.521Z</time></trkpt><trkpt lat="43.3202933" lon="11.7825"><ele>300.79999999999995</ele><time>2026-04-30T14:31:13.52Z</time></trkpt><trkpt lat="43.3201733" lon="11.78253"><ele>300.2</ele><time>2026-04-30T14:31:15.518Z</time></trkpt><trkpt lat="43.3200483" lon="11.7825483"><ele>299.59999999999997</ele><time>2026-04-30T14:31:17.524Z</time></trkpt><trkpt lat="43.319985" lon="11.78256"><ele>299.0</ele><time>2026-04-30T14:31:18.521Z</time></trkpt><trkpt lat="43.3199183" lon="11.7825767"><ele>299.0</ele><time>2026-04-30T14:31:19.524Z</time></trkpt><trkpt lat="43.31985" lon="11.7825917"><ele>299.0</ele><time>2026-04-30T14:31:20.523Z</time></trkpt><trkpt lat="43.319785" lon="11.7826083"><ele>299.0</ele><time>2026-04-30T14:31:21.521Z</time></trkpt><trkpt lat="43.3197183" lon="11.7826267"><ele>299.0</ele><time>2026-04-30T14:31:22.523Z</time></trkpt><trkpt lat="43.31965" lon="11.7826433"><ele>299.0</ele><time>2026-04-30T14:31:23.524Z</time></trkpt><trkpt lat="43.3195817" lon="11.7826567"><ele>299.0</ele><time>2026-04-30T14:31:24.52Z</time></trkpt><trkpt lat="43.319515" lon="11.7826667"><ele>299.0</ele><time>2026-04-30T14:31:25.518Z</time></trkpt><trkpt lat="43.3194467" lon="11.7826783"><ele>299.2857142857143</ele><time>2026-04-30T14:31:26.518Z</time></trkpt><trkpt lat="43.31938" lon="11.78269"><ele>299.57142857142856</ele><time>2026-04-30T14:31:27.521Z</time></trkpt><trkpt lat="43.3193133" lon="11.7827017"><ele>299.8571428571429</ele><time>2026-04-30T14:31:28.519Z</time></trkpt><trkpt lat="43.319245" lon="11.782715"><ele>300.1428571428571</ele><time>2026-04-30T14:31:29.521Z</time></trkpt><trkpt lat="43.3191767" lon="11.7827267"><ele>300.42857142857144</ele><time>2026-04-30T14:31:30.521Z</time></trkpt><trkpt lat="43.3191067" lon="11.7827433"><ele>300.7142857142857</ele><time>2026-04-30T14:31:31.519Z</time></trkpt><trkpt lat="43.319035" lon="11.7827567"><ele>301.0</ele><time>2026-04-30T14:31:32.521Z</time></trkpt><trkpt lat="43.3189667" lon="11.7827717"><ele>300.85714285714283</ele><time>2026-04-30T14:31:33.518Z</time></trkpt><trkpt lat="43.3188983" lon="11.782785"><ele>300.7142857142857</ele><time>2026-04-30T14:31:34.524Z</time></trkpt><trkpt lat="43.31883" lon="11.782795"><ele>300.57142857142856</ele><time>2026-04-30T14:31:35.52Z</time></trkpt><trkpt lat="43.3187633" lon="11.782805"><ele>300.42857142857144</ele><time>2026-04-30T14:31:36.523Z</time></trkpt><trkpt lat="43.3186967" lon="11.7828133"><ele>300.2857142857143</ele><time>2026-04-30T14:31:37.519Z</time></trkpt><trkpt lat="43.3186283" lon="11.7828167"><ele>300.1428571428571</ele><time>2026-04-30T14:31:38.521Z</time></trkpt><trkpt lat="43.3185633" lon="11.7828183"><ele>300.0</ele><time>2026-04-30T14:31:39.522Z</time></trkpt><trkpt lat="43.3184967" lon="11.7828283"><ele>300.0</ele><time>2026-04-30T14:31:40.521Z</time></trkpt><trkpt lat="43.31843" lon="11.7828367"><ele>300.0</ele><time>2026-04-30T14:31:41.52Z</time></trkpt><trkpt lat="43.318365" lon="11.7828417"><ele>300.0</ele><time>2026-04-30T14:31:42.518Z</time></trkpt><trkpt lat="43.3183017" lon="11.7828433"><ele>300.0</ele><time>2026-04-30T14:31:43.519Z</time></trkpt><trkpt lat="43.3181767" lon="11.7828467"><ele>300.0</ele><time>2026-04-30T14:31:45.524Z</time></trkpt><trkpt lat="43.3181133" lon="11.7828433"><ele>300.0</ele><time>2026-04-30T14:31:46.52Z</time></trkpt><trkpt lat="43.31799" lon="11.782835"><ele>300.0</ele><time>2026-04-30T14:31:48.52Z</time></trkpt><trkpt lat="43.317875" lon="11.782825"><ele>300.0</ele><time>2026-04-30T14:31:50.521Z</time></trkpt><trkpt lat="43.3177567" lon="11.78282"><ele>300.0</ele><time>2026-04-30T14:31:52.52Z</time></trkpt><trkpt lat="43.31764" lon="11.7828117"><ele>300.0</ele><time>2026-04-30T14:31:54.519Z</time></trkpt><trkpt lat="43.31752" lon="11.7828017"><ele>300.0</ele><time>2026-04-30T14:31:56.52Z</time></trkpt><trkpt lat="43.3173967" lon="11.7827883"><ele>300.0</ele><time>2026-04-30T14:31:58.521Z</time></trkpt><trkpt lat="43.3173333" lon="11.782785"><ele>300.0</ele><time>2026-04-30T14:31:59.519Z</time></trkpt><trkpt lat="43.3172683" lon="11.7827833"><ele>300.0</ele><time>2026-04-30T14:32:00.523Z</time></trkpt><trkpt lat="43.317205" lon="11.7827733"><ele>300.0</ele><time>2026-04-30T14:32:01.52Z</time></trkpt><trkpt lat="43.3171417" lon="11.7827667"><ele>300.0</ele><time>2026-04-30T14:32:02.524Z</time></trkpt><trkpt lat="43.3170267" lon="11.782755"><ele>300.2</ele><time>2026-04-30T14:32:04.52Z</time></trkpt><trkpt lat="43.31692" lon="11.7827467"><ele>300.4</ele><time>2026-04-30T14:32:06.521Z</time></trkpt><trkpt lat="43.3168233" lon="11.78274"><ele>300.6</ele><time>2026-04-30T14:32:08.521Z</time></trkpt><trkpt lat="43.3167133" lon="11.78274"><ele>300.8</ele><time>2026-04-30T14:32:10.521Z</time></trkpt><trkpt lat="43.3166017" lon="11.7827467"><ele>301.0</ele><time>2026-04-30T14:32:12.52Z</time></trkpt><trkpt lat="43.31649" lon="11.782755"><ele>300.0</ele><time>2026-04-30T14:32:14.525Z</time></trkpt><trkpt lat="43.3163783" lon="11.78278"><ele>299.0</ele><time>2026-04-30T14:32:16.521Z</time></trkpt><trkpt lat="43.31626" lon="11.7828133"><ele>298.0</ele><time>2026-04-30T14:32:18.52Z</time></trkpt><trkpt lat="43.3161467" lon="11.7828683"><ele>297.0</ele><time>2026-04-30T14:32:20.522Z</time></trkpt><trkpt lat="43.316035" lon="11.78294"><ele>297.0</ele><time>2026-04-30T14:32:22.519Z</time></trkpt><trkpt lat="43.31598" lon="11.7829833"><ele>297.0</ele><time>2026-04-30T14:32:23.521Z</time></trkpt><trkpt lat="43.3159267" lon="11.78304"><ele>297.0</ele><time>2026-04-30T14:32:24.52Z</time></trkpt><trkpt lat="43.3158783" lon="11.7831017"><ele>297.0</ele><time>2026-04-30T14:32:25.523Z</time></trkpt><trkpt lat="43.31583" lon="11.78317"><ele>297.0</ele><time>2026-04-30T14:32:26.523Z</time></trkpt><trkpt lat="43.315785" lon="11.7832417"><ele>297.0</ele><time>2026-04-30T14:32:27.52Z</time></trkpt><trkpt lat="43.3157417" lon="11.7833183"><ele>297.0</ele><time>2026-04-30T14:32:28.519Z</time></trkpt><trkpt lat="43.3156967" lon="11.7834017"><ele>297.0</ele><time>2026-04-30T14:32:29.524Z</time></trkpt><trkpt lat="43.315655" lon="11.783485"><ele>297.0</ele><time>2026-04-30T14:32:30.521Z</time></trkpt><trkpt lat="43.315615" lon="11.78357"><ele>297.0</ele><time>2026-04-30T14:32:31.52Z</time></trkpt><trkpt lat="43.315575" lon="11.7836533"><ele>297.0</ele><time>2026-04-30T14:32:32.523Z</time></trkpt><trkpt lat="43.3155333" lon="11.7837367"><ele>297.0</ele><time>2026-04-30T14:32:33.519Z</time></trkpt><trkpt lat="43.3154933" lon="11.7838217"><ele>297.0</ele><time>2026-04-30T14:32:34.523Z</time></trkpt><trkpt lat="43.3154533" lon="11.7839083"><ele>297.0</ele><time>2026-04-30T14:32:35.52Z</time></trkpt><trkpt lat="43.315415" lon="11.7839933"><ele>296.5</ele><time>2026-04-30T14:32:36.521Z</time></trkpt><trkpt lat="43.3153733" lon="11.7840783"><ele>296.0</ele><time>2026-04-30T14:32:37.518Z</time></trkpt><trkpt lat="43.3153333" lon="11.7841633"><ele>295.5</ele><time>2026-04-30T14:32:38.521Z</time></trkpt><trkpt lat="43.3152917" lon="11.7842517"><ele>295.0</ele><time>2026-04-30T14:32:39.518Z</time></trkpt><trkpt lat="43.3152517" lon="11.7843367"><ele>294.5</ele><time>2026-04-30T14:32:40.521Z</time></trkpt><trkpt lat="43.31521" lon="11.7844267"><ele>294.0</ele><time>2026-04-30T14:32:41.521Z</time></trkpt><trkpt lat="43.3151683" lon="11.7845133"><ele>294.0</ele><time>2026-04-30T14:32:42.52Z</time></trkpt><trkpt lat="43.315125" lon="11.7846017"><ele>294.0</ele><time>2026-04-30T14:32:43.519Z</time></trkpt><trkpt lat="43.3150783" lon="11.78469"><ele>294.0</ele><time>2026-04-30T14:32:44.522Z</time></trkpt><trkpt lat="43.31503" lon="11.7847817"><ele>294.0</ele><time>2026-04-30T14:32:45.519Z</time></trkpt><trkpt lat="43.3149833" lon="11.7848683"><ele>294.0</ele><time>2026-04-30T14:32:46.519Z</time></trkpt><trkpt lat="43.3149383" lon="11.7849533"><ele>294.0</ele><time>2026-04-30T14:32:47.52Z</time></trkpt><trkpt lat="43.3148917" lon="11.7850367"><ele>294.0</ele><time>2026-04-30T14:32:48.519Z</time></trkpt><trkpt lat="43.3148433" lon="11.7851167"><ele>294.0</ele><time>2026-04-30T14:32:49.521Z</time></trkpt><trkpt lat="43.3147933" lon="11.7851917"><ele>294.0</ele><time>2026-04-30T14:32:50.524Z</time></trkpt><trkpt lat="43.3147417" lon="11.78526"><ele>294.0</ele><time>2026-04-30T14:32:51.518Z</time></trkpt><trkpt lat="43.3146917" lon="11.7853233"><ele>294.0</ele><time>2026-04-30T14:32:52.521Z</time></trkpt><trkpt lat="43.3146417" lon="11.7853783"><ele>294.0</ele><time>2026-04-30T14:32:53.52Z</time></trkpt><trkpt lat="43.31459" lon="11.7854283"><ele>294.0</ele><time>2026-04-30T14:32:54.519Z</time></trkpt><trkpt lat="43.31449" lon="11.7855133"><ele>294.2</ele><time>2026-04-30T14:32:56.519Z</time></trkpt><trkpt lat="43.314395" lon="11.7855817"><ele>294.4</ele><time>2026-04-30T14:32:58.518Z</time></trkpt><trkpt lat="43.3143067" lon="11.785635"><ele>294.6</ele><time>2026-04-30T14:33:00.52Z</time></trkpt><trkpt lat="43.314225" lon="11.785685"><ele>294.8</ele><time>2026-04-30T14:33:02.519Z</time></trkpt><trkpt lat="43.31415" lon="11.785725"><ele>295.0</ele><time>2026-04-30T14:33:04.518Z</time></trkpt><trkpt lat="43.31408" lon="11.7857717"><ele>295.00000000000006</ele><time>2026-04-30T14:33:06.518Z</time></trkpt><trkpt lat="43.31401" lon="11.7858167"><ele>295.0</ele><time>2026-04-30T14:33:08.519Z</time></trkpt><trkpt lat="43.31394" lon="11.78585"><ele>295.0</ele><time>2026-04-30T14:33:10.52Z</time></trkpt><trkpt lat="43.313875" lon="11.7858883"><ele>295.0</ele><time>2026-04-30T14:33:12.517Z</time></trkpt><trkpt lat="43.3138083" lon="11.7859283"><ele>295.0</ele><time>2026-04-30T14:33:14.52Z</time></trkpt><trkpt lat="43.313745" lon="11.7859717"><ele>295.00000000000006</ele><time>2026-04-30T14:33:16.52Z</time></trkpt><trkpt lat="43.31368" lon="11.78601"><ele>295.0</ele><time>2026-04-30T14:33:18.521Z</time></trkpt><trkpt lat="43.3136183" lon="11.7860517"><ele>295.7142857142857</ele><time>2026-04-30T14:33:20.52Z</time></trkpt><trkpt lat="43.31356" lon="11.7860967"><ele>296.42857142857144</ele><time>2026-04-30T14:33:22.519Z</time></trkpt><trkpt lat="43.3134983" lon="11.7861367"><ele>297.1428571428571</ele><time>2026-04-30T14:33:24.519Z</time></trkpt><trkpt lat="43.313435" lon="11.78617"><ele>297.8571428571429</ele><time>2026-04-30T14:33:26.521Z</time></trkpt><trkpt lat="43.3133733" lon="11.7862117"><ele>298.57142857142856</ele><time>2026-04-30T14:33:28.518Z</time></trkpt><trkpt lat="43.3133067" lon="11.7862467"><ele>299.2857142857143</ele><time>2026-04-30T14:33:30.517Z</time></trkpt><trkpt lat="43.3132367" lon="11.7862867"><ele>300.0</ele><time>2026-04-30T14:33:32.521Z</time></trkpt><trkpt lat="43.31317" lon="11.7863367"><ele>300.0</ele><time>2026-04-30T14:33:34.518Z</time></trkpt><trkpt lat="43.3131017" lon="11.7863883"><ele>300.0</ele><time>2026-04-30T14:33:36.521Z</time></trkpt><trkpt lat="43.3130233" lon="11.786445"><ele>300.0</ele><time>2026-04-30T14:33:38.523Z</time></trkpt><trkpt lat="43.3129383" lon="11.7865067"><ele>300.0</ele><time>2026-04-30T14:33:40.521Z</time></trkpt><trkpt lat="43.3128517" lon="11.7865683"><ele>300.0</ele><time>2026-04-30T14:33:42.519Z</time></trkpt><trkpt lat="43.3127633" lon="11.786635"><ele>300.25</ele><time>2026-04-30T14:33:44.52Z</time></trkpt><trkpt lat="43.3126617" lon="11.7866933"><ele>300.5</ele><time>2026-04-30T14:33:46.52Z</time></trkpt><trkpt lat="43.3125567" lon="11.7867467"><ele>300.75</ele><time>2026-04-30T14:33:48.521Z</time></trkpt><trkpt lat="43.3124517" lon="11.7868"><ele>301.0</ele><time>2026-04-30T14:33:50.527Z</time></trkpt><trkpt lat="43.3123417" lon="11.7868583"><ele>300.8</ele><time>2026-04-30T14:33:52.522Z</time></trkpt><trkpt lat="43.3122317" lon="11.7869033"><ele>300.6</ele><time>2026-04-30T14:33:54.526Z</time></trkpt><trkpt lat="43.3121133" lon="11.7869267"><ele>300.4</ele><time>2026-04-30T14:33:56.523Z</time></trkpt><trkpt lat="43.312005" lon="11.786945"><ele>300.2</ele><time>2026-04-30T14:33:58.522Z</time></trkpt><trkpt lat="43.3119033" lon="11.786945"><ele>300.0</ele><time>2026-04-30T14:34:00.518Z</time></trkpt><trkpt lat="43.3118117" lon="11.7869167"><ele>300.0</ele><time>2026-04-30T14:34:02.522Z</time></trkpt><trkpt lat="43.3117183" lon="11.7868867"><ele>300.0</ele><time>2026-04-30T14:34:04.521Z</time></trkpt><trkpt lat="43.311625" lon="11.7868617"><ele>300.0</ele><time>2026-04-30T14:34:06.52Z</time></trkpt><trkpt lat="43.3115333" lon="11.7868317"><ele>300.0</ele><time>2026-04-30T14:34:08.52Z</time></trkpt><trkpt lat="43.3114383" lon="11.786795"><ele>300.0</ele><time>2026-04-30T14:34:10.518Z</time></trkpt><trkpt lat="43.3113383" lon="11.7867617"><ele>299.8</ele><time>2026-04-30T14:34:12.52Z</time></trkpt><trkpt lat="43.3112367" lon="11.7867267"><ele>299.6</ele><time>2026-04-30T14:34:14.523Z</time></trkpt><trkpt lat="43.3111367" lon="11.7866917"><ele>299.4</ele><time>2026-04-30T14:34:16.518Z</time></trkpt><trkpt lat="43.3110417" lon="11.7866567"><ele>299.2</ele><time>2026-04-30T14:34:18.522Z</time></trkpt><trkpt lat="43.3109467" lon="11.7866233"><ele>299.0</ele><time>2026-04-30T14:34:20.522Z</time></trkpt><trkpt lat="43.3108583" lon="11.7866"><ele>299.0</ele><time>2026-04-30T14:34:22.52Z</time></trkpt><trkpt lat="43.310775" lon="11.7865733"><ele>299.0</ele><time>2026-04-30T14:34:24.521Z</time></trkpt><trkpt lat="43.3106933" lon="11.7865517"><ele>299.0</ele><time>2026-04-30T14:34:26.519Z</time></trkpt><trkpt lat="43.3106" lon="11.7865483"><ele>299.0</ele><time>2026-04-30T14:34:28.521Z</time></trkpt><trkpt lat="43.31052" lon="11.7865483"><ele>299.0</ele><time>2026-04-30T14:34:30.52Z</time></trkpt><trkpt lat="43.310445" lon="11.7865467"><ele>299.0</ele><time>2026-04-30T14:34:32.522Z</time></trkpt><trkpt lat="43.3103683" lon="11.7865517"><ele>299.1428571428571</ele><time>2026-04-30T14:34:34.521Z</time></trkpt><trkpt lat="43.3102883" lon="11.7865683"><ele>299.2857142857143</ele><time>2026-04-30T14:34:36.524Z</time></trkpt><trkpt lat="43.31021" lon="11.7865833"><ele>299.42857142857144</ele><time>2026-04-30T14:34:38.522Z</time></trkpt><trkpt lat="43.3101417" lon="11.7865883"><ele>299.57142857142856</ele><time>2026-04-30T14:34:40.52Z</time></trkpt><trkpt lat="43.3100767" lon="11.7865917"><ele>299.7142857142857</ele><time>2026-04-30T14:34:42.52Z</time></trkpt><trkpt lat="43.3100083" lon="11.7865917"><ele>299.85714285714283</ele><time>2026-04-30T14:34:44.521Z</time></trkpt><trkpt lat="43.309935" lon="11.7866033"><ele>300.0</ele><time>2026-04-30T14:34:46.52Z</time></trkpt><trkpt lat="43.3098617" lon="11.7866083"><ele>299.99999999999994</ele><time>2026-04-30T14:34:48.522Z</time></trkpt><trkpt lat="43.30979" lon="11.78662"><ele>300.0</ele><time>2026-04-30T14:34:50.521Z</time></trkpt><trkpt lat="43.30972" lon="11.7866317"><ele>300.0</ele><time>2026-04-30T14:34:52.52Z</time></trkpt><trkpt lat="43.30965" lon="11.7866367"><ele>300.0</ele><time>2026-04-30T14:34:54.52Z</time></trkpt><trkpt lat="43.30958" lon="11.78665"><ele>300.0</ele><time>2026-04-30T14:34:56.522Z</time></trkpt><trkpt lat="43.309515" lon="11.786655"><ele>299.99999999999994</ele><time>2026-04-30T14:34:58.52Z</time></trkpt><trkpt lat="43.3094433" lon="11.7866667"><ele>300.0</ele><time>2026-04-30T14:35:00.52Z</time></trkpt><trkpt lat="43.309375" lon="11.7866733"><ele>300.4285714285714</ele><time>2026-04-30T14:35:02.522Z</time></trkpt><trkpt lat="43.3093083" lon="11.7866817"><ele>300.85714285714283</ele><time>2026-04-30T14:35:04.52Z</time></trkpt><trkpt lat="43.3092417" lon="11.7866917"><ele>301.2857142857143</ele><time>2026-04-30T14:35:06.524Z</time></trkpt><trkpt lat="43.3091733" lon="11.7867017"><ele>301.71428571428567</ele><time>2026-04-30T14:35:08.525Z</time></trkpt><trkpt lat="43.3091" lon="11.7867117"><ele>302.1428571428571</ele><time>2026-04-30T14:35:10.521Z</time></trkpt><trkpt lat="43.309035" lon="11.7867217"><ele>302.57142857142856</ele><time>2026-04-30T14:35:12.521Z</time></trkpt><trkpt lat="43.3089717" lon="11.7867267"><ele>303.0</ele><time>2026-04-30T14:35:14.52Z</time></trkpt><trkpt lat="43.3089033" lon="11.7867333"><ele>303.14285714285717</ele><time>2026-04-30T14:35:16.52Z</time></trkpt><trkpt lat="43.3088333" lon="11.78675"><ele>303.2857142857143</ele><time>2026-04-30T14:35:18.523Z</time></trkpt><trkpt lat="43.308765" lon="11.7867583"><ele>303.42857142857144</ele><time>2026-04-30T14:35:20.521Z</time></trkpt><trkpt lat="43.3087" lon="11.7867733"><ele>303.57142857142856</ele><time>2026-04-30T14:35:22.522Z</time></trkpt><trkpt lat="43.3086317" lon="11.7867933"><ele>303.7142857142857</ele><time>2026-04-30T14:35:24.523Z</time></trkpt><trkpt lat="43.3085683" lon="11.786825"><ele>303.85714285714283</ele><time>2026-04-30T14:35:26.52Z</time></trkpt><trkpt lat="43.3084833" lon="11.7868667"><ele>304.0</ele><time>2026-04-30T14:35:29.521Z</time></trkpt><trkpt lat="43.3084117" lon="11.7869083"><ele>304.85714285714283</ele><time>2026-04-30T14:35:31.521Z</time></trkpt><trkpt lat="43.3083467" lon="11.7869583"><ele>305.7142857142857</ele><time>2026-04-30T14:35:33.519Z</time></trkpt><trkpt lat="43.308285" lon="11.7870167"><ele>306.57142857142856</ele><time>2026-04-30T14:35:35.522Z</time></trkpt><trkpt lat="43.3082217" lon="11.78707"><ele>307.42857142857144</ele><time>2026-04-30T14:35:37.519Z</time></trkpt><trkpt lat="43.3081633" lon="11.7871317"><ele>308.2857142857143</ele><time>2026-04-30T14:35:39.519Z</time></trkpt><trkpt lat="43.3081033" lon="11.7871867"><ele>309.14285714285717</ele><time>2026-04-30T14:35:41.52Z</time></trkpt><trkpt lat="43.3080433" lon="11.787235"><ele>310.0</ele><time>2026-04-30T14:35:43.521Z</time></trkpt><trkpt lat="43.307985" lon="11.7872783"><ele>310.2857142857143</ele><time>2026-04-30T14:35:45.519Z</time></trkpt><trkpt lat="43.307925" lon="11.7873267"><ele>310.57142857142856</ele><time>2026-04-30T14:35:47.52Z</time></trkpt><trkpt lat="43.3078683" lon="11.78738"><ele>310.8571428571429</ele><time>2026-04-30T14:35:49.519Z</time></trkpt><trkpt lat="43.307815" lon="11.7874367"><ele>311.1428571428571</ele><time>2026-04-30T14:35:51.518Z</time></trkpt><trkpt lat="43.30776" lon="11.7874883"><ele>311.4285714285714</ele><time>2026-04-30T14:35:53.52Z</time></trkpt><trkpt lat="43.3076983" lon="11.78754"><ele>311.7142857142857</ele><time>2026-04-30T14:35:55.519Z</time></trkpt><trkpt lat="43.30763" lon="11.78758"><ele>312.0</ele><time>2026-04-30T14:35:57.522Z</time></trkpt><trkpt lat="43.3075617" lon="11.7876017"><ele>312.0</ele><time>2026-04-30T14:35:59.519Z</time></trkpt><trkpt lat="43.3074917" lon="11.7876017"><ele>312.0</ele><time>2026-04-30T14:36:01.519Z</time></trkpt><trkpt lat="43.3074283" lon="11.7875817"><ele>312.0</ele><time>2026-04-30T14:36:03.519Z</time></trkpt><trkpt lat="43.3073683" lon="11.7875383"><ele>312.0</ele><time>2026-04-30T14:36:05.523Z</time></trkpt><trkpt lat="43.3073133" lon="11.7874883"><ele>312.0</ele><time>2026-04-30T14:36:07.52Z</time></trkpt><trkpt lat="43.3072483" lon="11.7874317"><ele>312.0</ele><time>2026-04-30T14:36:09.52Z</time></trkpt><trkpt lat="43.3071817" lon="11.7873783"><ele>312.0</ele><time>2026-04-30T14:36:11.519Z</time></trkpt><trkpt lat="43.30712" lon="11.7873367"><ele>312.6666666666667</ele><time>2026-04-30T14:36:13.52Z</time></trkpt><trkpt lat="43.3070517" lon="11.78729"><ele>313.3333333333333</ele><time>2026-04-30T14:36:15.519Z</time></trkpt><trkpt lat="43.3069833" lon="11.7872417"><ele>314.0</ele><time>2026-04-30T14:36:17.519Z</time></trkpt><trkpt lat="43.306915" lon="11.7872"><ele>314.66666666666663</ele><time>2026-04-30T14:36:19.519Z</time></trkpt><trkpt lat="43.3068517" lon="11.7871667"><ele>315.3333333333333</ele><time>2026-04-30T14:36:21.519Z</time></trkpt><trkpt lat="43.30677" lon="11.7871183"><ele>316.0</ele><time>2026-04-30T14:36:24.521Z</time></trkpt><trkpt lat="43.3067083" lon="11.7870717"><ele>316.0</ele><time>2026-04-30T14:36:27.52Z</time></trkpt><trkpt lat="43.30665" lon="11.7870267"><ele>316.0</ele><time>2026-04-30T14:36:29.521Z</time></trkpt><trkpt lat="43.30659" lon="11.7869533"><ele>316.0</ele><time>2026-04-30T14:36:31.52Z</time></trkpt><trkpt lat="43.3065067" lon="11.7868583"><ele>316.0</ele><time>2026-04-30T14:36:33.521Z</time></trkpt><trkpt lat="43.3064567" lon="11.7868033"><ele>316.0</ele><time>2026-04-30T14:36:34.523Z</time></trkpt><trkpt lat="43.306405" lon="11.7867467"><ele>316.0</ele><time>2026-04-30T14:36:35.519Z</time></trkpt><trkpt lat="43.3063533" lon="11.7866917"><ele>315.8333333333333</ele><time>2026-04-30T14:36:36.517Z</time></trkpt><trkpt lat="43.3063017" lon="11.78664"><ele>315.66666666666663</ele><time>2026-04-30T14:36:37.522Z</time></trkpt><trkpt lat="43.3062067" lon="11.7865367"><ele>315.5</ele><time>2026-04-30T14:36:39.52Z</time></trkpt><trkpt lat="43.3061583" lon="11.786475"><ele>315.3333333333333</ele><time>2026-04-30T14:36:40.52Z</time></trkpt><trkpt lat="43.3061067" lon="11.786415"><ele>315.1666666666667</ele><time>2026-04-30T14:36:41.521Z</time></trkpt><trkpt lat="43.30605" lon="11.786355"><ele>315.0</ele><time>2026-04-30T14:36:42.519Z</time></trkpt><trkpt lat="43.3059983" lon="11.7862967"><ele>315.0</ele><time>2026-04-30T14:36:43.52Z</time></trkpt><trkpt lat="43.3059483" lon="11.7862367"><ele>315.0</ele><time>2026-04-30T14:36:44.522Z</time></trkpt><trkpt lat="43.3058533" lon="11.78613"><ele>315.0</ele><time>2026-04-30T14:36:46.522Z</time></trkpt><trkpt lat="43.3057733" lon="11.7860433"><ele>315.0</ele><time>2026-04-30T14:36:48.519Z</time></trkpt><trkpt lat="43.305705" lon="11.7859617"><ele>315.0</ele><time>2026-04-30T14:36:50.521Z</time></trkpt><trkpt lat="43.3056283" lon="11.7858867"><ele>315.0</ele><time>2026-04-30T14:36:52.524Z</time></trkpt><trkpt lat="43.3055483" lon="11.785825"><ele>315.0</ele><time>2026-04-30T14:36:54.524Z</time></trkpt><trkpt lat="43.3054817" lon="11.7857667"><ele>315.0</ele><time>2026-04-30T14:36:56.521Z</time></trkpt><trkpt lat="43.3054217" lon="11.785705"><ele>315.0</ele><time>2026-04-30T14:36:58.521Z</time></trkpt><trkpt lat="43.3053517" lon="11.785655"><ele>315.0</ele><time>2026-04-30T14:37:00.522Z</time></trkpt><trkpt lat="43.305275" lon="11.785605"><ele>315.0</ele><time>2026-04-30T14:37:02.523Z</time></trkpt><trkpt lat="43.3051967" lon="11.7855533"><ele>315.0</ele><time>2026-04-30T14:37:04.519Z</time></trkpt><trkpt lat="43.30511" lon="11.7855517"><ele>315.0</ele><time>2026-04-30T14:37:06.524Z</time></trkpt><trkpt lat="43.3050383" lon="11.7855983"><ele>315.0</ele><time>2026-04-30T14:37:08.521Z</time></trkpt><trkpt lat="43.3049683" lon="11.785665"><ele>315.0</ele><time>2026-04-30T14:37:10.522Z</time></trkpt><trkpt lat="43.304895" lon="11.7857317"><ele>315.0</ele><time>2026-04-30T14:37:12.521Z</time></trkpt><trkpt lat="43.304825" lon="11.7858083"><ele>315.0</ele><time>2026-04-30T14:37:14.521Z</time></trkpt><trkpt lat="43.304765" lon="11.7858917"><ele>314.3333333333333</ele><time>2026-04-30T14:37:16.518Z</time></trkpt><trkpt lat="43.3047117" lon="11.785985"><ele>313.6666666666667</ele><time>2026-04-30T14:37:18.521Z</time></trkpt><trkpt lat="43.3046733" lon="11.7860683"><ele>313.0</ele><time>2026-04-30T14:37:20.521Z</time></trkpt><trkpt lat="43.3046283" lon="11.7861533"><ele>312.33333333333337</ele><time>2026-04-30T14:37:23.522Z</time></trkpt><trkpt lat="43.3046" lon="11.7862517"><ele>311.6666666666667</ele><time>2026-04-30T14:37:27.52Z</time></trkpt><trkpt lat="43.3045467" lon="11.786305"><ele>311.0</ele><time>2026-04-30T14:37:30.519Z</time></trkpt><trkpt lat="43.3044767" lon="11.7863433"><ele>311.0</ele><time>2026-04-30T14:37:33.524Z</time></trkpt><trkpt lat="43.3043917" lon="11.7863683"><ele>311.0</ele><time>2026-04-30T14:37:36.522Z</time></trkpt><trkpt lat="43.3043233" lon="11.7863517"><ele>311.0</ele><time>2026-04-30T14:37:38.522Z</time></trkpt><trkpt lat="43.3042533" lon="11.786335"><ele>311.0</ele><time>2026-04-30T14:37:40.518Z</time></trkpt><trkpt lat="43.3041567" lon="11.7863033"><ele>311.0</ele><time>2026-04-30T14:37:42.524Z</time></trkpt><trkpt lat="43.304055" lon="11.7862633"><ele>311.0</ele><time>2026-04-30T14:37:44.522Z</time></trkpt><trkpt lat="43.30395" lon="11.7861867"><ele>310.40000000000003</ele><time>2026-04-30T14:37:46.519Z</time></trkpt><trkpt lat="43.30389" lon="11.7861583"><ele>309.8</ele><time>2026-04-30T14:37:47.518Z</time></trkpt><trkpt lat="43.30383" lon="11.7861317"><ele>309.20000000000005</ele><time>2026-04-30T14:37:48.519Z</time></trkpt><trkpt lat="43.303715" lon="11.7860833"><ele>308.6</ele><time>2026-04-30T14:37:50.519Z</time></trkpt><trkpt lat="43.3036067" lon="11.7860467"><ele>308.0</ele><time>2026-04-30T14:37:52.525Z</time></trkpt><trkpt lat="43.303485" lon="11.7860167"><ele>308.1666666666667</ele><time>2026-04-30T14:37:54.522Z</time></trkpt><trkpt lat="43.3034217" lon="11.786"><ele>308.33333333333337</ele><time>2026-04-30T14:37:55.523Z</time></trkpt><trkpt lat="43.3033567" lon="11.7859867"><ele>308.5</ele><time>2026-04-30T14:37:56.523Z</time></trkpt><trkpt lat="43.3032917" lon="11.7859717"><ele>308.6666666666667</ele><time>2026-04-30T14:37:57.519Z</time></trkpt><trkpt lat="43.3031733" lon="11.7859417"><ele>308.8333333333333</ele><time>2026-04-30T14:37:59.525Z</time></trkpt><trkpt lat="43.3030633" lon="11.7859033"><ele>309.0</ele><time>2026-04-30T14:38:01.521Z</time></trkpt><trkpt lat="43.3029517" lon="11.7858733"><ele>309.4</ele><time>2026-04-30T14:38:03.522Z</time></trkpt><trkpt lat="43.3028517" lon="11.7858467"><ele>309.79999999999995</ele><time>2026-04-30T14:38:05.523Z</time></trkpt><trkpt lat="43.3027533" lon="11.7858167"><ele>310.20000000000005</ele><time>2026-04-30T14:38:07.523Z</time></trkpt><trkpt lat="43.30266" lon="11.78579"><ele>310.6</ele><time>2026-04-30T14:38:09.52Z</time></trkpt><trkpt lat="43.3025783" lon="11.7857633"><ele>311.0</ele><time>2026-04-30T14:38:11.522Z</time></trkpt><trkpt lat="43.302475" lon="11.78574"><ele>311.0</ele><time>2026-04-30T14:38:13.519Z</time></trkpt><trkpt lat="43.3023667" lon="11.785715"><ele>311.0</ele><time>2026-04-30T14:38:15.521Z</time></trkpt><trkpt lat="43.3022467" lon="11.785695"><ele>311.0</ele><time>2026-04-30T14:38:17.521Z</time></trkpt><trkpt lat="43.3021233" lon="11.7856667"><ele>311.0</ele><time>2026-04-30T14:38:19.519Z</time></trkpt><trkpt lat="43.30206" lon="11.7856533"><ele>311.0</ele><time>2026-04-30T14:38:20.523Z</time></trkpt><trkpt lat="43.3019933" lon="11.7856433"><ele>310.6666666666667</ele><time>2026-04-30T14:38:21.522Z</time></trkpt><trkpt lat="43.301925" lon="11.7856383"><ele>310.33333333333337</ele><time>2026-04-30T14:38:22.52Z</time></trkpt><trkpt lat="43.3018567" lon="11.7856283"><ele>310.0</ele><time>2026-04-30T14:38:23.519Z</time></trkpt><trkpt lat="43.30178" lon="11.7856233"><ele>309.6666666666667</ele><time>2026-04-30T14:38:24.519Z</time></trkpt><trkpt lat="43.3017017" lon="11.7856133"><ele>309.3333333333333</ele><time>2026-04-30T14:38:25.522Z</time></trkpt><trkpt lat="43.3016217" lon="11.785605"><ele>309.0</ele><time>2026-04-30T14:38:26.521Z</time></trkpt><trkpt lat="43.30154" lon="11.7855933"><ele>309.0</ele><time>2026-04-30T14:38:27.518Z</time></trkpt><trkpt lat="43.3014533" lon="11.7855783"><ele>309.0</ele><time>2026-04-30T14:38:28.522Z</time></trkpt><trkpt lat="43.3013617" lon="11.7855633"><ele>309.0</ele><time>2026-04-30T14:38:29.519Z</time></trkpt><trkpt lat="43.3012717" lon="11.7855517"><ele>309.0</ele><time>2026-04-30T14:38:30.524Z</time></trkpt><trkpt lat="43.30118" lon="11.78554"><ele>309.0</ele><time>2026-04-30T14:38:31.521Z</time></trkpt><trkpt lat="43.3010883" lon="11.7855317"><ele>307.4</ele><time>2026-04-30T14:38:32.52Z</time></trkpt><trkpt lat="43.3009983" lon="11.7855217"><ele>305.79999999999995</ele><time>2026-04-30T14:38:33.518Z</time></trkpt><trkpt lat="43.300905" lon="11.7855083"><ele>304.20000000000005</ele><time>2026-04-30T14:38:34.525Z</time></trkpt><trkpt lat="43.3008133" lon="11.7854983"><ele>302.6</ele><time>2026-04-30T14:38:35.523Z</time></trkpt><trkpt lat="43.3007233" lon="11.7854917"><ele>301.0</ele><time>2026-04-30T14:38:36.52Z</time></trkpt><trkpt lat="43.3006383" lon="11.78548"><ele>300.16666666666663</ele><time>2026-04-30T14:38:37.519Z</time></trkpt><trkpt lat="43.3005567" lon="11.7854717"><ele>299.3333333333333</ele><time>2026-04-30T14:38:38.519Z</time></trkpt><trkpt lat="43.3004733" lon="11.7854633"><ele>298.5</ele><time>2026-04-30T14:38:39.52Z</time></trkpt><trkpt lat="43.300395" lon="11.78545"><ele>297.6666666666667</ele><time>2026-04-30T14:38:40.519Z</time></trkpt><trkpt lat="43.3003133" lon="11.7854367"><ele>296.83333333333337</ele><time>2026-04-30T14:38:41.523Z</time></trkpt><trkpt lat="43.300235" lon="11.7854317"><ele>296.0</ele><time>2026-04-30T14:38:42.527Z</time></trkpt><trkpt lat="43.300155" lon="11.7854383"><ele>296.0</ele><time>2026-04-30T14:38:43.519Z</time></trkpt><trkpt lat="43.3000733" lon="11.7854383"><ele>296.0</ele><time>2026-04-30T14:38:44.521Z</time></trkpt><trkpt lat="43.299995" lon="11.7854383"><ele>296.0</ele><time>2026-04-30T14:38:45.52Z</time></trkpt><trkpt lat="43.29992" lon="11.7854417"><ele>296.0</ele><time>2026-04-30T14:38:46.518Z</time></trkpt><trkpt lat="43.2998483" lon="11.7854433"><ele>296.0</ele><time>2026-04-30T14:38:47.523Z</time></trkpt><trkpt lat="43.2997783" lon="11.7854467"><ele>296.0</ele><time>2026-04-30T14:38:48.521Z</time></trkpt><trkpt lat="43.2996983" lon="11.7854517"><ele>296.5</ele><time>2026-04-30T14:38:49.519Z</time></trkpt><trkpt lat="43.2996233" lon="11.7854517"><ele>297.0</ele><time>2026-04-30T14:38:50.516Z</time></trkpt><trkpt lat="43.2995517" lon="11.78545"><ele>297.5</ele><time>2026-04-30T14:38:51.52Z</time></trkpt><trkpt lat="43.2994817" lon="11.7854483"><ele>298.0</ele><time>2026-04-30T14:38:52.517Z</time></trkpt><trkpt lat="43.2993583" lon="11.7854417"><ele>298.5</ele><time>2026-04-30T14:38:54.517Z</time></trkpt><trkpt lat="43.299265" lon="11.7854467"><ele>299.0</ele><time>2026-04-30T14:38:56.517Z</time></trkpt><trkpt lat="43.2991917" lon="11.7855217"><ele>299.0</ele><time>2026-04-30T14:38:57.518Z</time></trkpt><trkpt lat="43.2991217" lon="11.785525"><ele>299.0</ele><time>2026-04-30T14:38:58.518Z</time></trkpt><trkpt lat="43.2990133" lon="11.7855783"><ele>299.0</ele><time>2026-04-30T14:39:00.526Z</time></trkpt><trkpt lat="43.2990033" lon="11.7854867"><ele>299.0</ele><time>2026-04-30T14:39:01.521Z</time></trkpt><trkpt lat="43.2990017" lon="11.7853517"><ele>299.0</ele><time>2026-04-30T14:39:02.517Z</time></trkpt><trkpt lat="43.2989383" lon="11.7853083"><ele>299.0</ele><time>2026-04-30T14:39:04.517Z</time></trkpt><trkpt lat="43.29886" lon="11.7853833"><ele>299.0</ele><time>2026-04-30T14:39:07.522Z</time></trkpt><trkpt lat="43.298915" lon="11.785435"><ele>299.0</ele><time>2026-04-30T14:39:10.52Z</time></trkpt><trkpt lat="43.2990033" lon="11.7854583"><ele>299.0</ele><time>2026-04-30T14:39:13.521Z</time></trkpt><trkpt lat="43.2990967" lon="11.785465"><ele>299.0</ele><time>2026-04-30T14:39:16.519Z</time></trkpt><trkpt lat="43.2991683" lon="11.7854683"><ele>299.0</ele><time>2026-04-30T14:39:18.52Z</time></trkpt><trkpt lat="43.2992417" lon="11.7854633"><ele>299.0</ele><time>2026-04-30T14:39:20.52Z</time></trkpt><trkpt lat="43.2993183" lon="11.78545"><ele>299.0</ele><time>2026-04-30T14:39:22.522Z</time></trkpt><trkpt lat="43.2994133" lon="11.7854433"><ele>299.0</ele><time>2026-04-30T14:39:24.524Z</time></trkpt><trkpt lat="43.2995133" lon="11.7854483"><ele>299.0</ele><time>2026-04-30T14:39:26.52Z</time></trkpt><trkpt lat="43.2996183" lon="11.78545"><ele>299.0</ele><time>2026-04-30T14:39:28.521Z</time></trkpt><trkpt lat="43.29972" lon="11.7854567"><ele>299.0</ele><time>2026-04-30T14:39:30.523Z</time></trkpt><trkpt lat="43.2998183" lon="11.7854567"><ele>298.5</ele><time>2026-04-30T14:39:32.524Z</time></trkpt><trkpt lat="43.29991" lon="11.7854567"><ele>298.0</ele><time>2026-04-30T14:39:34.521Z</time></trkpt><trkpt lat="43.299995" lon="11.7854517"><ele>297.5</ele><time>2026-04-30T14:39:36.522Z</time></trkpt><trkpt lat="43.3000783" lon="11.785445"><ele>297.0</ele><time>2026-04-30T14:39:38.521Z</time></trkpt><trkpt lat="43.3001533" lon="11.78541"><ele>296.5</ele><time>2026-04-30T14:39:40.522Z</time></trkpt><trkpt lat="43.3001933" lon="11.78533"><ele>296.0</ele><time>2026-04-30T14:39:42.521Z</time></trkpt><trkpt lat="43.3002033" lon="11.7852333"><ele>297.14285714285717</ele><time>2026-04-30T14:39:44.522Z</time></trkpt><trkpt lat="43.3002033" lon="11.78514"><ele>298.2857142857143</ele><time>2026-04-30T14:39:46.525Z</time></trkpt><trkpt lat="43.300205" lon="11.7850533"><ele>299.42857142857144</ele><time>2026-04-30T14:39:48.522Z</time></trkpt><trkpt lat="43.3002267" lon="11.7849483"><ele>300.57142857142856</ele><time>2026-04-30T14:39:51.52Z</time></trkpt><trkpt lat="43.300265" lon="11.7848467"><ele>301.7142857142857</ele><time>2026-04-30T14:39:55.523Z</time></trkpt><trkpt lat="43.3002383" lon="11.7847467"><ele>302.85714285714283</ele><time>2026-04-30T14:39:59.522Z</time></trkpt><trkpt lat="43.30022" lon="11.7846517"><ele>304.0</ele><time>2026-04-30T14:40:02.521Z</time></trkpt><trkpt lat="43.3002" lon="11.7845383"><ele>304.0</ele><time>2026-04-30T14:40:05.52Z</time></trkpt><trkpt lat="43.3001633" lon="11.7843583"><ele>304.0</ele><time>2026-04-30T14:40:07.517Z</time></trkpt><trkpt lat="43.3001333" lon="11.7842167"><ele>304.0</ele><time>2026-04-30T14:40:09.52Z</time></trkpt><trkpt lat="43.300085" lon="11.7840917"><ele>304.0</ele><time>2026-04-30T14:40:11.521Z</time></trkpt><trkpt lat="43.3000317" lon="11.7839983"><ele>304.0</ele><time>2026-04-30T14:40:13.519Z</time></trkpt><trkpt lat="43.29998" lon="11.7839217"><ele>304.0</ele><time>2026-04-30T14:40:15.517Z</time></trkpt><trkpt lat="43.299925" lon="11.78385"><ele>304.0</ele><time>2026-04-30T14:40:17.516Z</time></trkpt><trkpt lat="43.2998683" lon="11.78378"><ele>304.0</ele><time>2026-04-30T14:40:19.516Z</time></trkpt><trkpt lat="43.2998183" lon="11.7837083"><ele>304.0</ele><time>2026-04-30T14:40:21.519Z</time></trkpt><trkpt lat="43.299765" lon="11.783655"><ele>304.0</ele><time>2026-04-30T14:40:23.518Z</time></trkpt><trkpt lat="43.299695" lon="11.7835767"><ele>304.0</ele><time>2026-04-30T14:40:25.518Z</time></trkpt><trkpt lat="43.2996383" lon="11.7834933"><ele>303.59999999999997</ele><time>2026-04-30T14:40:27.52Z</time></trkpt><trkpt lat="43.2995767" lon="11.7833867"><ele>303.2</ele><time>2026-04-30T14:40:29.521Z</time></trkpt><trkpt lat="43.2995217" lon="11.7832817"><ele>302.79999999999995</ele><time>2026-04-30T14:40:31.52Z</time></trkpt><trkpt lat="43.2994633" lon="11.7831517"><ele>302.4</ele><time>2026-04-30T14:40:33.519Z</time></trkpt><trkpt lat="43.2993817" lon="11.783015"><ele>302.0</ele><time>2026-04-30T14:40:35.52Z</time></trkpt><trkpt lat="43.2993133" lon="11.7828633"><ele>302.00000000000006</ele><time>2026-04-30T14:40:37.522Z</time></trkpt><trkpt lat="43.299275" lon="11.7827883"><ele>302.0</ele><time>2026-04-30T14:40:38.52Z</time></trkpt><trkpt lat="43.2992383" lon="11.7827167"><ele>302.0</ele><time>2026-04-30T14:40:39.522Z</time></trkpt><trkpt lat="43.2991983" lon="11.7826383"><ele>302.0</ele><time>2026-04-30T14:40:40.517Z</time></trkpt><trkpt lat="43.2991633" lon="11.782555"><ele>302.0</ele><time>2026-04-30T14:40:41.519Z</time></trkpt><trkpt lat="43.2991283" lon="11.7824667"><ele>302.00000000000006</ele><time>2026-04-30T14:40:42.522Z</time></trkpt><trkpt lat="43.2990883" lon="11.7823783"><ele>302.0</ele><time>2026-04-30T14:40:43.518Z</time></trkpt><trkpt lat="43.2990467" lon="11.7822967"><ele>301.8571428571429</ele><time>2026-04-30T14:40:44.519Z</time></trkpt><trkpt lat="43.2990033" lon="11.7822183"><ele>301.7142857142857</ele><time>2026-04-30T14:40:45.52Z</time></trkpt><trkpt lat="43.2989567" lon="11.782145"><ele>301.57142857142856</ele><time>2026-04-30T14:40:46.52Z</time></trkpt><trkpt lat="43.2989133" lon="11.78207"><ele>301.42857142857144</ele><time>2026-04-30T14:40:47.52Z</time></trkpt><trkpt lat="43.29887" lon="11.7819917"><ele>301.2857142857143</ele><time>2026-04-30T14:40:48.52Z</time></trkpt><trkpt lat="43.2988233" lon="11.78191"><ele>301.14285714285717</ele><time>2026-04-30T14:40:49.52Z</time></trkpt><trkpt lat="43.29878" lon="11.781825"><ele>301.0</ele><time>2026-04-30T14:40:50.519Z</time></trkpt><trkpt lat="43.2987433" lon="11.7817367"><ele>300.3333333333333</ele><time>2026-04-30T14:40:51.521Z</time></trkpt><trkpt lat="43.2987067" lon="11.7816433"><ele>299.66666666666663</ele><time>2026-04-30T14:40:52.519Z</time></trkpt><trkpt lat="43.29867" lon="11.7815533"><ele>299.0</ele><time>2026-04-30T14:40:53.521Z</time></trkpt><trkpt lat="43.2986333" lon="11.7814617"><ele>298.3333333333333</ele><time>2026-04-30T14:40:54.521Z</time></trkpt><trkpt lat="43.2985917" lon="11.781375"><ele>297.6666666666667</ele><time>2026-04-30T14:40:55.524Z</time></trkpt><trkpt lat="43.29854" lon="11.7812967"><ele>297.0</ele><time>2026-04-30T14:40:56.52Z</time></trkpt><trkpt lat="43.2984833" lon="11.78123"><ele>297.0</ele><time>2026-04-30T14:40:57.521Z</time></trkpt><trkpt lat="43.2984217" lon="11.7811683"><ele>297.0</ele><time>2026-04-30T14:40:58.52Z</time></trkpt><trkpt lat="43.2983617" lon="11.78111"><ele>297.0</ele><time>2026-04-30T14:40:59.519Z</time></trkpt><trkpt lat="43.2983017" lon="11.7810567"><ele>297.0</ele><time>2026-04-30T14:41:00.519Z</time></trkpt><trkpt lat="43.298235" lon="11.7810033"><ele>297.0</ele><time>2026-04-30T14:41:01.521Z</time></trkpt><trkpt lat="43.2981783" lon="11.7809483"><ele>297.0</ele><time>2026-04-30T14:41:02.519Z</time></trkpt><trkpt lat="43.2981283" lon="11.78089"><ele>297.0</ele><time>2026-04-30T14:41:03.522Z</time></trkpt><trkpt lat="43.2980833" lon="11.7808267"><ele>296.2</ele><time>2026-04-30T14:41:04.52Z</time></trkpt><trkpt lat="43.297995" lon="11.7807067"><ele>295.4</ele><time>2026-04-30T14:41:06.52Z</time></trkpt><trkpt lat="43.2979183" lon="11.7806"><ele>294.6</ele><time>2026-04-30T14:41:08.519Z</time></trkpt><trkpt lat="43.2978467" lon="11.7805"><ele>293.8</ele><time>2026-04-30T14:41:10.518Z</time></trkpt><trkpt lat="43.2977683" lon="11.7804217"><ele>293.0</ele><time>2026-04-30T14:41:12.52Z</time></trkpt><trkpt lat="43.29769" lon="11.780355"><ele>292.99999999999994</ele><time>2026-04-30T14:41:14.522Z</time></trkpt><trkpt lat="43.2976167" lon="11.78031"><ele>293.0</ele><time>2026-04-30T14:41:16.52Z</time></trkpt><trkpt lat="43.2975633" lon="11.78026"><ele>293.0</ele><time>2026-04-30T14:41:18.523Z</time></trkpt><trkpt lat="43.2975" lon="11.7802283"><ele>293.0</ele><time>2026-04-30T14:41:21.522Z</time></trkpt><trkpt lat="43.297525" lon="11.7801333"><ele>293.0</ele><time>2026-04-30T14:43:11.525Z</time></trkpt><trkpt lat="43.2975383" lon="11.7800417"><ele>292.99999999999994</ele><time>2026-04-30T14:43:14.521Z</time></trkpt><trkpt lat="43.2975783" lon="11.77995"><ele>293.0</ele><time>2026-04-30T14:43:18.52Z</time></trkpt><trkpt lat="43.2976067" lon="11.7798317"><ele>293.1666666666667</ele><time>2026-04-30T14:43:22.525Z</time></trkpt><trkpt lat="43.2976367" lon="11.7797217"><ele>293.33333333333337</ele><time>2026-04-30T14:43:25.523Z</time></trkpt><trkpt lat="43.2976583" lon="11.7796317"><ele>293.5</ele><time>2026-04-30T14:43:27.524Z</time></trkpt><trkpt lat="43.2976833" lon="11.77954"><ele>293.6666666666667</ele><time>2026-04-30T14:43:29.521Z</time></trkpt><trkpt lat="43.2977133" lon="11.7794283"><ele>293.8333333333333</ele><time>2026-04-30T14:43:31.52Z</time></trkpt><trkpt lat="43.29775" lon="11.7792967"><ele>294.0</ele><time>2026-04-30T14:43:33.522Z</time></trkpt><trkpt lat="43.2977883" lon="11.779145"><ele>294.0</ele><time>2026-04-30T14:43:35.519Z</time></trkpt><trkpt lat="43.29781" lon="11.7790617"><ele>294.0</ele><time>2026-04-30T14:43:36.523Z</time></trkpt><trkpt lat="43.2978317" lon="11.778975"><ele>294.0</ele><time>2026-04-30T14:43:37.522Z</time></trkpt><trkpt lat="43.2978567" lon="11.7788717"><ele>294.0</ele><time>2026-04-30T14:43:38.523Z</time></trkpt><trkpt lat="43.2978767" lon="11.77878"><ele>294.0</ele><time>2026-04-30T14:43:39.518Z</time></trkpt><trkpt lat="43.2978933" lon="11.7786833"><ele>294.0</ele><time>2026-04-30T14:43:40.52Z</time></trkpt><trkpt lat="43.297915" lon="11.7785917"><ele>294.0</ele><time>2026-04-30T14:43:41.518Z</time></trkpt><trkpt lat="43.29794" lon="11.7784933"><ele>293.42857142857144</ele><time>2026-04-30T14:43:42.521Z</time></trkpt><trkpt lat="43.2979617" lon="11.778395"><ele>292.8571428571429</ele><time>2026-04-30T14:43:43.519Z</time></trkpt><trkpt lat="43.29798" lon="11.7783017"><ele>292.2857142857143</ele><time>2026-04-30T14:43:44.52Z</time></trkpt><trkpt lat="43.2979967" lon="11.7782067"><ele>291.7142857142857</ele><time>2026-04-30T14:43:45.521Z</time></trkpt><trkpt lat="43.298015" lon="11.7781133"><ele>291.14285714285717</ele><time>2026-04-30T14:43:46.522Z</time></trkpt><trkpt lat="43.2980367" lon="11.778025"><ele>290.57142857142856</ele><time>2026-04-30T14:43:47.519Z</time></trkpt><trkpt lat="43.2980567" lon="11.7779417"><ele>290.0</ele><time>2026-04-30T14:43:48.52Z</time></trkpt><trkpt lat="43.2980867" lon="11.7777867"><ele>290.2</ele><time>2026-04-30T14:43:50.519Z</time></trkpt><trkpt lat="43.2981067" lon="11.777645"><ele>290.4</ele><time>2026-04-30T14:43:52.52Z</time></trkpt><trkpt lat="43.2981233" lon="11.7775017"><ele>290.6</ele><time>2026-04-30T14:43:54.519Z</time></trkpt><trkpt lat="43.2981417" lon="11.77736"><ele>290.8</ele><time>2026-04-30T14:43:56.522Z</time></trkpt><trkpt lat="43.298155" lon="11.777225"><ele>291.0</ele><time>2026-04-30T14:43:58.519Z</time></trkpt><trkpt lat="43.298165" lon="11.7770983"><ele>291.0</ele><time>2026-04-30T14:44:00.521Z</time></trkpt><trkpt lat="43.2981767" lon="11.7769767"><ele>291.0</ele><time>2026-04-30T14:44:02.522Z</time></trkpt><trkpt lat="43.29819" lon="11.7768533"><ele>291.0</ele><time>2026-04-30T14:44:04.52Z</time></trkpt><trkpt lat="43.29821" lon="11.7767433"><ele>291.0</ele><time>2026-04-30T14:44:06.52Z</time></trkpt><trkpt lat="43.2982267" lon="11.77663"><ele>291.0</ele><time>2026-04-30T14:44:08.52Z</time></trkpt><trkpt lat="43.2982283" lon="11.7765133"><ele>291.0</ele><time>2026-04-30T14:44:10.525Z</time></trkpt><trkpt lat="43.2982217" lon="11.7763917"><ele>290.8</ele><time>2026-04-30T14:44:12.519Z</time></trkpt><trkpt lat="43.2982267" lon="11.77625"><ele>290.6</ele><time>2026-04-30T14:44:14.519Z</time></trkpt><trkpt lat="43.2982617" lon="11.7761083"><ele>290.4</ele><time>2026-04-30T14:44:16.523Z</time></trkpt><trkpt lat="43.298315" lon="11.775955"><ele>290.2</ele><time>2026-04-30T14:44:18.524Z</time></trkpt><trkpt lat="43.29835" lon="11.7758733"><ele>290.0</ele><time>2026-04-30T14:44:19.52Z</time></trkpt><trkpt lat="43.29839" lon="11.775795"><ele>289.7142857142857</ele><time>2026-04-30T14:44:20.521Z</time></trkpt><trkpt lat="43.2984367" lon="11.7757183"><ele>289.42857142857144</ele><time>2026-04-30T14:44:21.521Z</time></trkpt><trkpt lat="43.2984833" lon="11.77565"><ele>289.14285714285717</ele><time>2026-04-30T14:44:22.523Z</time></trkpt><trkpt lat="43.2985317" lon="11.7755783"><ele>288.8571428571429</ele><time>2026-04-30T14:44:23.52Z</time></trkpt><trkpt lat="43.29858" lon="11.7755083"><ele>288.57142857142856</ele><time>2026-04-30T14:44:24.521Z</time></trkpt><trkpt lat="43.29863" lon="11.7754383"><ele>288.28571428571433</ele><time>2026-04-30T14:44:25.521Z</time></trkpt><trkpt lat="43.2986833" lon="11.7753667"><ele>288.0</ele><time>2026-04-30T14:44:26.523Z</time></trkpt><trkpt lat="43.2987367" lon="11.7752917"><ele>288.00000000000006</ele><time>2026-04-30T14:44:27.523Z</time></trkpt><trkpt lat="43.29879" lon="11.775215"><ele>288.0</ele><time>2026-04-30T14:44:28.522Z</time></trkpt><trkpt lat="43.2988417" lon="11.7751383"><ele>288.0</ele><time>2026-04-30T14:44:29.519Z</time></trkpt><trkpt lat="43.2988917" lon="11.7750583"><ele>288.0</ele><time>2026-04-30T14:44:30.52Z</time></trkpt><trkpt lat="43.2989383" lon="11.7749767"><ele>288.0</ele><time>2026-04-30T14:44:31.524Z</time></trkpt><trkpt lat="43.2989817" lon="11.7748967"><ele>288.00000000000006</ele><time>2026-04-30T14:44:32.519Z</time></trkpt><trkpt lat="43.29902" lon="11.774815"><ele>288.0</ele><time>2026-04-30T14:44:33.521Z</time></trkpt><trkpt lat="43.2990517" lon="11.7747283"><ele>285.5714285714286</ele><time>2026-04-30T14:44:34.521Z</time></trkpt><trkpt lat="43.299075" lon="11.7746383"><ele>283.14285714285717</ele><time>2026-04-30T14:44:35.522Z</time></trkpt><trkpt lat="43.2990867" lon="11.7745417"><ele>280.7142857142857</ele><time>2026-04-30T14:44:36.52Z</time></trkpt><trkpt lat="43.2990983" lon="11.77444"><ele>278.28571428571433</ele><time>2026-04-30T14:44:37.521Z</time></trkpt><trkpt lat="43.2991117" lon="11.7743433"><ele>275.8571428571429</ele><time>2026-04-30T14:44:38.521Z</time></trkpt><trkpt lat="43.29913" lon="11.7742483"><ele>273.42857142857144</ele><time>2026-04-30T14:44:39.518Z</time></trkpt><trkpt lat="43.2991517" lon="11.7741567"><ele>271.0</ele><time>2026-04-30T14:44:40.521Z</time></trkpt><trkpt lat="43.2991783" lon="11.7740667"><ele>269.8</ele><time>2026-04-30T14:44:41.523Z</time></trkpt><trkpt lat="43.29921" lon="11.7739883"><ele>268.6</ele><time>2026-04-30T14:44:42.518Z</time></trkpt><trkpt lat="43.299295" lon="11.7738717"><ele>267.4</ele><time>2026-04-30T14:44:44.524Z</time></trkpt><trkpt lat="43.299405" lon="11.773845"><ele>266.2</ele><time>2026-04-30T14:44:46.52Z</time></trkpt><trkpt lat="43.2995217" lon="11.7739233"><ele>265.0</ele><time>2026-04-30T14:44:48.522Z</time></trkpt><trkpt lat="43.2995833" lon="11.773975"><ele>265.0</ele><time>2026-04-30T14:44:49.523Z</time></trkpt><trkpt lat="43.299645" lon="11.774025"><ele>265.0</ele><time>2026-04-30T14:44:50.522Z</time></trkpt><trkpt lat="43.2997033" lon="11.7740783"><ele>265.0</ele><time>2026-04-30T14:44:51.519Z</time></trkpt><trkpt lat="43.2997567" lon="11.7741283"><ele>265.0</ele><time>2026-04-30T14:44:52.521Z</time></trkpt><trkpt lat="43.2998617" lon="11.7741467"><ele>265.0</ele><time>2026-04-30T14:44:54.52Z</time></trkpt><trkpt lat="43.2999433" lon="11.7740517"><ele>265.0</ele><time>2026-04-30T14:44:56.519Z</time></trkpt><trkpt lat="43.299975" lon="11.773895"><ele>264.0</ele><time>2026-04-30T14:44:58.521Z</time></trkpt><trkpt lat="43.2999983" lon="11.77374"><ele>263.0</ele><time>2026-04-30T14:45:00.52Z</time></trkpt><trkpt lat="43.3000217" lon="11.7735917"><ele>262.0</ele><time>2026-04-30T14:45:02.522Z</time></trkpt><trkpt lat="43.300045" lon="11.773445"><ele>261.0</ele><time>2026-04-30T14:45:04.52Z</time></trkpt><trkpt lat="43.300065" lon="11.7733017"><ele>260.0</ele><time>2026-04-30T14:45:06.521Z</time></trkpt><trkpt lat="43.3000833" lon="11.7731617"><ele>259.6</ele><time>2026-04-30T14:45:08.521Z</time></trkpt><trkpt lat="43.3000983" lon="11.773025"><ele>259.2</ele><time>2026-04-30T14:45:10.52Z</time></trkpt><trkpt lat="43.30013" lon="11.77289"><ele>258.8</ele><time>2026-04-30T14:45:12.519Z</time></trkpt><trkpt lat="43.3001867" lon="11.7727667"><ele>258.4</ele><time>2026-04-30T14:45:14.522Z</time></trkpt><trkpt lat="43.300255" lon="11.7726483"><ele>258.0</ele><time>2026-04-30T14:45:16.522Z</time></trkpt><trkpt lat="43.30033" lon="11.7725467"><ele>257.8</ele><time>2026-04-30T14:45:18.52Z</time></trkpt><trkpt lat="43.3003933" lon="11.7724417"><ele>257.6</ele><time>2026-04-30T14:45:20.522Z</time></trkpt><trkpt lat="43.300455" lon="11.772335"><ele>257.4</ele><time>2026-04-30T14:45:22.518Z</time></trkpt><trkpt lat="43.3005167" lon="11.7722367"><ele>257.2</ele><time>2026-04-30T14:45:24.528Z</time></trkpt><trkpt lat="43.30057" lon="11.7721433"><ele>257.0</ele><time>2026-04-30T14:45:26.521Z</time></trkpt><trkpt lat="43.3006233" lon="11.7720633"><ele>257.33333333333337</ele><time>2026-04-30T14:45:28.521Z</time></trkpt><trkpt lat="43.3006683" lon="11.7719883"><ele>257.6666666666667</ele><time>2026-04-30T14:45:30.519Z</time></trkpt><trkpt lat="43.3007117" lon="11.7718883"><ele>258.0</ele><time>2026-04-30T14:45:33.526Z</time></trkpt><trkpt lat="43.3006883" lon="11.771785"><ele>258.3333333333333</ele><time>2026-04-30T14:45:36.523Z</time></trkpt><trkpt lat="43.3006517" lon="11.7716833"><ele>258.66666666666663</ele><time>2026-04-30T14:45:39.52Z</time></trkpt><trkpt lat="43.3006233" lon="11.7715567"><ele>259.0</ele><time>2026-04-30T14:45:42.523Z</time></trkpt><trkpt lat="43.3005883" lon="11.7714717"><ele>258.7142857142857</ele><time>2026-04-30T14:45:44.52Z</time></trkpt><trkpt lat="43.30055" lon="11.7713883"><ele>258.42857142857144</ele><time>2026-04-30T14:45:46.519Z</time></trkpt><trkpt lat="43.300505" lon="11.7713017"><ele>258.1428571428571</ele><time>2026-04-30T14:45:48.521Z</time></trkpt><trkpt lat="43.30047" lon="11.7712183"><ele>257.8571428571429</ele><time>2026-04-30T14:45:50.521Z</time></trkpt><trkpt lat="43.3004367" lon="11.771135"><ele>257.57142857142856</ele><time>2026-04-30T14:45:52.522Z</time></trkpt><trkpt lat="43.3004083" lon="11.7710533"><ele>257.2857142857143</ele><time>2026-04-30T14:45:54.519Z</time></trkpt><trkpt lat="43.3003783" lon="11.7709483"><ele>257.0</ele><time>2026-04-30T14:45:57.521Z</time></trkpt><trkpt lat="43.3003217" lon="11.770875"><ele>256.83333333333337</ele><time>2026-04-30T14:47:37.52Z</time></trkpt><trkpt lat="43.3002683" lon="11.7707967"><ele>256.6666666666667</ele><time>2026-04-30T14:47:41.521Z</time></trkpt><trkpt lat="43.3002117" lon="11.77071"><ele>256.5</ele><time>2026-04-30T14:48:02.522Z</time></trkpt><trkpt lat="43.300165" lon="11.770635"><ele>256.3333333333333</ele><time>2026-04-30T14:48:04.52Z</time></trkpt><trkpt lat="43.3001183" lon="11.7705367"><ele>256.16666666666663</ele><time>2026-04-30T14:48:06.519Z</time></trkpt><trkpt lat="43.3000733" lon="11.7704367"><ele>256.0</ele><time>2026-04-30T14:48:08.522Z</time></trkpt><trkpt lat="43.3000183" lon="11.7703383"><ele>256.0</ele><time>2026-04-30T14:48:10.522Z</time></trkpt><trkpt lat="43.2999583" lon="11.770235"><ele>256.0</ele><time>2026-04-30T14:48:12.519Z</time></trkpt><trkpt lat="43.2999" lon="11.7701333"><ele>256.0</ele><time>2026-04-30T14:48:14.522Z</time></trkpt><trkpt lat="43.2998383" lon="11.77003"><ele>256.0</ele><time>2026-04-30T14:48:16.52Z</time></trkpt><trkpt lat="43.299775" lon="11.7699117"><ele>256.0</ele><time>2026-04-30T14:48:18.52Z</time></trkpt><trkpt lat="43.2997083" lon="11.7697967"><ele>256.0</ele><time>2026-04-30T14:48:20.519Z</time></trkpt><trkpt lat="43.2996417" lon="11.76968"><ele>256.0</ele><time>2026-04-30T14:48:22.524Z</time></trkpt><trkpt lat="43.2995767" lon="11.7695683"><ele>256.0</ele><time>2026-04-30T14:48:24.519Z</time></trkpt><trkpt lat="43.2995117" lon="11.769455"><ele>256.0</ele><time>2026-04-30T14:48:26.524Z</time></trkpt><trkpt lat="43.2994483" lon="11.7693483"><ele>256.0</ele><time>2026-04-30T14:48:28.521Z</time></trkpt><trkpt lat="43.29938" lon="11.7692333"><ele>256.0</ele><time>2026-04-30T14:48:30.521Z</time></trkpt><trkpt lat="43.29932" lon="11.769115"><ele>256.0</ele><time>2026-04-30T14:48:32.52Z</time></trkpt><trkpt lat="43.29926" lon="11.768995"><ele>256.0</ele><time>2026-04-30T14:48:34.525Z</time></trkpt><trkpt lat="43.2991917" lon="11.768875"><ele>256.0</ele><time>2026-04-30T14:48:36.52Z</time></trkpt><trkpt lat="43.29912" lon="11.7687617"><ele>256.0</ele><time>2026-04-30T14:48:38.523Z</time></trkpt><trkpt lat="43.2990533" lon="11.7686517"><ele>256.0</ele><time>2026-04-30T14:48:40.518Z</time></trkpt><trkpt lat="43.29899" lon="11.76854"><ele>256.0</ele><time>2026-04-30T14:48:42.521Z</time></trkpt><trkpt lat="43.29893" lon="11.768425"><ele>256.0</ele><time>2026-04-30T14:48:44.521Z</time></trkpt><trkpt lat="43.2988683" lon="11.7683133"><ele>256.0</ele><time>2026-04-30T14:48:46.52Z</time></trkpt><trkpt lat="43.298805" lon="11.768205"><ele>256.0</ele><time>2026-04-30T14:48:48.52Z</time></trkpt><trkpt lat="43.298745" lon="11.7681"><ele>256.0</ele><time>2026-04-30T14:48:50.52Z</time></trkpt><trkpt lat="43.2986867" lon="11.7679917"><ele>256.0</ele><time>2026-04-30T14:48:52.519Z</time></trkpt><trkpt lat="43.2986267" lon="11.76788"><ele>256.0</ele><time>2026-04-30T14:48:54.52Z</time></trkpt><trkpt lat="43.2985633" lon="11.767765"><ele>256.0</ele><time>2026-04-30T14:48:56.526Z</time></trkpt><trkpt lat="43.2984983" lon="11.7676483"><ele>256.0</ele><time>2026-04-30T14:48:58.519Z</time></trkpt><trkpt lat="43.2984383" lon="11.7675383"><ele>255.99999999999997</ele><time>2026-04-30T14:49:00.529Z</time></trkpt><trkpt lat="43.2983817" lon="11.767435"><ele>256.0</ele><time>2026-04-30T14:49:02.52Z</time></trkpt><trkpt lat="43.29832" lon="11.767335"><ele>256.0</ele><time>2026-04-30T14:49:04.531Z</time></trkpt><trkpt lat="43.2982617" lon="11.7672417"><ele>256.0</ele><time>2026-04-30T14:49:06.52Z</time></trkpt><trkpt lat="43.2982117" lon="11.7671583"><ele>255.99999999999997</ele><time>2026-04-30T14:49:08.52Z</time></trkpt><trkpt lat="43.29816" lon="11.7670683"><ele>256.0</ele><time>2026-04-30T14:49:11.517Z</time></trkpt><trkpt lat="43.2981233" lon="11.76694"><ele>256.16666666666663</ele><time>2026-04-30T14:49:22.524Z</time></trkpt><trkpt lat="43.2980683" lon="11.7668817"><ele>256.3333333333333</ele><time>2026-04-30T14:49:26.519Z</time></trkpt><trkpt lat="43.2979867" lon="11.7669467"><ele>256.5</ele><time>2026-04-30T14:49:29.521Z</time></trkpt><trkpt lat="43.2979317" lon="11.76701"><ele>256.6666666666667</ele><time>2026-04-30T14:49:31.524Z</time></trkpt><trkpt lat="43.2978733" lon="11.7670783"><ele>256.83333333333337</ele><time>2026-04-30T14:49:33.524Z</time></trkpt><trkpt lat="43.29781" lon="11.767155"><ele>257.0</ele><time>2026-04-30T14:49:35.52Z</time></trkpt><trkpt lat="43.2977383" lon="11.76724"><ele>257.0</ele><time>2026-04-30T14:49:37.524Z</time></trkpt><trkpt lat="43.29766" lon="11.76733"><ele>257.0</ele><time>2026-04-30T14:49:39.52Z</time></trkpt><trkpt lat="43.2975783" lon="11.7674217"><ele>257.0</ele><time>2026-04-30T14:49:41.522Z</time></trkpt><trkpt lat="43.297495" lon="11.7675167"><ele>257.0</ele><time>2026-04-30T14:49:43.52Z</time></trkpt><trkpt lat="43.2974083" lon="11.7676067"><ele>257.0</ele><time>2026-04-30T14:49:45.525Z</time></trkpt><trkpt lat="43.2973233" lon="11.7676967"><ele>257.0</ele><time>2026-04-30T14:49:47.521Z</time></trkpt><trkpt lat="43.29724" lon="11.7678017"><ele>257.0</ele><time>2026-04-30T14:49:49.525Z</time></trkpt><trkpt lat="43.2971467" lon="11.7678867"><ele>257.0</ele><time>2026-04-30T14:49:51.522Z</time></trkpt><trkpt lat="43.2970583" lon="11.7679817"><ele>257.0</ele><time>2026-04-30T14:49:53.522Z</time></trkpt><trkpt lat="43.2969717" lon="11.768075"><ele>257.0</ele><time>2026-04-30T14:49:55.523Z</time></trkpt><trkpt lat="43.2968933" lon="11.768185"><ele>257.0</ele><time>2026-04-30T14:49:57.526Z</time></trkpt><trkpt lat="43.296815" lon="11.7682733"><ele>257.0</ele><time>2026-04-30T14:49:59.519Z</time></trkpt><trkpt lat="43.2967333" lon="11.76835"><ele>257.0</ele><time>2026-04-30T14:50:01.522Z</time></trkpt><trkpt lat="43.2966517" lon="11.76844"><ele>257.0</ele><time>2026-04-30T14:50:03.522Z</time></trkpt><trkpt lat="43.296565" lon="11.76853"><ele>257.0</ele><time>2026-04-30T14:50:05.521Z</time></trkpt><trkpt lat="43.296475" lon="11.7686267"><ele>257.0</ele><time>2026-04-30T14:50:07.524Z</time></trkpt><trkpt lat="43.2963833" lon="11.7687217"><ele>257.0</ele><time>2026-04-30T14:50:09.521Z</time></trkpt><trkpt lat="43.29629" lon="11.76882"><ele>257.0</ele><time>2026-04-30T14:50:11.522Z</time></trkpt><trkpt lat="43.2962" lon="11.76892"><ele>257.0</ele><time>2026-04-30T14:50:13.522Z</time></trkpt><trkpt lat="43.29611" lon="11.7690233"><ele>257.0</ele><time>2026-04-30T14:50:15.523Z</time></trkpt><trkpt lat="43.29602" lon="11.7691283"><ele>257.0</ele><time>2026-04-30T14:50:17.521Z</time></trkpt><trkpt lat="43.2959283" lon="11.76923"><ele>257.0</ele><time>2026-04-30T14:50:19.524Z</time></trkpt><trkpt lat="43.2958367" lon="11.769335"><ele>257.0</ele><time>2026-04-30T14:50:21.522Z</time></trkpt><trkpt lat="43.295745" lon="11.76944"><ele>257.0</ele><time>2026-04-30T14:50:23.523Z</time></trkpt><trkpt lat="43.2956533" lon="11.7695467"><ele>257.0</ele><time>2026-04-30T14:50:25.519Z</time></trkpt><trkpt lat="43.2955633" lon="11.7696517"><ele>257.0</ele><time>2026-04-30T14:50:27.521Z</time></trkpt><trkpt lat="43.2954683" lon="11.7697583"><ele>257.0</ele><time>2026-04-30T14:50:29.523Z</time></trkpt><trkpt lat="43.2953767" lon="11.769865"><ele>257.0</ele><time>2026-04-30T14:50:31.524Z</time></trkpt><trkpt lat="43.2952833" lon="11.7699717"><ele>257.0</ele><time>2026-04-30T14:50:33.521Z</time></trkpt><trkpt lat="43.29519" lon="11.77008"><ele>257.0</ele><time>2026-04-30T14:50:35.52Z</time></trkpt><trkpt lat="43.2950983" lon="11.7701933"><ele>257.0</ele><time>2026-04-30T14:50:37.523Z</time></trkpt><trkpt lat="43.2950067" lon="11.7702967"><ele>257.0</ele><time>2026-04-30T14:50:39.523Z</time></trkpt><trkpt lat="43.294915" lon="11.7703933"><ele>257.0</ele><time>2026-04-30T14:50:41.522Z</time></trkpt><trkpt lat="43.2948217" lon="11.770495"><ele>257.0</ele><time>2026-04-30T14:50:43.523Z</time></trkpt><trkpt lat="43.2947267" lon="11.7706"><ele>257.0</ele><time>2026-04-30T14:50:45.522Z</time></trkpt><trkpt lat="43.2946717" lon="11.7706517"><ele>257.0</ele><time>2026-04-30T14:50:46.52Z</time></trkpt><trkpt lat="43.2946167" lon="11.7707017"><ele>256.8</ele><time>2026-04-30T14:50:47.524Z</time></trkpt><trkpt lat="43.2945633" lon="11.7707517"><ele>256.6</ele><time>2026-04-30T14:50:48.522Z</time></trkpt><trkpt lat="43.2944733" lon="11.7708467"><ele>256.40000000000003</ele><time>2026-04-30T14:50:50.521Z</time></trkpt><trkpt lat="43.29438" lon="11.770935"><ele>256.2</ele><time>2026-04-30T14:50:52.525Z</time></trkpt><trkpt lat="43.2942833" lon="11.7710233"><ele>256.0</ele><time>2026-04-30T14:50:54.522Z</time></trkpt><trkpt lat="43.2941867" lon="11.7711183"><ele>256.0</ele><time>2026-04-30T14:50:56.519Z</time></trkpt><trkpt lat="43.2940883" lon="11.7712033"><ele>256.0</ele><time>2026-04-30T14:50:58.519Z</time></trkpt><trkpt lat="43.2939917" lon="11.771295"><ele>256.0</ele><time>2026-04-30T14:51:00.521Z</time></trkpt><trkpt lat="43.293895" lon="11.7713917"><ele>256.0</ele><time>2026-04-30T14:51:02.524Z</time></trkpt><trkpt lat="43.2937917" lon="11.7714833"><ele>256.0</ele><time>2026-04-30T14:51:04.52Z</time></trkpt><trkpt lat="43.29369" lon="11.77158"><ele>256.0</ele><time>2026-04-30T14:51:06.521Z</time></trkpt><trkpt lat="43.2936367" lon="11.7716283"><ele>256.0</ele><time>2026-04-30T14:51:07.52Z</time></trkpt><trkpt lat="43.2935883" lon="11.7716917"><ele>256.0</ele><time>2026-04-30T14:51:08.521Z</time></trkpt><trkpt lat="43.2934917" lon="11.771785"><ele>256.0</ele><time>2026-04-30T14:51:10.523Z</time></trkpt><trkpt lat="43.2933933" lon="11.7718817"><ele>256.0</ele><time>2026-04-30T14:51:12.524Z</time></trkpt><trkpt lat="43.2933" lon="11.7719817"><ele>256.0</ele><time>2026-04-30T14:51:14.523Z</time></trkpt><trkpt lat="43.2932083" lon="11.772075"><ele>256.0</ele><time>2026-04-30T14:51:16.521Z</time></trkpt><trkpt lat="43.2931167" lon="11.7721767"><ele>256.0</ele><time>2026-04-30T14:51:18.522Z</time></trkpt><trkpt lat="43.293025" lon="11.7722883"><ele>256.0</ele><time>2026-04-30T14:51:20.524Z</time></trkpt><trkpt lat="43.292975" lon="11.772355"><ele>256.0</ele><time>2026-04-30T14:51:21.521Z</time></trkpt><trkpt lat="43.292885" lon="11.7724567"><ele>256.0</ele><time>2026-04-30T14:51:23.528Z</time></trkpt><trkpt lat="43.2927933" lon="11.7725567"><ele>256.0</ele><time>2026-04-30T14:51:25.523Z</time></trkpt><trkpt lat="43.2927" lon="11.7726583"><ele>256.0</ele><time>2026-04-30T14:51:27.523Z</time></trkpt><trkpt lat="43.2926133" lon="11.77277"><ele>256.0</ele><time>2026-04-30T14:51:29.523Z</time></trkpt><trkpt lat="43.292525" lon="11.7728833"><ele>256.0</ele><time>2026-04-30T14:51:31.521Z</time></trkpt><trkpt lat="43.2924383" lon="11.7729983"><ele>256.0</ele><time>2026-04-30T14:51:33.523Z</time></trkpt><trkpt lat="43.2923467" lon="11.7731067"><ele>256.0</ele><time>2026-04-30T14:51:35.524Z</time></trkpt><trkpt lat="43.2922633" lon="11.7732333"><ele>255.8</ele><time>2026-04-30T14:51:37.521Z</time></trkpt><trkpt lat="43.292185" lon="11.77336"><ele>255.60000000000002</ele><time>2026-04-30T14:51:39.522Z</time></trkpt><trkpt lat="43.2921017" lon="11.7734767"><ele>255.4</ele><time>2026-04-30T14:51:41.524Z</time></trkpt><trkpt lat="43.2920117" lon="11.7735933"><ele>255.2</ele><time>2026-04-30T14:51:43.522Z</time></trkpt><trkpt lat="43.29196" lon="11.7736533"><ele>255.0</ele><time>2026-04-30T14:51:44.521Z</time></trkpt><trkpt lat="43.291915" lon="11.773715"><ele>255.0</ele><time>2026-04-30T14:51:45.524Z</time></trkpt><trkpt lat="43.2918683" lon="11.773775"><ele>255.00000000000003</ele><time>2026-04-30T14:51:46.523Z</time></trkpt><trkpt lat="43.29182" lon="11.7738333"><ele>255.0</ele><time>2026-04-30T14:51:47.524Z</time></trkpt><trkpt lat="43.2917733" lon="11.7738917"><ele>255.0</ele><time>2026-04-30T14:51:48.519Z</time></trkpt><trkpt lat="43.2917233" lon="11.7739483"><ele>255.00000000000003</ele><time>2026-04-30T14:51:49.524Z</time></trkpt><trkpt lat="43.291625" lon="11.77406"><ele>255.0</ele><time>2026-04-30T14:51:51.521Z</time></trkpt><trkpt lat="43.291575" lon="11.7741167"><ele>255.0</ele><time>2026-04-30T14:51:52.525Z</time></trkpt><trkpt lat="43.291525" lon="11.7741733"><ele>255.0</ele><time>2026-04-30T14:51:53.521Z</time></trkpt><trkpt lat="43.2914233" lon="11.7742733"><ele>255.0</ele><time>2026-04-30T14:51:55.527Z</time></trkpt><trkpt lat="43.291325" lon="11.774375"><ele>255.0</ele><time>2026-04-30T14:51:57.521Z</time></trkpt><trkpt lat="43.2912267" lon="11.774475"><ele>255.0</ele><time>2026-04-30T14:51:59.52Z</time></trkpt><trkpt lat="43.291125" lon="11.7745717"><ele>255.5</ele><time>2026-04-30T14:52:01.518Z</time></trkpt><trkpt lat="43.2910233" lon="11.77467"><ele>256.0</ele><time>2026-04-30T14:52:03.521Z</time></trkpt><trkpt lat="43.290925" lon="11.774765"><ele>256.5</ele><time>2026-04-30T14:52:05.519Z</time></trkpt><trkpt lat="43.2908267" lon="11.7748583"><ele>257.0</ele><time>2026-04-30T14:52:07.52Z</time></trkpt><trkpt lat="43.290725" lon="11.7749533"><ele>257.0</ele><time>2026-04-30T14:52:09.52Z</time></trkpt><trkpt lat="43.2906233" lon="11.7750433"><ele>257.0</ele><time>2026-04-30T14:52:11.518Z</time></trkpt><trkpt lat="43.2905217" lon="11.7751283"><ele>257.0</ele><time>2026-04-30T14:52:13.519Z</time></trkpt><trkpt lat="43.2904183" lon="11.7752183"><ele>257.0</ele><time>2026-04-30T14:52:15.519Z</time></trkpt><trkpt lat="43.290365" lon="11.7752667"><ele>257.0</ele><time>2026-04-30T14:52:16.518Z</time></trkpt><trkpt lat="43.2903117" lon="11.775315"><ele>256.85714285714283</ele><time>2026-04-30T14:52:17.516Z</time></trkpt><trkpt lat="43.2902583" lon="11.7753667"><ele>256.7142857142857</ele><time>2026-04-30T14:52:18.518Z</time></trkpt><trkpt lat="43.290205" lon="11.7754133"><ele>256.57142857142856</ele><time>2026-04-30T14:52:19.519Z</time></trkpt><trkpt lat="43.29015" lon="11.7754633"><ele>256.42857142857144</ele><time>2026-04-30T14:52:20.528Z</time></trkpt><trkpt lat="43.290095" lon="11.77551"><ele>256.2857142857143</ele><time>2026-04-30T14:52:21.52Z</time></trkpt><trkpt lat="43.2900417" lon="11.7755583"><ele>256.1428571428571</ele><time>2026-04-30T14:52:22.522Z</time></trkpt><trkpt lat="43.2899867" lon="11.7756067"><ele>256.0</ele><time>2026-04-30T14:52:23.521Z</time></trkpt><trkpt lat="43.2899333" lon="11.775655"><ele>256.0</ele><time>2026-04-30T14:52:24.523Z</time></trkpt><trkpt lat="43.28988" lon="11.7757033"><ele>255.99999999999997</ele><time>2026-04-30T14:52:25.519Z</time></trkpt><trkpt lat="43.289825" lon="11.7757517"><ele>256.0</ele><time>2026-04-30T14:52:26.522Z</time></trkpt><trkpt lat="43.28977" lon="11.7758017"><ele>256.0</ele><time>2026-04-30T14:52:27.52Z</time></trkpt><trkpt lat="43.2897167" lon="11.7758517"><ele>255.99999999999997</ele><time>2026-04-30T14:52:28.519Z</time></trkpt><trkpt lat="43.2896133" lon="11.7759483"><ele>256.0</ele><time>2026-04-30T14:52:30.519Z</time></trkpt><trkpt lat="43.28956" lon="11.7759983"><ele>256.0</ele><time>2026-04-30T14:52:31.521Z</time></trkpt><trkpt lat="43.2894583" lon="11.77609"><ele>256.25</ele><time>2026-04-30T14:52:33.519Z</time></trkpt><trkpt lat="43.2893567" lon="11.7761783"><ele>256.5</ele><time>2026-04-30T14:52:35.52Z</time></trkpt><trkpt lat="43.2892617" lon="11.776265"><ele>256.75</ele><time>2026-04-30T14:52:37.522Z</time></trkpt><trkpt lat="43.2891667" lon="11.7763483"><ele>257.0</ele><time>2026-04-30T14:52:39.52Z</time></trkpt><trkpt lat="43.2890733" lon="11.776435"><ele>257.0</ele><time>2026-04-30T14:52:41.52Z</time></trkpt><trkpt lat="43.28898" lon="11.776525"><ele>257.0</ele><time>2026-04-30T14:52:43.52Z</time></trkpt><trkpt lat="43.2888933" lon="11.7766217"><ele>257.0</ele><time>2026-04-30T14:52:45.525Z</time></trkpt><trkpt lat="43.28881" lon="11.776725"><ele>257.0</ele><time>2026-04-30T14:52:47.521Z</time></trkpt><trkpt lat="43.28873" lon="11.77683"><ele>257.0</ele><time>2026-04-30T14:52:49.523Z</time></trkpt><trkpt lat="43.2886517" lon="11.7769433"><ele>257.0</ele><time>2026-04-30T14:52:51.521Z</time></trkpt><trkpt lat="43.2885717" lon="11.7770417"><ele>257.0</ele><time>2026-04-30T14:52:53.524Z</time></trkpt><trkpt lat="43.2885" lon="11.7771367"><ele>257.0</ele><time>2026-04-30T14:52:55.522Z</time></trkpt><trkpt lat="43.2884317" lon="11.77721"><ele>257.0</ele><time>2026-04-30T14:52:57.524Z</time></trkpt><trkpt lat="43.288355" lon="11.7772517"><ele>257.0</ele><time>2026-04-30T14:53:00.52Z</time></trkpt><trkpt lat="43.2882883" lon="11.7772167"><ele>257.0</ele><time>2026-04-30T14:53:03.522Z</time></trkpt><trkpt lat="43.288235" lon="11.7771183"><ele>257.0</ele><time>2026-04-30T14:53:06.52Z</time></trkpt><trkpt lat="43.2881867" lon="11.7770483"><ele>257.0</ele><time>2026-04-30T14:53:08.52Z</time></trkpt><trkpt lat="43.2881283" lon="11.7769617"><ele>257.0</ele><time>2026-04-30T14:53:10.52Z</time></trkpt><trkpt lat="43.288055" lon="11.7768617"><ele>257.0</ele><time>2026-04-30T14:53:12.519Z</time></trkpt><trkpt lat="43.287975" lon="11.7767483"><ele>257.0</ele><time>2026-04-30T14:53:14.522Z</time></trkpt><trkpt lat="43.2878917" lon="11.7766283"><ele>256.6</ele><time>2026-04-30T14:53:16.518Z</time></trkpt><trkpt lat="43.2878017" lon="11.7765017"><ele>256.2</ele><time>2026-04-30T14:53:18.521Z</time></trkpt><trkpt lat="43.2877533" lon="11.7764367"><ele>255.8</ele><time>2026-04-30T14:53:19.523Z</time></trkpt><trkpt lat="43.2877067" lon="11.776375"><ele>255.4</ele><time>2026-04-30T14:53:20.521Z</time></trkpt><trkpt lat="43.28766" lon="11.776315"><ele>255.0</ele><time>2026-04-30T14:53:21.52Z</time></trkpt><trkpt lat="43.2875583" lon="11.7762067"><ele>255.0</ele><time>2026-04-30T14:53:23.52Z</time></trkpt><trkpt lat="43.2875" lon="11.776155"><ele>255.00000000000003</ele><time>2026-04-30T14:53:24.523Z</time></trkpt><trkpt lat="43.2874417" lon="11.776105"><ele>255.0</ele><time>2026-04-30T14:53:25.52Z</time></trkpt><trkpt lat="43.2873817" lon="11.7760633"><ele>255.0</ele><time>2026-04-30T14:53:26.522Z</time></trkpt><trkpt lat="43.28732" lon="11.7760267"><ele>255.00000000000003</ele><time>2026-04-30T14:53:27.52Z</time></trkpt><trkpt lat="43.2872567" lon="11.77599"><ele>255.0</ele><time>2026-04-30T14:53:28.521Z</time></trkpt><trkpt lat="43.2871967" lon="11.7759533"><ele>255.0</ele><time>2026-04-30T14:53:29.519Z</time></trkpt><trkpt lat="43.2871333" lon="11.7759167"><ele>254.75</ele><time>2026-04-30T14:53:30.52Z</time></trkpt><trkpt lat="43.2870217" lon="11.7758467"><ele>254.5</ele><time>2026-04-30T14:53:32.524Z</time></trkpt><trkpt lat="43.2869133" lon="11.7757767"><ele>254.25</ele><time>2026-04-30T14:53:34.522Z</time></trkpt><trkpt lat="43.2868067" lon="11.775705"><ele>254.0</ele><time>2026-04-30T14:53:36.522Z</time></trkpt><trkpt lat="43.28671" lon="11.7756417"><ele>254.0</ele><time>2026-04-30T14:53:38.52Z</time></trkpt><trkpt lat="43.2866233" lon="11.7755767"><ele>253.99999999999997</ele><time>2026-04-30T14:53:40.523Z</time></trkpt><trkpt lat="43.286535" lon="11.775515"><ele>253.99999999999997</ele><time>2026-04-30T14:53:42.52Z</time></trkpt><trkpt lat="43.28645" lon="11.775455"><ele>254.0</ele><time>2026-04-30T14:53:44.525Z</time></trkpt><trkpt lat="43.2863783" lon="11.775395"><ele>254.0</ele><time>2026-04-30T14:53:46.521Z</time></trkpt><trkpt lat="43.2863183" lon="11.775335"><ele>254.0</ele><time>2026-04-30T14:53:48.52Z</time></trkpt><trkpt lat="43.286265" lon="11.775275"><ele>254.0</ele><time>2026-04-30T14:53:50.521Z</time></trkpt><trkpt lat="43.2862183" lon="11.7752083"><ele>254.0</ele><time>2026-04-30T14:53:52.521Z</time></trkpt><trkpt lat="43.286175" lon="11.7751383"><ele>254.0</ele><time>2026-04-30T14:53:54.52Z</time></trkpt><trkpt lat="43.2861333" lon="11.7750717"><ele>254.0</ele><time>2026-04-30T14:53:56.524Z</time></trkpt><trkpt lat="43.286085" lon="11.7749683"><ele>254.0</ele><time>2026-04-30T14:53:59.519Z</time></trkpt><trkpt lat="43.2860417" lon="11.7748667"><ele>254.0</ele><time>2026-04-30T14:54:02.52Z</time></trkpt><trkpt lat="43.2859983" lon="11.7747683"><ele>254.16666666666669</ele><time>2026-04-30T14:54:05.522Z</time></trkpt><trkpt lat="43.2859467" lon="11.77467"><ele>254.33333333333334</ele><time>2026-04-30T14:54:08.52Z</time></trkpt><trkpt lat="43.285915" lon="11.7745833"><ele>254.5</ele><time>2026-04-30T14:54:11.52Z</time></trkpt><trkpt lat="43.2858683" lon="11.7744783"><ele>254.66666666666669</ele><time>2026-04-30T14:54:14.527Z</time></trkpt><trkpt lat="43.285815" lon="11.774375"><ele>254.83333333333334</ele><time>2026-04-30T14:54:17.518Z</time></trkpt><trkpt lat="43.2857683" lon="11.774275"><ele>255.0</ele><time>2026-04-30T14:54:19.522Z</time></trkpt><trkpt lat="43.2857183" lon="11.77416"><ele>255.0</ele><time>2026-04-30T14:54:21.521Z</time></trkpt><trkpt lat="43.2856517" lon="11.774025"><ele>255.0</ele><time>2026-04-30T14:54:23.52Z</time></trkpt><trkpt lat="43.2856133" lon="11.7739467"><ele>255.0</ele><time>2026-04-30T14:54:24.519Z</time></trkpt><trkpt lat="43.285575" lon="11.7738683"><ele>255.0</ele><time>2026-04-30T14:54:25.52Z</time></trkpt><trkpt lat="43.2855317" lon="11.7737817"><ele>255.0</ele><time>2026-04-30T14:54:26.519Z</time></trkpt><trkpt lat="43.28549" lon="11.7736883"><ele>255.0</ele><time>2026-04-30T14:54:27.52Z</time></trkpt><trkpt lat="43.285445" lon="11.7735933"><ele>255.16666666666666</ele><time>2026-04-30T14:54:28.519Z</time></trkpt><trkpt lat="43.2854017" lon="11.773495"><ele>255.33333333333331</ele><time>2026-04-30T14:54:29.52Z</time></trkpt><trkpt lat="43.2853567" lon="11.7733883"><ele>255.5</ele><time>2026-04-30T14:54:30.519Z</time></trkpt><trkpt lat="43.285315" lon="11.77328"><ele>255.66666666666666</ele><time>2026-04-30T14:54:31.521Z</time></trkpt><trkpt lat="43.285275" lon="11.773165"><ele>255.83333333333331</ele><time>2026-04-30T14:54:32.522Z</time></trkpt><trkpt lat="43.2852433" lon="11.7730467"><ele>256.0</ele><time>2026-04-30T14:54:33.525Z</time></trkpt><trkpt lat="43.28522" lon="11.7729217"><ele>255.99999999999997</ele><time>2026-04-30T14:54:34.521Z</time></trkpt><trkpt lat="43.28522" lon="11.7727983"><ele>256.0</ele><time>2026-04-30T14:54:35.524Z</time></trkpt><trkpt lat="43.285235" lon="11.77268"><ele>256.0</ele><time>2026-04-30T14:54:36.523Z</time></trkpt><trkpt lat="43.2852633" lon="11.7725667"><ele>256.0</ele><time>2026-04-30T14:54:37.521Z</time></trkpt><trkpt lat="43.2853" lon="11.7724583"><ele>255.99999999999997</ele><time>2026-04-30T14:54:38.521Z</time></trkpt><trkpt lat="43.285355" lon="11.7723667"><ele>256.0</ele><time>2026-04-30T14:54:39.519Z</time></trkpt><trkpt lat="43.2854417" lon="11.7723283"><ele>255.99999999999997</ele><time>2026-04-30T14:54:40.518Z</time></trkpt><trkpt lat="43.2855283" lon="11.7723117"><ele>256.0</ele><time>2026-04-30T14:54:41.523Z</time></trkpt><trkpt lat="43.2856033" lon="11.77232"><ele>256.0</ele><time>2026-04-30T14:54:42.523Z</time></trkpt><trkpt lat="43.285675" lon="11.7723283"><ele>256.0</ele><time>2026-04-30T14:54:43.523Z</time></trkpt><trkpt lat="43.2857433" lon="11.7723083"><ele>255.99999999999997</ele><time>2026-04-30T14:54:44.524Z</time></trkpt><trkpt lat="43.2858017" lon="11.772265"><ele>256.0</ele><time>2026-04-30T14:54:45.518Z</time></trkpt><trkpt lat="43.28586" lon="11.7721167"><ele>256.0</ele><time>2026-04-30T14:54:47.52Z</time></trkpt><trkpt lat="43.2858267" lon="11.7719633"><ele>256.0</ele><time>2026-04-30T14:54:49.522Z</time></trkpt><trkpt lat="43.28578" lon="11.7719"><ele>256.0</ele><time>2026-04-30T14:54:50.523Z</time></trkpt><trkpt lat="43.2856767" lon="11.7718183"><ele>256.0</ele><time>2026-04-30T14:54:52.518Z</time></trkpt><trkpt lat="43.28557" lon="11.7717417"><ele>256.0</ele><time>2026-04-30T14:54:54.519Z</time></trkpt><trkpt lat="43.2855183" lon="11.77169"><ele>256.2</ele><time>2026-04-30T14:54:55.521Z</time></trkpt><trkpt lat="43.28543" lon="11.7715667"><ele>256.40000000000003</ele><time>2026-04-30T14:54:57.52Z</time></trkpt><trkpt lat="43.2853867" lon="11.7715"><ele>256.6</ele><time>2026-04-30T14:54:58.517Z</time></trkpt><trkpt lat="43.2853233" lon="11.771355"><ele>256.8</ele><time>2026-04-30T14:55:00.519Z</time></trkpt><trkpt lat="43.28529" lon="11.77128"><ele>257.0</ele><time>2026-04-30T14:55:01.523Z</time></trkpt><trkpt lat="43.285225" lon="11.77114"><ele>256.75</ele><time>2026-04-30T14:55:03.522Z</time></trkpt><trkpt lat="43.2851617" lon="11.7710033"><ele>256.5</ele><time>2026-04-30T14:55:05.523Z</time></trkpt><trkpt lat="43.2850983" lon="11.7708717"><ele>256.25</ele><time>2026-04-30T14:55:07.521Z</time></trkpt><trkpt lat="43.285045" lon="11.77074"><ele>256.0</ele><time>2026-04-30T14:55:09.521Z</time></trkpt><trkpt lat="43.2849833" lon="11.7706117"><ele>256.0</ele><time>2026-04-30T14:55:11.522Z</time></trkpt><trkpt lat="43.284925" lon="11.7704833"><ele>256.0</ele><time>2026-04-30T14:55:13.524Z</time></trkpt><trkpt lat="43.28487" lon="11.77036"><ele>256.0</ele><time>2026-04-30T14:55:15.522Z</time></trkpt><trkpt lat="43.28482" lon="11.7702417"><ele>256.0</ele><time>2026-04-30T14:55:17.521Z</time></trkpt><trkpt lat="43.2847717" lon="11.7701317"><ele>256.0</ele><time>2026-04-30T14:55:19.523Z</time></trkpt><trkpt lat="43.2847283" lon="11.7700267"><ele>256.16666666666663</ele><time>2026-04-30T14:55:21.521Z</time></trkpt><trkpt lat="43.2846783" lon="11.76993"><ele>256.3333333333333</ele><time>2026-04-30T14:55:23.518Z</time></trkpt><trkpt lat="43.2846333" lon="11.7698417"><ele>256.5</ele><time>2026-04-30T14:55:25.524Z</time></trkpt><trkpt lat="43.284585" lon="11.7697833"><ele>256.6666666666667</ele><time>2026-04-30T14:55:27.519Z</time></trkpt><trkpt lat="43.2846133" lon="11.7699083"><ele>256.83333333333337</ele><time>2026-04-30T14:57:00.519Z</time></trkpt><trkpt lat="43.2846967" lon="11.7699683"><ele>257.0</ele><time>2026-04-30T14:57:03.521Z</time></trkpt><trkpt lat="43.2847767" lon="11.769975"><ele>256.6</ele><time>2026-04-30T14:57:05.519Z</time></trkpt><trkpt lat="43.2848617" lon="11.769915"><ele>256.2</ele><time>2026-04-30T14:57:07.519Z</time></trkpt><trkpt lat="43.28495" lon="11.7698417"><ele>255.8</ele><time>2026-04-30T14:57:09.519Z</time></trkpt><trkpt lat="43.2850333" lon="11.76976"><ele>255.4</ele><time>2026-04-30T14:57:11.521Z</time></trkpt><trkpt lat="43.2851167" lon="11.769675"><ele>255.0</ele><time>2026-04-30T14:57:13.519Z</time></trkpt><trkpt lat="43.2851983" lon="11.76958"><ele>255.0</ele><time>2026-04-30T14:57:15.519Z</time></trkpt><trkpt lat="43.285285" lon="11.7694917"><ele>255.0</ele><time>2026-04-30T14:57:17.519Z</time></trkpt><trkpt lat="43.28537" lon="11.7694033"><ele>255.0</ele><time>2026-04-30T14:57:19.523Z</time></trkpt><trkpt lat="43.285455" lon="11.7693117"><ele>255.0</ele><time>2026-04-30T14:57:21.52Z</time></trkpt><trkpt lat="43.2855417" lon="11.7692267"><ele>255.0</ele><time>2026-04-30T14:57:23.516Z</time></trkpt><trkpt lat="43.2856283" lon="11.769145"><ele>255.0</ele><time>2026-04-30T14:57:25.52Z</time></trkpt><trkpt lat="43.2857233" lon="11.7690717"><ele>255.0</ele><time>2026-04-30T14:57:27.522Z</time></trkpt><trkpt lat="43.2858167" lon="11.7690133"><ele>255.0</ele><time>2026-04-30T14:57:29.522Z</time></trkpt><trkpt lat="43.285915" lon="11.76896"><ele>255.0</ele><time>2026-04-30T14:57:31.521Z</time></trkpt><trkpt lat="43.286015" lon="11.76891"><ele>255.0</ele><time>2026-04-30T14:57:33.52Z</time></trkpt><trkpt lat="43.2861083" lon="11.76885"><ele>255.0</ele><time>2026-04-30T14:57:35.521Z</time></trkpt><trkpt lat="43.286185" lon="11.7687617"><ele>255.0</ele><time>2026-04-30T14:57:37.522Z</time></trkpt><trkpt lat="43.2862333" lon="11.7686383"><ele>255.0</ele><time>2026-04-30T14:57:39.52Z</time></trkpt><trkpt lat="43.2862467" lon="11.768495"><ele>255.0</ele><time>2026-04-30T14:57:41.52Z</time></trkpt><trkpt lat="43.2862583" lon="11.7683617"><ele>255.0</ele><time>2026-04-30T14:57:43.521Z</time></trkpt><trkpt lat="43.286265" lon="11.76823"><ele>254.8</ele><time>2026-04-30T14:57:45.518Z</time></trkpt><trkpt lat="43.2862717" lon="11.7681"><ele>254.6</ele><time>2026-04-30T14:57:47.522Z</time></trkpt><trkpt lat="43.2862817" lon="11.7679633"><ele>254.39999999999998</ele><time>2026-04-30T14:57:49.524Z</time></trkpt><trkpt lat="43.2862933" lon="11.767825"><ele>254.2</ele><time>2026-04-30T14:57:51.52Z</time></trkpt><trkpt lat="43.2863083" lon="11.76769"><ele>254.0</ele><time>2026-04-30T14:57:53.524Z</time></trkpt><trkpt lat="43.2863317" lon="11.7675483"><ele>254.39999999999998</ele><time>2026-04-30T14:57:55.521Z</time></trkpt><trkpt lat="43.2863783" lon="11.7674117"><ele>254.79999999999998</ele><time>2026-04-30T14:57:57.519Z</time></trkpt><trkpt lat="43.286435" lon="11.767285"><ele>255.20000000000002</ele><time>2026-04-30T14:57:59.52Z</time></trkpt><trkpt lat="43.2865117" lon="11.7671767"><ele>255.60000000000002</ele><time>2026-04-30T14:58:01.519Z</time></trkpt><trkpt lat="43.286585" lon="11.7670633"><ele>256.0</ele><time>2026-04-30T14:58:03.523Z</time></trkpt><trkpt lat="43.2866383" lon="11.766945"><ele>256.0</ele><time>2026-04-30T14:58:05.524Z</time></trkpt><trkpt lat="43.2866767" lon="11.7668017"><ele>256.0</ele><time>2026-04-30T14:58:07.519Z</time></trkpt><trkpt lat="43.2867183" lon="11.7666733"><ele>256.0</ele><time>2026-04-30T14:58:09.52Z</time></trkpt><trkpt lat="43.2867717" lon="11.7665567"><ele>256.0</ele><time>2026-04-30T14:58:11.52Z</time></trkpt><trkpt lat="43.2868133" lon="11.7664233"><ele>256.0</ele><time>2026-04-30T14:58:13.523Z</time></trkpt><trkpt lat="43.2867967" lon="11.766275"><ele>256.0</ele><time>2026-04-30T14:58:15.52Z</time></trkpt><trkpt lat="43.286735" lon="11.766145"><ele>256.0</ele><time>2026-04-30T14:58:17.524Z</time></trkpt><trkpt lat="43.286665" lon="11.76603"><ele>256.0</ele><time>2026-04-30T14:58:19.527Z</time></trkpt><trkpt lat="43.2865883" lon="11.7659117"><ele>256.0</ele><time>2026-04-30T14:58:21.522Z</time></trkpt><trkpt lat="43.286515" lon="11.7658033"><ele>256.0</ele><time>2026-04-30T14:58:23.523Z</time></trkpt><trkpt lat="43.2864517" lon="11.7656983"><ele>256.0</ele><time>2026-04-30T14:58:25.519Z</time></trkpt><trkpt lat="43.2863917" lon="11.7655817"><ele>256.0</ele><time>2026-04-30T14:58:27.519Z</time></trkpt><trkpt lat="43.28634" lon="11.7654533"><ele>256.0</ele><time>2026-04-30T14:58:29.521Z</time></trkpt><trkpt lat="43.286305" lon="11.7653167"><ele>256.0</ele><time>2026-04-30T14:58:31.523Z</time></trkpt><trkpt lat="43.2862883" lon="11.7651717"><ele>256.0</ele><time>2026-04-30T14:58:33.527Z</time></trkpt><trkpt lat="43.2862683" lon="11.7650317"><ele>256.2</ele><time>2026-04-30T14:58:35.519Z</time></trkpt><trkpt lat="43.2862517" lon="11.7648867"><ele>256.40000000000003</ele><time>2026-04-30T14:58:37.519Z</time></trkpt><trkpt lat="43.2862267" lon="11.764745"><ele>256.6</ele><time>2026-04-30T14:58:39.524Z</time></trkpt><trkpt lat="43.2861917" lon="11.764595"><ele>256.8</ele><time>2026-04-30T14:58:41.525Z</time></trkpt><trkpt lat="43.28617" lon="11.76451"><ele>257.0</ele><time>2026-04-30T14:58:42.52Z</time></trkpt><trkpt lat="43.2861867" lon="11.76438"><ele>257.0</ele><time>2026-04-30T14:58:44.521Z</time></trkpt><trkpt lat="43.2862367" lon="11.76426"><ele>257.0</ele><time>2026-04-30T14:58:46.524Z</time></trkpt><trkpt lat="43.2863" lon="11.764185"><ele>257.0</ele><time>2026-04-30T14:58:48.52Z</time></trkpt><trkpt lat="43.286385" lon="11.764155"><ele>257.0</ele><time>2026-04-30T14:58:50.518Z</time></trkpt><trkpt lat="43.28647" lon="11.7641483"><ele>257.0</ele><time>2026-04-30T14:58:52.52Z</time></trkpt><trkpt lat="43.2865617" lon="11.7641533"><ele>257.0</ele><time>2026-04-30T14:58:54.521Z</time></trkpt><trkpt lat="43.2866583" lon="11.76415"><ele>257.2</ele><time>2026-04-30T14:58:56.524Z</time></trkpt><trkpt lat="43.286755" lon="11.7641567"><ele>257.4</ele><time>2026-04-30T14:58:58.52Z</time></trkpt><trkpt lat="43.2868567" lon="11.7641617"><ele>257.6</ele><time>2026-04-30T14:59:00.521Z</time></trkpt><trkpt lat="43.2869567" lon="11.76416"><ele>257.8</ele><time>2026-04-30T14:59:02.524Z</time></trkpt><trkpt lat="43.28706" lon="11.7641583"><ele>258.0</ele><time>2026-04-30T14:59:04.52Z</time></trkpt><trkpt lat="43.2871617" lon="11.76415"><ele>258.0</ele><time>2026-04-30T14:59:06.518Z</time></trkpt><trkpt lat="43.2872683" lon="11.764135"><ele>258.0</ele><time>2026-04-30T14:59:08.524Z</time></trkpt><trkpt lat="43.2873683" lon="11.7641217"><ele>258.0</ele><time>2026-04-30T14:59:10.516Z</time></trkpt><trkpt lat="43.2874667" lon="11.7641"><ele>258.0</ele><time>2026-04-30T14:59:12.518Z</time></trkpt><trkpt lat="43.2875583" lon="11.76407"><ele>258.0</ele><time>2026-04-30T14:59:14.52Z</time></trkpt><trkpt lat="43.2876517" lon="11.7640533"><ele>258.0</ele><time>2026-04-30T14:59:16.519Z</time></trkpt><trkpt lat="43.28774" lon="11.76404"><ele>258.0</ele><time>2026-04-30T14:59:18.516Z</time></trkpt><trkpt lat="43.287825" lon="11.7640117"><ele>258.0</ele><time>2026-04-30T14:59:20.521Z</time></trkpt><trkpt lat="43.2879017" lon="11.7639867"><ele>258.0</ele><time>2026-04-30T14:59:22.52Z</time></trkpt><trkpt lat="43.28797" lon="11.76396"><ele>258.0</ele><time>2026-04-30T14:59:24.516Z</time></trkpt><trkpt lat="43.2880567" lon="11.7639483"><ele>258.0</ele><time>2026-04-30T14:59:27.523Z</time></trkpt><trkpt lat="43.2881233" lon="11.76393"><ele>257.8333333333333</ele><time>2026-04-30T14:59:30.516Z</time></trkpt><trkpt lat="43.2881933" lon="11.763925"><ele>257.6666666666667</ele><time>2026-04-30T14:59:33.516Z</time></trkpt><trkpt lat="43.2882883" lon="11.763915"><ele>257.5</ele><time>2026-04-30T14:59:36.521Z</time></trkpt><trkpt lat="43.2883533" lon="11.7638817"><ele>257.33333333333337</ele><time>2026-04-30T14:59:38.52Z</time></trkpt><trkpt lat="43.288425" lon="11.7638233"><ele>257.1666666666667</ele><time>2026-04-30T14:59:40.521Z</time></trkpt><trkpt lat="43.2884983" lon="11.763745"><ele>257.0</ele><time>2026-04-30T14:59:42.523Z</time></trkpt><trkpt lat="43.2885767" lon="11.76365"><ele>257.0</ele><time>2026-04-30T14:59:44.519Z</time></trkpt><trkpt lat="43.2886533" lon="11.763555"><ele>257.0</ele><time>2026-04-30T14:59:46.52Z</time></trkpt><trkpt lat="43.2887317" lon="11.76347"><ele>257.0</ele><time>2026-04-30T14:59:48.523Z</time></trkpt><trkpt lat="43.2888067" lon="11.7633967"><ele>257.0</ele><time>2026-04-30T14:59:50.519Z</time></trkpt><trkpt lat="43.2888767" lon="11.7633167"><ele>257.0</ele><time>2026-04-30T14:59:52.521Z</time></trkpt><trkpt lat="43.2889467" lon="11.7632383"><ele>257.0</ele><time>2026-04-30T14:59:54.521Z</time></trkpt><trkpt lat="43.2890167" lon="11.7631633"><ele>257.0</ele><time>2026-04-30T14:59:56.521Z</time></trkpt><trkpt lat="43.2890833" lon="11.763095"><ele>257.0</ele><time>2026-04-30T14:59:58.519Z</time></trkpt><trkpt lat="43.2891483" lon="11.7630233"><ele>257.0</ele><time>2026-04-30T15:00:00.517Z</time></trkpt><trkpt lat="43.2892167" lon="11.7629417"><ele>257.0</ele><time>2026-04-30T15:00:02.519Z</time></trkpt><trkpt lat="43.2892933" lon="11.7628733"><ele>257.0</ele><time>2026-04-30T15:00:04.521Z</time></trkpt><trkpt lat="43.28937" lon="11.762795"><ele>257.0</ele><time>2026-04-30T15:00:06.522Z</time></trkpt><trkpt lat="43.2894433" lon="11.7627183"><ele>257.0</ele><time>2026-04-30T15:00:08.522Z</time></trkpt><trkpt lat="43.289515" lon="11.7626483"><ele>257.0</ele><time>2026-04-30T15:00:10.519Z</time></trkpt><trkpt lat="43.2895883" lon="11.76257"><ele>257.0</ele><time>2026-04-30T15:00:12.521Z</time></trkpt><trkpt lat="43.2896533" lon="11.7624867"><ele>257.0</ele><time>2026-04-30T15:00:14.519Z</time></trkpt><trkpt lat="43.2897167" lon="11.7623917"><ele>257.5</ele><time>2026-04-30T15:00:16.521Z</time></trkpt><trkpt lat="43.2897767" lon="11.762295"><ele>258.0</ele><time>2026-04-30T15:00:18.519Z</time></trkpt><trkpt lat="43.2898367" lon="11.7622083"><ele>258.5</ele><time>2026-04-30T15:00:20.524Z</time></trkpt><trkpt lat="43.2899017" lon="11.7621283"><ele>259.0</ele><time>2026-04-30T15:00:22.518Z</time></trkpt><trkpt lat="43.2899667" lon="11.76204"><ele>259.5</ele><time>2026-04-30T15:00:24.521Z</time></trkpt><trkpt lat="43.2900317" lon="11.7619533"><ele>260.0</ele><time>2026-04-30T15:00:26.523Z</time></trkpt><trkpt lat="43.2901017" lon="11.761875"><ele>260.5</ele><time>2026-04-30T15:00:28.52Z</time></trkpt><trkpt lat="43.2901683" lon="11.7617967"><ele>261.0</ele><time>2026-04-30T15:00:30.52Z</time></trkpt><trkpt lat="43.290235" lon="11.7617217"><ele>261.5</ele><time>2026-04-30T15:00:32.519Z</time></trkpt><trkpt lat="43.2902967" lon="11.7616467"><ele>262.0</ele><time>2026-04-30T15:00:34.519Z</time></trkpt><trkpt lat="43.2903567" lon="11.7615767"><ele>262.5</ele><time>2026-04-30T15:00:36.52Z</time></trkpt><trkpt lat="43.2904133" lon="11.76151"><ele>263.0</ele><time>2026-04-30T15:00:38.52Z</time></trkpt><trkpt lat="43.2904733" lon="11.7614483"><ele>263.0</ele><time>2026-04-30T15:00:40.521Z</time></trkpt><trkpt lat="43.2905267" lon="11.7613833"><ele>263.0</ele><time>2026-04-30T15:00:42.525Z</time></trkpt><trkpt lat="43.2905817" lon="11.7613233"><ele>263.0</ele><time>2026-04-30T15:00:44.52Z</time></trkpt><trkpt lat="43.2906333" lon="11.7612533"><ele>263.0</ele><time>2026-04-30T15:00:46.521Z</time></trkpt><trkpt lat="43.29069" lon="11.7611817"><ele>263.0</ele><time>2026-04-30T15:00:48.522Z</time></trkpt><trkpt lat="43.2907433" lon="11.761115"><ele>263.0</ele><time>2026-04-30T15:00:50.521Z</time></trkpt><trkpt lat="43.2907917" lon="11.7610467"><ele>263.0</ele><time>2026-04-30T15:00:52.519Z</time></trkpt><trkpt lat="43.29085" lon="11.7609767"><ele>263.2857142857143</ele><time>2026-04-30T15:00:54.521Z</time></trkpt><trkpt lat="43.2909067" lon="11.76091"><ele>263.57142857142856</ele><time>2026-04-30T15:00:56.524Z</time></trkpt><trkpt lat="43.2909583" lon="11.7608433"><ele>263.85714285714283</ele><time>2026-04-30T15:00:58.519Z</time></trkpt><trkpt lat="43.2910133" lon="11.76078"><ele>264.1428571428571</ele><time>2026-04-30T15:01:00.519Z</time></trkpt><trkpt lat="43.2910667" lon="11.7607183"><ele>264.42857142857144</ele><time>2026-04-30T15:01:02.521Z</time></trkpt><trkpt lat="43.2911233" lon="11.7606583"><ele>264.71428571428567</ele><time>2026-04-30T15:01:04.521Z</time></trkpt><trkpt lat="43.29118" lon="11.7606017"><ele>265.0</ele><time>2026-04-30T15:01:06.519Z</time></trkpt><trkpt lat="43.2912333" lon="11.7605417"><ele>264.99999999999994</ele><time>2026-04-30T15:01:08.523Z</time></trkpt><trkpt lat="43.2912883" lon="11.7604833"><ele>265.0</ele><time>2026-04-30T15:01:10.519Z</time></trkpt><trkpt lat="43.2913467" lon="11.7604267"><ele>265.0</ele><time>2026-04-30T15:01:12.521Z</time></trkpt><trkpt lat="43.2914067" lon="11.7603733"><ele>265.0</ele><time>2026-04-30T15:01:14.521Z</time></trkpt><trkpt lat="43.2914717" lon="11.7603183"><ele>265.0</ele><time>2026-04-30T15:01:16.519Z</time></trkpt><trkpt lat="43.291535" lon="11.760255"><ele>264.99999999999994</ele><time>2026-04-30T15:01:18.52Z</time></trkpt><trkpt lat="43.2915983" lon="11.7601983"><ele>265.0</ele><time>2026-04-30T15:01:20.521Z</time></trkpt><trkpt lat="43.2916567" lon="11.76014"><ele>265.3333333333333</ele><time>2026-04-30T15:01:22.52Z</time></trkpt><trkpt lat="43.291715" lon="11.760075"><ele>265.66666666666663</ele><time>2026-04-30T15:01:24.521Z</time></trkpt><trkpt lat="43.2917767" lon="11.7600133"><ele>266.0</ele><time>2026-04-30T15:01:26.521Z</time></trkpt><trkpt lat="43.2918383" lon="11.7599417"><ele>266.3333333333333</ele><time>2026-04-30T15:01:28.521Z</time></trkpt><trkpt lat="43.291905" lon="11.7598733"><ele>266.6666666666667</ele><time>2026-04-30T15:01:30.522Z</time></trkpt><trkpt lat="43.29198" lon="11.7597967"><ele>267.0</ele><time>2026-04-30T15:01:32.521Z</time></trkpt><trkpt lat="43.2920567" lon="11.7597033"><ele>267.0</ele><time>2026-04-30T15:01:34.52Z</time></trkpt><trkpt lat="43.292135" lon="11.7596133"><ele>267.0</ele><time>2026-04-30T15:01:36.519Z</time></trkpt><trkpt lat="43.2922533" lon="11.7594817"><ele>267.0</ele><time>2026-04-30T15:01:39.518Z</time></trkpt><trkpt lat="43.2923383" lon="11.7593917"><ele>267.0</ele><time>2026-04-30T15:01:41.52Z</time></trkpt><trkpt lat="43.29243" lon="11.7593067"><ele>267.2</ele><time>2026-04-30T15:01:43.521Z</time></trkpt><trkpt lat="43.2925233" lon="11.7592267"><ele>267.4</ele><time>2026-04-30T15:01:45.52Z</time></trkpt><trkpt lat="43.2926133" lon="11.7591517"><ele>267.6</ele><time>2026-04-30T15:01:47.519Z</time></trkpt><trkpt lat="43.2927033" lon="11.7590817"><ele>267.8</ele><time>2026-04-30T15:01:49.518Z</time></trkpt><trkpt lat="43.2927867" lon="11.7590133"><ele>268.0</ele><time>2026-04-30T15:01:51.519Z</time></trkpt><trkpt lat="43.29287" lon="11.7589417"><ele>268.0</ele><time>2026-04-30T15:01:53.519Z</time></trkpt><trkpt lat="43.292955" lon="11.7588717"><ele>268.0</ele><time>2026-04-30T15:01:55.518Z</time></trkpt><trkpt lat="43.2930417" lon="11.7587983"><ele>268.0</ele><time>2026-04-30T15:01:57.52Z</time></trkpt><trkpt lat="43.2931267" lon="11.7587283"><ele>268.0</ele><time>2026-04-30T15:01:59.519Z</time></trkpt><trkpt lat="43.2931917" lon="11.75864"><ele>268.0</ele><time>2026-04-30T15:02:01.521Z</time></trkpt><trkpt lat="43.2932517" lon="11.7585583"><ele>268.66666666666663</ele><time>2026-04-30T15:02:03.519Z</time></trkpt><trkpt lat="43.293305" lon="11.7584717"><ele>269.3333333333333</ele><time>2026-04-30T15:02:05.521Z</time></trkpt><trkpt lat="43.29336" lon="11.7583883"><ele>270.0</ele><time>2026-04-30T15:02:07.524Z</time></trkpt><trkpt lat="43.29342" lon="11.7582917"><ele>270.6666666666667</ele><time>2026-04-30T15:02:09.522Z</time></trkpt><trkpt lat="43.2934833" lon="11.7581967"><ele>271.33333333333337</ele><time>2026-04-30T15:02:11.52Z</time></trkpt><trkpt lat="43.2935483" lon="11.7581033"><ele>272.0</ele><time>2026-04-30T15:02:13.522Z</time></trkpt><trkpt lat="43.293625" lon="11.758015"><ele>272.0</ele><time>2026-04-30T15:02:15.518Z</time></trkpt><trkpt lat="43.2936983" lon="11.7579117"><ele>272.0</ele><time>2026-04-30T15:02:17.521Z</time></trkpt><trkpt lat="43.2937767" lon="11.75781"><ele>272.0</ele><time>2026-04-30T15:02:19.519Z</time></trkpt><trkpt lat="43.2938517" lon="11.7577133"><ele>272.0</ele><time>2026-04-30T15:02:21.521Z</time></trkpt><trkpt lat="43.293925" lon="11.7576167"><ele>272.0</ele><time>2026-04-30T15:02:23.518Z</time></trkpt><trkpt lat="43.294" lon="11.757525"><ele>271.6</ele><time>2026-04-30T15:02:25.521Z</time></trkpt><trkpt lat="43.2940767" lon="11.7574417"><ele>271.2</ele><time>2026-04-30T15:02:27.521Z</time></trkpt><trkpt lat="43.29415" lon="11.757355"><ele>270.8</ele><time>2026-04-30T15:02:29.522Z</time></trkpt><trkpt lat="43.2942217" lon="11.7572683"><ele>270.4</ele><time>2026-04-30T15:02:31.523Z</time></trkpt><trkpt lat="43.2943" lon="11.7571817"><ele>270.0</ele><time>2026-04-30T15:02:33.518Z</time></trkpt><trkpt lat="43.294375" lon="11.757105"><ele>270.0</ele><time>2026-04-30T15:02:35.52Z</time></trkpt><trkpt lat="43.294445" lon="11.75703"><ele>270.0</ele><time>2026-04-30T15:02:37.519Z</time></trkpt><trkpt lat="43.294515" lon="11.7569617"><ele>270.0</ele><time>2026-04-30T15:02:39.52Z</time></trkpt><trkpt lat="43.29458" lon="11.7568967"><ele>270.0</ele><time>2026-04-30T15:02:41.518Z</time></trkpt><trkpt lat="43.29463" lon="11.75682"><ele>270.0</ele><time>2026-04-30T15:02:43.519Z</time></trkpt><trkpt lat="43.29468" lon="11.756755"><ele>270.0</ele><time>2026-04-30T15:02:45.52Z</time></trkpt><trkpt lat="43.2947433" lon="11.7566933"><ele>270.7142857142857</ele><time>2026-04-30T15:02:48.519Z</time></trkpt><trkpt lat="43.2948" lon="11.7566483"><ele>271.4285714285714</ele><time>2026-04-30T15:02:51.519Z</time></trkpt><trkpt lat="43.2948533" lon="11.7565933"><ele>272.1428571428571</ele><time>2026-04-30T15:02:54.521Z</time></trkpt><trkpt lat="43.2949" lon="11.756535"><ele>272.85714285714283</ele><time>2026-04-30T15:02:57.519Z</time></trkpt><trkpt lat="43.29495" lon="11.756475"><ele>273.57142857142856</ele><time>2026-04-30T15:03:00.519Z</time></trkpt><trkpt lat="43.2950067" lon="11.756425"><ele>274.2857142857143</ele><time>2026-04-30T15:03:03.519Z</time></trkpt><trkpt lat="43.295065" lon="11.7563767"><ele>275.0</ele><time>2026-04-30T15:03:06.522Z</time></trkpt><trkpt lat="43.2951333" lon="11.75633"><ele>275.0</ele><time>2026-04-30T15:03:10.522Z</time></trkpt><trkpt lat="43.2951779" lon="11.7562611"><ele>275.0</ele><time>2026-04-30T15:04:06.546Z</time></trkpt><trkpt lat="43.2951737" lon="11.7561353"><ele>275.0</ele><time>2026-04-30T15:04:10.1Z</time></trkpt><trkpt lat="43.2952045" lon="11.7560443"><ele>275.0</ele><time>2026-04-30T15:04:12.524Z</time></trkpt><trkpt lat="43.2952638" lon="11.7559913"><ele>275.0</ele><time>2026-04-30T15:04:14.637Z</time></trkpt><trkpt lat="43.2953361" lon="11.7559335"><ele>275.0</ele><time>2026-04-30T15:04:17.568Z</time></trkpt><trkpt lat="43.2953967" lon="11.7558417"><ele>275.0</ele><time>2026-04-30T15:04:20.52Z</time></trkpt><trkpt lat="43.2954417" lon="11.7557733"><ele>275.0</ele><time>2026-04-30T15:04:22.521Z</time></trkpt><trkpt lat="43.295495" lon="11.755695"><ele>275.0</ele><time>2026-04-30T15:04:24.525Z</time></trkpt><trkpt lat="43.295555" lon="11.7555867"><ele>275.0</ele><time>2026-04-30T15:04:26.522Z</time></trkpt><trkpt lat="43.295615" lon="11.75549"><ele>275.0</ele><time>2026-04-30T15:04:28.521Z</time></trkpt><trkpt lat="43.2956783" lon="11.7553867"><ele>275.0</ele><time>2026-04-30T15:04:30.522Z</time></trkpt><trkpt lat="43.2957417" lon="11.7552733"><ele>275.0</ele><time>2026-04-30T15:04:32.524Z</time></trkpt><trkpt lat="43.2958067" lon="11.75517"><ele>275.0</ele><time>2026-04-30T15:04:34.522Z</time></trkpt><trkpt lat="43.2958733" lon="11.7550583"><ele>275.0</ele><time>2026-04-30T15:04:36.52Z</time></trkpt><trkpt lat="43.29594" lon="11.7549383"><ele>275.0</ele><time>2026-04-30T15:04:38.521Z</time></trkpt><trkpt lat="43.2960117" lon="11.75483"><ele>275.0</ele><time>2026-04-30T15:04:40.52Z</time></trkpt><trkpt lat="43.296085" lon="11.7547267"><ele>275.0</ele><time>2026-04-30T15:04:42.523Z</time></trkpt><trkpt lat="43.296165" lon="11.7546333"><ele>275.0</ele><time>2026-04-30T15:04:44.52Z</time></trkpt><trkpt lat="43.29625" lon="11.7545467"><ele>275.0</ele><time>2026-04-30T15:04:46.523Z</time></trkpt><trkpt lat="43.2963417" lon="11.7544617"><ele>275.0</ele><time>2026-04-30T15:04:48.522Z</time></trkpt><trkpt lat="43.296435" lon="11.7543867"><ele>275.0</ele><time>2026-04-30T15:04:50.524Z</time></trkpt><trkpt lat="43.2965283" lon="11.7543133"><ele>275.1666666666667</ele><time>2026-04-30T15:04:52.518Z</time></trkpt><trkpt lat="43.2966133" lon="11.7542367"><ele>275.33333333333337</ele><time>2026-04-30T15:04:54.525Z</time></trkpt><trkpt lat="43.2966917" lon="11.7541683"><ele>275.5</ele><time>2026-04-30T15:04:56.522Z</time></trkpt><trkpt lat="43.29676" lon="11.754105"><ele>275.6666666666667</ele><time>2026-04-30T15:04:58.52Z</time></trkpt><trkpt lat="43.2968183" lon="11.7540533"><ele>275.8333333333333</ele><time>2026-04-30T15:05:00.524Z</time></trkpt><trkpt lat="43.2968733" lon="11.7540033"><ele>276.0</ele><time>2026-04-30T15:05:02.519Z</time></trkpt><trkpt lat="43.2969283" lon="11.7539383"><ele>276.0</ele><time>2026-04-30T15:05:04.52Z</time></trkpt><trkpt lat="43.2969767" lon="11.7538567"><ele>276.0</ele><time>2026-04-30T15:05:06.522Z</time></trkpt><trkpt lat="43.2970217" lon="11.7537667"><ele>276.0</ele><time>2026-04-30T15:05:08.522Z</time></trkpt><trkpt lat="43.2970683" lon="11.7536417"><ele>276.0</ele><time>2026-04-30T15:05:10.519Z</time></trkpt><trkpt lat="43.2971133" lon="11.7535083"><ele>276.0</ele><time>2026-04-30T15:05:12.522Z</time></trkpt><trkpt lat="43.29715" lon="11.753375"><ele>275.6</ele><time>2026-04-30T15:05:14.521Z</time></trkpt><trkpt lat="43.297185" lon="11.7532267"><ele>275.20000000000005</ele><time>2026-04-30T15:05:16.522Z</time></trkpt><trkpt lat="43.29723" lon="11.7530833"><ele>274.79999999999995</ele><time>2026-04-30T15:05:18.521Z</time></trkpt><trkpt lat="43.2972917" lon="11.7529367"><ele>274.4</ele><time>2026-04-30T15:05:20.519Z</time></trkpt><trkpt lat="43.2973317" lon="11.75286"><ele>274.0</ele><time>2026-04-30T15:05:21.519Z</time></trkpt><trkpt lat="43.2973733" lon="11.7527883"><ele>274.0</ele><time>2026-04-30T15:05:22.522Z</time></trkpt><trkpt lat="43.2974183" lon="11.7527233"><ele>274.0</ele><time>2026-04-30T15:05:23.521Z</time></trkpt><trkpt lat="43.2974667" lon="11.7526617"><ele>274.0</ele><time>2026-04-30T15:05:24.519Z</time></trkpt><trkpt lat="43.2975167" lon="11.7526083"><ele>274.0</ele><time>2026-04-30T15:05:25.518Z</time></trkpt><trkpt lat="43.29761" lon="11.7525133"><ele>274.0</ele><time>2026-04-30T15:05:27.521Z</time></trkpt><trkpt lat="43.29769" lon="11.7524217"><ele>274.0</ele><time>2026-04-30T15:05:29.521Z</time></trkpt><trkpt lat="43.2977667" lon="11.7523517"><ele>273.8</ele><time>2026-04-30T15:05:31.521Z</time></trkpt><trkpt lat="43.297865" lon="11.752285"><ele>273.59999999999997</ele><time>2026-04-30T15:05:33.524Z</time></trkpt><trkpt lat="43.2979633" lon="11.752215"><ele>273.4</ele><time>2026-04-30T15:05:35.523Z</time></trkpt><trkpt lat="43.2980633" lon="11.7521517"><ele>273.2</ele><time>2026-04-30T15:05:37.522Z</time></trkpt><trkpt lat="43.2981633" lon="11.752095"><ele>273.0</ele><time>2026-04-30T15:05:39.518Z</time></trkpt><trkpt lat="43.2982783" lon="11.75203"><ele>273.0</ele><time>2026-04-30T15:05:41.52Z</time></trkpt><trkpt lat="43.2983917" lon="11.751985"><ele>273.0</ele><time>2026-04-30T15:05:43.518Z</time></trkpt><trkpt lat="43.2985033" lon="11.7519267"><ele>273.0</ele><time>2026-04-30T15:05:45.523Z</time></trkpt><trkpt lat="43.2986167" lon="11.7518683"><ele>273.0</ele><time>2026-04-30T15:05:47.52Z</time></trkpt><trkpt lat="43.2986767" lon="11.751835"><ele>273.0</ele><time>2026-04-30T15:05:48.523Z</time></trkpt><trkpt lat="43.298735" lon="11.7517933"><ele>273.0</ele><time>2026-04-30T15:05:49.526Z</time></trkpt><trkpt lat="43.29879" lon="11.751745"><ele>273.0</ele><time>2026-04-30T15:05:50.521Z</time></trkpt><trkpt lat="43.2988483" lon="11.7516883"><ele>273.0</ele><time>2026-04-30T15:05:51.519Z</time></trkpt><trkpt lat="43.2989067" lon="11.7516283"><ele>273.0</ele><time>2026-04-30T15:05:52.525Z</time></trkpt><trkpt lat="43.2989633" lon="11.7515633"><ele>273.0</ele><time>2026-04-30T15:05:53.521Z</time></trkpt><trkpt lat="43.2990183" lon="11.7514883"><ele>273.0</ele><time>2026-04-30T15:05:54.522Z</time></trkpt><trkpt lat="43.2990767" lon="11.7514033"><ele>273.0</ele><time>2026-04-30T15:05:55.52Z</time></trkpt><trkpt lat="43.29913" lon="11.7513167"><ele>273.1666666666667</ele><time>2026-04-30T15:05:56.523Z</time></trkpt><trkpt lat="43.29918" lon="11.75122"><ele>273.3333333333333</ele><time>2026-04-30T15:05:57.52Z</time></trkpt><trkpt lat="43.2992217" lon="11.7511167"><ele>273.5</ele><time>2026-04-30T15:05:58.521Z</time></trkpt><trkpt lat="43.2992533" lon="11.75101"><ele>273.66666666666663</ele><time>2026-04-30T15:05:59.52Z</time></trkpt><trkpt lat="43.29928" lon="11.7509033"><ele>273.8333333333333</ele><time>2026-04-30T15:06:00.52Z</time></trkpt><trkpt lat="43.2993067" lon="11.7507967"><ele>274.0</ele><time>2026-04-30T15:06:01.519Z</time></trkpt><trkpt lat="43.2993233" lon="11.7506933"><ele>273.5714285714286</ele><time>2026-04-30T15:06:02.521Z</time></trkpt><trkpt lat="43.2993433" lon="11.7505933"><ele>273.14285714285717</ele><time>2026-04-30T15:06:03.521Z</time></trkpt><trkpt lat="43.29936" lon="11.7504983"><ele>272.7142857142857</ele><time>2026-04-30T15:06:04.519Z</time></trkpt><trkpt lat="43.2993783" lon="11.7504033"><ele>272.28571428571433</ele><time>2026-04-30T15:06:05.519Z</time></trkpt><trkpt lat="43.2994" lon="11.7503067"><ele>271.8571428571429</ele><time>2026-04-30T15:06:06.52Z</time></trkpt><trkpt lat="43.2994183" lon="11.7502067"><ele>271.42857142857144</ele><time>2026-04-30T15:06:07.519Z</time></trkpt><trkpt lat="43.2994333" lon="11.750105"><ele>271.0</ele><time>2026-04-30T15:06:08.519Z</time></trkpt><trkpt lat="43.2994483" lon="11.7500017"><ele>271.16666666666663</ele><time>2026-04-30T15:06:09.52Z</time></trkpt><trkpt lat="43.2994633" lon="11.7499017"><ele>271.3333333333333</ele><time>2026-04-30T15:06:10.523Z</time></trkpt><trkpt lat="43.2994767" lon="11.7498017"><ele>271.5</ele><time>2026-04-30T15:06:11.521Z</time></trkpt><trkpt lat="43.29949" lon="11.74971"><ele>271.6666666666667</ele><time>2026-04-30T15:06:12.518Z</time></trkpt><trkpt lat="43.2995017" lon="11.74962"><ele>271.83333333333337</ele><time>2026-04-30T15:06:13.52Z</time></trkpt><trkpt lat="43.2995267" lon="11.7494667"><ele>272.0</ele><time>2026-04-30T15:06:15.518Z</time></trkpt><trkpt lat="43.2995517" lon="11.749335"><ele>271.99999999999994</ele><time>2026-04-30T15:06:17.52Z</time></trkpt><trkpt lat="43.2995817" lon="11.7492283"><ele>272.0</ele><time>2026-04-30T15:06:19.519Z</time></trkpt><trkpt lat="43.29962" lon="11.7491517"><ele>272.0</ele><time>2026-04-30T15:06:21.52Z</time></trkpt><trkpt lat="43.2996667" lon="11.749085"><ele>272.0</ele><time>2026-04-30T15:06:23.52Z</time></trkpt><trkpt lat="43.2997117" lon="11.7490117"><ele>272.0</ele><time>2026-04-30T15:06:25.518Z</time></trkpt><trkpt lat="43.299765" lon="11.748945"><ele>271.99999999999994</ele><time>2026-04-30T15:06:27.52Z</time></trkpt><trkpt lat="43.2998217" lon="11.74889"><ele>272.0</ele><time>2026-04-30T15:06:29.522Z</time></trkpt><trkpt lat="43.2998817" lon="11.7488417"><ele>272.4285714285714</ele><time>2026-04-30T15:06:31.522Z</time></trkpt><trkpt lat="43.2999367" lon="11.7487833"><ele>272.85714285714283</ele><time>2026-04-30T15:06:33.519Z</time></trkpt><trkpt lat="43.3000033" lon="11.7487067"><ele>273.2857142857143</ele><time>2026-04-30T15:06:36.52Z</time></trkpt><trkpt lat="43.30006" lon="11.748635"><ele>273.71428571428567</ele><time>2026-04-30T15:06:39.521Z</time></trkpt><trkpt lat="43.3001133" lon="11.7485717"><ele>274.1428571428571</ele><time>2026-04-30T15:06:42.521Z</time></trkpt><trkpt lat="43.3001717" lon="11.7485183"><ele>274.57142857142856</ele><time>2026-04-30T15:06:45.522Z</time></trkpt><trkpt lat="43.300225" lon="11.7484583"><ele>275.0</ele><time>2026-04-30T15:06:48.521Z</time></trkpt><trkpt lat="43.30028" lon="11.7484"><ele>275.7142857142857</ele><time>2026-04-30T15:06:51.521Z</time></trkpt><trkpt lat="43.300335" lon="11.7483233"><ele>276.42857142857144</ele><time>2026-04-30T15:06:54.521Z</time></trkpt><trkpt lat="43.3003917" lon="11.748265"><ele>277.1428571428571</ele><time>2026-04-30T15:06:57.522Z</time></trkpt><trkpt lat="43.300445" lon="11.7482117"><ele>277.8571428571429</ele><time>2026-04-30T15:07:00.52Z</time></trkpt><trkpt lat="43.300505" lon="11.7481317"><ele>278.57142857142856</ele><time>2026-04-30T15:07:04.521Z</time></trkpt><trkpt lat="43.3005567" lon="11.74807"><ele>279.2857142857143</ele><time>2026-04-30T15:07:07.52Z</time></trkpt><trkpt lat="43.3005933" lon="11.747975"><ele>280.0</ele><time>2026-04-30T15:07:11.523Z</time></trkpt><trkpt lat="43.3006267" lon="11.7478983"><ele>280.8333333333333</ele><time>2026-04-30T15:07:14.52Z</time></trkpt><trkpt lat="43.3006883" lon="11.74784"><ele>281.66666666666663</ele><time>2026-04-30T15:07:18.524Z</time></trkpt><trkpt lat="43.3007483" lon="11.747775"><ele>282.5</ele><time>2026-04-30T15:07:22.521Z</time></trkpt><trkpt lat="43.30081" lon="11.74772"><ele>283.3333333333333</ele><time>2026-04-30T15:07:26.523Z</time></trkpt><trkpt lat="43.300875" lon="11.74769"><ele>284.1666666666667</ele><time>2026-04-30T15:07:30.522Z</time></trkpt><trkpt lat="43.30095" lon="11.7476667"><ele>285.0</ele><time>2026-04-30T15:07:34.52Z</time></trkpt><trkpt lat="43.3010283" lon="11.74764"><ele>285.5</ele><time>2026-04-30T15:07:38.524Z</time></trkpt><trkpt lat="43.3011017" lon="11.7475917"><ele>286.0</ele><time>2026-04-30T15:07:42.522Z</time></trkpt><trkpt lat="43.3011617" lon="11.7475417"><ele>286.5</ele><time>2026-04-30T15:07:45.519Z</time></trkpt><trkpt lat="43.3012267" lon="11.7474717"><ele>287.0</ele><time>2026-04-30T15:07:48.52Z</time></trkpt><trkpt lat="43.3012917" lon="11.7473967"><ele>287.5</ele><time>2026-04-30T15:07:51.522Z</time></trkpt><trkpt lat="43.3013517" lon="11.7473433"><ele>288.0</ele><time>2026-04-30T15:07:54.523Z</time></trkpt><trkpt lat="43.3014183" lon="11.747295"><ele>288.00000000000006</ele><time>2026-04-30T15:07:57.52Z</time></trkpt><trkpt lat="43.301475" lon="11.74725"><ele>288.0</ele><time>2026-04-30T15:08:00.521Z</time></trkpt><trkpt lat="43.30154" lon="11.7472083"><ele>288.0</ele><time>2026-04-30T15:08:03.521Z</time></trkpt><trkpt lat="43.3016067" lon="11.7471617"><ele>288.0</ele><time>2026-04-30T15:08:06.52Z</time></trkpt><trkpt lat="43.3016633" lon="11.74711"><ele>288.0</ele><time>2026-04-30T15:08:09.521Z</time></trkpt><trkpt lat="43.3017233" lon="11.74707"><ele>288.00000000000006</ele><time>2026-04-30T15:08:12.521Z</time></trkpt><trkpt lat="43.3018017" lon="11.7470383"><ele>288.0</ele><time>2026-04-30T15:08:16.521Z</time></trkpt><trkpt lat="43.3018617" lon="11.747"><ele>288.0</ele><time>2026-04-30T15:08:19.522Z</time></trkpt><trkpt lat="43.3019183" lon="11.7469517"><ele>288.0</ele><time>2026-04-30T15:08:22.524Z</time></trkpt><trkpt lat="43.3019917" lon="11.7468883"><ele>288.0</ele><time>2026-04-30T15:08:26.521Z</time></trkpt><trkpt lat="43.302075" lon="11.7468033"><ele>288.0</ele><time>2026-04-30T15:08:29.521Z</time></trkpt><trkpt lat="43.3021383" lon="11.74673"><ele>288.0</ele><time>2026-04-30T15:08:31.523Z</time></trkpt><trkpt lat="43.3022183" lon="11.746655"><ele>288.0</ele><time>2026-04-30T15:08:33.52Z</time></trkpt><trkpt lat="43.3023083" lon="11.7465683"><ele>288.3333333333333</ele><time>2026-04-30T15:08:35.519Z</time></trkpt><trkpt lat="43.3024083" lon="11.7464683"><ele>288.6666666666667</ele><time>2026-04-30T15:08:37.524Z</time></trkpt><trkpt lat="43.3024717" lon="11.7464233"><ele>289.0</ele><time>2026-04-30T15:08:38.523Z</time></trkpt><trkpt lat="43.302535" lon="11.7463917"><ele>289.33333333333337</ele><time>2026-04-30T15:08:39.52Z</time></trkpt><trkpt lat="43.3025967" lon="11.7463583"><ele>289.6666666666667</ele><time>2026-04-30T15:08:40.523Z</time></trkpt><trkpt lat="43.3026567" lon="11.7463217"><ele>290.0</ele><time>2026-04-30T15:08:41.522Z</time></trkpt><trkpt lat="43.3027167" lon="11.7462783"><ele>290.0</ele><time>2026-04-30T15:08:42.525Z</time></trkpt><trkpt lat="43.3027733" lon="11.7462317"><ele>290.0</ele><time>2026-04-30T15:08:43.524Z</time></trkpt><trkpt lat="43.3028717" lon="11.7461417"><ele>290.0</ele><time>2026-04-30T15:08:45.517Z</time></trkpt><trkpt lat="43.3029483" lon="11.746035"><ele>290.0</ele><time>2026-04-30T15:08:47.519Z</time></trkpt><trkpt lat="43.3030167" lon="11.7459017"><ele>290.0</ele><time>2026-04-30T15:08:49.524Z</time></trkpt><trkpt lat="43.3030633" lon="11.7457683"><ele>290.0</ele><time>2026-04-30T15:08:51.519Z</time></trkpt><trkpt lat="43.3031067" lon="11.745645"><ele>290.0</ele><time>2026-04-30T15:08:53.524Z</time></trkpt><trkpt lat="43.3031467" lon="11.745525"><ele>290.0</ele><time>2026-04-30T15:08:55.522Z</time></trkpt><trkpt lat="43.3031817" lon="11.745405"><ele>290.0</ele><time>2026-04-30T15:08:57.524Z</time></trkpt><trkpt lat="43.303215" lon="11.7452867"><ele>290.0</ele><time>2026-04-30T15:08:59.52Z</time></trkpt><trkpt lat="43.30325" lon="11.74518"><ele>290.0</ele><time>2026-04-30T15:09:01.52Z</time></trkpt><trkpt lat="43.3032767" lon="11.7450683"><ele>290.0</ele><time>2026-04-30T15:09:03.522Z</time></trkpt><trkpt lat="43.3033017" lon="11.7449617"><ele>290.0</ele><time>2026-04-30T15:09:05.519Z</time></trkpt><trkpt lat="43.303325" lon="11.744865"><ele>290.0</ele><time>2026-04-30T15:09:07.52Z</time></trkpt><trkpt lat="43.3033533" lon="11.74477"><ele>290.0</ele><time>2026-04-30T15:09:09.52Z</time></trkpt><trkpt lat="43.30338" lon="11.7446817"><ele>290.0</ele><time>2026-04-30T15:09:11.519Z</time></trkpt><trkpt lat="43.303405" lon="11.7445983"><ele>290.0</ele><time>2026-04-30T15:09:13.519Z</time></trkpt><trkpt lat="43.30343" lon="11.74451"><ele>290.0</ele><time>2026-04-30T15:09:15.521Z</time></trkpt><trkpt lat="43.3034517" lon="11.74442"><ele>290.0</ele><time>2026-04-30T15:09:17.522Z</time></trkpt><trkpt lat="43.303465" lon="11.7443317"><ele>290.0</ele><time>2026-04-30T15:09:19.519Z</time></trkpt><trkpt lat="43.303495" lon="11.7442417"><ele>290.0</ele><time>2026-04-30T15:09:21.522Z</time></trkpt><trkpt lat="43.303545" lon="11.74417"><ele>290.0</ele><time>2026-04-30T15:09:23.52Z</time></trkpt><trkpt lat="43.3036117" lon="11.7441267"><ele>290.0</ele><time>2026-04-30T15:09:25.52Z</time></trkpt><trkpt lat="43.303685" lon="11.744125"><ele>290.5</ele><time>2026-04-30T15:09:27.521Z</time></trkpt><trkpt lat="43.3037533" lon="11.74413"><ele>291.0</ele><time>2026-04-30T15:09:29.519Z</time></trkpt><trkpt lat="43.303825" lon="11.7441333"><ele>291.5</ele><time>2026-04-30T15:09:31.52Z</time></trkpt><trkpt lat="43.3039033" lon="11.7441267"><ele>292.0</ele><time>2026-04-30T15:09:33.523Z</time></trkpt><trkpt lat="43.3039867" lon="11.7441183"><ele>292.5</ele><time>2026-04-30T15:09:35.522Z</time></trkpt><trkpt lat="43.304075" lon="11.744095"><ele>293.0</ele><time>2026-04-30T15:09:37.518Z</time></trkpt><trkpt lat="43.3041667" lon="11.7440717"><ele>293.4</ele><time>2026-04-30T15:09:39.522Z</time></trkpt><trkpt lat="43.3042583" lon="11.74405"><ele>293.8</ele><time>2026-04-30T15:09:41.522Z</time></trkpt><trkpt lat="43.304355" lon="11.744025"><ele>294.2</ele><time>2026-04-30T15:09:43.518Z</time></trkpt><trkpt lat="43.30446" lon="11.744"><ele>294.6</ele><time>2026-04-30T15:09:45.517Z</time></trkpt><trkpt lat="43.30456" lon="11.7439717"><ele>295.0</ele><time>2026-04-30T15:09:47.523Z</time></trkpt><trkpt lat="43.30467" lon="11.7439467"><ele>294.16666666666663</ele><time>2026-04-30T15:09:49.525Z</time></trkpt><trkpt lat="43.3047883" lon="11.7439233"><ele>293.3333333333333</ele><time>2026-04-30T15:09:51.524Z</time></trkpt><trkpt lat="43.3048533" lon="11.74391"><ele>292.5</ele><time>2026-04-30T15:09:52.522Z</time></trkpt><trkpt lat="43.3049183" lon="11.7438933"><ele>291.6666666666667</ele><time>2026-04-30T15:09:53.521Z</time></trkpt><trkpt lat="43.3049867" lon="11.7438767"><ele>290.83333333333337</ele><time>2026-04-30T15:09:54.526Z</time></trkpt><trkpt lat="43.3050583" lon="11.7438617"><ele>290.0</ele><time>2026-04-30T15:09:55.521Z</time></trkpt><trkpt lat="43.3051317" lon="11.7438483"><ele>290.0</ele><time>2026-04-30T15:09:56.521Z</time></trkpt><trkpt lat="43.3052067" lon="11.74383"><ele>290.0</ele><time>2026-04-30T15:09:57.521Z</time></trkpt><trkpt lat="43.305285" lon="11.7438117"><ele>290.0</ele><time>2026-04-30T15:09:58.52Z</time></trkpt><trkpt lat="43.305365" lon="11.7437933"><ele>290.0</ele><time>2026-04-30T15:09:59.522Z</time></trkpt><trkpt lat="43.30545" lon="11.7437733"><ele>290.0</ele><time>2026-04-30T15:10:00.52Z</time></trkpt><trkpt lat="43.3055367" lon="11.743755"><ele>290.0</ele><time>2026-04-30T15:10:01.524Z</time></trkpt><trkpt lat="43.3056283" lon="11.743735"><ele>288.0</ele><time>2026-04-30T15:10:02.521Z</time></trkpt><trkpt lat="43.305725" lon="11.7437117"><ele>286.0</ele><time>2026-04-30T15:10:03.521Z</time></trkpt><trkpt lat="43.3058233" lon="11.74369"><ele>284.0</ele><time>2026-04-30T15:10:04.52Z</time></trkpt><trkpt lat="43.305925" lon="11.7436733"><ele>282.0</ele><time>2026-04-30T15:10:05.518Z</time></trkpt><trkpt lat="43.3060267" lon="11.7436667"><ele>280.0</ele><time>2026-04-30T15:10:06.524Z</time></trkpt><trkpt lat="43.30613" lon="11.7436733"><ele>280.0</ele><time>2026-04-30T15:10:07.52Z</time></trkpt><trkpt lat="43.3062317" lon="11.7436933"><ele>280.0</ele><time>2026-04-30T15:10:08.522Z</time></trkpt><trkpt lat="43.3063333" lon="11.7437267"><ele>280.0</ele><time>2026-04-30T15:10:09.519Z</time></trkpt><trkpt lat="43.3064367" lon="11.743765"><ele>280.0</ele><time>2026-04-30T15:10:10.523Z</time></trkpt><trkpt lat="43.3065417" lon="11.7438067"><ele>280.0</ele><time>2026-04-30T15:10:11.521Z</time></trkpt><trkpt lat="43.30665" lon="11.74385"><ele>277.66666666666663</ele><time>2026-04-30T15:10:12.52Z</time></trkpt><trkpt lat="43.3067633" lon="11.743895"><ele>275.3333333333333</ele><time>2026-04-30T15:10:13.523Z</time></trkpt><trkpt lat="43.3068783" lon="11.7439383"><ele>273.0</ele><time>2026-04-30T15:10:14.52Z</time></trkpt><trkpt lat="43.3071117" lon="11.744045"><ele>273.0</ele><time>2026-04-30T15:10:16.52Z</time></trkpt><trkpt lat="43.30723" lon="11.744105"><ele>273.0</ele><time>2026-04-30T15:10:17.523Z</time></trkpt><trkpt lat="43.3073417" lon="11.744175"><ele>273.0</ele><time>2026-04-30T15:10:18.519Z</time></trkpt><trkpt lat="43.307445" lon="11.7442567"><ele>273.0</ele><time>2026-04-30T15:10:19.52Z</time></trkpt><trkpt lat="43.3075417" lon="11.7443467"><ele>271.8</ele><time>2026-04-30T15:10:20.523Z</time></trkpt><trkpt lat="43.30763" lon="11.7444433"><ele>270.6</ele><time>2026-04-30T15:10:21.524Z</time></trkpt><trkpt lat="43.3077167" lon="11.7445383"><ele>269.4</ele><time>2026-04-30T15:10:22.519Z</time></trkpt><trkpt lat="43.3078017" lon="11.7446283"><ele>268.2</ele><time>2026-04-30T15:10:23.521Z</time></trkpt><trkpt lat="43.3078883" lon="11.744715"><ele>267.0</ele><time>2026-04-30T15:10:24.527Z</time></trkpt><trkpt lat="43.307975" lon="11.7447933"><ele>267.0</ele><time>2026-04-30T15:10:25.523Z</time></trkpt><trkpt lat="43.3080633" lon="11.7448683"><ele>267.0</ele><time>2026-04-30T15:10:26.522Z</time></trkpt><trkpt lat="43.3081467" lon="11.7449433"><ele>267.0</ele><time>2026-04-30T15:10:27.519Z</time></trkpt><trkpt lat="43.3082317" lon="11.7450133"><ele>267.0</ele><time>2026-04-30T15:10:28.524Z</time></trkpt><trkpt lat="43.3083183" lon="11.7450767"><ele>267.0</ele><time>2026-04-30T15:10:29.521Z</time></trkpt><trkpt lat="43.308405" lon="11.7451317"><ele>267.4</ele><time>2026-04-30T15:10:30.52Z</time></trkpt><trkpt lat="43.3084867" lon="11.7451817"><ele>267.79999999999995</ele><time>2026-04-30T15:10:31.524Z</time></trkpt><trkpt lat="43.3085733" lon="11.745225"><ele>268.2</ele><time>2026-04-30T15:10:32.519Z</time></trkpt><trkpt lat="43.30866" lon="11.7452617"><ele>268.59999999999997</ele><time>2026-04-30T15:10:33.52Z</time></trkpt><trkpt lat="43.308755" lon="11.7452967"><ele>269.0</ele><time>2026-04-30T15:10:34.521Z</time></trkpt><trkpt lat="43.3088517" lon="11.745325"><ele>267.59999999999997</ele><time>2026-04-30T15:10:35.52Z</time></trkpt><trkpt lat="43.3089433" lon="11.7453517"><ele>266.2</ele><time>2026-04-30T15:10:36.52Z</time></trkpt><trkpt lat="43.3090383" lon="11.745375"><ele>264.79999999999995</ele><time>2026-04-30T15:10:37.522Z</time></trkpt><trkpt lat="43.3091267" lon="11.7453917"><ele>263.4</ele><time>2026-04-30T15:10:38.523Z</time></trkpt><trkpt lat="43.3092167" lon="11.7453883"><ele>262.0</ele><time>2026-04-30T15:10:39.518Z</time></trkpt><trkpt lat="43.3093117" lon="11.7453667"><ele>262.0</ele><time>2026-04-30T15:10:40.521Z</time></trkpt><trkpt lat="43.30941" lon="11.7453333"><ele>262.0</ele><time>2026-04-30T15:10:41.522Z</time></trkpt><trkpt lat="43.30951" lon="11.745295"><ele>262.0</ele><time>2026-04-30T15:10:42.52Z</time></trkpt><trkpt lat="43.3096067" lon="11.745255"><ele>262.0</ele><time>2026-04-30T15:10:43.52Z</time></trkpt><trkpt lat="43.3097017" lon="11.74521"><ele>262.0</ele><time>2026-04-30T15:10:44.525Z</time></trkpt><trkpt lat="43.3097967" lon="11.74516"><ele>262.4</ele><time>2026-04-30T15:10:45.528Z</time></trkpt><trkpt lat="43.3098817" lon="11.7451067"><ele>262.79999999999995</ele><time>2026-04-30T15:10:46.52Z</time></trkpt><trkpt lat="43.3099633" lon="11.745045"><ele>263.2</ele><time>2026-04-30T15:10:47.519Z</time></trkpt><trkpt lat="43.3100433" lon="11.7449767"><ele>263.59999999999997</ele><time>2026-04-30T15:10:48.523Z</time></trkpt><trkpt lat="43.3101233" lon="11.7449017"><ele>264.0</ele><time>2026-04-30T15:10:49.52Z</time></trkpt><trkpt lat="43.3102017" lon="11.744825"><ele>264.0</ele><time>2026-04-30T15:10:50.521Z</time></trkpt><trkpt lat="43.3102767" lon="11.7447517"><ele>264.0</ele><time>2026-04-30T15:10:51.52Z</time></trkpt><trkpt lat="43.31035" lon="11.7446783"><ele>264.0</ele><time>2026-04-30T15:10:52.522Z</time></trkpt><trkpt lat="43.3104217" lon="11.744615"><ele>264.0</ele><time>2026-04-30T15:10:53.525Z</time></trkpt><trkpt lat="43.3104933" lon="11.7445483"><ele>264.0</ele><time>2026-04-30T15:10:54.519Z</time></trkpt><trkpt lat="43.3105683" lon="11.7444867"><ele>264.0</ele><time>2026-04-30T15:10:55.521Z</time></trkpt><trkpt lat="43.310645" lon="11.7444317"><ele>264.0</ele><time>2026-04-30T15:10:56.519Z</time></trkpt><trkpt lat="43.31072" lon="11.7443783"><ele>264.0</ele><time>2026-04-30T15:10:57.523Z</time></trkpt><trkpt lat="43.310795" lon="11.7443383"><ele>264.0</ele><time>2026-04-30T15:10:58.521Z</time></trkpt><trkpt lat="43.31087" lon="11.744305"><ele>264.0</ele><time>2026-04-30T15:10:59.521Z</time></trkpt><trkpt lat="43.3109467" lon="11.7442767"><ele>264.0</ele><time>2026-04-30T15:11:00.519Z</time></trkpt><trkpt lat="43.3110183" lon="11.7442567"><ele>264.0</ele><time>2026-04-30T15:11:01.519Z</time></trkpt><trkpt lat="43.3110917" lon="11.744235"><ele>264.0</ele><time>2026-04-30T15:11:02.521Z</time></trkpt><trkpt lat="43.3111667" lon="11.7442167"><ele>264.0</ele><time>2026-04-30T15:11:03.521Z</time></trkpt><trkpt lat="43.3112383" lon="11.7442"><ele>264.0</ele><time>2026-04-30T15:11:04.519Z</time></trkpt><trkpt lat="43.31131" lon="11.7441867"><ele>264.0</ele><time>2026-04-30T15:11:05.52Z</time></trkpt><trkpt lat="43.3113817" lon="11.74418"><ele>264.0</ele><time>2026-04-30T15:11:06.521Z</time></trkpt><trkpt lat="43.311455" lon="11.74418"><ele>264.0</ele><time>2026-04-30T15:11:07.523Z</time></trkpt><trkpt lat="43.3115283" lon="11.74418"><ele>264.0</ele><time>2026-04-30T15:11:08.52Z</time></trkpt><trkpt lat="43.3116" lon="11.74418"><ele>263.57142857142856</ele><time>2026-04-30T15:11:09.523Z</time></trkpt><trkpt lat="43.3116717" lon="11.7441867"><ele>263.14285714285717</ele><time>2026-04-30T15:11:10.521Z</time></trkpt><trkpt lat="43.3117417" lon="11.744195"><ele>262.7142857142857</ele><time>2026-04-30T15:11:11.525Z</time></trkpt><trkpt lat="43.31181" lon="11.7442033"><ele>262.2857142857143</ele><time>2026-04-30T15:11:12.52Z</time></trkpt><trkpt lat="43.31188" lon="11.7442117"><ele>261.85714285714283</ele><time>2026-04-30T15:11:13.525Z</time></trkpt><trkpt lat="43.31195" lon="11.7442183"><ele>261.42857142857144</ele><time>2026-04-30T15:11:14.526Z</time></trkpt><trkpt lat="43.3120183" lon="11.74423"><ele>261.0</ele><time>2026-04-30T15:11:15.522Z</time></trkpt><trkpt lat="43.312085" lon="11.7442367"><ele>261.0</ele><time>2026-04-30T15:11:16.522Z</time></trkpt><trkpt lat="43.3121533" lon="11.744245"><ele>261.0</ele><time>2026-04-30T15:11:17.52Z</time></trkpt><trkpt lat="43.31222" lon="11.7442517"><ele>261.0</ele><time>2026-04-30T15:11:18.521Z</time></trkpt><trkpt lat="43.312285" lon="11.74426"><ele>261.0</ele><time>2026-04-30T15:11:19.523Z</time></trkpt><trkpt lat="43.3123517" lon="11.7442667"><ele>261.0</ele><time>2026-04-30T15:11:20.524Z</time></trkpt><trkpt lat="43.3124183" lon="11.7442733"><ele>261.0</ele><time>2026-04-30T15:11:21.522Z</time></trkpt><trkpt lat="43.3124833" lon="11.74428"><ele>261.0</ele><time>2026-04-30T15:11:22.521Z</time></trkpt><trkpt lat="43.3125483" lon="11.7442883"><ele>261.0</ele><time>2026-04-30T15:11:23.521Z</time></trkpt><trkpt lat="43.3126133" lon="11.7442967"><ele>261.0</ele><time>2026-04-30T15:11:24.522Z</time></trkpt><trkpt lat="43.3126783" lon="11.7443067"><ele>261.0</ele><time>2026-04-30T15:11:25.52Z</time></trkpt><trkpt lat="43.3127417" lon="11.7443167"><ele>261.0</ele><time>2026-04-30T15:11:26.522Z</time></trkpt><trkpt lat="43.3128067" lon="11.7443233"><ele>261.0</ele><time>2026-04-30T15:11:27.519Z</time></trkpt><trkpt lat="43.31287" lon="11.7443317"><ele>261.0</ele><time>2026-04-30T15:11:28.521Z</time></trkpt><trkpt lat="43.312935" lon="11.7443417"><ele>261.0</ele><time>2026-04-30T15:11:29.52Z</time></trkpt><trkpt lat="43.3129983" lon="11.7443483"><ele>261.25</ele><time>2026-04-30T15:11:30.521Z</time></trkpt><trkpt lat="43.31312" lon="11.7443617"><ele>261.5</ele><time>2026-04-30T15:11:32.523Z</time></trkpt><trkpt lat="43.3132433" lon="11.74437"><ele>261.75</ele><time>2026-04-30T15:11:34.519Z</time></trkpt><trkpt lat="43.3133667" lon="11.7443733"><ele>262.0</ele><time>2026-04-30T15:11:36.523Z</time></trkpt><trkpt lat="43.3134867" lon="11.7443833"><ele>262.0</ele><time>2026-04-30T15:11:38.519Z</time></trkpt><trkpt lat="43.313605" lon="11.7443983"><ele>262.0</ele><time>2026-04-30T15:11:40.518Z</time></trkpt><trkpt lat="43.31372" lon="11.74441"><ele>262.0</ele><time>2026-04-30T15:11:42.52Z</time></trkpt><trkpt lat="43.313835" lon="11.7444267"><ele>262.0</ele><time>2026-04-30T15:11:44.52Z</time></trkpt><trkpt lat="43.3139483" lon="11.7444433"><ele>261.6</ele><time>2026-04-30T15:11:46.519Z</time></trkpt><trkpt lat="43.314055" lon="11.74446"><ele>261.2</ele><time>2026-04-30T15:11:48.522Z</time></trkpt><trkpt lat="43.3141617" lon="11.744475"><ele>260.8</ele><time>2026-04-30T15:11:50.519Z</time></trkpt><trkpt lat="43.3142683" lon="11.7444917"><ele>260.4</ele><time>2026-04-30T15:11:52.52Z</time></trkpt><trkpt lat="43.3143717" lon="11.7445033"><ele>260.0</ele><time>2026-04-30T15:11:54.521Z</time></trkpt><trkpt lat="43.3144783" lon="11.7445183"><ele>260.0</ele><time>2026-04-30T15:11:56.52Z</time></trkpt><trkpt lat="43.3145833" lon="11.74453"><ele>260.0</ele><time>2026-04-30T15:11:58.52Z</time></trkpt><trkpt lat="43.314685" lon="11.7445467"><ele>260.0</ele><time>2026-04-30T15:12:00.52Z</time></trkpt><trkpt lat="43.314785" lon="11.7445533"><ele>260.0</ele><time>2026-04-30T15:12:02.522Z</time></trkpt><trkpt lat="43.3148933" lon="11.7445517"><ele>260.0</ele><time>2026-04-30T15:12:04.519Z</time></trkpt><trkpt lat="43.3149967" lon="11.7445483"><ele>260.0</ele><time>2026-04-30T15:12:06.52Z</time></trkpt><trkpt lat="43.315095" lon="11.744535"><ele>260.0</ele><time>2026-04-30T15:12:08.52Z</time></trkpt><trkpt lat="43.3151983" lon="11.7445133"><ele>260.0</ele><time>2026-04-30T15:12:10.522Z</time></trkpt><trkpt lat="43.315305" lon="11.74448"><ele>260.0</ele><time>2026-04-30T15:12:12.522Z</time></trkpt><trkpt lat="43.315405" lon="11.7444333"><ele>260.0</ele><time>2026-04-30T15:12:14.52Z</time></trkpt><trkpt lat="43.3155" lon="11.74437"><ele>260.2</ele><time>2026-04-30T15:12:16.519Z</time></trkpt><trkpt lat="43.315595" lon="11.744295"><ele>260.4</ele><time>2026-04-30T15:12:18.518Z</time></trkpt><trkpt lat="43.315685" lon="11.7442133"><ele>260.6</ele><time>2026-04-30T15:12:20.52Z</time></trkpt><trkpt lat="43.3157717" lon="11.744125"><ele>260.8</ele><time>2026-04-30T15:12:22.523Z</time></trkpt><trkpt lat="43.3158533" lon="11.74403"><ele>261.0</ele><time>2026-04-30T15:12:24.519Z</time></trkpt><trkpt lat="43.3159267" lon="11.7439267"><ele>261.0</ele><time>2026-04-30T15:12:26.522Z</time></trkpt><trkpt lat="43.3159933" lon="11.743815"><ele>261.0</ele><time>2026-04-30T15:12:28.521Z</time></trkpt><trkpt lat="43.3160567" lon="11.743685"><ele>261.0</ele><time>2026-04-30T15:12:30.521Z</time></trkpt><trkpt lat="43.3161183" lon="11.743565"><ele>261.0</ele><time>2026-04-30T15:12:32.52Z</time></trkpt><trkpt lat="43.31618" lon="11.7434333"><ele>261.0</ele><time>2026-04-30T15:12:34.523Z</time></trkpt><trkpt lat="43.316245" lon="11.7433033"><ele>261.2</ele><time>2026-04-30T15:12:36.519Z</time></trkpt><trkpt lat="43.3163083" lon="11.7431633"><ele>261.40000000000003</ele><time>2026-04-30T15:12:38.524Z</time></trkpt><trkpt lat="43.3163717" lon="11.7430233"><ele>261.6</ele><time>2026-04-30T15:12:40.52Z</time></trkpt><trkpt lat="43.3164367" lon="11.7429267"><ele>261.8</ele><time>2026-04-30T15:12:42.521Z</time></trkpt><trkpt lat="43.3164933" lon="11.742825"><ele>262.0</ele><time>2026-04-30T15:12:44.521Z</time></trkpt><trkpt lat="43.3165533" lon="11.7427033"><ele>262.2</ele><time>2026-04-30T15:12:46.521Z</time></trkpt><trkpt lat="43.3166133" lon="11.7425917"><ele>262.4</ele><time>2026-04-30T15:12:48.518Z</time></trkpt><trkpt lat="43.3166783" lon="11.7424733"><ele>262.6</ele><time>2026-04-30T15:12:50.523Z</time></trkpt><trkpt lat="43.3167417" lon="11.7423517"><ele>262.8</ele><time>2026-04-30T15:12:52.52Z</time></trkpt><trkpt lat="43.3167983" lon="11.742225"><ele>263.0</ele><time>2026-04-30T15:12:54.521Z</time></trkpt><trkpt lat="43.316855" lon="11.742115"><ele>263.0</ele><time>2026-04-30T15:12:56.524Z</time></trkpt><trkpt lat="43.3169083" lon="11.7420017"><ele>263.0</ele><time>2026-04-30T15:12:58.519Z</time></trkpt><trkpt lat="43.3169717" lon="11.7418933"><ele>263.0</ele><time>2026-04-30T15:13:00.52Z</time></trkpt><trkpt lat="43.3170433" lon="11.741785"><ele>263.0</ele><time>2026-04-30T15:13:02.521Z</time></trkpt><trkpt lat="43.3171067" lon="11.74169"><ele>263.0</ele><time>2026-04-30T15:13:04.52Z</time></trkpt><trkpt lat="43.3171667" lon="11.741585"><ele>263.0</ele><time>2026-04-30T15:13:06.516Z</time></trkpt><trkpt lat="43.31722" lon="11.7414917"><ele>263.0</ele><time>2026-04-30T15:13:08.522Z</time></trkpt><trkpt lat="43.31727" lon="11.7414"><ele>263.0</ele><time>2026-04-30T15:13:10.519Z</time></trkpt><trkpt lat="43.3173283" lon="11.7413"><ele>263.0</ele><time>2026-04-30T15:13:12.525Z</time></trkpt><trkpt lat="43.3173933" lon="11.7412"><ele>263.0</ele><time>2026-04-30T15:13:14.521Z</time></trkpt><trkpt lat="43.3174567" lon="11.741095"><ele>263.6</ele><time>2026-04-30T15:13:16.521Z</time></trkpt><trkpt lat="43.317515" lon="11.7409933"><ele>264.20000000000005</ele><time>2026-04-30T15:13:18.52Z</time></trkpt><trkpt lat="43.31758" lon="11.7408967"><ele>264.8</ele><time>2026-04-30T15:13:20.521Z</time></trkpt><trkpt lat="43.31764" lon="11.7408017"><ele>265.40000000000003</ele><time>2026-04-30T15:13:22.519Z</time></trkpt><trkpt lat="43.3176933" lon="11.7406983"><ele>266.0</ele><time>2026-04-30T15:13:24.521Z</time></trkpt><trkpt lat="43.3177483" lon="11.740605"><ele>266.0</ele><time>2026-04-30T15:13:26.522Z</time></trkpt><trkpt lat="43.3178017" lon="11.74051"><ele>266.0</ele><time>2026-04-30T15:13:28.519Z</time></trkpt><trkpt lat="43.317855" lon="11.74041"><ele>266.0</ele><time>2026-04-30T15:13:30.52Z</time></trkpt><trkpt lat="43.317915" lon="11.7403217"><ele>266.0</ele><time>2026-04-30T15:13:32.519Z</time></trkpt><trkpt lat="43.31798" lon="11.74023"><ele>266.0</ele><time>2026-04-30T15:13:34.519Z</time></trkpt><trkpt lat="43.3180483" lon="11.740135"><ele>265.5</ele><time>2026-04-30T15:13:36.519Z</time></trkpt><trkpt lat="43.3181183" lon="11.74005"><ele>265.0</ele><time>2026-04-30T15:13:38.52Z</time></trkpt><trkpt lat="43.31819" lon="11.739975"><ele>264.5</ele><time>2026-04-30T15:13:40.52Z</time></trkpt><trkpt lat="43.318255" lon="11.7398983"><ele>264.0</ele><time>2026-04-30T15:13:42.519Z</time></trkpt><trkpt lat="43.3183167" lon="11.7398283"><ele>263.5</ele><time>2026-04-30T15:13:44.519Z</time></trkpt><trkpt lat="43.3183733" lon="11.739755"><ele>263.0</ele><time>2026-04-30T15:13:46.519Z</time></trkpt><trkpt lat="43.3184333" lon="11.739685"><ele>263.0</ele><time>2026-04-30T15:13:48.52Z</time></trkpt><trkpt lat="43.318485" lon="11.7396283"><ele>263.0</ele><time>2026-04-30T15:13:50.519Z</time></trkpt><trkpt lat="43.3185417" lon="11.7395717"><ele>263.0</ele><time>2026-04-30T15:13:52.521Z</time></trkpt><trkpt lat="43.3186033" lon="11.7395233"><ele>263.0</ele><time>2026-04-30T15:13:54.519Z</time></trkpt><trkpt lat="43.3186717" lon="11.7394583"><ele>263.0</ele><time>2026-04-30T15:13:56.52Z</time></trkpt><trkpt lat="43.318745" lon="11.7394117"><ele>263.0</ele><time>2026-04-30T15:13:58.521Z</time></trkpt><trkpt lat="43.3188217" lon="11.73937"><ele>263.0</ele><time>2026-04-30T15:14:00.518Z</time></trkpt><trkpt lat="43.3188917" lon="11.73931"><ele>263.0</ele><time>2026-04-30T15:14:02.521Z</time></trkpt><trkpt lat="43.3189717" lon="11.7392583"><ele>263.0</ele><time>2026-04-30T15:14:04.521Z</time></trkpt><trkpt lat="43.3190517" lon="11.7392033"><ele>263.0</ele><time>2026-04-30T15:14:06.519Z</time></trkpt><trkpt lat="43.3191317" lon="11.739165"><ele>263.0</ele><time>2026-04-30T15:14:08.525Z</time></trkpt><trkpt lat="43.3192017" lon="11.739125"><ele>263.0</ele><time>2026-04-30T15:14:10.52Z</time></trkpt><trkpt lat="43.3192667" lon="11.73908"><ele>263.0</ele><time>2026-04-30T15:14:12.521Z</time></trkpt><trkpt lat="43.3193333" lon="11.73903"><ele>263.0</ele><time>2026-04-30T15:14:14.523Z</time></trkpt><trkpt lat="43.3194083" lon="11.7389933"><ele>263.0</ele><time>2026-04-30T15:14:16.522Z</time></trkpt><trkpt lat="43.3194883" lon="11.738945"><ele>263.0</ele><time>2026-04-30T15:14:18.522Z</time></trkpt><trkpt lat="43.319565" lon="11.7389"><ele>263.0</ele><time>2026-04-30T15:14:20.521Z</time></trkpt><trkpt lat="43.31972" lon="11.7387983"><ele>263.0</ele><time>2026-04-30T15:14:24.52Z</time></trkpt><trkpt lat="43.3198" lon="11.7387467"><ele>263.0</ele><time>2026-04-30T15:14:26.521Z</time></trkpt><trkpt lat="43.3198817" lon="11.7386867"><ele>263.0</ele><time>2026-04-30T15:14:28.523Z</time></trkpt><trkpt lat="43.3199633" lon="11.738635"><ele>263.0</ele><time>2026-04-30T15:14:30.52Z</time></trkpt><trkpt lat="43.320045" lon="11.738585"><ele>263.0</ele><time>2026-04-30T15:14:32.525Z</time></trkpt><trkpt lat="43.3201283" lon="11.73853"><ele>263.1666666666667</ele><time>2026-04-30T15:14:34.519Z</time></trkpt><trkpt lat="43.32021" lon="11.7384733"><ele>263.33333333333337</ele><time>2026-04-30T15:14:36.519Z</time></trkpt><trkpt lat="43.32029" lon="11.738415"><ele>263.5</ele><time>2026-04-30T15:14:38.52Z</time></trkpt><trkpt lat="43.3203717" lon="11.7383617"><ele>263.6666666666667</ele><time>2026-04-30T15:14:40.52Z</time></trkpt><trkpt lat="43.3204483" lon="11.7383067"><ele>263.8333333333333</ele><time>2026-04-30T15:14:42.525Z</time></trkpt><trkpt lat="43.3205217" lon="11.7382467"><ele>264.0</ele><time>2026-04-30T15:14:44.52Z</time></trkpt><trkpt lat="43.32059" lon="11.7381833"><ele>264.0</ele><time>2026-04-30T15:14:46.521Z</time></trkpt><trkpt lat="43.3206483" lon="11.738125"><ele>264.0</ele><time>2026-04-30T15:14:48.524Z</time></trkpt><trkpt lat="43.320695" lon="11.7380567"><ele>264.0</ele><time>2026-04-30T15:14:50.523Z</time></trkpt><trkpt lat="43.3207433" lon="11.7379783"><ele>264.0</ele><time>2026-04-30T15:14:52.52Z</time></trkpt><trkpt lat="43.3208083" lon="11.7378983"><ele>264.0</ele><time>2026-04-30T15:14:54.524Z</time></trkpt><trkpt lat="43.32087" lon="11.737815"><ele>264.0</ele><time>2026-04-30T15:14:56.523Z</time></trkpt><trkpt lat="43.3209233" lon="11.7377267"><ele>264.3333333333333</ele><time>2026-04-30T15:14:58.52Z</time></trkpt><trkpt lat="43.3209733" lon="11.737635"><ele>264.6666666666667</ele><time>2026-04-30T15:15:00.526Z</time></trkpt><trkpt lat="43.321025" lon="11.73755"><ele>265.0</ele><time>2026-04-30T15:15:02.521Z</time></trkpt><trkpt lat="43.32107" lon="11.737465"><ele>265.33333333333337</ele><time>2026-04-30T15:15:04.524Z</time></trkpt><trkpt lat="43.3211217" lon="11.7373783"><ele>265.6666666666667</ele><time>2026-04-30T15:15:06.52Z</time></trkpt><trkpt lat="43.32117" lon="11.7372883"><ele>266.0</ele><time>2026-04-30T15:15:08.52Z</time></trkpt><trkpt lat="43.32122" lon="11.7371983"><ele>266.0</ele><time>2026-04-30T15:15:10.519Z</time></trkpt><trkpt lat="43.3212767" lon="11.7371083"><ele>266.0</ele><time>2026-04-30T15:15:12.521Z</time></trkpt><trkpt lat="43.3213383" lon="11.7370133"><ele>266.0</ele><time>2026-04-30T15:15:14.519Z</time></trkpt><trkpt lat="43.3214017" lon="11.736915"><ele>266.0</ele><time>2026-04-30T15:15:16.518Z</time></trkpt><trkpt lat="43.3214717" lon="11.7368217"><ele>266.0</ele><time>2026-04-30T15:15:18.523Z</time></trkpt><trkpt lat="43.3215433" lon="11.7367367"><ele>265.83333333333337</ele><time>2026-04-30T15:15:20.523Z</time></trkpt><trkpt lat="43.321615" lon="11.7366633"><ele>265.6666666666667</ele><time>2026-04-30T15:15:22.523Z</time></trkpt><trkpt lat="43.3216783" lon="11.7366133"><ele>265.5</ele><time>2026-04-30T15:15:24.521Z</time></trkpt><trkpt lat="43.3216267" lon="11.736545"><ele>265.3333333333333</ele><time>2026-04-30T15:17:06.523Z</time></trkpt><trkpt lat="43.3215767" lon="11.7364367"><ele>265.16666666666663</ele><time>2026-04-30T15:17:23.521Z</time></trkpt><trkpt lat="43.321615" lon="11.7363583"><ele>265.0</ele><time>2026-04-30T15:17:41.52Z</time></trkpt><trkpt lat="43.32166" lon="11.73627"><ele>265.0</ele><time>2026-04-30T15:17:45.521Z</time></trkpt><trkpt lat="43.321695" lon="11.7361583"><ele>265.0</ele><time>2026-04-30T15:17:48.524Z</time></trkpt><trkpt lat="43.32172" lon="11.7360733"><ele>265.0</ele><time>2026-04-30T15:17:50.523Z</time></trkpt><trkpt lat="43.3217533" lon="11.7359833"><ele>265.0</ele><time>2026-04-30T15:17:52.52Z</time></trkpt><trkpt lat="43.3217867" lon="11.7358833"><ele>265.0</ele><time>2026-04-30T15:17:54.521Z</time></trkpt><trkpt lat="43.3218233" lon="11.7357833"><ele>265.0</ele><time>2026-04-30T15:17:56.522Z</time></trkpt><trkpt lat="43.32186" lon="11.7356733"><ele>265.16666666666663</ele><time>2026-04-30T15:17:58.522Z</time></trkpt><trkpt lat="43.3218967" lon="11.73557"><ele>265.3333333333333</ele><time>2026-04-30T15:18:00.528Z</time></trkpt><trkpt lat="43.3219333" lon="11.7354633"><ele>265.5</ele><time>2026-04-30T15:18:02.522Z</time></trkpt><trkpt lat="43.321965" lon="11.735365"><ele>265.6666666666667</ele><time>2026-04-30T15:18:04.521Z</time></trkpt><trkpt lat="43.3219967" lon="11.735265"><ele>265.83333333333337</ele><time>2026-04-30T15:18:06.522Z</time></trkpt><trkpt lat="43.3220317" lon="11.7351633"><ele>266.0</ele><time>2026-04-30T15:18:08.52Z</time></trkpt><trkpt lat="43.322065" lon="11.7350617"><ele>266.33333333333337</ele><time>2026-04-30T15:18:10.519Z</time></trkpt><trkpt lat="43.3221033" lon="11.73496"><ele>266.6666666666667</ele><time>2026-04-30T15:18:12.524Z</time></trkpt><trkpt lat="43.3221417" lon="11.7348667"><ele>267.0</ele><time>2026-04-30T15:18:14.521Z</time></trkpt><trkpt lat="43.3221833" lon="11.7347783"><ele>267.3333333333333</ele><time>2026-04-30T15:18:16.521Z</time></trkpt><trkpt lat="43.32223" lon="11.734685"><ele>267.66666666666663</ele><time>2026-04-30T15:18:18.52Z</time></trkpt><trkpt lat="43.3222783" lon="11.7345783"><ele>268.0</ele><time>2026-04-30T15:18:20.521Z</time></trkpt><trkpt lat="43.322315" lon="11.7344833"><ele>268.0</ele><time>2026-04-30T15:18:22.523Z</time></trkpt><trkpt lat="43.322345" lon="11.7344033"><ele>268.0</ele><time>2026-04-30T15:18:24.522Z</time></trkpt><trkpt lat="43.3223833" lon="11.7343017"><ele>268.0</ele><time>2026-04-30T15:18:27.522Z</time></trkpt><trkpt lat="43.32244" lon="11.7342067"><ele>268.0</ele><time>2026-04-30T15:18:30.523Z</time></trkpt><trkpt lat="43.322485" lon="11.73413"><ele>268.0</ele><time>2026-04-30T15:18:32.521Z</time></trkpt><trkpt lat="43.3225317" lon="11.73406"><ele>268.0</ele><time>2026-04-30T15:18:34.52Z</time></trkpt><trkpt lat="43.3226033" lon="11.7339633"><ele>268.57142857142856</ele><time>2026-04-30T15:18:37.521Z</time></trkpt><trkpt lat="43.322655" lon="11.733885"><ele>269.1428571428571</ele><time>2026-04-30T15:18:39.522Z</time></trkpt><trkpt lat="43.322705" lon="11.7338167"><ele>269.71428571428567</ele><time>2026-04-30T15:18:41.525Z</time></trkpt><trkpt lat="43.3227517" lon="11.7337533"><ele>270.2857142857143</ele><time>2026-04-30T15:18:43.523Z</time></trkpt><trkpt lat="43.322815" lon="11.73366"><ele>270.85714285714283</ele><time>2026-04-30T15:18:46.518Z</time></trkpt><trkpt lat="43.3228583" lon="11.7335917"><ele>271.4285714285714</ele><time>2026-04-30T15:18:48.524Z</time></trkpt><trkpt lat="43.3229" lon="11.7335183"><ele>272.0</ele><time>2026-04-30T15:18:50.519Z</time></trkpt><trkpt lat="43.32294" lon="11.7334433"><ele>272.4285714285714</ele><time>2026-04-30T15:18:52.521Z</time></trkpt><trkpt lat="43.32298" lon="11.7333717"><ele>272.85714285714283</ele><time>2026-04-30T15:18:54.524Z</time></trkpt><trkpt lat="43.323025" lon="11.7332867"><ele>273.2857142857143</ele><time>2026-04-30T15:18:57.522Z</time></trkpt><trkpt lat="43.323085" lon="11.73325"><ele>273.71428571428567</ele><time>2026-04-30T15:19:02.521Z</time></trkpt><trkpt lat="43.32315" lon="11.7332433"><ele>274.1428571428571</ele><time>2026-04-30T15:19:09.522Z</time></trkpt><trkpt lat="43.32313" lon="11.73334"><ele>274.57142857142856</ele><time>2026-04-30T15:19:19.522Z</time></trkpt><trkpt lat="43.32313" lon="11.733435"><ele>275.0</ele><time>2026-04-30T15:19:23.52Z</time></trkpt><trkpt lat="43.323115" lon="11.733545"><ele>275.57142857142856</ele><time>2026-04-30T15:19:29.521Z</time></trkpt><trkpt lat="43.3231283" lon="11.7336433"><ele>276.1428571428571</ele><time>2026-04-30T15:19:32.521Z</time></trkpt><trkpt lat="43.3231517" lon="11.7337583"><ele>276.71428571428567</ele><time>2026-04-30T15:19:36.52Z</time></trkpt><trkpt lat="43.3231767" lon="11.7338383"><ele>277.2857142857143</ele><time>2026-04-30T15:19:39.52Z</time></trkpt><trkpt lat="43.3232467" lon="11.7338783"><ele>277.85714285714283</ele><time>2026-04-30T15:19:43.521Z</time></trkpt><trkpt lat="43.3233117" lon="11.7338767"><ele>278.4285714285714</ele><time>2026-04-30T15:19:46.521Z</time></trkpt><trkpt lat="43.3233767" lon="11.73388"><ele>279.0</ele><time>2026-04-30T15:19:50.522Z</time></trkpt><trkpt lat="43.323445" lon="11.7339117"><ele>279.0</ele><time>2026-04-30T15:19:54.524Z</time></trkpt><trkpt lat="43.3234867" lon="11.7340067"><ele>279.0</ele><time>2026-04-30T15:19:58.523Z</time></trkpt><trkpt lat="43.32353" lon="11.7341"><ele>279.0</ele><time>2026-04-30T15:20:02.522Z</time></trkpt><trkpt lat="43.32358" lon="11.7341867"><ele>279.0</ele><time>2026-04-30T15:20:05.523Z</time></trkpt><trkpt lat="43.32364" lon="11.734245"><ele>279.0</ele><time>2026-04-30T15:20:08.522Z</time></trkpt><trkpt lat="43.32372" lon="11.7341817"><ele>279.0</ele><time>2026-04-30T15:20:12.52Z</time></trkpt><trkpt lat="43.3237967" lon="11.73419"><ele>279.0</ele><time>2026-04-30T15:20:14.519Z</time></trkpt><trkpt lat="43.3238867" lon="11.7342683"><ele>279.0</ele><time>2026-04-30T15:20:16.518Z</time></trkpt><trkpt lat="43.32393" lon="11.734335"><ele>279.0</ele><time>2026-04-30T15:20:17.519Z</time></trkpt><trkpt lat="43.323965" lon="11.7344233"><ele>279.0</ele><time>2026-04-30T15:20:18.522Z</time></trkpt><trkpt lat="43.324005" lon="11.7345117"><ele>279.0</ele><time>2026-04-30T15:20:19.522Z</time></trkpt><trkpt lat="43.324045" lon="11.7346017"><ele>279.0</ele><time>2026-04-30T15:20:20.521Z</time></trkpt><trkpt lat="43.3240717" lon="11.734685"><ele>277.3333333333333</ele><time>2026-04-30T15:20:21.521Z</time></trkpt><trkpt lat="43.3240967" lon="11.73477"><ele>275.6666666666667</ele><time>2026-04-30T15:20:22.522Z</time></trkpt><trkpt lat="43.324125" lon="11.7348533"><ele>274.0</ele><time>2026-04-30T15:20:23.519Z</time></trkpt><trkpt lat="43.3241517" lon="11.7349317"><ele>272.33333333333337</ele><time>2026-04-30T15:20:24.523Z</time></trkpt><trkpt lat="43.3241933" lon="11.7350667"><ele>270.6666666666667</ele><time>2026-04-30T15:20:26.523Z</time></trkpt><trkpt lat="43.3242183" lon="11.7351567"><ele>269.0</ele><time>2026-04-30T15:20:29.52Z</time></trkpt><trkpt lat="43.324305" lon="11.73519"><ele>269.0</ele><time>2026-04-30T15:20:42.519Z</time></trkpt><trkpt lat="43.3243683" lon="11.7351783"><ele>269.0</ele><time>2026-04-30T15:23:34.517Z</time></trkpt><trkpt lat="43.32443" lon="11.7351583"><ele>269.0</ele><time>2026-04-30T15:23:37.523Z</time></trkpt><trkpt lat="43.3244983" lon="11.7351467"><ele>269.0</ele><time>2026-04-30T15:23:40.522Z</time></trkpt><trkpt lat="43.3245683" lon="11.7351283"><ele>269.0</ele><time>2026-04-30T15:23:43.519Z</time></trkpt><trkpt lat="43.3246567" lon="11.7351"><ele>269.0</ele><time>2026-04-30T15:23:46.519Z</time></trkpt><trkpt lat="43.324725" lon="11.7350817"><ele>269.0</ele><time>2026-04-30T15:23:48.521Z</time></trkpt><trkpt lat="43.3248033" lon="11.73506"><ele>268.2</ele><time>2026-04-30T15:23:50.521Z</time></trkpt><trkpt lat="43.3248883" lon="11.7350467"><ele>267.4</ele><time>2026-04-30T15:23:52.521Z</time></trkpt><trkpt lat="43.3249833" lon="11.73502"><ele>266.6</ele><time>2026-04-30T15:23:54.521Z</time></trkpt><trkpt lat="43.3250733" lon="11.735"><ele>265.8</ele><time>2026-04-30T15:23:56.524Z</time></trkpt><trkpt lat="43.3251717" lon="11.7349867"><ele>265.0</ele><time>2026-04-30T15:23:58.52Z</time></trkpt><trkpt lat="43.3252667" lon="11.734955"><ele>265.0</ele><time>2026-04-30T15:24:00.519Z</time></trkpt><trkpt lat="43.325365" lon="11.7349217"><ele>265.0</ele><time>2026-04-30T15:24:02.52Z</time></trkpt><trkpt lat="43.325465" lon="11.7348817"><ele>265.0</ele><time>2026-04-30T15:24:04.518Z</time></trkpt><trkpt lat="43.3255683" lon="11.7348417"><ele>265.0</ele><time>2026-04-30T15:24:06.522Z</time></trkpt><trkpt lat="43.325675" lon="11.73479"><ele>265.0</ele><time>2026-04-30T15:24:08.519Z</time></trkpt><trkpt lat="43.3257833" lon="11.7347333"><ele>265.0</ele><time>2026-04-30T15:24:10.52Z</time></trkpt><trkpt lat="43.3258883" lon="11.7346783"><ele>265.0</ele><time>2026-04-30T15:24:12.523Z</time></trkpt><trkpt lat="43.3259917" lon="11.7346133"><ele>265.0</ele><time>2026-04-30T15:24:14.525Z</time></trkpt><trkpt lat="43.3260567" lon="11.7345767"><ele>265.0</ele><time>2026-04-30T15:24:15.519Z</time></trkpt><trkpt lat="43.3261667" lon="11.7345033"><ele>265.0</ele><time>2026-04-30T15:24:17.519Z</time></trkpt><trkpt lat="43.3262783" lon="11.7344283"><ele>265.0</ele><time>2026-04-30T15:24:19.523Z</time></trkpt><trkpt lat="43.3263317" lon="11.7343817"><ele>265.0</ele><time>2026-04-30T15:24:20.52Z</time></trkpt><trkpt lat="43.3264333" lon="11.7343"><ele>265.0</ele><time>2026-04-30T15:24:22.519Z</time></trkpt><trkpt lat="43.3265367" lon="11.7342267"><ele>265.0</ele><time>2026-04-30T15:24:24.519Z</time></trkpt><trkpt lat="43.3266433" lon="11.7341667"><ele>265.0</ele><time>2026-04-30T15:24:26.521Z</time></trkpt><trkpt lat="43.32675" lon="11.7341"><ele>265.0</ele><time>2026-04-30T15:24:28.518Z</time></trkpt><trkpt lat="43.3268517" lon="11.7340517"><ele>265.0</ele><time>2026-04-30T15:24:30.52Z</time></trkpt><trkpt lat="43.326955" lon="11.734025"><ele>265.0</ele><time>2026-04-30T15:24:32.521Z</time></trkpt><trkpt lat="43.3270617" lon="11.73401"><ele>265.0</ele><time>2026-04-30T15:24:34.521Z</time></trkpt><trkpt lat="43.3271683" lon="11.7340267"><ele>265.0</ele><time>2026-04-30T15:24:36.522Z</time></trkpt><trkpt lat="43.327285" lon="11.7340283"><ele>265.0</ele><time>2026-04-30T15:24:38.52Z</time></trkpt><trkpt lat="43.327395" lon="11.7340217"><ele>265.0</ele><time>2026-04-30T15:24:40.522Z</time></trkpt><trkpt lat="43.3275083" lon="11.734015"><ele>265.0</ele><time>2026-04-30T15:24:42.522Z</time></trkpt><trkpt lat="43.3276183" lon="11.7339967"><ele>265.0</ele><time>2026-04-30T15:24:44.521Z</time></trkpt><trkpt lat="43.3277283" lon="11.7339467"><ele>265.0</ele><time>2026-04-30T15:24:46.52Z</time></trkpt><trkpt lat="43.32783" lon="11.7338867"><ele>265.0</ele><time>2026-04-30T15:24:48.519Z</time></trkpt><trkpt lat="43.3279333" lon="11.7338217"><ele>265.0</ele><time>2026-04-30T15:24:50.519Z</time></trkpt><trkpt lat="43.3280317" lon="11.73375"><ele>265.0</ele><time>2026-04-30T15:24:52.52Z</time></trkpt><trkpt lat="43.3281333" lon="11.733675"><ele>265.0</ele><time>2026-04-30T15:24:54.52Z</time></trkpt><trkpt lat="43.3282317" lon="11.7335983"><ele>265.0</ele><time>2026-04-30T15:24:56.52Z</time></trkpt><trkpt lat="43.3283167" lon="11.7335083"><ele>265.0</ele><time>2026-04-30T15:24:58.521Z</time></trkpt><trkpt lat="43.3283967" lon="11.733405"><ele>265.0</ele><time>2026-04-30T15:25:00.521Z</time></trkpt><trkpt lat="43.3284717" lon="11.7333033"><ele>265.0</ele><time>2026-04-30T15:25:02.522Z</time></trkpt><trkpt lat="43.3285467" lon="11.7332"><ele>265.0</ele><time>2026-04-30T15:25:04.521Z</time></trkpt><trkpt lat="43.32862" lon="11.7330933"><ele>265.0</ele><time>2026-04-30T15:25:06.528Z</time></trkpt><trkpt lat="43.3286983" lon="11.7329867"><ele>265.0</ele><time>2026-04-30T15:25:08.525Z</time></trkpt><trkpt lat="43.3287867" lon="11.7329017"><ele>265.0</ele><time>2026-04-30T15:25:10.519Z</time></trkpt><trkpt lat="43.3288333" lon="11.7328167"><ele>265.0</ele><time>2026-04-30T15:25:12.518Z</time></trkpt><trkpt lat="43.3288867" lon="11.7327333"><ele>265.16666666666663</ele><time>2026-04-30T15:25:14.521Z</time></trkpt><trkpt lat="43.328935" lon="11.73266"><ele>265.3333333333333</ele><time>2026-04-30T15:25:16.522Z</time></trkpt><trkpt lat="43.32898" lon="11.7325933"><ele>265.5</ele><time>2026-04-30T15:25:18.523Z</time></trkpt><trkpt lat="43.3290467" lon="11.7325"><ele>265.6666666666667</ele><time>2026-04-30T15:25:21.522Z</time></trkpt><trkpt lat="43.3290967" lon="11.73243"><ele>265.83333333333337</ele><time>2026-04-30T15:25:23.522Z</time></trkpt><trkpt lat="43.3291533" lon="11.7323483"><ele>266.0</ele><time>2026-04-30T15:25:25.521Z</time></trkpt><trkpt lat="43.3291967" lon="11.7322817"><ele>266.0</ele><time>2026-04-30T15:25:27.52Z</time></trkpt><trkpt lat="43.32924" lon="11.7322167"><ele>266.0</ele><time>2026-04-30T15:25:29.522Z</time></trkpt><trkpt lat="43.3292817" lon="11.7321517"><ele>266.0</ele><time>2026-04-30T15:25:31.52Z</time></trkpt><trkpt lat="43.3293367" lon="11.7320683"><ele>266.0</ele><time>2026-04-30T15:25:34.518Z</time></trkpt><trkpt lat="43.329395" lon="11.7319817"><ele>266.0</ele><time>2026-04-30T15:25:37.519Z</time></trkpt><trkpt lat="43.3294483" lon="11.7319"><ele>266.0</ele><time>2026-04-30T15:25:40.516Z</time></trkpt><trkpt lat="43.3294967" lon="11.731825"><ele>266.0</ele><time>2026-04-30T15:25:44.518Z</time></trkpt><trkpt lat="43.3295567" lon="11.7317533"><ele>266.33333333333337</ele><time>2026-04-30T15:25:57.519Z</time></trkpt><trkpt lat="43.32958" lon="11.7316567"><ele>266.6666666666667</ele><time>2026-04-30T15:26:01.522Z</time></trkpt><trkpt lat="43.32964" lon="11.7315483"><ele>267.0</ele><time>2026-04-30T15:26:04.521Z</time></trkpt><trkpt lat="43.3297" lon="11.7314767"><ele>267.3333333333333</ele><time>2026-04-30T15:26:08.518Z</time></trkpt><trkpt lat="43.3297667" lon="11.7314467"><ele>267.66666666666663</ele><time>2026-04-30T15:26:11.52Z</time></trkpt><trkpt lat="43.3298517" lon="11.7314133"><ele>268.0</ele><time>2026-04-30T15:26:14.521Z</time></trkpt><trkpt lat="43.329915" lon="11.7313833"><ele>268.0</ele><time>2026-04-30T15:26:16.519Z</time></trkpt><trkpt lat="43.329975" lon="11.731355"><ele>268.0</ele><time>2026-04-30T15:26:18.521Z</time></trkpt><trkpt lat="43.3300583" lon="11.7313117"><ele>268.0</ele><time>2026-04-30T15:26:20.52Z</time></trkpt><trkpt lat="43.33015" lon="11.731255"><ele>268.0</ele><time>2026-04-30T15:26:22.523Z</time></trkpt><trkpt lat="43.3302417" lon="11.7312"><ele>268.0</ele><time>2026-04-30T15:26:24.52Z</time></trkpt><trkpt lat="43.330345" lon="11.7311433"><ele>268.0</ele><time>2026-04-30T15:26:26.518Z</time></trkpt><trkpt lat="43.330455" lon="11.73109"><ele>268.0</ele><time>2026-04-30T15:26:28.52Z</time></trkpt><trkpt lat="43.3305633" lon="11.7310517"><ele>268.0</ele><time>2026-04-30T15:26:30.519Z</time></trkpt><trkpt lat="43.3306667" lon="11.7310467"><ele>268.0</ele><time>2026-04-30T15:26:32.519Z</time></trkpt><trkpt lat="43.3307533" lon="11.7311167"><ele>268.0</ele><time>2026-04-30T15:26:34.523Z</time></trkpt><trkpt lat="43.3308267" lon="11.7312367"><ele>267.6</ele><time>2026-04-30T15:26:36.522Z</time></trkpt><trkpt lat="43.33092" lon="11.73132"><ele>267.20000000000005</ele><time>2026-04-30T15:26:38.524Z</time></trkpt><trkpt lat="43.331045" lon="11.7313367"><ele>266.8</ele><time>2026-04-30T15:26:40.52Z</time></trkpt><trkpt lat="43.3311167" lon="11.7313133"><ele>266.40000000000003</ele><time>2026-04-30T15:26:41.521Z</time></trkpt><trkpt lat="43.331185" lon="11.7312733"><ele>266.0</ele><time>2026-04-30T15:26:42.523Z</time></trkpt><trkpt lat="43.331255" lon="11.7312283"><ele>266.0</ele><time>2026-04-30T15:26:43.519Z</time></trkpt><trkpt lat="43.33132" lon="11.7311817"><ele>266.0</ele><time>2026-04-30T15:26:44.522Z</time></trkpt><trkpt lat="43.3313767" lon="11.7311417"><ele>266.0</ele><time>2026-04-30T15:26:45.516Z</time></trkpt><trkpt lat="43.3314367" lon="11.7310983"><ele>266.0</ele><time>2026-04-30T15:26:46.518Z</time></trkpt><trkpt lat="43.331495" lon="11.7310583"><ele>266.0</ele><time>2026-04-30T15:26:47.522Z</time></trkpt><trkpt lat="43.3315533" lon="11.7310167"><ele>266.0</ele><time>2026-04-30T15:26:48.52Z</time></trkpt><trkpt lat="43.331615" lon="11.7309733"><ele>266.0</ele><time>2026-04-30T15:26:49.519Z</time></trkpt><trkpt lat="43.33168" lon="11.730925"><ele>266.6666666666667</ele><time>2026-04-30T15:26:50.519Z</time></trkpt><trkpt lat="43.3317383" lon="11.730885"><ele>267.33333333333337</ele><time>2026-04-30T15:26:51.518Z</time></trkpt><trkpt lat="43.331855" lon="11.73081"><ele>268.0</ele><time>2026-04-30T15:26:53.52Z</time></trkpt><trkpt lat="43.331915" lon="11.730765"><ele>268.6666666666667</ele><time>2026-04-30T15:26:54.521Z</time></trkpt><trkpt lat="43.3320183" lon="11.73068"><ele>269.3333333333333</ele><time>2026-04-30T15:26:56.52Z</time></trkpt><trkpt lat="43.3320717" lon="11.7306283"><ele>270.0</ele><time>2026-04-30T15:26:57.524Z</time></trkpt><trkpt lat="43.33212" lon="11.7305683"><ele>270.0</ele><time>2026-04-30T15:26:58.522Z</time></trkpt><trkpt lat="43.3321667" lon="11.730505"><ele>270.0</ele><time>2026-04-30T15:26:59.521Z</time></trkpt><trkpt lat="43.33221" lon="11.730435"><ele>270.0</ele><time>2026-04-30T15:27:00.52Z</time></trkpt><trkpt lat="43.3322517" lon="11.73037"><ele>270.0</ele><time>2026-04-30T15:27:01.524Z</time></trkpt><trkpt lat="43.3322983" lon="11.7303033"><ele>270.0</ele><time>2026-04-30T15:27:02.522Z</time></trkpt><trkpt lat="43.3323433" lon="11.7302367"><ele>270.0</ele><time>2026-04-30T15:27:03.523Z</time></trkpt><trkpt lat="43.332425" lon="11.7301117"><ele>269.6666666666667</ele><time>2026-04-30T15:27:05.523Z</time></trkpt><trkpt lat="43.3324733" lon="11.7300467"><ele>269.3333333333333</ele><time>2026-04-30T15:27:06.523Z</time></trkpt><trkpt lat="43.33252" lon="11.7299817"><ele>269.0</ele><time>2026-04-30T15:27:07.524Z</time></trkpt><trkpt lat="43.3325667" lon="11.7299183"><ele>268.66666666666663</ele><time>2026-04-30T15:27:08.521Z</time></trkpt><trkpt lat="43.3326517" lon="11.729805"><ele>268.3333333333333</ele><time>2026-04-30T15:27:10.517Z</time></trkpt><trkpt lat="43.332735" lon="11.7296867"><ele>268.0</ele><time>2026-04-30T15:27:12.518Z</time></trkpt><trkpt lat="43.3328217" lon="11.7295633"><ele>268.0</ele><time>2026-04-30T15:27:14.518Z</time></trkpt><trkpt lat="43.3329067" lon="11.7294433"><ele>268.0</ele><time>2026-04-30T15:27:16.517Z</time></trkpt><trkpt lat="43.3329517" lon="11.7293817"><ele>268.0</ele><time>2026-04-30T15:27:17.518Z</time></trkpt><trkpt lat="43.33304" lon="11.729265"><ele>268.0</ele><time>2026-04-30T15:27:19.522Z</time></trkpt><trkpt lat="43.3331233" lon="11.7291467"><ele>268.0</ele><time>2026-04-30T15:27:21.519Z</time></trkpt><trkpt lat="43.3332033" lon="11.7290317"><ele>268.0</ele><time>2026-04-30T15:27:23.519Z</time></trkpt><trkpt lat="43.3332883" lon="11.7289267"><ele>268.0</ele><time>2026-04-30T15:27:25.52Z</time></trkpt><trkpt lat="43.3333683" lon="11.7288133"><ele>268.0</ele><time>2026-04-30T15:27:27.524Z</time></trkpt><trkpt lat="43.333445" lon="11.728695"><ele>268.0</ele><time>2026-04-30T15:27:29.52Z</time></trkpt><trkpt lat="43.33352" lon="11.7285767"><ele>267.8</ele><time>2026-04-30T15:27:31.518Z</time></trkpt><trkpt lat="43.3336" lon="11.72846"><ele>267.6</ele><time>2026-04-30T15:27:33.518Z</time></trkpt><trkpt lat="43.3336767" lon="11.7283583"><ele>267.4</ele><time>2026-04-30T15:27:35.519Z</time></trkpt><trkpt lat="43.333755" lon="11.7282633"><ele>267.2</ele><time>2026-04-30T15:27:37.52Z</time></trkpt><trkpt lat="43.33383" lon="11.72815"><ele>267.0</ele><time>2026-04-30T15:27:39.521Z</time></trkpt><trkpt lat="43.3339167" lon="11.7280267"><ele>267.0</ele><time>2026-04-30T15:27:41.518Z</time></trkpt><trkpt lat="43.334" lon="11.727915"><ele>267.0</ele><time>2026-04-30T15:27:43.52Z</time></trkpt><trkpt lat="43.3340867" lon="11.727805"><ele>267.0</ele><time>2026-04-30T15:27:45.518Z</time></trkpt><trkpt lat="43.3341833" lon="11.7277"><ele>267.0</ele><time>2026-04-30T15:27:47.518Z</time></trkpt><trkpt lat="43.3342817" lon="11.7276133"><ele>268.0</ele><time>2026-04-30T15:27:49.52Z</time></trkpt><trkpt lat="43.334385" lon="11.72753"><ele>269.0</ele><time>2026-04-30T15:27:51.519Z</time></trkpt><trkpt lat="43.33449" lon="11.7274633"><ele>270.0</ele><time>2026-04-30T15:27:53.526Z</time></trkpt><trkpt lat="43.334595" lon="11.72739"><ele>271.0</ele><time>2026-04-30T15:27:55.52Z</time></trkpt><trkpt lat="43.3346917" lon="11.7273233"><ele>270.25</ele><time>2026-04-30T15:27:57.526Z</time></trkpt><trkpt lat="43.3347933" lon="11.7272467"><ele>269.5</ele><time>2026-04-30T15:27:59.519Z</time></trkpt><trkpt lat="43.3349033" lon="11.7271717"><ele>268.75</ele><time>2026-04-30T15:28:01.52Z</time></trkpt><trkpt lat="43.3350117" lon="11.7271117"><ele>268.0</ele><time>2026-04-30T15:28:03.519Z</time></trkpt><trkpt lat="43.335115" lon="11.7270467"><ele>268.0</ele><time>2026-04-30T15:28:05.521Z</time></trkpt><trkpt lat="43.3352183" lon="11.7269783"><ele>268.0</ele><time>2026-04-30T15:28:07.519Z</time></trkpt><trkpt lat="43.335315" lon="11.7268967"><ele>268.0</ele><time>2026-04-30T15:28:09.519Z</time></trkpt><trkpt lat="43.33541" lon="11.726815"><ele>268.0</ele><time>2026-04-30T15:28:11.518Z</time></trkpt><trkpt lat="43.3354933" lon="11.7267367"><ele>268.0</ele><time>2026-04-30T15:28:13.52Z</time></trkpt><trkpt lat="43.3355467" lon="11.7266733"><ele>268.16666666666663</ele><time>2026-04-30T15:28:15.521Z</time></trkpt><trkpt lat="43.3356083" lon="11.726605"><ele>268.3333333333333</ele><time>2026-04-30T15:28:19.521Z</time></trkpt><trkpt lat="43.3356483" lon="11.726535"><ele>268.5</ele><time>2026-04-30T15:28:24.52Z</time></trkpt><trkpt lat="43.3356933" lon="11.7264433"><ele>268.6666666666667</ele><time>2026-04-30T15:28:27.522Z</time></trkpt><trkpt lat="43.3357367" lon="11.7263633"><ele>268.83333333333337</ele><time>2026-04-30T15:28:29.526Z</time></trkpt><trkpt lat="43.3358" lon="11.7262667"><ele>269.0</ele><time>2026-04-30T15:28:32.517Z</time></trkpt><trkpt lat="43.3358483" lon="11.72619"><ele>269.0</ele><time>2026-04-30T15:28:35.521Z</time></trkpt><trkpt lat="43.3359167" lon="11.7261133"><ele>269.0</ele><time>2026-04-30T15:28:38.526Z</time></trkpt><trkpt lat="43.3359817" lon="11.726185"><ele>269.0</ele><time>2026-04-30T15:28:40.521Z</time></trkpt><trkpt lat="43.336005" lon="11.7263067"><ele>269.0</ele><time>2026-04-30T15:28:42.525Z</time></trkpt><trkpt lat="43.3360317" lon="11.7264333"><ele>269.0</ele><time>2026-04-30T15:28:44.521Z</time></trkpt><trkpt lat="43.336065" lon="11.7265667"><ele>269.0</ele><time>2026-04-30T15:28:46.521Z</time></trkpt><trkpt lat="43.3361" lon="11.7267"><ele>269.0</ele><time>2026-04-30T15:28:48.519Z</time></trkpt><trkpt lat="43.3361383" lon="11.726835"><ele>269.0</ele><time>2026-04-30T15:28:50.523Z</time></trkpt><trkpt lat="43.3361783" lon="11.72698"><ele>269.0</ele><time>2026-04-30T15:28:52.52Z</time></trkpt><trkpt lat="43.3362283" lon="11.7271167"><ele>269.0</ele><time>2026-04-30T15:28:54.522Z</time></trkpt><trkpt lat="43.3362767" lon="11.7272633"><ele>268.5</ele><time>2026-04-30T15:28:56.524Z</time></trkpt><trkpt lat="43.3363217" lon="11.727415"><ele>268.0</ele><time>2026-04-30T15:28:58.518Z</time></trkpt><trkpt lat="43.3363667" lon="11.7275683"><ele>267.5</ele><time>2026-04-30T15:29:00.517Z</time></trkpt><trkpt lat="43.3364133" lon="11.7277117"><ele>267.0</ele><time>2026-04-30T15:29:02.522Z</time></trkpt><trkpt lat="43.3364583" lon="11.72786"><ele>266.5</ele><time>2026-04-30T15:29:04.521Z</time></trkpt><trkpt lat="43.3364983" lon="11.728"><ele>266.0</ele><time>2026-04-30T15:29:06.518Z</time></trkpt><trkpt lat="43.3365433" lon="11.7281383"><ele>265.5</ele><time>2026-04-30T15:29:08.523Z</time></trkpt><trkpt lat="43.336585" lon="11.7282867"><ele>265.0</ele><time>2026-04-30T15:29:10.521Z</time></trkpt><trkpt lat="43.33663" lon="11.7284333"><ele>265.0</ele><time>2026-04-30T15:29:12.52Z</time></trkpt><trkpt lat="43.33667" lon="11.72858"><ele>265.0</ele><time>2026-04-30T15:29:14.521Z</time></trkpt><trkpt lat="43.3367033" lon="11.7287217"><ele>265.0</ele><time>2026-04-30T15:29:16.519Z</time></trkpt><trkpt lat="43.33674" lon="11.728865"><ele>265.0</ele><time>2026-04-30T15:29:18.521Z</time></trkpt><trkpt lat="43.3367733" lon="11.7290133"><ele>265.0</ele><time>2026-04-30T15:29:20.524Z</time></trkpt><trkpt lat="43.33681" lon="11.7291567"><ele>265.0</ele><time>2026-04-30T15:29:22.52Z</time></trkpt><trkpt lat="43.336835" lon="11.72929"><ele>265.0</ele><time>2026-04-30T15:29:24.523Z</time></trkpt><trkpt lat="43.3368717" lon="11.72942"><ele>265.0</ele><time>2026-04-30T15:29:26.524Z</time></trkpt><trkpt lat="43.3369083" lon="11.729555"><ele>265.0</ele><time>2026-04-30T15:29:28.52Z</time></trkpt><trkpt lat="43.3369367" lon="11.7296833"><ele>265.0</ele><time>2026-04-30T15:29:30.521Z</time></trkpt><trkpt lat="43.3369283" lon="11.7297783"><ele>265.0</ele><time>2026-04-30T15:29:31.52Z</time></trkpt><trkpt lat="43.3369617" lon="11.7299117"><ele>265.0</ele><time>2026-04-30T15:29:33.52Z</time></trkpt><trkpt lat="43.3370083" lon="11.73005"><ele>265.0</ele><time>2026-04-30T15:29:35.517Z</time></trkpt><trkpt lat="43.3370417" lon="11.7301983"><ele>265.0</ele><time>2026-04-30T15:29:37.519Z</time></trkpt><trkpt lat="43.3371" lon="11.7303367"><ele>265.0</ele><time>2026-04-30T15:29:39.519Z</time></trkpt><trkpt lat="43.3371467" lon="11.7304633"><ele>265.0</ele><time>2026-04-30T15:29:41.519Z</time></trkpt><trkpt lat="43.33718" lon="11.730585"><ele>265.0</ele><time>2026-04-30T15:29:43.52Z</time></trkpt><trkpt lat="43.337215" lon="11.730715"><ele>265.0</ele><time>2026-04-30T15:29:45.518Z</time></trkpt><trkpt lat="43.337255" lon="11.730845"><ele>265.0</ele><time>2026-04-30T15:29:47.52Z</time></trkpt><trkpt lat="43.3372867" lon="11.7309733"><ele>265.0</ele><time>2026-04-30T15:29:49.52Z</time></trkpt><trkpt lat="43.33732" lon="11.7311033"><ele>265.0</ele><time>2026-04-30T15:29:51.521Z</time></trkpt><trkpt lat="43.3373533" lon="11.7312333"><ele>265.0</ele><time>2026-04-30T15:29:53.521Z</time></trkpt><trkpt lat="43.3373883" lon="11.7313717"><ele>265.0</ele><time>2026-04-30T15:29:55.519Z</time></trkpt><trkpt lat="43.337415" lon="11.7315217"><ele>265.0</ele><time>2026-04-30T15:29:57.518Z</time></trkpt><trkpt lat="43.33745" lon="11.73166"><ele>265.0</ele><time>2026-04-30T15:29:59.525Z</time></trkpt><trkpt lat="43.3374867" lon="11.7317917"><ele>265.0</ele><time>2026-04-30T15:30:01.52Z</time></trkpt><trkpt lat="43.3375183" lon="11.731925"><ele>265.0</ele><time>2026-04-30T15:30:03.52Z</time></trkpt><trkpt lat="43.3375517" lon="11.73206"><ele>265.0</ele><time>2026-04-30T15:30:05.524Z</time></trkpt><trkpt lat="43.3375883" lon="11.7321933"><ele>265.0</ele><time>2026-04-30T15:30:07.521Z</time></trkpt><trkpt lat="43.337625" lon="11.73232"><ele>265.0</ele><time>2026-04-30T15:30:09.522Z</time></trkpt><trkpt lat="43.3376567" lon="11.732435"><ele>264.99999999999994</ele><time>2026-04-30T15:30:11.522Z</time></trkpt><trkpt lat="43.3376883" lon="11.732545"><ele>265.0</ele><time>2026-04-30T15:30:13.519Z</time></trkpt><trkpt lat="43.33772" lon="11.7326483"><ele>265.0</ele><time>2026-04-30T15:30:15.519Z</time></trkpt><trkpt lat="43.3377467" lon="11.7327417"><ele>265.0</ele><time>2026-04-30T15:30:17.523Z</time></trkpt><trkpt lat="43.3377683" lon="11.7328317"><ele>265.0</ele><time>2026-04-30T15:30:19.519Z</time></trkpt><trkpt lat="43.337795" lon="11.7329217"><ele>264.99999999999994</ele><time>2026-04-30T15:30:21.52Z</time></trkpt><trkpt lat="43.3378167" lon="11.7330067"><ele>265.0</ele><time>2026-04-30T15:30:23.518Z</time></trkpt><trkpt lat="43.3378433" lon="11.7330983"><ele>264.8333333333333</ele><time>2026-04-30T15:30:25.52Z</time></trkpt><trkpt lat="43.3378633" lon="11.7331933"><ele>264.66666666666663</ele><time>2026-04-30T15:30:27.521Z</time></trkpt><trkpt lat="43.3378833" lon="11.7332917"><ele>264.5</ele><time>2026-04-30T15:30:29.52Z</time></trkpt><trkpt lat="43.3379067" lon="11.7334"><ele>264.3333333333333</ele><time>2026-04-30T15:30:31.522Z</time></trkpt><trkpt lat="43.3379383" lon="11.7335117"><ele>264.1666666666667</ele><time>2026-04-30T15:30:33.524Z</time></trkpt><trkpt lat="43.3379767" lon="11.73364"><ele>264.0</ele><time>2026-04-30T15:30:35.524Z</time></trkpt><trkpt lat="43.3380167" lon="11.733785"><ele>264.25</ele><time>2026-04-30T15:30:37.521Z</time></trkpt><trkpt lat="43.338055" lon="11.7339367"><ele>264.5</ele><time>2026-04-30T15:30:39.518Z</time></trkpt><trkpt lat="43.3380967" lon="11.73409"><ele>264.75</ele><time>2026-04-30T15:30:41.521Z</time></trkpt><trkpt lat="43.33814" lon="11.7342367"><ele>265.0</ele><time>2026-04-30T15:30:43.523Z</time></trkpt><trkpt lat="43.3381817" lon="11.7343783"><ele>265.4</ele><time>2026-04-30T15:30:45.517Z</time></trkpt><trkpt lat="43.33822" lon="11.7345217"><ele>265.8</ele><time>2026-04-30T15:30:47.517Z</time></trkpt><trkpt lat="43.3382567" lon="11.7346417"><ele>266.2</ele><time>2026-04-30T15:30:49.521Z</time></trkpt><trkpt lat="43.3382983" lon="11.7347583"><ele>266.6</ele><time>2026-04-30T15:30:51.518Z</time></trkpt><trkpt lat="43.338345" lon="11.73487"><ele>267.0</ele><time>2026-04-30T15:30:53.519Z</time></trkpt><trkpt lat="43.33839" lon="11.7349833"><ele>267.0</ele><time>2026-04-30T15:30:55.52Z</time></trkpt><trkpt lat="43.3384367" lon="11.7350967"><ele>267.0</ele><time>2026-04-30T15:30:57.521Z</time></trkpt><trkpt lat="43.3384933" lon="11.7352117"><ele>267.0</ele><time>2026-04-30T15:30:59.521Z</time></trkpt><trkpt lat="43.3385467" lon="11.735335"><ele>267.0</ele><time>2026-04-30T15:31:01.519Z</time></trkpt><trkpt lat="43.3386083" lon="11.73546"><ele>267.0</ele><time>2026-04-30T15:31:03.52Z</time></trkpt><trkpt lat="43.3386733" lon="11.735585"><ele>266.5</ele><time>2026-04-30T15:31:05.52Z</time></trkpt><trkpt lat="43.3387417" lon="11.7357083"><ele>266.0</ele><time>2026-04-30T15:31:07.522Z</time></trkpt><trkpt lat="43.33881" lon="11.735835"><ele>265.5</ele><time>2026-04-30T15:31:09.519Z</time></trkpt><trkpt lat="43.338875" lon="11.73596"><ele>265.0</ele><time>2026-04-30T15:31:11.52Z</time></trkpt><trkpt lat="43.3389417" lon="11.736085"><ele>264.4</ele><time>2026-04-30T15:31:13.519Z</time></trkpt><trkpt lat="43.3390083" lon="11.73621"><ele>263.8</ele><time>2026-04-30T15:31:15.521Z</time></trkpt><trkpt lat="43.3390767" lon="11.7363283"><ele>263.2</ele><time>2026-04-30T15:31:17.523Z</time></trkpt><trkpt lat="43.3391367" lon="11.736445"><ele>262.6</ele><time>2026-04-30T15:31:19.52Z</time></trkpt><trkpt lat="43.3392017" lon="11.7365583"><ele>262.0</ele><time>2026-04-30T15:31:21.522Z</time></trkpt><trkpt lat="43.33927" lon="11.7366717"><ele>262.0</ele><time>2026-04-30T15:31:23.518Z</time></trkpt><trkpt lat="43.3393333" lon="11.7367867"><ele>262.0</ele><time>2026-04-30T15:31:25.518Z</time></trkpt><trkpt lat="43.3393883" lon="11.73691"><ele>262.0</ele><time>2026-04-30T15:31:27.524Z</time></trkpt><trkpt lat="43.3394167" lon="11.7370467"><ele>262.0</ele><time>2026-04-30T15:31:29.519Z</time></trkpt><trkpt lat="43.3394117" lon="11.7371867"><ele>262.0</ele><time>2026-04-30T15:31:31.522Z</time></trkpt><trkpt lat="43.33936" lon="11.73729"><ele>262.4</ele><time>2026-04-30T15:31:33.521Z</time></trkpt><trkpt lat="43.3392817" lon="11.73738"><ele>262.79999999999995</ele><time>2026-04-30T15:31:35.518Z</time></trkpt><trkpt lat="43.3391833" lon="11.7374633"><ele>263.2</ele><time>2026-04-30T15:31:37.519Z</time></trkpt><trkpt lat="43.33908" lon="11.737535"><ele>263.59999999999997</ele><time>2026-04-30T15:31:39.521Z</time></trkpt><trkpt lat="43.3389733" lon="11.7375967"><ele>264.0</ele><time>2026-04-30T15:31:41.518Z</time></trkpt><trkpt lat="43.3388667" lon="11.7376617"><ele>264.0</ele><time>2026-04-30T15:31:43.518Z</time></trkpt><trkpt lat="43.3387583" lon="11.7377333"><ele>264.0</ele><time>2026-04-30T15:31:45.521Z</time></trkpt><trkpt lat="43.3386583" lon="11.7377983"><ele>264.0</ele><time>2026-04-30T15:31:47.521Z</time></trkpt><trkpt lat="43.3385517" lon="11.7378683"><ele>264.0</ele><time>2026-04-30T15:31:49.52Z</time></trkpt><trkpt lat="43.338455" lon="11.7379417"><ele>264.0</ele><time>2026-04-30T15:31:51.523Z</time></trkpt><trkpt lat="43.3383467" lon="11.7379917"><ele>264.0</ele><time>2026-04-30T15:31:53.523Z</time></trkpt><trkpt lat="43.3382383" lon="11.7379517"><ele>264.0</ele><time>2026-04-30T15:31:55.521Z</time></trkpt><trkpt lat="43.33814" lon="11.7378667"><ele>264.0</ele><time>2026-04-30T15:31:57.519Z</time></trkpt><trkpt lat="43.3380217" lon="11.7378767"><ele>264.0</ele><time>2026-04-30T15:31:59.525Z</time></trkpt><trkpt lat="43.3379217" lon="11.7379667"><ele>264.0</ele><time>2026-04-30T15:32:01.52Z</time></trkpt><trkpt lat="43.3378217" lon="11.73806"><ele>264.0</ele><time>2026-04-30T15:32:03.524Z</time></trkpt><trkpt lat="43.3377233" lon="11.7381467"><ele>264.0</ele><time>2026-04-30T15:32:05.521Z</time></trkpt><trkpt lat="43.3376283" lon="11.7382367"><ele>264.0</ele><time>2026-04-30T15:32:07.526Z</time></trkpt><trkpt lat="43.3375433" lon="11.7383283"><ele>264.0</ele><time>2026-04-30T15:32:09.526Z</time></trkpt><trkpt lat="43.3374617" lon="11.7384117"><ele>264.0</ele><time>2026-04-30T15:32:11.522Z</time></trkpt><trkpt lat="43.3373883" lon="11.7384783"><ele>264.0</ele><time>2026-04-30T15:32:13.52Z</time></trkpt><trkpt lat="43.33733" lon="11.7385333"><ele>264.0</ele><time>2026-04-30T15:32:15.521Z</time></trkpt><trkpt lat="43.337325" lon="11.7386583"><ele>264.0</ele><time>2026-04-30T15:32:18.522Z</time></trkpt><trkpt lat="43.3373617" lon="11.73874"><ele>264.0</ele><time>2026-04-30T15:32:20.52Z</time></trkpt><trkpt lat="43.337415" lon="11.738845"><ele>264.0</ele><time>2026-04-30T15:32:23.52Z</time></trkpt><trkpt lat="43.3374567" lon="11.7389117"><ele>264.0</ele><time>2026-04-30T15:32:25.52Z</time></trkpt><trkpt lat="43.3374983" lon="11.7389867"><ele>264.0</ele><time>2026-04-30T15:32:27.52Z</time></trkpt><trkpt lat="43.3375417" lon="11.7390583"><ele>264.0</ele><time>2026-04-30T15:32:29.521Z</time></trkpt><trkpt lat="43.3375833" lon="11.7391283"><ele>264.0</ele><time>2026-04-30T15:32:31.52Z</time></trkpt><trkpt lat="43.3376233" lon="11.739235"><ele>264.0</ele><time>2026-04-30T15:32:34.52Z</time></trkpt><trkpt lat="43.3376217" lon="11.7393433"><ele>264.0</ele><time>2026-04-30T15:32:38.52Z</time></trkpt><trkpt lat="43.3375283" lon="11.7394417"><ele>264.0</ele><time>2026-04-30T15:33:44.521Z</time></trkpt><trkpt lat="43.3374567" lon="11.7394417"><ele>264.0</ele><time>2026-04-30T15:33:48.522Z</time></trkpt><trkpt lat="43.3373983" lon="11.7394017"><ele>264.0</ele><time>2026-04-30T15:33:52.519Z</time></trkpt><trkpt lat="43.3373317" lon="11.7393767"><ele>264.0</ele><time>2026-04-30T15:33:54.521Z</time></trkpt><trkpt lat="43.3373183" lon="11.7392867"><ele>264.0</ele><time>2026-04-30T15:34:01.519Z</time></trkpt><trkpt lat="43.3373917" lon="11.73929"><ele>264.0</ele><time>2026-04-30T15:34:18.521Z</time></trkpt><trkpt lat="43.3374567" lon="11.7393033"><ele>264.0</ele><time>2026-04-30T15:34:20.521Z</time></trkpt><trkpt lat="43.3373867" lon="11.739305"><ele>264.0</ele><time>2026-04-30T15:34:40.519Z</time></trkpt><trkpt lat="43.3374783" lon="11.7393083"><ele>264.0</ele><time>2026-04-30T15:34:57.521Z</time></trkpt><trkpt lat="43.3375517" lon="11.739325"><ele>264.0</ele><time>2026-04-30T15:35:01.522Z</time></trkpt><trkpt lat="43.33764" lon="11.739315"><ele>264.0</ele><time>2026-04-30T15:35:23.519Z</time></trkpt><trkpt lat="43.337705" lon="11.7392333"><ele>264.0</ele><time>2026-04-30T15:35:33.522Z</time></trkpt><trkpt lat="43.3376417" lon="11.7392083"><ele>264.0</ele><time>2026-04-30T15:35:48.528Z</time></trkpt><trkpt lat="43.3375783" lon="11.739225"><ele>264.0</ele><time>2026-04-30T15:35:52.519Z</time></trkpt><trkpt lat="43.3374783" lon="11.7392083"><ele>264.0</ele><time>2026-04-30T15:35:57.522Z</time></trkpt><trkpt lat="43.337395" lon="11.7391883"><ele>264.0</ele><time>2026-04-30T15:35:59.522Z</time></trkpt><trkpt lat="43.3373183" lon="11.7392317"><ele>264.0</ele><time>2026-04-30T15:36:13.52Z</time></trkpt><trkpt lat="43.3372483" lon="11.739265"><ele>264.0</ele><time>2026-04-30T15:36:26.52Z</time></trkpt><trkpt lat="43.33733" lon="11.7393033"><ele>264.0</ele><time>2026-04-30T15:36:31.52Z</time></trkpt><trkpt lat="43.3374233" lon="11.73932"><ele>264.0</ele><time>2026-04-30T15:36:35.52Z</time></trkpt><trkpt lat="43.3375083" lon="11.7393517"><ele>264.0</ele><time>2026-04-30T15:36:38.521Z</time></trkpt><trkpt lat="43.33762" lon="11.7393533"><ele>264.1666666666667</ele><time>2026-04-30T15:37:03.519Z</time></trkpt><trkpt lat="43.337585" lon="11.7394617"><ele>264.3333333333333</ele><time>2026-04-30T15:46:08.526Z</time></trkpt><trkpt lat="43.33753" lon="11.7395067"><ele>264.5</ele><time>2026-04-30T15:46:10.524Z</time></trkpt><trkpt lat="43.3374583" lon="11.7395583"><ele>264.66666666666663</ele><time>2026-04-30T15:46:12.525Z</time></trkpt><trkpt lat="43.33738" lon="11.7395767"><ele>264.8333333333333</ele><time>2026-04-30T15:46:14.521Z</time></trkpt><trkpt lat="43.337315" lon="11.7395367"><ele>265.0</ele><time>2026-04-30T15:46:16.523Z</time></trkpt><trkpt lat="43.3372767" lon="11.7394567"><ele>264.8333333333333</ele><time>2026-04-30T15:46:18.525Z</time></trkpt><trkpt lat="43.3372183" lon="11.73935"><ele>264.66666666666663</ele><time>2026-04-30T15:46:21.521Z</time></trkpt><trkpt lat="43.3371767" lon="11.739265"><ele>264.5</ele><time>2026-04-30T15:46:23.519Z</time></trkpt><trkpt lat="43.33714" lon="11.739185"><ele>264.3333333333333</ele><time>2026-04-30T15:46:25.523Z</time></trkpt><trkpt lat="43.3371117" lon="11.7390667"><ele>264.1666666666667</ele><time>2026-04-30T15:46:28.518Z</time></trkpt><trkpt lat="43.3370617" lon="11.7389933"><ele>264.0</ele><time>2026-04-30T15:46:31.525Z</time></trkpt><trkpt lat="43.3369883" lon="11.7389783"><ele>264.0</ele><time>2026-04-30T15:46:47.526Z</time></trkpt><trkpt lat="43.3369283" lon="11.7390383"><ele>264.0</ele><time>2026-04-30T15:46:49.522Z</time></trkpt><trkpt lat="43.336855" lon="11.7390867"><ele>264.0</ele><time>2026-04-30T15:46:51.523Z</time></trkpt><trkpt lat="43.33679" lon="11.7391383"><ele>264.0</ele><time>2026-04-30T15:46:53.521Z</time></trkpt><trkpt lat="43.33672" lon="11.7391883"><ele>264.0</ele><time>2026-04-30T15:46:55.523Z</time></trkpt><trkpt lat="43.3366533" lon="11.7392483"><ele>264.0</ele><time>2026-04-30T15:46:57.521Z</time></trkpt><trkpt lat="43.3365933" lon="11.7393067"><ele>264.0</ele><time>2026-04-30T15:46:59.519Z</time></trkpt><trkpt lat="43.3365283" lon="11.73935"><ele>264.0</ele><time>2026-04-30T15:47:01.522Z</time></trkpt><trkpt lat="43.3364633" lon="11.7393917"><ele>264.0</ele><time>2026-04-30T15:47:03.523Z</time></trkpt><trkpt lat="43.3363933" lon="11.7394433"><ele>264.0</ele><time>2026-04-30T15:47:05.522Z</time></trkpt><trkpt lat="43.3363517" lon="11.73954"><ele>264.0</ele><time>2026-04-30T15:47:07.522Z</time></trkpt><trkpt lat="43.336385" lon="11.73969"><ele>264.0</ele><time>2026-04-30T15:47:09.521Z</time></trkpt><trkpt lat="43.336435" lon="11.7398083"><ele>264.0</ele><time>2026-04-30T15:47:11.521Z</time></trkpt><trkpt lat="43.3364867" lon="11.7399083"><ele>264.0</ele><time>2026-04-30T15:47:13.52Z</time></trkpt><trkpt lat="43.3365367" lon="11.7400133"><ele>264.0</ele><time>2026-04-30T15:47:15.519Z</time></trkpt><trkpt lat="43.3365767" lon="11.7400883"><ele>264.0</ele><time>2026-04-30T15:47:17.522Z</time></trkpt><trkpt lat="43.3366283" lon="11.740185"><ele>264.0</ele><time>2026-04-30T15:47:20.524Z</time></trkpt><trkpt lat="43.3366783" lon="11.740265"><ele>264.0</ele><time>2026-04-30T15:47:23.519Z</time></trkpt><trkpt lat="43.3367333" lon="11.7403333"><ele>263.59999999999997</ele><time>2026-04-30T15:47:26.524Z</time></trkpt><trkpt lat="43.3367917" lon="11.7404367"><ele>263.2</ele><time>2026-04-30T15:47:29.528Z</time></trkpt><trkpt lat="43.3368483" lon="11.7405233"><ele>262.79999999999995</ele><time>2026-04-30T15:47:31.522Z</time></trkpt><trkpt lat="43.3369183" lon="11.74062"><ele>262.4</ele><time>2026-04-30T15:47:33.522Z</time></trkpt><trkpt lat="43.3369883" lon="11.7407317"><ele>262.0</ele><time>2026-04-30T15:47:35.52Z</time></trkpt><trkpt lat="43.3370583" lon="11.740845"><ele>262.0</ele><time>2026-04-30T15:47:37.524Z</time></trkpt><trkpt lat="43.3371317" lon="11.74096"><ele>262.0</ele><time>2026-04-30T15:47:39.522Z</time></trkpt><trkpt lat="43.337205" lon="11.7410717"><ele>262.0</ele><time>2026-04-30T15:47:41.519Z</time></trkpt><trkpt lat="43.3372717" lon="11.7411833"><ele>262.0</ele><time>2026-04-30T15:47:43.52Z</time></trkpt><trkpt lat="43.3373367" lon="11.7412983"><ele>262.0</ele><time>2026-04-30T15:47:45.525Z</time></trkpt><trkpt lat="43.337395" lon="11.7414033"><ele>262.5</ele><time>2026-04-30T15:47:47.523Z</time></trkpt><trkpt lat="43.3374617" lon="11.7415"><ele>263.0</ele><time>2026-04-30T15:47:49.519Z</time></trkpt><trkpt lat="43.33752" lon="11.7415867"><ele>263.5</ele><time>2026-04-30T15:47:51.52Z</time></trkpt><trkpt lat="43.3375733" lon="11.7416717"><ele>264.0</ele><time>2026-04-30T15:47:53.52Z</time></trkpt><trkpt lat="43.3376267" lon="11.7417583"><ele>264.5</ele><time>2026-04-30T15:47:55.518Z</time></trkpt><trkpt lat="43.3376817" lon="11.7418433"><ele>265.0</ele><time>2026-04-30T15:47:57.52Z</time></trkpt><trkpt lat="43.3377367" lon="11.7419283"><ele>264.99999999999994</ele><time>2026-04-30T15:47:59.518Z</time></trkpt><trkpt lat="43.33779" lon="11.7420083"><ele>265.0</ele><time>2026-04-30T15:48:01.521Z</time></trkpt><trkpt lat="43.3378383" lon="11.742095"><ele>265.0</ele><time>2026-04-30T15:48:03.52Z</time></trkpt><trkpt lat="43.3378833" lon="11.7421783"><ele>265.0</ele><time>2026-04-30T15:48:05.525Z</time></trkpt><trkpt lat="43.3379267" lon="11.7422683"><ele>265.0</ele><time>2026-04-30T15:48:07.522Z</time></trkpt><trkpt lat="43.33797" lon="11.7423367"><ele>264.99999999999994</ele><time>2026-04-30T15:48:09.522Z</time></trkpt><trkpt lat="43.3380133" lon="11.7424"><ele>265.0</ele><time>2026-04-30T15:48:11.522Z</time></trkpt><trkpt lat="43.3380683" lon="11.7424967"><ele>266.0</ele><time>2026-04-30T15:48:14.523Z</time></trkpt><trkpt lat="43.3381183" lon="11.74258"><ele>267.0</ele><time>2026-04-30T15:48:17.526Z</time></trkpt><trkpt lat="43.338165" lon="11.7426667"><ele>268.0</ele><time>2026-04-30T15:48:20.522Z</time></trkpt><trkpt lat="43.3382117" lon="11.74275"><ele>269.0</ele><time>2026-04-30T15:48:23.521Z</time></trkpt><trkpt lat="43.3382583" lon="11.7428183"><ele>270.0</ele><time>2026-04-30T15:48:26.524Z</time></trkpt><trkpt lat="43.3383017" lon="11.7429017"><ele>271.0</ele><time>2026-04-30T15:48:29.528Z</time></trkpt><trkpt lat="43.3383467" lon="11.7429833"><ele>271.2857142857143</ele><time>2026-04-30T15:48:32.522Z</time></trkpt><trkpt lat="43.3383933" lon="11.7430617"><ele>271.57142857142856</ele><time>2026-04-30T15:48:35.523Z</time></trkpt><trkpt lat="43.33844" lon="11.74313"><ele>271.8571428571429</ele><time>2026-04-30T15:48:38.525Z</time></trkpt><trkpt lat="43.3384883" lon="11.7432"><ele>272.1428571428571</ele><time>2026-04-30T15:48:41.521Z</time></trkpt><trkpt lat="43.3385317" lon="11.7432817"><ele>272.42857142857144</ele><time>2026-04-30T15:48:44.524Z</time></trkpt><trkpt lat="43.33858" lon="11.7433567"><ele>272.7142857142857</ele><time>2026-04-30T15:48:47.52Z</time></trkpt><trkpt lat="43.33862" lon="11.7434283"><ele>273.0</ele><time>2026-04-30T15:48:50.522Z</time></trkpt><trkpt lat="43.3386583" lon="11.7435"><ele>273.14285714285717</ele><time>2026-04-30T15:48:53.521Z</time></trkpt><trkpt lat="43.33871" lon="11.743575"><ele>273.2857142857143</ele><time>2026-04-30T15:48:57.523Z</time></trkpt><trkpt lat="43.33875" lon="11.7436467"><ele>273.42857142857144</ele><time>2026-04-30T15:49:00.521Z</time></trkpt><trkpt lat="43.3388" lon="11.7437133"><ele>273.57142857142856</ele><time>2026-04-30T15:49:03.521Z</time></trkpt><trkpt lat="43.338855" lon="11.7437867"><ele>273.7142857142857</ele><time>2026-04-30T15:49:06.519Z</time></trkpt><trkpt lat="43.338895" lon="11.7438583"><ele>273.8571428571429</ele><time>2026-04-30T15:49:10.521Z</time></trkpt><trkpt lat="43.33894" lon="11.7439283"><ele>274.0</ele><time>2026-04-30T15:49:14.521Z</time></trkpt><trkpt lat="43.3389883" lon="11.7440117"><ele>274.8571428571429</ele><time>2026-04-30T15:49:18.525Z</time></trkpt><trkpt lat="43.3390417" lon="11.7440833"><ele>275.7142857142857</ele><time>2026-04-30T15:49:22.523Z</time></trkpt><trkpt lat="43.3390917" lon="11.74416"><ele>276.57142857142856</ele><time>2026-04-30T15:49:26.524Z</time></trkpt><trkpt lat="43.33914" lon="11.744245"><ele>277.42857142857144</ele><time>2026-04-30T15:49:30.521Z</time></trkpt><trkpt lat="43.3391817" lon="11.7443283"><ele>278.2857142857143</ele><time>2026-04-30T15:49:34.521Z</time></trkpt><trkpt lat="43.3392233" lon="11.74441"><ele>279.14285714285717</ele><time>2026-04-30T15:49:38.521Z</time></trkpt><trkpt lat="43.3392583" lon="11.7445017"><ele>280.0</ele><time>2026-04-30T15:49:42.523Z</time></trkpt><trkpt lat="43.3392933" lon="11.7445933"><ele>280.3333333333333</ele><time>2026-04-30T15:49:45.521Z</time></trkpt><trkpt lat="43.3393267" lon="11.7447017"><ele>280.66666666666663</ele><time>2026-04-30T15:49:48.523Z</time></trkpt><trkpt lat="43.3393567" lon="11.744805"><ele>281.0</ele><time>2026-04-30T15:49:51.523Z</time></trkpt><trkpt lat="43.33939" lon="11.7448817"><ele>281.3333333333333</ele><time>2026-04-30T15:49:53.526Z</time></trkpt><trkpt lat="43.3394217" lon="11.74496"><ele>281.6666666666667</ele><time>2026-04-30T15:49:55.526Z</time></trkpt><trkpt lat="43.33946" lon="11.7450483"><ele>282.0</ele><time>2026-04-30T15:49:58.524Z</time></trkpt><trkpt lat="43.3394967" lon="11.7451533"><ele>282.8571428571429</ele><time>2026-04-30T15:50:02.525Z</time></trkpt><trkpt lat="43.33953" lon="11.7452383"><ele>283.7142857142857</ele><time>2026-04-30T15:50:05.521Z</time></trkpt><trkpt lat="43.339575" lon="11.7453167"><ele>284.57142857142856</ele><time>2026-04-30T15:50:08.522Z</time></trkpt><trkpt lat="43.3396183" lon="11.7453983"><ele>285.42857142857144</ele><time>2026-04-30T15:50:11.524Z</time></trkpt><trkpt lat="43.33965" lon="11.7454783"><ele>286.2857142857143</ele><time>2026-04-30T15:50:14.519Z</time></trkpt><trkpt lat="43.3396917" lon="11.7455517"><ele>287.14285714285717</ele><time>2026-04-30T15:50:17.522Z</time></trkpt><trkpt lat="43.339725" lon="11.7456283"><ele>288.0</ele><time>2026-04-30T15:50:20.522Z</time></trkpt><trkpt lat="43.3397617" lon="11.7457017"><ele>288.14285714285717</ele><time>2026-04-30T15:50:23.52Z</time></trkpt><trkpt lat="43.3398" lon="11.745795"><ele>288.2857142857143</ele><time>2026-04-30T15:50:27.52Z</time></trkpt><trkpt lat="43.3398417" lon="11.745865"><ele>288.42857142857144</ele><time>2026-04-30T15:50:30.52Z</time></trkpt><trkpt lat="43.3398833" lon="11.745935"><ele>288.57142857142856</ele><time>2026-04-30T15:50:33.527Z</time></trkpt><trkpt lat="43.339925" lon="11.746035"><ele>288.7142857142857</ele><time>2026-04-30T15:50:37.524Z</time></trkpt><trkpt lat="43.33996" lon="11.746125"><ele>288.8571428571429</ele><time>2026-04-30T15:50:40.521Z</time></trkpt><trkpt lat="43.3399967" lon="11.7462167"><ele>289.0</ele><time>2026-04-30T15:50:43.522Z</time></trkpt><trkpt lat="43.34004" lon="11.746315"><ele>289.7142857142857</ele><time>2026-04-30T15:50:46.525Z</time></trkpt><trkpt lat="43.3400883" lon="11.7464283"><ele>290.42857142857144</ele><time>2026-04-30T15:50:49.523Z</time></trkpt><trkpt lat="43.3401233" lon="11.7465067"><ele>291.1428571428571</ele><time>2026-04-30T15:50:51.521Z</time></trkpt><trkpt lat="43.3401617" lon="11.7465867"><ele>291.8571428571429</ele><time>2026-04-30T15:50:53.523Z</time></trkpt><trkpt lat="43.3401983" lon="11.74667"><ele>292.57142857142856</ele><time>2026-04-30T15:50:55.522Z</time></trkpt><trkpt lat="43.3402383" lon="11.7467467"><ele>293.2857142857143</ele><time>2026-04-30T15:50:57.522Z</time></trkpt><trkpt lat="43.3402733" lon="11.7468267"><ele>294.0</ele><time>2026-04-30T15:50:59.521Z</time></trkpt><trkpt lat="43.3403133" lon="11.746905"><ele>294.1666666666667</ele><time>2026-04-30T15:51:01.521Z</time></trkpt><trkpt lat="43.3403467" lon="11.746985"><ele>294.3333333333333</ele><time>2026-04-30T15:51:03.521Z</time></trkpt><trkpt lat="43.3403867" lon="11.7470583"><ele>294.5</ele><time>2026-04-30T15:51:05.522Z</time></trkpt><trkpt lat="43.3404217" lon="11.747135"><ele>294.66666666666663</ele><time>2026-04-30T15:51:07.521Z</time></trkpt><trkpt lat="43.3404617" lon="11.74725"><ele>294.8333333333333</ele><time>2026-04-30T15:51:10.522Z</time></trkpt><trkpt lat="43.3404967" lon="11.74736"><ele>295.0</ele><time>2026-04-30T15:51:13.522Z</time></trkpt><trkpt lat="43.3405383" lon="11.7474533"><ele>295.0</ele><time>2026-04-30T15:51:16.523Z</time></trkpt><trkpt lat="43.3405667" lon="11.74756"><ele>295.0</ele><time>2026-04-30T15:51:19.525Z</time></trkpt><trkpt lat="43.3406" lon="11.74767"><ele>295.0</ele><time>2026-04-30T15:51:22.521Z</time></trkpt><trkpt lat="43.34063" lon="11.7477833"><ele>295.0</ele><time>2026-04-30T15:51:25.522Z</time></trkpt><trkpt lat="43.3406517" lon="11.747865"><ele>295.0</ele><time>2026-04-30T15:51:27.524Z</time></trkpt><trkpt lat="43.340685" lon="11.747975"><ele>295.0</ele><time>2026-04-30T15:51:30.521Z</time></trkpt><trkpt lat="43.3407217" lon="11.7480883"><ele>295.5</ele><time>2026-04-30T15:51:33.521Z</time></trkpt><trkpt lat="43.3407533" lon="11.7481983"><ele>296.0</ele><time>2026-04-30T15:51:36.522Z</time></trkpt><trkpt lat="43.340785" lon="11.7483183"><ele>296.5</ele><time>2026-04-30T15:51:39.522Z</time></trkpt><trkpt lat="43.34081" lon="11.7484133"><ele>297.0</ele><time>2026-04-30T15:51:41.522Z</time></trkpt><trkpt lat="43.3408567" lon="11.7485383"><ele>297.5</ele><time>2026-04-30T15:51:44.522Z</time></trkpt><trkpt lat="43.3408817" lon="11.74862"><ele>298.0</ele><time>2026-04-30T15:51:46.522Z</time></trkpt><trkpt lat="43.340915" lon="11.748725"><ele>298.0</ele><time>2026-04-30T15:51:49.525Z</time></trkpt><trkpt lat="43.3409467" lon="11.7488317"><ele>298.0</ele><time>2026-04-30T15:51:52.521Z</time></trkpt><trkpt lat="43.3409783" lon="11.74895"><ele>298.0</ele><time>2026-04-30T15:51:55.522Z</time></trkpt><trkpt lat="43.341005" lon="11.7490317"><ele>298.0</ele><time>2026-04-30T15:51:57.523Z</time></trkpt><trkpt lat="43.3410383" lon="11.7491567"><ele>298.0</ele><time>2026-04-30T15:52:00.524Z</time></trkpt><trkpt lat="43.341065" lon="11.7492433"><ele>298.0</ele><time>2026-04-30T15:52:02.526Z</time></trkpt><trkpt lat="43.3410917" lon="11.74933"><ele>297.42857142857144</ele><time>2026-04-30T15:52:04.52Z</time></trkpt><trkpt lat="43.341115" lon="11.749415"><ele>296.85714285714283</ele><time>2026-04-30T15:52:06.522Z</time></trkpt><trkpt lat="43.3411367" lon="11.7495017"><ele>296.2857142857143</ele><time>2026-04-30T15:52:08.525Z</time></trkpt><trkpt lat="43.341155" lon="11.7495883"><ele>295.7142857142857</ele><time>2026-04-30T15:52:10.521Z</time></trkpt><trkpt lat="43.3411783" lon="11.7496767"><ele>295.1428571428571</ele><time>2026-04-30T15:52:12.521Z</time></trkpt><trkpt lat="43.3412033" lon="11.749775"><ele>294.57142857142856</ele><time>2026-04-30T15:52:14.52Z</time></trkpt><trkpt lat="43.3412417" lon="11.749885"><ele>294.0</ele><time>2026-04-30T15:52:16.522Z</time></trkpt><trkpt lat="43.3412717" lon="11.7499867"><ele>294.0</ele><time>2026-04-30T15:52:18.524Z</time></trkpt><trkpt lat="43.341305" lon="11.7500983"><ele>294.0</ele><time>2026-04-30T15:52:20.525Z</time></trkpt><trkpt lat="43.3413433" lon="11.7502033"><ele>294.0</ele><time>2026-04-30T15:52:22.522Z</time></trkpt><trkpt lat="43.34138" lon="11.7503133"><ele>294.0</ele><time>2026-04-30T15:52:24.523Z</time></trkpt><trkpt lat="43.3414183" lon="11.7504267"><ele>294.0</ele><time>2026-04-30T15:52:26.524Z</time></trkpt><trkpt lat="43.3414717" lon="11.75054"><ele>294.59999999999997</ele><time>2026-04-30T15:52:28.52Z</time></trkpt><trkpt lat="43.3415383" lon="11.750655"><ele>295.2</ele><time>2026-04-30T15:52:30.522Z</time></trkpt><trkpt lat="43.3416083" lon="11.7507733"><ele>295.79999999999995</ele><time>2026-04-30T15:52:32.521Z</time></trkpt><trkpt lat="43.3416917" lon="11.7508683"><ele>296.4</ele><time>2026-04-30T15:52:34.522Z</time></trkpt><trkpt lat="43.341785" lon="11.7509617"><ele>297.0</ele><time>2026-04-30T15:52:36.521Z</time></trkpt><trkpt lat="43.34184" lon="11.751005"><ele>296.1666666666667</ele><time>2026-04-30T15:52:37.524Z</time></trkpt><trkpt lat="43.341955" lon="11.7510767"><ele>295.3333333333333</ele><time>2026-04-30T15:52:39.522Z</time></trkpt><trkpt lat="43.342015" lon="11.7511167"><ele>294.5</ele><time>2026-04-30T15:52:40.521Z</time></trkpt><trkpt lat="43.34208" lon="11.7511467"><ele>293.66666666666663</ele><time>2026-04-30T15:52:41.521Z</time></trkpt><trkpt lat="43.342145" lon="11.75118"><ele>292.8333333333333</ele><time>2026-04-30T15:52:42.518Z</time></trkpt><trkpt lat="43.342215" lon="11.7512133"><ele>292.0</ele><time>2026-04-30T15:52:43.52Z</time></trkpt><trkpt lat="43.3422883" lon="11.7512417"><ele>291.16666666666663</ele><time>2026-04-30T15:52:44.52Z</time></trkpt><trkpt lat="43.3423633" lon="11.7512733"><ele>290.3333333333333</ele><time>2026-04-30T15:52:45.521Z</time></trkpt><trkpt lat="43.3424417" lon="11.751305"><ele>289.5</ele><time>2026-04-30T15:52:46.525Z</time></trkpt><trkpt lat="43.34252" lon="11.7513417"><ele>288.6666666666667</ele><time>2026-04-30T15:52:47.52Z</time></trkpt><trkpt lat="43.3426033" lon="11.7513817"><ele>287.83333333333337</ele><time>2026-04-30T15:52:48.521Z</time></trkpt><trkpt lat="43.3426833" lon="11.7514367"><ele>287.0</ele><time>2026-04-30T15:52:49.52Z</time></trkpt><trkpt lat="43.3427617" lon="11.751505"><ele>287.0</ele><time>2026-04-30T15:52:50.518Z</time></trkpt><trkpt lat="43.34283" lon="11.7515917"><ele>287.0</ele><time>2026-04-30T15:52:51.521Z</time></trkpt><trkpt lat="43.3428817" lon="11.7516933"><ele>287.0</ele><time>2026-04-30T15:52:52.523Z</time></trkpt><trkpt lat="43.3429133" lon="11.7518133"><ele>287.0</ele><time>2026-04-30T15:52:53.521Z</time></trkpt><trkpt lat="43.3429233" lon="11.75194"><ele>287.0</ele><time>2026-04-30T15:52:54.52Z</time></trkpt><trkpt lat="43.3429133" lon="11.75206"><ele>286.83333333333337</ele><time>2026-04-30T15:52:55.52Z</time></trkpt><trkpt lat="43.3428917" lon="11.752175"><ele>286.6666666666667</ele><time>2026-04-30T15:52:56.526Z</time></trkpt><trkpt lat="43.342865" lon="11.7522867"><ele>286.5</ele><time>2026-04-30T15:52:57.521Z</time></trkpt><trkpt lat="43.3428433" lon="11.7523933"><ele>286.3333333333333</ele><time>2026-04-30T15:52:58.521Z</time></trkpt><trkpt lat="43.3428183" lon="11.7524917"><ele>286.16666666666663</ele><time>2026-04-30T15:52:59.524Z</time></trkpt><trkpt lat="43.3428017" lon="11.7525883"><ele>286.0</ele><time>2026-04-30T15:53:00.525Z</time></trkpt><trkpt lat="43.34278" lon="11.7526817"><ele>286.4285714285714</ele><time>2026-04-30T15:53:01.518Z</time></trkpt><trkpt lat="43.3427567" lon="11.752775"><ele>286.85714285714283</ele><time>2026-04-30T15:53:02.52Z</time></trkpt><trkpt lat="43.342735" lon="11.7528633"><ele>287.2857142857143</ele><time>2026-04-30T15:53:03.52Z</time></trkpt><trkpt lat="43.3427167" lon="11.75295"><ele>287.71428571428567</ele><time>2026-04-30T15:53:04.523Z</time></trkpt><trkpt lat="43.3426933" lon="11.7530433"><ele>288.1428571428571</ele><time>2026-04-30T15:53:05.523Z</time></trkpt><trkpt lat="43.34267" lon="11.7531433"><ele>288.57142857142856</ele><time>2026-04-30T15:53:06.519Z</time></trkpt><trkpt lat="43.3426467" lon="11.7532483"><ele>289.0</ele><time>2026-04-30T15:53:07.524Z</time></trkpt><trkpt lat="43.3426267" lon="11.75336"><ele>289.0</ele><time>2026-04-30T15:53:08.52Z</time></trkpt><trkpt lat="43.3426217" lon="11.7534717"><ele>289.0</ele><time>2026-04-30T15:53:09.525Z</time></trkpt><trkpt lat="43.3426367" lon="11.75359"><ele>289.0</ele><time>2026-04-30T15:53:10.519Z</time></trkpt><trkpt lat="43.34267" lon="11.753705"><ele>289.0</ele><time>2026-04-30T15:53:11.52Z</time></trkpt><trkpt lat="43.3427183" lon="11.7538167"><ele>289.0</ele><time>2026-04-30T15:53:12.522Z</time></trkpt><trkpt lat="43.3427717" lon="11.75393"><ele>288.4</ele><time>2026-04-30T15:53:13.521Z</time></trkpt><trkpt lat="43.342825" lon="11.75404"><ele>287.79999999999995</ele><time>2026-04-30T15:53:14.522Z</time></trkpt><trkpt lat="43.342875" lon="11.75415"><ele>287.20000000000005</ele><time>2026-04-30T15:53:15.517Z</time></trkpt><trkpt lat="43.34293" lon="11.7542567"><ele>286.6</ele><time>2026-04-30T15:53:16.519Z</time></trkpt><trkpt lat="43.3429883" lon="11.7543667"><ele>286.0</ele><time>2026-04-30T15:53:17.521Z</time></trkpt><trkpt lat="43.3430433" lon="11.7544817"><ele>283.6</ele><time>2026-04-30T15:53:18.522Z</time></trkpt><trkpt lat="43.3430967" lon="11.7546"><ele>281.20000000000005</ele><time>2026-04-30T15:53:19.521Z</time></trkpt><trkpt lat="43.3431483" lon="11.754725"><ele>278.79999999999995</ele><time>2026-04-30T15:53:20.52Z</time></trkpt><trkpt lat="43.3432" lon="11.7548517"><ele>276.4</ele><time>2026-04-30T15:53:21.523Z</time></trkpt><trkpt lat="43.3432483" lon="11.754985"><ele>274.0</ele><time>2026-04-30T15:53:22.52Z</time></trkpt><trkpt lat="43.3432933" lon="11.755125"><ele>273.5</ele><time>2026-04-30T15:53:23.523Z</time></trkpt><trkpt lat="43.3433367" lon="11.7552717"><ele>273.0</ele><time>2026-04-30T15:53:24.522Z</time></trkpt><trkpt lat="43.34338" lon="11.75542"><ele>272.5</ele><time>2026-04-30T15:53:25.519Z</time></trkpt><trkpt lat="43.3434217" lon="11.7555633"><ele>272.0</ele><time>2026-04-30T15:53:26.524Z</time></trkpt><trkpt lat="43.3434717" lon="11.7557067"><ele>272.0</ele><time>2026-04-30T15:53:27.521Z</time></trkpt><trkpt lat="43.3435233" lon="11.7558467"><ele>272.0</ele><time>2026-04-30T15:53:28.519Z</time></trkpt><trkpt lat="43.3435767" lon="11.755985"><ele>272.0</ele><time>2026-04-30T15:53:29.519Z</time></trkpt><trkpt lat="43.343625" lon="11.7561233"><ele>272.0</ele><time>2026-04-30T15:53:30.522Z</time></trkpt><trkpt lat="43.3436667" lon="11.75626"><ele>272.0</ele><time>2026-04-30T15:53:31.521Z</time></trkpt><trkpt lat="43.34371" lon="11.75639"><ele>271.83333333333337</ele><time>2026-04-30T15:53:32.519Z</time></trkpt><trkpt lat="43.34375" lon="11.75652"><ele>271.6666666666667</ele><time>2026-04-30T15:53:33.52Z</time></trkpt><trkpt lat="43.3437783" lon="11.756645"><ele>271.5</ele><time>2026-04-30T15:53:34.522Z</time></trkpt><trkpt lat="43.3437983" lon="11.7567617"><ele>271.3333333333333</ele><time>2026-04-30T15:53:35.521Z</time></trkpt><trkpt lat="43.343815" lon="11.756875"><ele>271.16666666666663</ele><time>2026-04-30T15:53:36.52Z</time></trkpt><trkpt lat="43.3438283" lon="11.7569817"><ele>271.0</ele><time>2026-04-30T15:53:37.523Z</time></trkpt><trkpt lat="43.3438367" lon="11.7570817"><ele>270.7142857142857</ele><time>2026-04-30T15:53:38.524Z</time></trkpt><trkpt lat="43.3438433" lon="11.7571867"><ele>270.42857142857144</ele><time>2026-04-30T15:53:39.523Z</time></trkpt><trkpt lat="43.3438483" lon="11.7572917"><ele>270.14285714285717</ele><time>2026-04-30T15:53:40.521Z</time></trkpt><trkpt lat="43.3438517" lon="11.7573917"><ele>269.8571428571429</ele><time>2026-04-30T15:53:41.52Z</time></trkpt><trkpt lat="43.3438583" lon="11.7574933"><ele>269.5714285714286</ele><time>2026-04-30T15:53:42.521Z</time></trkpt><trkpt lat="43.3438633" lon="11.7575967"><ele>269.2857142857143</ele><time>2026-04-30T15:53:43.521Z</time></trkpt><trkpt lat="43.34387" lon="11.757695"><ele>269.0</ele><time>2026-04-30T15:53:44.524Z</time></trkpt><trkpt lat="43.3438767" lon="11.7577933"><ele>269.1666666666667</ele><time>2026-04-30T15:53:45.521Z</time></trkpt><trkpt lat="43.34388" lon="11.7578883"><ele>269.33333333333337</ele><time>2026-04-30T15:53:46.521Z</time></trkpt><trkpt lat="43.3438833" lon="11.75798"><ele>269.5</ele><time>2026-04-30T15:53:47.517Z</time></trkpt><trkpt lat="43.3438917" lon="11.7580717"><ele>269.6666666666667</ele><time>2026-04-30T15:53:48.52Z</time></trkpt><trkpt lat="43.3439217" lon="11.7582367"><ele>269.8333333333333</ele><time>2026-04-30T15:53:50.522Z</time></trkpt><trkpt lat="43.3439433" lon="11.75832"><ele>270.0</ele><time>2026-04-30T15:53:51.52Z</time></trkpt><trkpt lat="43.3439867" lon="11.7584767"><ele>270.0</ele><time>2026-04-30T15:53:53.519Z</time></trkpt><trkpt lat="43.3440333" lon="11.758625"><ele>270.0</ele><time>2026-04-30T15:53:55.518Z</time></trkpt><trkpt lat="43.3440783" lon="11.7587683"><ele>270.0</ele><time>2026-04-30T15:53:57.52Z</time></trkpt><trkpt lat="43.344125" lon="11.7588933"><ele>270.0</ele><time>2026-04-30T15:53:59.517Z</time></trkpt><trkpt lat="43.3441617" lon="11.7590183"><ele>270.0</ele><time>2026-04-30T15:54:01.52Z</time></trkpt><trkpt lat="43.344195" lon="11.7591367"><ele>270.0</ele><time>2026-04-30T15:54:03.52Z</time></trkpt><trkpt lat="43.3442283" lon="11.759245"><ele>270.0</ele><time>2026-04-30T15:54:05.519Z</time></trkpt><trkpt lat="43.3442683" lon="11.7593567"><ele>270.0</ele><time>2026-04-30T15:54:07.519Z</time></trkpt><trkpt lat="43.34431" lon="11.759475"><ele>270.0</ele><time>2026-04-30T15:54:09.523Z</time></trkpt><trkpt lat="43.34435" lon="11.759585"><ele>270.0</ele><time>2026-04-30T15:54:11.519Z</time></trkpt><trkpt lat="43.3443967" lon="11.7596833"><ele>270.0</ele><time>2026-04-30T15:54:13.52Z</time></trkpt><trkpt lat="43.34444" lon="11.7597667"><ele>269.6666666666667</ele><time>2026-04-30T15:54:15.524Z</time></trkpt><trkpt lat="43.3444867" lon="11.759855"><ele>269.3333333333333</ele><time>2026-04-30T15:54:17.521Z</time></trkpt><trkpt lat="43.3445317" lon="11.7599417"><ele>269.0</ele><time>2026-04-30T15:54:19.518Z</time></trkpt><trkpt lat="43.3445783" lon="11.7600317"><ele>268.66666666666663</ele><time>2026-04-30T15:54:21.52Z</time></trkpt><trkpt lat="43.3446233" lon="11.7601183"><ele>268.3333333333333</ele><time>2026-04-30T15:54:23.519Z</time></trkpt><trkpt lat="43.3446633" lon="11.7602117"><ele>268.0</ele><time>2026-04-30T15:54:25.519Z</time></trkpt><trkpt lat="43.344695" lon="11.7603083"><ele>268.5</ele><time>2026-04-30T15:54:27.521Z</time></trkpt><trkpt lat="43.3447317" lon="11.7604033"><ele>269.0</ele><time>2026-04-30T15:54:29.521Z</time></trkpt><trkpt lat="43.3447633" lon="11.7604917"><ele>269.5</ele><time>2026-04-30T15:54:31.52Z</time></trkpt><trkpt lat="43.3447917" lon="11.7605883"><ele>270.0</ele><time>2026-04-30T15:54:33.521Z</time></trkpt><trkpt lat="43.34483" lon="11.7606767"><ele>270.5</ele><time>2026-04-30T15:54:35.52Z</time></trkpt><trkpt lat="43.3448717" lon="11.7607717"><ele>271.0</ele><time>2026-04-30T15:54:37.52Z</time></trkpt><trkpt lat="43.344915" lon="11.7608717"><ele>271.0</ele><time>2026-04-30T15:54:39.523Z</time></trkpt><trkpt lat="43.34496" lon="11.760975"><ele>271.0</ele><time>2026-04-30T15:54:41.519Z</time></trkpt><trkpt lat="43.3450083" lon="11.76109"><ele>271.0</ele><time>2026-04-30T15:54:43.519Z</time></trkpt><trkpt lat="43.3450567" lon="11.7612"><ele>271.0</ele><time>2026-04-30T15:54:45.518Z</time></trkpt><trkpt lat="43.34511" lon="11.7613133"><ele>271.0</ele><time>2026-04-30T15:54:47.523Z</time></trkpt><trkpt lat="43.3451633" lon="11.7614267"><ele>270.3333333333333</ele><time>2026-04-30T15:54:49.52Z</time></trkpt><trkpt lat="43.3452083" lon="11.7615633"><ele>269.66666666666663</ele><time>2026-04-30T15:54:51.523Z</time></trkpt><trkpt lat="43.3452583" lon="11.761715"><ele>269.0</ele><time>2026-04-30T15:54:53.521Z</time></trkpt><trkpt lat="43.3452867" lon="11.7617983"><ele>268.3333333333333</ele><time>2026-04-30T15:54:54.519Z</time></trkpt><trkpt lat="43.3453117" lon="11.7618833"><ele>267.6666666666667</ele><time>2026-04-30T15:54:55.518Z</time></trkpt><trkpt lat="43.3453383" lon="11.7619733"><ele>267.0</ele><time>2026-04-30T15:54:56.523Z</time></trkpt><trkpt lat="43.3453667" lon="11.7620633"><ele>266.5714285714286</ele><time>2026-04-30T15:54:57.525Z</time></trkpt><trkpt lat="43.3454" lon="11.76215"><ele>266.14285714285717</ele><time>2026-04-30T15:54:58.524Z</time></trkpt><trkpt lat="43.3454333" lon="11.7622417"><ele>265.7142857142857</ele><time>2026-04-30T15:54:59.52Z</time></trkpt><trkpt lat="43.34547" lon="11.762335"><ele>265.28571428571433</ele><time>2026-04-30T15:55:00.521Z</time></trkpt><trkpt lat="43.34551" lon="11.7624267"><ele>264.8571428571429</ele><time>2026-04-30T15:55:01.52Z</time></trkpt><trkpt lat="43.3455483" lon="11.7625133"><ele>264.42857142857144</ele><time>2026-04-30T15:55:02.521Z</time></trkpt><trkpt lat="43.345585" lon="11.7625983"><ele>264.0</ele><time>2026-04-30T15:55:03.525Z</time></trkpt><trkpt lat="43.3456217" lon="11.7626767"><ele>263.8333333333333</ele><time>2026-04-30T15:55:04.519Z</time></trkpt><trkpt lat="43.3456583" lon="11.7627517"><ele>263.6666666666667</ele><time>2026-04-30T15:55:05.52Z</time></trkpt><trkpt lat="43.3456933" lon="11.762825"><ele>263.5</ele><time>2026-04-30T15:55:06.521Z</time></trkpt><trkpt lat="43.3457533" lon="11.7629617"><ele>263.33333333333337</ele><time>2026-04-30T15:55:08.519Z</time></trkpt><trkpt lat="43.345805" lon="11.7630867"><ele>263.1666666666667</ele><time>2026-04-30T15:55:10.522Z</time></trkpt><trkpt lat="43.3458367" lon="11.76321"><ele>263.0</ele><time>2026-04-30T15:55:12.52Z</time></trkpt><trkpt lat="43.3458567" lon="11.7633317"><ele>263.0</ele><time>2026-04-30T15:55:14.521Z</time></trkpt><trkpt lat="43.34586" lon="11.7634517"><ele>263.0</ele><time>2026-04-30T15:55:16.521Z</time></trkpt><trkpt lat="43.3458533" lon="11.7635667"><ele>263.0</ele><time>2026-04-30T15:55:18.521Z</time></trkpt><trkpt lat="43.34585" lon="11.7636783"><ele>263.0</ele><time>2026-04-30T15:55:20.522Z</time></trkpt><trkpt lat="43.3458467" lon="11.7637867"><ele>263.0</ele><time>2026-04-30T15:55:22.517Z</time></trkpt><trkpt lat="43.3458367" lon="11.7638967"><ele>263.0</ele><time>2026-04-30T15:55:24.521Z</time></trkpt><trkpt lat="43.3458283" lon="11.7640133"><ele>262.6</ele><time>2026-04-30T15:55:26.523Z</time></trkpt><trkpt lat="43.34582" lon="11.7641417"><ele>262.20000000000005</ele><time>2026-04-30T15:55:28.519Z</time></trkpt><trkpt lat="43.3458133" lon="11.7642717"><ele>261.8</ele><time>2026-04-30T15:55:30.519Z</time></trkpt><trkpt lat="43.3458067" lon="11.7644183"><ele>261.40000000000003</ele><time>2026-04-30T15:55:32.524Z</time></trkpt><trkpt lat="43.3458" lon="11.7645767"><ele>261.0</ele><time>2026-04-30T15:55:34.52Z</time></trkpt><trkpt lat="43.345795" lon="11.764665"><ele>260.8571428571429</ele><time>2026-04-30T15:55:35.518Z</time></trkpt><trkpt lat="43.3457883" lon="11.7647517"><ele>260.7142857142857</ele><time>2026-04-30T15:55:36.52Z</time></trkpt><trkpt lat="43.345785" lon="11.76484"><ele>260.57142857142856</ele><time>2026-04-30T15:55:37.521Z</time></trkpt><trkpt lat="43.34578" lon="11.7649333"><ele>260.42857142857144</ele><time>2026-04-30T15:55:38.523Z</time></trkpt><trkpt lat="43.3457767" lon="11.7650217"><ele>260.2857142857143</ele><time>2026-04-30T15:55:39.521Z</time></trkpt><trkpt lat="43.3457717" lon="11.7651117"><ele>260.14285714285717</ele><time>2026-04-30T15:55:40.523Z</time></trkpt><trkpt lat="43.3457733" lon="11.7652067"><ele>260.0</ele><time>2026-04-30T15:55:41.521Z</time></trkpt><trkpt lat="43.3457733" lon="11.7653"><ele>260.00000000000006</ele><time>2026-04-30T15:55:42.519Z</time></trkpt><trkpt lat="43.3457717" lon="11.765395"><ele>260.0</ele><time>2026-04-30T15:55:43.518Z</time></trkpt><trkpt lat="43.34577" lon="11.7654933"><ele>260.0</ele><time>2026-04-30T15:55:44.524Z</time></trkpt><trkpt lat="43.34577" lon="11.7655917"><ele>260.0</ele><time>2026-04-30T15:55:45.521Z</time></trkpt><trkpt lat="43.34577" lon="11.7656983"><ele>260.0</ele><time>2026-04-30T15:55:46.519Z</time></trkpt><trkpt lat="43.345775" lon="11.7658017"><ele>260.00000000000006</ele><time>2026-04-30T15:55:47.521Z</time></trkpt><trkpt lat="43.3457783" lon="11.7659033"><ele>260.0</ele><time>2026-04-30T15:55:48.523Z</time></trkpt><trkpt lat="43.3457817" lon="11.7660033"><ele>260.00000000000006</ele><time>2026-04-30T15:55:49.523Z</time></trkpt><trkpt lat="43.345785" lon="11.7660983"><ele>260.0</ele><time>2026-04-30T15:55:50.523Z</time></trkpt><trkpt lat="43.34579" lon="11.7661933"><ele>260.0</ele><time>2026-04-30T15:55:51.518Z</time></trkpt><trkpt lat="43.3457933" lon="11.766285"><ele>260.0</ele><time>2026-04-30T15:55:52.524Z</time></trkpt><trkpt lat="43.345795" lon="11.7663733"><ele>260.0</ele><time>2026-04-30T15:55:53.529Z</time></trkpt><trkpt lat="43.3458033" lon="11.7664617"><ele>260.00000000000006</ele><time>2026-04-30T15:55:54.521Z</time></trkpt><trkpt lat="43.3458117" lon="11.76655"><ele>260.0</ele><time>2026-04-30T15:55:55.518Z</time></trkpt><trkpt lat="43.34582" lon="11.76664"><ele>260.00000000000006</ele><time>2026-04-30T15:55:56.52Z</time></trkpt><trkpt lat="43.3458267" lon="11.76673"><ele>260.0</ele><time>2026-04-30T15:55:57.523Z</time></trkpt><trkpt lat="43.3458317" lon="11.7668183"><ele>260.0</ele><time>2026-04-30T15:55:58.519Z</time></trkpt><trkpt lat="43.3458383" lon="11.7669067"><ele>260.0</ele><time>2026-04-30T15:55:59.525Z</time></trkpt><trkpt lat="43.3458417" lon="11.766995"><ele>260.0</ele><time>2026-04-30T15:56:00.52Z</time></trkpt><trkpt lat="43.3458433" lon="11.7670833"><ele>260.00000000000006</ele><time>2026-04-30T15:56:01.523Z</time></trkpt><trkpt lat="43.34585" lon="11.7672533"><ele>260.0</ele><time>2026-04-30T15:56:03.52Z</time></trkpt><trkpt lat="43.3458533" lon="11.76734"><ele>260.00000000000006</ele><time>2026-04-30T15:56:04.522Z</time></trkpt><trkpt lat="43.34586" lon="11.7674283"><ele>260.0</ele><time>2026-04-30T15:56:05.518Z</time></trkpt><trkpt lat="43.3458667" lon="11.767515"><ele>260.0</ele><time>2026-04-30T15:56:06.523Z</time></trkpt><trkpt lat="43.3458733" lon="11.7676033"><ele>260.0</ele><time>2026-04-30T15:56:07.522Z</time></trkpt><trkpt lat="43.3458783" lon="11.76769"><ele>260.0</ele><time>2026-04-30T15:56:08.52Z</time></trkpt><trkpt lat="43.3458833" lon="11.7677767"><ele>260.00000000000006</ele><time>2026-04-30T15:56:09.519Z</time></trkpt><trkpt lat="43.3458917" lon="11.76794"><ele>260.0</ele><time>2026-04-30T15:56:11.52Z</time></trkpt><trkpt lat="43.3459033" lon="11.7680967"><ele>260.0</ele><time>2026-04-30T15:56:13.524Z</time></trkpt><trkpt lat="43.3459167" lon="11.7682483"><ele>260.0</ele><time>2026-04-30T15:56:15.521Z</time></trkpt><trkpt lat="43.34593" lon="11.768395"><ele>260.0</ele><time>2026-04-30T15:56:17.52Z</time></trkpt><trkpt lat="43.34594" lon="11.7685433"><ele>260.0</ele><time>2026-04-30T15:56:19.52Z</time></trkpt><trkpt lat="43.3459517" lon="11.768695"><ele>260.0</ele><time>2026-04-30T15:56:21.521Z</time></trkpt><trkpt lat="43.3459517" lon="11.7688517"><ele>259.8</ele><time>2026-04-30T15:56:23.521Z</time></trkpt><trkpt lat="43.3459567" lon="11.7690033"><ele>259.6</ele><time>2026-04-30T15:56:25.52Z</time></trkpt><trkpt lat="43.3459633" lon="11.7691467"><ele>259.4</ele><time>2026-04-30T15:56:27.521Z</time></trkpt><trkpt lat="43.3459833" lon="11.7692833"><ele>259.2</ele><time>2026-04-30T15:56:29.519Z</time></trkpt><trkpt lat="43.34604" lon="11.7693867"><ele>259.0</ele><time>2026-04-30T15:56:31.52Z</time></trkpt><trkpt lat="43.3461317" lon="11.7694467"><ele>259.4</ele><time>2026-04-30T15:56:33.522Z</time></trkpt><trkpt lat="43.34622" lon="11.7695283"><ele>259.79999999999995</ele><time>2026-04-30T15:56:35.521Z</time></trkpt><trkpt lat="43.346285" lon="11.7696317"><ele>260.20000000000005</ele><time>2026-04-30T15:56:37.52Z</time></trkpt><trkpt lat="43.3463383" lon="11.76973"><ele>260.6</ele><time>2026-04-30T15:56:39.518Z</time></trkpt><trkpt lat="43.34639" lon="11.76981"><ele>261.0</ele><time>2026-04-30T15:56:41.52Z</time></trkpt><trkpt lat="43.3464417" lon="11.7698933"><ele>261.0</ele><time>2026-04-30T15:56:43.522Z</time></trkpt><trkpt lat="43.3465" lon="11.7699783"><ele>261.0</ele><time>2026-04-30T15:56:45.523Z</time></trkpt><trkpt lat="43.3465583" lon="11.7700567"><ele>261.0</ele><time>2026-04-30T15:56:47.522Z</time></trkpt><trkpt lat="43.346615" lon="11.7701233"><ele>261.0</ele><time>2026-04-30T15:56:49.519Z</time></trkpt><trkpt lat="43.34667" lon="11.770185"><ele>261.0</ele><time>2026-04-30T15:56:51.519Z</time></trkpt><trkpt lat="43.3467333" lon="11.770245"><ele>261.0</ele><time>2026-04-30T15:56:53.521Z</time></trkpt><trkpt lat="43.3467933" lon="11.7703033"><ele>261.7142857142857</ele><time>2026-04-30T15:56:55.517Z</time></trkpt><trkpt lat="43.346855" lon="11.7703533"><ele>262.42857142857144</ele><time>2026-04-30T15:56:57.518Z</time></trkpt><trkpt lat="43.3469167" lon="11.7703983"><ele>263.1428571428571</ele><time>2026-04-30T15:56:59.519Z</time></trkpt><trkpt lat="43.3469717" lon="11.77045"><ele>263.8571428571429</ele><time>2026-04-30T15:57:01.521Z</time></trkpt><trkpt lat="43.34703" lon="11.7705083"><ele>264.57142857142856</ele><time>2026-04-30T15:57:03.518Z</time></trkpt><trkpt lat="43.347095" lon="11.7705633"><ele>265.2857142857143</ele><time>2026-04-30T15:57:05.523Z</time></trkpt><trkpt lat="43.34716" lon="11.770615"><ele>266.0</ele><time>2026-04-30T15:57:07.519Z</time></trkpt><trkpt lat="43.34722" lon="11.7706683"><ele>266.14285714285717</ele><time>2026-04-30T15:57:09.52Z</time></trkpt><trkpt lat="43.3472833" lon="11.7707217"><ele>266.2857142857143</ele><time>2026-04-30T15:57:11.519Z</time></trkpt><trkpt lat="43.3473467" lon="11.7707783"><ele>266.42857142857144</ele><time>2026-04-30T15:57:13.521Z</time></trkpt><trkpt lat="43.347405" lon="11.7708333"><ele>266.57142857142856</ele><time>2026-04-30T15:57:15.524Z</time></trkpt><trkpt lat="43.3474633" lon="11.7708817"><ele>266.7142857142857</ele><time>2026-04-30T15:57:17.52Z</time></trkpt><trkpt lat="43.3475183" lon="11.7709317"><ele>266.8571428571429</ele><time>2026-04-30T15:57:19.519Z</time></trkpt><trkpt lat="43.3475783" lon="11.770985"><ele>267.0</ele><time>2026-04-30T15:57:21.523Z</time></trkpt><trkpt lat="43.3476367" lon="11.7710417"><ele>267.8571428571429</ele><time>2026-04-30T15:57:23.523Z</time></trkpt><trkpt lat="43.3476983" lon="11.7710867"><ele>268.7142857142857</ele><time>2026-04-30T15:57:25.522Z</time></trkpt><trkpt lat="43.3477583" lon="11.771135"><ele>269.57142857142856</ele><time>2026-04-30T15:57:27.519Z</time></trkpt><trkpt lat="43.347815" lon="11.771185"><ele>270.42857142857144</ele><time>2026-04-30T15:57:29.518Z</time></trkpt><trkpt lat="43.3478733" lon="11.7712317"><ele>271.2857142857143</ele><time>2026-04-30T15:57:31.52Z</time></trkpt><trkpt lat="43.3479333" lon="11.7712783"><ele>272.14285714285717</ele><time>2026-04-30T15:57:33.522Z</time></trkpt><trkpt lat="43.3479883" lon="11.7713317"><ele>273.0</ele><time>2026-04-30T15:57:35.519Z</time></trkpt><trkpt lat="43.3480483" lon="11.7713883"><ele>273.0</ele><time>2026-04-30T15:57:37.519Z</time></trkpt><trkpt lat="43.3481033" lon="11.7714417"><ele>273.0</ele><time>2026-04-30T15:57:39.52Z</time></trkpt><trkpt lat="43.3481567" lon="11.77149"><ele>273.0</ele><time>2026-04-30T15:57:41.52Z</time></trkpt><trkpt lat="43.34821" lon="11.7715383"><ele>273.0</ele><time>2026-04-30T15:57:43.522Z</time></trkpt><trkpt lat="43.3482867" lon="11.7716117"><ele>273.0</ele><time>2026-04-30T15:57:46.524Z</time></trkpt><trkpt lat="43.348345" lon="11.7716583"><ele>273.0</ele><time>2026-04-30T15:57:48.524Z</time></trkpt><trkpt lat="43.3484" lon="11.771705"><ele>273.0</ele><time>2026-04-30T15:57:50.525Z</time></trkpt><trkpt lat="43.3484767" lon="11.7717767"><ele>273.0</ele><time>2026-04-30T15:57:53.519Z</time></trkpt><trkpt lat="43.3485367" lon="11.7718317"><ele>273.0</ele><time>2026-04-30T15:57:55.521Z</time></trkpt><trkpt lat="43.348615" lon="11.7719083"><ele>273.0</ele><time>2026-04-30T15:57:58.522Z</time></trkpt><trkpt lat="43.3486717" lon="11.7719517"><ele>273.0</ele><time>2026-04-30T15:58:00.519Z</time></trkpt><trkpt lat="43.3487333" lon="11.7719967"><ele>273.0</ele><time>2026-04-30T15:58:02.519Z</time></trkpt><trkpt lat="43.3487917" lon="11.772045"><ele>273.0</ele><time>2026-04-30T15:58:04.521Z</time></trkpt><trkpt lat="43.348865" lon="11.7721133"><ele>274.0</ele><time>2026-04-30T15:58:07.522Z</time></trkpt><trkpt lat="43.3489283" lon="11.77219"><ele>275.0</ele><time>2026-04-30T15:58:10.52Z</time></trkpt><trkpt lat="43.34898" lon="11.77224"><ele>276.0</ele><time>2026-04-30T15:58:12.524Z</time></trkpt><trkpt lat="43.349035" lon="11.77229"><ele>277.0</ele><time>2026-04-30T15:58:14.52Z</time></trkpt><trkpt lat="43.3490917" lon="11.772345"><ele>278.0</ele><time>2026-04-30T15:58:16.518Z</time></trkpt><trkpt lat="43.3491483" lon="11.7723983"><ele>279.0</ele><time>2026-04-30T15:58:18.521Z</time></trkpt><trkpt lat="43.3492" lon="11.7724517"><ele>280.0</ele><time>2026-04-30T15:58:20.525Z</time></trkpt><trkpt lat="43.34928" lon="11.7725183"><ele>280.0</ele><time>2026-04-30T15:58:23.521Z</time></trkpt><trkpt lat="43.3493467" lon="11.7725933"><ele>280.0</ele><time>2026-04-30T15:58:26.521Z</time></trkpt><trkpt lat="43.3493933" lon="11.7726517"><ele>280.0</ele><time>2026-04-30T15:58:28.522Z</time></trkpt><trkpt lat="43.34946" lon="11.7727367"><ele>280.0</ele><time>2026-04-30T15:58:31.52Z</time></trkpt><trkpt lat="43.3495083" lon="11.7727983"><ele>280.0</ele><time>2026-04-30T15:58:33.521Z</time></trkpt><trkpt lat="43.3495767" lon="11.7728817"><ele>280.0</ele><time>2026-04-30T15:58:36.525Z</time></trkpt><trkpt lat="43.3496433" lon="11.77297"><ele>280.8333333333333</ele><time>2026-04-30T15:58:39.519Z</time></trkpt><trkpt lat="43.3497" lon="11.7730583"><ele>281.66666666666663</ele><time>2026-04-30T15:58:42.519Z</time></trkpt><trkpt lat="43.3497667" lon="11.7731467"><ele>282.5</ele><time>2026-04-30T15:58:45.518Z</time></trkpt><trkpt lat="43.3498333" lon="11.77323"><ele>283.3333333333333</ele><time>2026-04-30T15:58:48.524Z</time></trkpt><trkpt lat="43.349895" lon="11.7733233"><ele>284.1666666666667</ele><time>2026-04-30T15:58:51.521Z</time></trkpt><trkpt lat="43.3499333" lon="11.7733933"><ele>285.0</ele><time>2026-04-30T15:58:53.521Z</time></trkpt><trkpt lat="43.3499883" lon="11.7734883"><ele>285.6666666666667</ele><time>2026-04-30T15:58:56.52Z</time></trkpt><trkpt lat="43.350025" lon="11.77358"><ele>286.3333333333333</ele><time>2026-04-30T15:58:59.52Z</time></trkpt><trkpt lat="43.3500617" lon="11.7736633"><ele>287.0</ele><time>2026-04-30T15:59:02.52Z</time></trkpt><trkpt lat="43.3501183" lon="11.7737583"><ele>287.66666666666663</ele><time>2026-04-30T15:59:05.522Z</time></trkpt><trkpt lat="43.3501733" lon="11.7738517"><ele>288.3333333333333</ele><time>2026-04-30T15:59:08.522Z</time></trkpt><trkpt lat="43.3502233" lon="11.7739283"><ele>289.0</ele><time>2026-04-30T15:59:11.522Z</time></trkpt><trkpt lat="43.3502833" lon="11.7740167"><ele>289.0</ele><time>2026-04-30T15:59:14.523Z</time></trkpt><trkpt lat="43.3503267" lon="11.774105"><ele>289.0</ele><time>2026-04-30T15:59:17.517Z</time></trkpt><trkpt lat="43.3503867" lon="11.7741933"><ele>289.0</ele><time>2026-04-30T15:59:20.521Z</time></trkpt><trkpt lat="43.35043" lon="11.774295"><ele>289.0</ele><time>2026-04-30T15:59:23.525Z</time></trkpt><trkpt lat="43.3504783" lon="11.7743933"><ele>289.0</ele><time>2026-04-30T15:59:26.517Z</time></trkpt><trkpt lat="43.3505167" lon="11.774495"><ele>289.0</ele><time>2026-04-30T15:59:29.52Z</time></trkpt><trkpt lat="43.3505483" lon="11.77457"><ele>288.8571428571429</ele><time>2026-04-30T15:59:31.52Z</time></trkpt><trkpt lat="43.3505783" lon="11.77465"><ele>288.7142857142857</ele><time>2026-04-30T15:59:33.521Z</time></trkpt><trkpt lat="43.3506083" lon="11.774735"><ele>288.57142857142856</ele><time>2026-04-30T15:59:35.523Z</time></trkpt><trkpt lat="43.3506417" lon="11.7748583"><ele>288.42857142857144</ele><time>2026-04-30T15:59:38.523Z</time></trkpt><trkpt lat="43.350665" lon="11.7749483"><ele>288.2857142857143</ele><time>2026-04-30T15:59:40.521Z</time></trkpt><trkpt lat="43.3506817" lon="11.7750367"><ele>288.14285714285717</ele><time>2026-04-30T15:59:42.522Z</time></trkpt><trkpt lat="43.3507033" lon="11.775125"><ele>288.0</ele><time>2026-04-30T15:59:44.522Z</time></trkpt><trkpt lat="43.35073" lon="11.7752117"><ele>288.5714285714286</ele><time>2026-04-30T15:59:46.523Z</time></trkpt><trkpt lat="43.3507533" lon="11.7753"><ele>289.14285714285717</ele><time>2026-04-30T15:59:48.52Z</time></trkpt><trkpt lat="43.3507733" lon="11.775385"><ele>289.7142857142857</ele><time>2026-04-30T15:59:50.52Z</time></trkpt><trkpt lat="43.350795" lon="11.7754683"><ele>290.28571428571433</ele><time>2026-04-30T15:59:52.522Z</time></trkpt><trkpt lat="43.3508317" lon="11.7755867"><ele>290.8571428571429</ele><time>2026-04-30T15:59:55.522Z</time></trkpt><trkpt lat="43.3508533" lon="11.7756717"><ele>291.42857142857144</ele><time>2026-04-30T15:59:57.523Z</time></trkpt><trkpt lat="43.3508817" lon="11.7757567"><ele>292.0</ele><time>2026-04-30T15:59:59.522Z</time></trkpt><trkpt lat="43.350905" lon="11.7758417"><ele>292.0</ele><time>2026-04-30T16:00:01.52Z</time></trkpt><trkpt lat="43.3509317" lon="11.7759267"><ele>292.0</ele><time>2026-04-30T16:00:03.52Z</time></trkpt><trkpt lat="43.3509667" lon="11.7760117"><ele>292.0</ele><time>2026-04-30T16:00:05.521Z</time></trkpt><trkpt lat="43.3509983" lon="11.7760867"><ele>292.0</ele><time>2026-04-30T16:00:07.521Z</time></trkpt><trkpt lat="43.3510517" lon="11.776195"><ele>292.0</ele><time>2026-04-30T16:00:10.52Z</time></trkpt><trkpt lat="43.3511067" lon="11.7763"><ele>292.0</ele><time>2026-04-30T16:00:13.52Z</time></trkpt><trkpt lat="43.3511533" lon="11.776375"><ele>291.6</ele><time>2026-04-30T16:00:15.521Z</time></trkpt><trkpt lat="43.3512283" lon="11.7764967"><ele>291.2</ele><time>2026-04-30T16:00:18.521Z</time></trkpt><trkpt lat="43.3512883" lon="11.7765833"><ele>290.8</ele><time>2026-04-30T16:00:20.523Z</time></trkpt><trkpt lat="43.3513467" lon="11.7766683"><ele>290.4</ele><time>2026-04-30T16:00:22.521Z</time></trkpt><trkpt lat="43.3514133" lon="11.7767517"><ele>290.0</ele><time>2026-04-30T16:00:24.519Z</time></trkpt><trkpt lat="43.3514833" lon="11.7768367"><ele>289.8</ele><time>2026-04-30T16:00:26.521Z</time></trkpt><trkpt lat="43.3515583" lon="11.7769217"><ele>289.6</ele><time>2026-04-30T16:00:28.523Z</time></trkpt><trkpt lat="43.3516717" lon="11.77702"><ele>289.4</ele><time>2026-04-30T16:00:31.521Z</time></trkpt><trkpt lat="43.351745" lon="11.7770817"><ele>289.2</ele><time>2026-04-30T16:00:33.521Z</time></trkpt><trkpt lat="43.3518133" lon="11.7771383"><ele>289.0</ele><time>2026-04-30T16:00:35.521Z</time></trkpt><trkpt lat="43.3518867" lon="11.7771867"><ele>289.0</ele><time>2026-04-30T16:00:37.523Z</time></trkpt><trkpt lat="43.3519567" lon="11.77724"><ele>289.0</ele><time>2026-04-30T16:00:39.52Z</time></trkpt><trkpt lat="43.3520233" lon="11.7772983"><ele>289.0</ele><time>2026-04-30T16:00:41.523Z</time></trkpt><trkpt lat="43.3520917" lon="11.7773483"><ele>289.0</ele><time>2026-04-30T16:00:43.523Z</time></trkpt><trkpt lat="43.3521617" lon="11.7773967"><ele>289.0</ele><time>2026-04-30T16:00:45.523Z</time></trkpt><trkpt lat="43.3522283" lon="11.7774433"><ele>289.0</ele><time>2026-04-30T16:00:47.52Z</time></trkpt><trkpt lat="43.3523233" lon="11.7775117"><ele>289.0</ele><time>2026-04-30T16:00:50.525Z</time></trkpt><trkpt lat="43.352385" lon="11.7775567"><ele>289.0</ele><time>2026-04-30T16:00:52.521Z</time></trkpt><trkpt lat="43.352445" lon="11.7775917"><ele>289.0</ele><time>2026-04-30T16:00:54.524Z</time></trkpt><trkpt lat="43.3525017" lon="11.77763"><ele>289.0</ele><time>2026-04-30T16:00:56.522Z</time></trkpt><trkpt lat="43.3525567" lon="11.7776767"><ele>289.0</ele><time>2026-04-30T16:00:58.52Z</time></trkpt><trkpt lat="43.3526167" lon="11.7777267"><ele>289.0</ele><time>2026-04-30T16:01:00.52Z</time></trkpt><trkpt lat="43.3526783" lon="11.777775"><ele>289.0</ele><time>2026-04-30T16:01:02.519Z</time></trkpt><trkpt lat="43.3527433" lon="11.7778267"><ele>289.0</ele><time>2026-04-30T16:01:04.519Z</time></trkpt><trkpt lat="43.3528133" lon="11.7778783"><ele>289.0</ele><time>2026-04-30T16:01:06.519Z</time></trkpt><trkpt lat="43.3528783" lon="11.7779283"><ele>289.0</ele><time>2026-04-30T16:01:08.524Z</time></trkpt><trkpt lat="43.3529433" lon="11.7779783"><ele>289.0</ele><time>2026-04-30T16:01:10.522Z</time></trkpt><trkpt lat="43.35301" lon="11.7780267"><ele>289.0</ele><time>2026-04-30T16:01:12.519Z</time></trkpt><trkpt lat="43.353075" lon="11.7780733"><ele>289.0</ele><time>2026-04-30T16:01:14.522Z</time></trkpt><trkpt lat="43.35314" lon="11.7781217"><ele>289.0</ele><time>2026-04-30T16:01:16.519Z</time></trkpt><trkpt lat="43.3532017" lon="11.77817"><ele>289.0</ele><time>2026-04-30T16:01:18.522Z</time></trkpt><trkpt lat="43.3532633" lon="11.778215"><ele>289.0</ele><time>2026-04-30T16:01:20.521Z</time></trkpt><trkpt lat="43.3533267" lon="11.778265"><ele>289.0</ele><time>2026-04-30T16:01:22.52Z</time></trkpt><trkpt lat="43.3533883" lon="11.778315"><ele>289.0</ele><time>2026-04-30T16:01:24.523Z</time></trkpt><trkpt lat="43.3534483" lon="11.7783683"><ele>289.0</ele><time>2026-04-30T16:01:26.523Z</time></trkpt><trkpt lat="43.3535067" lon="11.7784233"><ele>289.0</ele><time>2026-04-30T16:01:28.52Z</time></trkpt><trkpt lat="43.353565" lon="11.778485"><ele>289.0</ele><time>2026-04-30T16:01:30.521Z</time></trkpt><trkpt lat="43.353625" lon="11.7785483"><ele>289.0</ele><time>2026-04-30T16:01:32.525Z</time></trkpt><trkpt lat="43.3536817" lon="11.778615"><ele>289.0</ele><time>2026-04-30T16:01:34.522Z</time></trkpt><trkpt lat="43.3537383" lon="11.7786817"><ele>289.0</ele><time>2026-04-30T16:01:36.523Z</time></trkpt><trkpt lat="43.3537967" lon="11.7787533"><ele>289.0</ele><time>2026-04-30T16:01:38.52Z</time></trkpt><trkpt lat="43.3538583" lon="11.7788283"><ele>289.0</ele><time>2026-04-30T16:01:40.52Z</time></trkpt><trkpt lat="43.3539183" lon="11.7789"><ele>289.0</ele><time>2026-04-30T16:01:42.52Z</time></trkpt><trkpt lat="43.353975" lon="11.778975"><ele>289.0</ele><time>2026-04-30T16:01:44.523Z</time></trkpt><trkpt lat="43.3540383" lon="11.7790517"><ele>289.0</ele><time>2026-04-30T16:01:46.521Z</time></trkpt><trkpt lat="43.3540983" lon="11.7791267"><ele>289.0</ele><time>2026-04-30T16:01:48.52Z</time></trkpt><trkpt lat="43.354165" lon="11.7792033"><ele>289.0</ele><time>2026-04-30T16:01:50.521Z</time></trkpt><trkpt lat="43.3542283" lon="11.7792833"><ele>289.0</ele><time>2026-04-30T16:01:52.523Z</time></trkpt><trkpt lat="43.3542933" lon="11.7793633"><ele>289.16666666666663</ele><time>2026-04-30T16:01:54.523Z</time></trkpt><trkpt lat="43.35436" lon="11.7794433"><ele>289.3333333333333</ele><time>2026-04-30T16:01:56.525Z</time></trkpt><trkpt lat="43.3544267" lon="11.779525"><ele>289.5</ele><time>2026-04-30T16:01:58.519Z</time></trkpt><trkpt lat="43.35449" lon="11.7796033"><ele>289.6666666666667</ele><time>2026-04-30T16:02:00.519Z</time></trkpt><trkpt lat="43.35455" lon="11.7796817"><ele>289.83333333333337</ele><time>2026-04-30T16:02:02.522Z</time></trkpt><trkpt lat="43.3546117" lon="11.7797617"><ele>290.0</ele><time>2026-04-30T16:02:04.519Z</time></trkpt><trkpt lat="43.35468" lon="11.7798417"><ele>290.0</ele><time>2026-04-30T16:02:06.523Z</time></trkpt><trkpt lat="43.3547417" lon="11.7799217"><ele>290.0</ele><time>2026-04-30T16:02:08.523Z</time></trkpt><trkpt lat="43.354805" lon="11.7800083"><ele>290.0</ele><time>2026-04-30T16:02:10.52Z</time></trkpt><trkpt lat="43.35487" lon="11.7800983"><ele>290.0</ele><time>2026-04-30T16:02:12.519Z</time></trkpt><trkpt lat="43.3549367" lon="11.7801917"><ele>290.0</ele><time>2026-04-30T16:02:14.525Z</time></trkpt><trkpt lat="43.3550067" lon="11.780285"><ele>289.8</ele><time>2026-04-30T16:02:16.517Z</time></trkpt><trkpt lat="43.3550733" lon="11.7803783"><ele>289.6</ele><time>2026-04-30T16:02:18.521Z</time></trkpt><trkpt lat="43.35515" lon="11.7804667"><ele>289.4</ele><time>2026-04-30T16:02:20.524Z</time></trkpt><trkpt lat="43.355225" lon="11.7805583"><ele>289.2</ele><time>2026-04-30T16:02:22.518Z</time></trkpt><trkpt lat="43.355305" lon="11.7806433"><ele>289.0</ele><time>2026-04-30T16:02:24.523Z</time></trkpt><trkpt lat="43.35538" lon="11.7807283"><ele>289.0</ele><time>2026-04-30T16:02:26.52Z</time></trkpt><trkpt lat="43.355455" lon="11.7808133"><ele>289.0</ele><time>2026-04-30T16:02:28.522Z</time></trkpt><trkpt lat="43.3555217" lon="11.7808867"><ele>289.0</ele><time>2026-04-30T16:02:30.523Z</time></trkpt><trkpt lat="43.3555933" lon="11.7809483"><ele>289.0</ele><time>2026-04-30T16:02:32.52Z</time></trkpt><trkpt lat="43.3556717" lon="11.781"><ele>289.0</ele><time>2026-04-30T16:02:34.523Z</time></trkpt><trkpt lat="43.355755" lon="11.7810417"><ele>289.0</ele><time>2026-04-30T16:02:36.52Z</time></trkpt><trkpt lat="43.3558383" lon="11.781075"><ele>288.59999999999997</ele><time>2026-04-30T16:02:38.523Z</time></trkpt><trkpt lat="43.3559317" lon="11.7811"><ele>288.2</ele><time>2026-04-30T16:02:40.52Z</time></trkpt><trkpt lat="43.3560283" lon="11.781115"><ele>287.79999999999995</ele><time>2026-04-30T16:02:42.519Z</time></trkpt><trkpt lat="43.3561267" lon="11.78113"><ele>287.4</ele><time>2026-04-30T16:02:44.52Z</time></trkpt><trkpt lat="43.3562267" lon="11.7811567"><ele>287.0</ele><time>2026-04-30T16:02:46.522Z</time></trkpt><trkpt lat="43.35633" lon="11.7811817"><ele>287.2</ele><time>2026-04-30T16:02:48.523Z</time></trkpt><trkpt lat="43.3564283" lon="11.7812033"><ele>287.4</ele><time>2026-04-30T16:02:50.527Z</time></trkpt><trkpt lat="43.3565233" lon="11.78122"><ele>287.6</ele><time>2026-04-30T16:02:52.521Z</time></trkpt><trkpt lat="43.35662" lon="11.7812383"><ele>287.8</ele><time>2026-04-30T16:02:54.518Z</time></trkpt><trkpt lat="43.3567183" lon="11.78126"><ele>288.0</ele><time>2026-04-30T16:02:56.524Z</time></trkpt><trkpt lat="43.3568133" lon="11.78128"><ele>288.0</ele><time>2026-04-30T16:02:58.519Z</time></trkpt><trkpt lat="43.35691" lon="11.781305"><ele>288.0</ele><time>2026-04-30T16:03:00.521Z</time></trkpt><trkpt lat="43.357005" lon="11.7813333"><ele>288.0</ele><time>2026-04-30T16:03:02.523Z</time></trkpt><trkpt lat="43.3570933" lon="11.781365"><ele>288.0</ele><time>2026-04-30T16:03:04.521Z</time></trkpt><trkpt lat="43.35718" lon="11.781405"><ele>288.0</ele><time>2026-04-30T16:03:06.521Z</time></trkpt><trkpt lat="43.3572683" lon="11.7814417"><ele>288.0</ele><time>2026-04-30T16:03:08.521Z</time></trkpt><trkpt lat="43.35736" lon="11.7814783"><ele>288.0</ele><time>2026-04-30T16:03:10.52Z</time></trkpt><trkpt lat="43.3574567" lon="11.7815167"><ele>288.0</ele><time>2026-04-30T16:03:12.518Z</time></trkpt><trkpt lat="43.3575583" lon="11.7815567"><ele>288.0</ele><time>2026-04-30T16:03:14.52Z</time></trkpt><trkpt lat="43.3576633" lon="11.7816017"><ele>288.0</ele><time>2026-04-30T16:03:16.521Z</time></trkpt><trkpt lat="43.357775" lon="11.781645"><ele>288.0</ele><time>2026-04-30T16:03:18.519Z</time></trkpt><trkpt lat="43.357875" lon="11.7816967"><ele>288.0</ele><time>2026-04-30T16:03:20.52Z</time></trkpt><trkpt lat="43.3579667" lon="11.781745"><ele>288.0</ele><time>2026-04-30T16:03:22.518Z</time></trkpt><trkpt lat="43.35806" lon="11.78179"><ele>288.0</ele><time>2026-04-30T16:03:24.52Z</time></trkpt><trkpt lat="43.3581517" lon="11.7818333"><ele>288.0</ele><time>2026-04-30T16:03:26.521Z</time></trkpt><trkpt lat="43.358245" lon="11.7818783"><ele>288.2</ele><time>2026-04-30T16:03:28.52Z</time></trkpt><trkpt lat="43.3583267" lon="11.781925"><ele>288.4</ele><time>2026-04-30T16:03:30.522Z</time></trkpt><trkpt lat="43.3584367" lon="11.781975"><ele>288.59999999999997</ele><time>2026-04-30T16:03:32.52Z</time></trkpt><trkpt lat="43.3585417" lon="11.782045"><ele>288.8</ele><time>2026-04-30T16:03:34.523Z</time></trkpt><trkpt lat="43.3586517" lon="11.78211"><ele>289.0</ele><time>2026-04-30T16:03:36.525Z</time></trkpt><trkpt lat="43.3587683" lon="11.7821617"><ele>289.0</ele><time>2026-04-30T16:03:38.524Z</time></trkpt><trkpt lat="43.35883" lon="11.7821917"><ele>289.0</ele><time>2026-04-30T16:03:39.517Z</time></trkpt><trkpt lat="43.35889" lon="11.7822183"><ele>289.0</ele><time>2026-04-30T16:03:40.525Z</time></trkpt><trkpt lat="43.3590067" lon="11.78227"><ele>289.0</ele><time>2026-04-30T16:03:42.522Z</time></trkpt><trkpt lat="43.3591083" lon="11.7823267"><ele>289.0</ele><time>2026-04-30T16:03:44.52Z</time></trkpt><trkpt lat="43.3592083" lon="11.7823783"><ele>288.2</ele><time>2026-04-30T16:03:46.521Z</time></trkpt><trkpt lat="43.359305" lon="11.7824317"><ele>287.4</ele><time>2026-04-30T16:03:48.52Z</time></trkpt><trkpt lat="43.3594017" lon="11.7824883"><ele>286.6</ele><time>2026-04-30T16:03:50.521Z</time></trkpt><trkpt lat="43.3595" lon="11.7825433"><ele>285.8</ele><time>2026-04-30T16:03:52.52Z</time></trkpt><trkpt lat="43.3595983" lon="11.7826"><ele>285.0</ele><time>2026-04-30T16:03:54.521Z</time></trkpt><trkpt lat="43.3597033" lon="11.7826567"><ele>285.0</ele><time>2026-04-30T16:03:56.523Z</time></trkpt><trkpt lat="43.3598067" lon="11.7827117"><ele>285.0</ele><time>2026-04-30T16:03:58.521Z</time></trkpt><trkpt lat="43.359905" lon="11.78278"><ele>285.0</ele><time>2026-04-30T16:04:00.52Z</time></trkpt><trkpt lat="43.3599967" lon="11.782855"><ele>285.0</ele><time>2026-04-30T16:04:02.522Z</time></trkpt><trkpt lat="43.3600867" lon="11.78294"><ele>285.0</ele><time>2026-04-30T16:04:04.521Z</time></trkpt><trkpt lat="43.3601717" lon="11.7830367"><ele>285.0</ele><time>2026-04-30T16:04:06.521Z</time></trkpt><trkpt lat="43.360255" lon="11.7831433"><ele>285.0</ele><time>2026-04-30T16:04:08.521Z</time></trkpt><trkpt lat="43.3603283" lon="11.7832517"><ele>285.0</ele><time>2026-04-30T16:04:10.52Z</time></trkpt><trkpt lat="43.3603983" lon="11.7833617"><ele>285.0</ele><time>2026-04-30T16:04:12.523Z</time></trkpt><trkpt lat="43.36047" lon="11.783465"><ele>285.0</ele><time>2026-04-30T16:04:14.52Z</time></trkpt><trkpt lat="43.3605317" lon="11.78357"><ele>285.0</ele><time>2026-04-30T16:04:16.522Z</time></trkpt><trkpt lat="43.3605967" lon="11.7836733"><ele>285.0</ele><time>2026-04-30T16:04:18.519Z</time></trkpt><trkpt lat="43.360665" lon="11.7837817"><ele>285.0</ele><time>2026-04-30T16:04:20.522Z</time></trkpt><trkpt lat="43.3607317" lon="11.7838933"><ele>285.0</ele><time>2026-04-30T16:04:22.518Z</time></trkpt><trkpt lat="43.360795" lon="11.7840033"><ele>285.0</ele><time>2026-04-30T16:04:24.523Z</time></trkpt><trkpt lat="43.3608633" lon="11.78411"><ele>285.0</ele><time>2026-04-30T16:04:26.521Z</time></trkpt><trkpt lat="43.36094" lon="11.7841983"><ele>285.0</ele><time>2026-04-30T16:04:28.523Z</time></trkpt><trkpt lat="43.361035" lon="11.7842517"><ele>285.0</ele><time>2026-04-30T16:04:30.524Z</time></trkpt><trkpt lat="43.361135" lon="11.7842567"><ele>285.0</ele><time>2026-04-30T16:04:32.527Z</time></trkpt><trkpt lat="43.3612367" lon="11.784245"><ele>285.0</ele><time>2026-04-30T16:04:34.521Z</time></trkpt><trkpt lat="43.3613383" lon="11.78423"><ele>284.6</ele><time>2026-04-30T16:04:36.521Z</time></trkpt><trkpt lat="43.3614467" lon="11.78421"><ele>284.2</ele><time>2026-04-30T16:04:38.523Z</time></trkpt><trkpt lat="43.361555" lon="11.7842"><ele>283.8</ele><time>2026-04-30T16:04:40.521Z</time></trkpt><trkpt lat="43.3616617" lon="11.7841917"><ele>283.4</ele><time>2026-04-30T16:04:42.525Z</time></trkpt><trkpt lat="43.3617583" lon="11.7841867"><ele>283.0</ele><time>2026-04-30T16:04:44.524Z</time></trkpt><trkpt lat="43.3618433" lon="11.7842067"><ele>283.0</ele><time>2026-04-30T16:04:46.521Z</time></trkpt><trkpt lat="43.3619467" lon="11.7842233"><ele>283.0</ele><time>2026-04-30T16:04:48.519Z</time></trkpt><trkpt lat="43.3620467" lon="11.78425"><ele>283.0</ele><time>2026-04-30T16:04:50.52Z</time></trkpt><trkpt lat="43.362135" lon="11.7842833"><ele>283.0</ele><time>2026-04-30T16:04:52.516Z</time></trkpt><trkpt lat="43.362225" lon="11.7843067"><ele>283.0</ele><time>2026-04-30T16:04:54.518Z</time></trkpt><trkpt lat="43.362315" lon="11.7843283"><ele>283.0</ele><time>2026-04-30T16:04:56.523Z</time></trkpt><trkpt lat="43.3624017" lon="11.7843567"><ele>283.0</ele><time>2026-04-30T16:04:58.517Z</time></trkpt><trkpt lat="43.36249" lon="11.7843867"><ele>283.0</ele><time>2026-04-30T16:05:00.517Z</time></trkpt><trkpt lat="43.3625817" lon="11.784415"><ele>283.0</ele><time>2026-04-30T16:05:02.517Z</time></trkpt><trkpt lat="43.3626583" lon="11.78446"><ele>283.0</ele><time>2026-04-30T16:05:04.52Z</time></trkpt><trkpt lat="43.3627567" lon="11.7845"><ele>283.0</ele><time>2026-04-30T16:05:06.518Z</time></trkpt><trkpt lat="43.3628433" lon="11.7845267"><ele>283.0</ele><time>2026-04-30T16:05:08.521Z</time></trkpt><trkpt lat="43.3629283" lon="11.7845617"><ele>283.0</ele><time>2026-04-30T16:05:10.52Z</time></trkpt><trkpt lat="43.3630117" lon="11.784595"><ele>283.0</ele><time>2026-04-30T16:05:12.52Z</time></trkpt><trkpt lat="43.3630883" lon="11.7846267"><ele>283.0</ele><time>2026-04-30T16:05:14.521Z</time></trkpt><trkpt lat="43.3631583" lon="11.78465"><ele>283.0</ele><time>2026-04-30T16:05:16.521Z</time></trkpt><trkpt lat="43.36322" lon="11.784675"><ele>282.66666666666663</ele><time>2026-04-30T16:05:18.521Z</time></trkpt><trkpt lat="43.363285" lon="11.7847017"><ele>282.3333333333333</ele><time>2026-04-30T16:05:20.521Z</time></trkpt><trkpt lat="43.363355" lon="11.7847267"><ele>282.0</ele><time>2026-04-30T16:05:22.519Z</time></trkpt><trkpt lat="43.36343" lon="11.784755"><ele>281.6666666666667</ele><time>2026-04-30T16:05:24.521Z</time></trkpt><trkpt lat="43.3635117" lon="11.7847867"><ele>281.33333333333337</ele><time>2026-04-30T16:05:26.52Z</time></trkpt><trkpt lat="43.363595" lon="11.7848167"><ele>281.0</ele><time>2026-04-30T16:05:28.519Z</time></trkpt><trkpt lat="43.363675" lon="11.7848467"><ele>281.0</ele><time>2026-04-30T16:05:30.522Z</time></trkpt><trkpt lat="43.363755" lon="11.7848817"><ele>281.0</ele><time>2026-04-30T16:05:32.527Z</time></trkpt><trkpt lat="43.3638383" lon="11.7849267"><ele>281.0</ele><time>2026-04-30T16:05:34.518Z</time></trkpt><trkpt lat="43.3639233" lon="11.7849733"><ele>281.0</ele><time>2026-04-30T16:05:36.52Z</time></trkpt><trkpt lat="43.3640117" lon="11.7850233"><ele>281.0</ele><time>2026-04-30T16:05:38.522Z</time></trkpt><trkpt lat="43.3641017" lon="11.78508"><ele>280.75</ele><time>2026-04-30T16:05:40.521Z</time></trkpt><trkpt lat="43.364195" lon="11.7851417"><ele>280.5</ele><time>2026-04-30T16:05:42.52Z</time></trkpt><trkpt lat="43.364295" lon="11.785205"><ele>280.25</ele><time>2026-04-30T16:05:44.52Z</time></trkpt><trkpt lat="43.3644033" lon="11.7852683"><ele>280.0</ele><time>2026-04-30T16:05:46.522Z</time></trkpt><trkpt lat="43.3645167" lon="11.78533"><ele>279.8</ele><time>2026-04-30T16:05:48.524Z</time></trkpt><trkpt lat="43.3646283" lon="11.785375"><ele>279.6</ele><time>2026-04-30T16:05:50.521Z</time></trkpt><trkpt lat="43.3647417" lon="11.7853967"><ele>279.4</ele><time>2026-04-30T16:05:52.52Z</time></trkpt><trkpt lat="43.3648517" lon="11.7854"><ele>279.2</ele><time>2026-04-30T16:05:54.52Z</time></trkpt><trkpt lat="43.3649567" lon="11.7854017"><ele>279.0</ele><time>2026-04-30T16:05:56.519Z</time></trkpt><trkpt lat="43.3650467" lon="11.785395"><ele>279.0</ele><time>2026-04-30T16:05:58.521Z</time></trkpt><trkpt lat="43.36513" lon="11.785385"><ele>279.0</ele><time>2026-04-30T16:06:00.521Z</time></trkpt><trkpt lat="43.3652133" lon="11.7853717"><ele>279.0</ele><time>2026-04-30T16:06:02.524Z</time></trkpt><trkpt lat="43.365295" lon="11.7853683"><ele>279.0</ele><time>2026-04-30T16:06:04.521Z</time></trkpt><trkpt lat="43.36538" lon="11.7853617"><ele>279.0</ele><time>2026-04-30T16:06:06.521Z</time></trkpt><trkpt lat="43.36547" lon="11.7853517"><ele>279.0</ele><time>2026-04-30T16:06:08.522Z</time></trkpt><trkpt lat="43.3655583" lon="11.7853433"><ele>279.0</ele><time>2026-04-30T16:06:10.521Z</time></trkpt><trkpt lat="43.3656467" lon="11.785335"><ele>279.0</ele><time>2026-04-30T16:06:12.52Z</time></trkpt><trkpt lat="43.36574" lon="11.7853267"><ele>279.0</ele><time>2026-04-30T16:06:14.523Z</time></trkpt><trkpt lat="43.365835" lon="11.7853167"><ele>279.0</ele><time>2026-04-30T16:06:16.519Z</time></trkpt><trkpt lat="43.3659283" lon="11.7853117"><ele>279.0</ele><time>2026-04-30T16:06:18.521Z</time></trkpt><trkpt lat="43.3660233" lon="11.78532"><ele>279.0</ele><time>2026-04-30T16:06:20.523Z</time></trkpt><trkpt lat="43.3661217" lon="11.785325"><ele>279.0</ele><time>2026-04-30T16:06:22.523Z</time></trkpt><trkpt lat="43.3662217" lon="11.78533"><ele>279.0</ele><time>2026-04-30T16:06:24.519Z</time></trkpt><trkpt lat="43.3663267" lon="11.7853433"><ele>279.0</ele><time>2026-04-30T16:06:26.522Z</time></trkpt><trkpt lat="43.366435" lon="11.78536"><ele>279.0</ele><time>2026-04-30T16:06:28.518Z</time></trkpt><trkpt lat="43.3665383" lon="11.785385"><ele>279.2</ele><time>2026-04-30T16:06:30.521Z</time></trkpt><trkpt lat="43.36664" lon="11.7854217"><ele>279.4</ele><time>2026-04-30T16:06:32.52Z</time></trkpt><trkpt lat="43.3667383" lon="11.78546"><ele>279.6</ele><time>2026-04-30T16:06:34.518Z</time></trkpt><trkpt lat="43.366835" lon="11.785515"><ele>279.8</ele><time>2026-04-30T16:06:36.519Z</time></trkpt><trkpt lat="43.36693" lon="11.7855617"><ele>280.0</ele><time>2026-04-30T16:06:38.52Z</time></trkpt><trkpt lat="43.3670283" lon="11.7856083"><ele>280.0</ele><time>2026-04-30T16:06:40.521Z</time></trkpt><trkpt lat="43.3671217" lon="11.78566"><ele>280.0</ele><time>2026-04-30T16:06:42.52Z</time></trkpt><trkpt lat="43.3672183" lon="11.785705"><ele>280.0</ele><time>2026-04-30T16:06:44.523Z</time></trkpt><trkpt lat="43.3673133" lon="11.7857533"><ele>280.0</ele><time>2026-04-30T16:06:46.521Z</time></trkpt><trkpt lat="43.3674117" lon="11.7857967"><ele>280.0</ele><time>2026-04-30T16:06:48.521Z</time></trkpt><trkpt lat="43.367505" lon="11.7858417"><ele>279.6</ele><time>2026-04-30T16:06:50.521Z</time></trkpt><trkpt lat="43.3676017" lon="11.7858817"><ele>279.2</ele><time>2026-04-30T16:06:52.521Z</time></trkpt><trkpt lat="43.3676983" lon="11.78592"><ele>278.8</ele><time>2026-04-30T16:06:54.519Z</time></trkpt><trkpt lat="43.3677967" lon="11.7859533"><ele>278.4</ele><time>2026-04-30T16:06:56.521Z</time></trkpt><trkpt lat="43.3678967" lon="11.7859767"><ele>278.0</ele><time>2026-04-30T16:06:58.521Z</time></trkpt><trkpt lat="43.368" lon="11.7860017"><ele>278.0</ele><time>2026-04-30T16:07:00.52Z</time></trkpt><trkpt lat="43.3680983" lon="11.7860283"><ele>278.0</ele><time>2026-04-30T16:07:02.527Z</time></trkpt><trkpt lat="43.3682017" lon="11.786045"><ele>278.0</ele><time>2026-04-30T16:07:04.519Z</time></trkpt><trkpt lat="43.3683017" lon="11.7860633"><ele>278.0</ele><time>2026-04-30T16:07:06.522Z</time></trkpt><trkpt lat="43.3684033" lon="11.7860817"><ele>278.0</ele><time>2026-04-30T16:07:08.522Z</time></trkpt><trkpt lat="43.368505" lon="11.7860983"><ele>278.0</ele><time>2026-04-30T16:07:10.519Z</time></trkpt><trkpt lat="43.3686017" lon="11.7861233"><ele>278.0</ele><time>2026-04-30T16:07:12.52Z</time></trkpt><trkpt lat="43.3687" lon="11.7861467"><ele>278.0</ele><time>2026-04-30T16:07:14.524Z</time></trkpt><trkpt lat="43.368795" lon="11.7861733"><ele>278.0</ele><time>2026-04-30T16:07:16.521Z</time></trkpt><trkpt lat="43.3688917" lon="11.786195"><ele>278.0</ele><time>2026-04-30T16:07:18.521Z</time></trkpt><trkpt lat="43.3689883" lon="11.7862167"><ele>277.8</ele><time>2026-04-30T16:07:20.521Z</time></trkpt><trkpt lat="43.369085" lon="11.78624"><ele>277.6</ele><time>2026-04-30T16:07:22.519Z</time></trkpt><trkpt lat="43.3691867" lon="11.7862617"><ele>277.4</ele><time>2026-04-30T16:07:24.518Z</time></trkpt><trkpt lat="43.3692917" lon="11.78629"><ele>277.2</ele><time>2026-04-30T16:07:26.522Z</time></trkpt><trkpt lat="43.3693967" lon="11.78631"><ele>277.0</ele><time>2026-04-30T16:07:28.523Z</time></trkpt><trkpt lat="43.3694967" lon="11.7863333"><ele>277.0</ele><time>2026-04-30T16:07:30.52Z</time></trkpt><trkpt lat="43.369595" lon="11.7863617"><ele>277.0</ele><time>2026-04-30T16:07:32.529Z</time></trkpt><trkpt lat="43.369695" lon="11.78639"><ele>277.0</ele><time>2026-04-30T16:07:34.517Z</time></trkpt><trkpt lat="43.3697983" lon="11.786425"><ele>277.0</ele><time>2026-04-30T16:07:36.522Z</time></trkpt><trkpt lat="43.3699" lon="11.7864633"><ele>277.0</ele><time>2026-04-30T16:07:38.523Z</time></trkpt><trkpt lat="43.369995" lon="11.78651"><ele>277.2</ele><time>2026-04-30T16:07:40.521Z</time></trkpt><trkpt lat="43.3700883" lon="11.78656"><ele>277.4</ele><time>2026-04-30T16:07:42.521Z</time></trkpt><trkpt lat="43.3701867" lon="11.7866117"><ele>277.6</ele><time>2026-04-30T16:07:44.52Z</time></trkpt><trkpt lat="43.3702883" lon="11.78666"><ele>277.8</ele><time>2026-04-30T16:07:46.522Z</time></trkpt><trkpt lat="43.370385" lon="11.78671"><ele>278.0</ele><time>2026-04-30T16:07:48.519Z</time></trkpt><trkpt lat="43.3704883" lon="11.78676"><ele>277.8</ele><time>2026-04-30T16:07:50.522Z</time></trkpt><trkpt lat="43.37059" lon="11.786805"><ele>277.6</ele><time>2026-04-30T16:07:52.522Z</time></trkpt><trkpt lat="43.3706883" lon="11.786855"><ele>277.4</ele><time>2026-04-30T16:07:54.522Z</time></trkpt><trkpt lat="43.3707883" lon="11.7868933"><ele>277.2</ele><time>2026-04-30T16:07:56.521Z</time></trkpt><trkpt lat="43.370895" lon="11.7869117"><ele>277.0</ele><time>2026-04-30T16:07:58.523Z</time></trkpt><trkpt lat="43.3710067" lon="11.7869183"><ele>276.8</ele><time>2026-04-30T16:08:00.52Z</time></trkpt><trkpt lat="43.371115" lon="11.7869317"><ele>276.6</ele><time>2026-04-30T16:08:02.52Z</time></trkpt><trkpt lat="43.3712233" lon="11.7869433"><ele>276.40000000000003</ele><time>2026-04-30T16:08:04.519Z</time></trkpt><trkpt lat="43.37133" lon="11.7869567"><ele>276.2</ele><time>2026-04-30T16:08:06.519Z</time></trkpt><trkpt lat="43.3714367" lon="11.786975"><ele>276.0</ele><time>2026-04-30T16:08:08.519Z</time></trkpt><trkpt lat="43.3715367" lon="11.787005"><ele>276.40000000000003</ele><time>2026-04-30T16:08:10.523Z</time></trkpt><trkpt lat="43.3716367" lon="11.78702"><ele>276.8</ele><time>2026-04-30T16:08:12.521Z</time></trkpt><trkpt lat="43.3717383" lon="11.787035"><ele>277.20000000000005</ele><time>2026-04-30T16:08:14.52Z</time></trkpt><trkpt lat="43.3718483" lon="11.7870483"><ele>277.6</ele><time>2026-04-30T16:08:16.521Z</time></trkpt><trkpt lat="43.371955" lon="11.7870567"><ele>278.0</ele><time>2026-04-30T16:08:18.519Z</time></trkpt><trkpt lat="43.3720683" lon="11.7870683"><ele>278.0</ele><time>2026-04-30T16:08:20.518Z</time></trkpt><trkpt lat="43.3721867" lon="11.7870717"><ele>278.0</ele><time>2026-04-30T16:08:22.519Z</time></trkpt><trkpt lat="43.3723" lon="11.7870783"><ele>278.0</ele><time>2026-04-30T16:08:24.521Z</time></trkpt><trkpt lat="43.3724083" lon="11.7870917"><ele>278.0</ele><time>2026-04-30T16:08:26.522Z</time></trkpt><trkpt lat="43.3725133" lon="11.7871067"><ele>278.0</ele><time>2026-04-30T16:08:28.521Z</time></trkpt><trkpt lat="43.3726133" lon="11.78712"><ele>277.6</ele><time>2026-04-30T16:08:30.519Z</time></trkpt><trkpt lat="43.372715" lon="11.7871267"><ele>277.20000000000005</ele><time>2026-04-30T16:08:32.521Z</time></trkpt><trkpt lat="43.3728167" lon="11.7871433"><ele>276.8</ele><time>2026-04-30T16:08:34.518Z</time></trkpt><trkpt lat="43.3729267" lon="11.7871583"><ele>276.40000000000003</ele><time>2026-04-30T16:08:36.519Z</time></trkpt><trkpt lat="43.3730317" lon="11.7871767"><ele>276.0</ele><time>2026-04-30T16:08:38.52Z</time></trkpt><trkpt lat="43.373145" lon="11.7871933"><ele>275.75</ele><time>2026-04-30T16:08:40.519Z</time></trkpt><trkpt lat="43.3732567" lon="11.7872083"><ele>275.5</ele><time>2026-04-30T16:08:42.52Z</time></trkpt><trkpt lat="43.3733733" lon="11.787215"><ele>275.25</ele><time>2026-04-30T16:08:44.521Z</time></trkpt><trkpt lat="43.3734833" lon="11.78723"><ele>275.0</ele><time>2026-04-30T16:08:46.52Z</time></trkpt><trkpt lat="43.373595" lon="11.7872467"><ele>275.0</ele><time>2026-04-30T16:08:48.52Z</time></trkpt><trkpt lat="43.3737067" lon="11.7872633"><ele>275.0</ele><time>2026-04-30T16:08:50.519Z</time></trkpt><trkpt lat="43.3738217" lon="11.7872783"><ele>275.0</ele><time>2026-04-30T16:08:52.52Z</time></trkpt><trkpt lat="43.37394" lon="11.7872917"><ele>275.0</ele><time>2026-04-30T16:08:54.524Z</time></trkpt><trkpt lat="43.37405" lon="11.7873067"><ele>275.2</ele><time>2026-04-30T16:08:56.521Z</time></trkpt><trkpt lat="43.37416" lon="11.7873217"><ele>275.4</ele><time>2026-04-30T16:08:58.521Z</time></trkpt><trkpt lat="43.3742717" lon="11.78734"><ele>275.6</ele><time>2026-04-30T16:09:00.521Z</time></trkpt><trkpt lat="43.37438" lon="11.787355"><ele>275.8</ele><time>2026-04-30T16:09:02.52Z</time></trkpt><trkpt lat="43.3744867" lon="11.7873667"><ele>276.0</ele><time>2026-04-30T16:09:04.519Z</time></trkpt><trkpt lat="43.37459" lon="11.7873683"><ele>275.8</ele><time>2026-04-30T16:09:06.519Z</time></trkpt><trkpt lat="43.3746933" lon="11.7873483"><ele>275.6</ele><time>2026-04-30T16:09:08.52Z</time></trkpt><trkpt lat="43.3747917" lon="11.7873033"><ele>275.4</ele><time>2026-04-30T16:09:10.521Z</time></trkpt><trkpt lat="43.3748883" lon="11.7872367"><ele>275.2</ele><time>2026-04-30T16:09:12.518Z</time></trkpt><trkpt lat="43.37498" lon="11.7871533"><ele>275.0</ele><time>2026-04-30T16:09:14.52Z</time></trkpt><trkpt lat="43.3750633" lon="11.7870583"><ele>275.0</ele><time>2026-04-30T16:09:16.522Z</time></trkpt><trkpt lat="43.3751417" lon="11.7869583"><ele>275.0</ele><time>2026-04-30T16:09:18.521Z</time></trkpt><trkpt lat="43.37522" lon="11.7868617"><ele>275.0</ele><time>2026-04-30T16:09:20.519Z</time></trkpt><trkpt lat="43.3753017" lon="11.786765"><ele>275.0</ele><time>2026-04-30T16:09:22.52Z</time></trkpt><trkpt lat="43.3753783" lon="11.7866817"><ele>275.0</ele><time>2026-04-30T16:09:24.518Z</time></trkpt><trkpt lat="43.3754983" lon="11.7866417"><ele>275.0</ele><time>2026-04-30T16:09:26.522Z</time></trkpt><trkpt lat="43.3755517" lon="11.7867467"><ele>275.0</ele><time>2026-04-30T16:09:28.52Z</time></trkpt><trkpt lat="43.375525" lon="11.7868733"><ele>275.0</ele><time>2026-04-30T16:09:30.52Z</time></trkpt><trkpt lat="43.3755" lon="11.7869817"><ele>275.0</ele><time>2026-04-30T16:09:32.52Z</time></trkpt><trkpt lat="43.3754833" lon="11.787085"><ele>275.0</ele><time>2026-04-30T16:09:34.52Z</time></trkpt><trkpt lat="43.3754633" lon="11.7871917"><ele>275.0</ele><time>2026-04-30T16:09:36.519Z</time></trkpt><trkpt lat="43.3754583" lon="11.7872867"><ele>275.0</ele><time>2026-04-30T16:09:38.52Z</time></trkpt><trkpt lat="43.3754683" lon="11.78738"><ele>275.0</ele><time>2026-04-30T16:09:40.521Z</time></trkpt><trkpt lat="43.3754767" lon="11.7874933"><ele>275.0</ele><time>2026-04-30T16:09:43.519Z</time></trkpt><trkpt lat="43.375525" lon="11.78755"><ele>275.0</ele><time>2026-04-30T16:09:46.519Z</time></trkpt><trkpt lat="43.3755883" lon="11.787635"><ele>275.0</ele><time>2026-04-30T16:10:12.518Z</time></trkpt><trkpt lat="43.37565" lon="11.7876883"><ele>275.0</ele><time>2026-04-30T16:10:15.524Z</time></trkpt><trkpt lat="43.3757133" lon="11.787725"><ele>275.0</ele><time>2026-04-30T16:10:18.521Z</time></trkpt><trkpt lat="43.3757867" lon="11.7877467"><ele>272.0</ele><time>2026-04-30T16:10:22.519Z</time></trkpt><trkpt lat="43.3758667" lon="11.787765"><ele>272.0</ele><time>2026-04-30T16:10:26.519Z</time></trkpt><trkpt lat="43.3759417" lon="11.787795"><ele>272.0</ele><time>2026-04-30T16:10:29.521Z</time></trkpt><trkpt lat="43.3760133" lon="11.78784"><ele>272.0</ele><time>2026-04-30T16:10:32.52Z</time></trkpt><trkpt lat="43.3759567" lon="11.787885"><ele>272.0</ele><time>2026-04-30T16:10:48.52Z</time></trkpt><trkpt lat="43.3759267" lon="11.7879617"><ele>272.0</ele><time>2026-04-30T16:12:02.527Z</time></trkpt></trkseg></trk></gpx>